El Austral — — position and weather

sailwx.info

Track history (hours):
 
Tides and Currents Weather Stations Pressure Air Temp Water Temp Dewpoint Dewpoint Depression Visibility Wind Speed Wind Dir Waves Ship Positions

Oceanographic research ship El Austral (Argentina)

Operator: St Marys Boatmen Association

Detailed information on ship capabilities available from University of Delaware's Ocean Information Center.

Last reported at 2018-Jan-23 19:00 UTC. Time now 2018-Jan-23 19:27 UTC.
Position N 01°16' E 103°57'.

MMSI: 19017.

AWS

Date/timePositionNaut miles runAvg speedWind from/ knotsBaromVisibWave heightAir tempDewpointWater temp
2018-Jan-23 19:00N 01°16' E 103°57'896816142801.0
2018-Jan-23 19:00S 23°57' W 046°18'64713328049.9
2018-Jan-23 19:00N 63°13' E 021°09'453516324946.2
2018-Jan-23 19:00N 32°05' W 081°05'39542372268.2
2018-Jan-23 19:00S 23°57' W 046°19'36292612749.6
2018-Jan-23 19:00N 28°04' W 015°25'34583112012.3
2018-Jan-23 19:00N 26°07' W 080°06'8181473137.2
2018-Jan-23 19:00N 29°33' W 095°02'82662479762.5
2018-Jan-23 19:00S 38°20' E 144°44'85832207011.7
2018-Jan-23 19:00N 37°55' E 023°42'7552717000.7
2018-Jan-23 19:00N 44°44' E 037°47'277142515.9
2018-Jan-23 18:59N 46°56' E 031°57'47871325496.6
2018-Jan-23 18:59N 38°58' W 076°29'1229368602.1
2018-Jan-23 18:59N 27°54' W 097°08'14105075605.4
2018-Jan-23 18:59N 37°52' W 122°29'72361085447.8
2018-Jan-23 18:59N 44°44' E 037°47'27718840.4
2018-Jan-23 18:58N 46°56' E 031°57'556310012614.7
2018-Jan-23 18:58N 25°48' W 080°09'55656677604.4
2018-Jan-23 18:58N 46°50' E 031°57'4877877855.7
2018-Jan-23 18:57N 36°53' W 076°22'48775852073.2
2018-Jan-23 18:57N 46°50' E 031°57'1618215667.2
2018-Jan-23 18:57N 36°30' W 001°23'1199130808.7
2018-Jan-23 18:56N 37°56' E 023°39'1439235543.4
2018-Jan-23 18:56N 50°09' W 005°05'4581119514.8
2018-Jan-23 18:54N 49°17' W 123°10'528974955.5
2018-Jan-23 18:49N 41°00' E 001°14'294934.7
2018-Jan-23 18:30N 36°31' W 001°17'541019477780.0
2018-Jan-23 18:30N 49°17' W 123°08'62877544807.6
2018-Jan-23 18:30S 23°57' W 046°18'62623757176.1
2018-Jan-23 18:30N 46°50' E 031°57'55471174732.7
2018-Jan-23 18:30N 26°07' W 080°06'8182946270.1
2018-Jan-23 18:30N 29°33' W 095°02'60747288675.9
2018-Jan-23 18:30N 46°56' E 031°57'62653759173.2
2018-Jan-23 18:30S 23°56' W 046°19'98508865258.9
2018-Jan-23 18:30S 38°20' E 144°44'85832376781.8
2018-Jan-23 18:30N 37°55' E 023°42'755452835.7
2018-Jan-23 18:29N 44°44' E 037°47'756226810.4
2018-Jan-23 18:29N 37°56' E 023°39'61131571934.6
2018-Jan-23 18:29N 27°54' W 097°08'6600880044.7
2018-Jan-23 18:29N 44°44' E 037°47'27719579.5
2018-Jan-23 18:28N 46°56' E 031°57'55635006303.1
2018-Jan-23 18:28N 25°48' W 080°09'556520032796.2
2018-Jan-23 18:28N 46°50' E 031°57'4801785554.3
2018-Jan-23 18:27N 01°17' E 103°60'78672022822.0
2018-Jan-23 18:27N 37°47' W 122°23'2161152506.3
2018-Jan-23 18:26N 38°58' W 076°29'3126625169.3
2018-Jan-23 18:26N 50°09' W 005°05'5120106543.4
2018-Jan-23 18:23N 37°52' W 122°29'222814476.5
2018-Jan-23 18:14N 36°47' W 075°49'362639924.1
2018-Jan-23 18:08N 40°45' E 001°33'28638147.2
2018-Jan-23 18:08N 43°28' W 003°45'152519964.0
2018-Jan-23 18:03N 46°57' E 031°59'136929165.6
2018-Jan-23 18:01N 40°49' E 001°30'621111179071.9
2018-Jan-23 18:00N 01°18' E 104°00'561120198986.9
2018-Jan-23 18:00N 63°13' E 021°09'45352040619.9
2018-Jan-23 18:00N 32°05' W 081°05'53119558972.5
2018-Jan-23 18:00N 46°50' E 031°57'626222543041.3
2018-Jan-23 18:00S 23°57' W 046°18'58522106880.2
2018-Jan-23 18:00N 37°47' W 122°23'68653530563.7
2018-Jan-23 18:00N 46°56' E 031°57'1507319189.4
2018-Jan-23 18:00N 43°31' W 003°23'1774912549.2
2018-Jan-23 18:00N 44°44' E 037°47'756160100.7
2018-Jan-23 17:59N 37°56' E 023°39'69191779076.7
2018-Jan-23 17:59N 37°52' W 122°29'58571622014.4
2018-Jan-23 17:59S 23°55' W 046°20'6266341791.0
2018-Jan-23 17:58N 46°56' E 031°57'64631.2
2018-Jan-23 17:58N 46°50' E 031°57'8465609491.0
2018-Jan-23 17:57S 38°20' E 144°45'140601406028.0
2018-Jan-23 17:56N 38°58' W 076°29'1229368600.6
2018-Jan-23 17:56N 27°54' W 097°08'44942311093.8
2018-Jan-23 17:56N 50°09' W 005°05'38401063292.3
2018-Jan-23 17:56N 25°48' W 080°09'58881766409.4
2018-Jan-23 17:56N 44°44' E 037°47'2761631.1
2018-Jan-23 17:45N 46°57' E 031°59'6075109899.9
2018-Jan-23 17:42N 29°33' W 095°02'742044006.6
2018-Jan-23 17:32N 31°28' E 121°26'206879205.9
2018-Jan-23 17:30N 01°18' E 104°03'48038644729.5
2018-Jan-23 17:30N 46°50' E 031°57'531119117928.5
2018-Jan-23 17:30N 32°05' W 081°05'45354081239.9
2018-Jan-23 17:30N 63°13' E 021°09'14675282767.0
2018-Jan-23 17:30N 43°29' W 003°03'47862461383.7
2018-Jan-23 17:30S 23°57' W 046°18'585221068802.1
2018-Jan-23 17:30N 37°47' W 122°23'68658237976.0
2018-Jan-23 17:30N 46°56' E 031°57'62151598236.5
2018-Jan-23 17:30N 49°17' W 123°08'24841117718.3
2018-Jan-23 17:30N 25°48' W 080°09'53424808205.1
2018-Jan-23 17:30N 37°55' E 023°42'755301889.0
2018-Jan-23 17:29N 44°44' E 037°47'756302412.4
2018-Jan-23 17:29N 37°56' E 023°39'47065646614.5
2018-Jan-23 17:29N 38°58' W 076°29'1229368598.6
2018-Jan-23 17:29N 27°54' W 097°08'44942022205.2
2018-Jan-23 17:29N 50°09' W 005°05'103999359030.8
2018-Jan-23 17:29S 38°20' E 144°45'81181623539.4
2018-Jan-23 17:29N 44°44' E 037°47'27721707.5
2018-Jan-23 17:28N 46°56' E 031°57'63859.3
2018-Jan-23 17:28N 46°50' E 031°57'4264194298.1
2018-Jan-23 17:26N 31°29' E 121°26'574296138.9
2018-Jan-23 17:23N 37°52' W 122°29'22308284.9
2018-Jan-23 17:07N 36°47' W 075°46'10421102502.7
2018-Jan-23 17:01N 01°18' E 104°06'658911860398.2
2018-Jan-23 17:00N 50°10' W 005°05'11662099043.1
2018-Jan-23 17:00N 63°13' E 021°09'14761328844.4
2018-Jan-23 17:00N 43°25' W 003°20'59827178569.0
2018-Jan-23 17:00N 31°30' E 121°23'42617669063.2
2018-Jan-23 17:00N 46°50' E 031°57'55471331363.7
2018-Jan-23 17:00N 26°07' W 080°06'8182946276.8
2018-Jan-23 17:00N 29°33' W 095°02'10351242213.0
2018-Jan-23 17:00N 36°53' W 076°22'2181713722.3
2018-Jan-23 17:00N 49°17' W 123°08'2484993526.5
2018-Jan-23 17:00N 25°48' W 080°09'534219232820.4
2018-Jan-23 17:00N 37°55' E 023°42'755339625.1
2018-Jan-23 17:00N 44°44' E 037°47'756209361.4
2018-Jan-23 16:59N 37°56' E 023°39'61131467141.4
2018-Jan-23 16:59N 27°54' W 097°08'625711261886.9
2018-Jan-23 16:59N 46°56' E 031°57'68652246570.6
2018-Jan-23 16:59N 37°52' W 122°29'71683.4
2018-Jan-23 16:59N 37°47' W 122°23'72375210416.9
2018-Jan-23 16:59N 44°44' E 037°47'64505805322.0
2018-Jan-23 16:58S 23°57' W 046°18'6262490083.2
2018-Jan-23 16:58N 46°50' E 031°57'8465609491.3
2018-Jan-23 16:57S 38°20' E 144°45'140601406028.6
2018-Jan-23 16:56N 38°58' W 076°29'4786191447.8
2018-Jan-23 16:55N 46°56' E 031°57'1205.9
2018-Jan-23 16:54N 46°57' E 031°59'1028.8
2018-Jan-23 16:33N 46°46' E 031°57'105431102.8
2018-Jan-23 16:30N 63°13' E 021°09'45351813884.4
2018-Jan-23 16:30N 32°05' W 081°05'1032512390030.3
2018-Jan-23 16:30N 31°30' E 121°22'53852153930.0
2018-Jan-23 16:30N 49°17' W 123°08'24714447520.9
2018-Jan-23 16:30N 26°07' W 080°06'36241449578.7
2018-Jan-23 16:30S 23°57' W 046°18'3609721877.5
2018-Jan-23 16:30N 25°48' W 080°09'53429616410.2
2018-Jan-23 16:30N 37°55' E 023°42'755452835.7
2018-Jan-23 16:30N 44°44' E 037°47'756247429.6
2018-Jan-23 16:29N 37°56' E 023°39'6919803454.0
2018-Jan-23 16:29N 37°52' W 122°29'71965.2
2018-Jan-23 16:29N 37°47' W 122°23'512018431959.0
2018-Jan-23 16:29N 50°09' W 005°05'17691592379.0
2018-Jan-23 16:29N 44°44' E 037°47'44911010392.3
2018-Jan-23 16:28N 01°16' E 103°59'4803557763.0
2018-Jan-23 16:28N 46°56' E 031°57'65789.0
2018-Jan-23 16:28N 46°50' E 031°57'6077560946.9
2018-Jan-23 16:27N 29°33' W 095°02'82662705137.7
2018-Jan-23 16:27S 38°20' E 144°45'84641692719.5
2018-Jan-23 16:27N 46°46' E 031°57'47911014605.3
2018-Jan-23 16:26N 38°58' W 076°29'478758620.7
2018-Jan-23 16:21N 46°57' E 031°59'485032151.8
2018-Jan-23 16:12N 36°52' W 075°46'404920446.1
2018-Jan-23 16:00S 23°57' W 046°18'39542033431.7
2018-Jan-23 16:00N 32°05' W 081°05'2174652168.4
2018-Jan-23 16:00N 49°17' W 123°08'17601267104.3
2018-Jan-23 16:00N 29°33' W 095°02'14924332.3
2018-Jan-23 16:00N 27°54' W 097°08'66005940309.3
2018-Jan-23 16:00N 44°44' E 037°47'756151205.6
2018-Jan-23 15:59N 37°56' E 023°39'4740853116.2
2018-Jan-23 15:59N 36°53' W 075°48'139807189528.3
2018-Jan-23 15:59S 38°20' E 144°45'72041729057.1
2018-Jan-23 15:59N 37°47' W 122°23'72375210421.2
2018-Jan-23 15:59N 44°44' E 037°47'1769176929.9
2018-Jan-23 15:58N 50°09' W 005°05'51204608004.7
2018-Jan-23 15:58N 37°52' W 122°29'68644942297.1
2018-Jan-23 15:58N 46°56' E 031°57'611578.0
2018-Jan-23 15:58N 46°50' E 031°57'67561.5
2018-Jan-23 15:58N 46°56' E 031°57'61078.5
2018-Jan-23 15:57N 46°50' E 031°57'42607668822.2
2018-Jan-23 15:57N 31°30' E 121°22'10616979978.5
2018-Jan-23 15:57N 25°48' W 080°09'811121721.5
2018-Jan-23 15:56N 38°58' W 076°29'79221605.8
2018-Jan-23 15:54N 26°07' W 080°06'24716281.8
2018-Jan-23 15:30N 49°17' W 123°08'2174978254.4
2018-Jan-23 15:30N 32°05' W 081°05'39543558503.8
2018-Jan-23 15:30S 23°57' W 046°18'89722484478.1
2018-Jan-23 15:30N 01°17' E 104°01'658611854291.9
2018-Jan-23 15:30N 50°09' W 005°05'11661049527.9
2018-Jan-23 15:30N 63°13' E 021°09'4881976257.9
2018-Jan-23 15:30N 25°48' W 080°09'9183306015.7
2018-Jan-23 15:30N 27°54' W 097°08'66007920402.4
2018-Jan-23 15:30N 44°44' E 037°47'8118541179.0
2018-Jan-23 15:29S 38°20' E 144°45'72046483957.5
2018-Jan-23 15:29N 37°47' W 122°23'6865484574.2
2018-Jan-23 15:28N 46°56' E 031°57'67725.9
2018-Jan-23 15:28N 46°50' E 031°57'64828809.7
2018-Jan-23 15:26N 37°56' E 023°39'47062823305.4
2018-Jan-23 15:26N 38°58' W 076°29'5119400617.2
2018-Jan-23 15:25N 44°44' E 037°47'7236704074.8
2018-Jan-23 15:25N 37°52' W 122°29'2269170152.1
2018-Jan-23 15:24N 26°07' W 080°06'1059872392.9
2018-Jan-23 15:15N 31°30' E 121°22'425721433.3
2018-Jan-23 15:03N 46°57' E 031°59'6268127476.0
2018-Jan-23 15:00S 23°57' W 046°18'39542846800.7
2018-Jan-23 15:00N 32°05' W 081°05'531119117961.9
2018-Jan-23 15:00N 46°50' E 031°57'622222397411.8
2018-Jan-23 15:00N 49°17' W 123°08'77615588091.7
2018-Jan-23 15:00N 01°17' E 104°01'480417292737.6
2018-Jan-23 15:00N 46°56' E 031°57'1045250687.5
2018-Jan-23 15:00N 63°13' E 021°09'4881976258.6
2018-Jan-23 15:00N 25°48' W 080°09'58887065652.0
2018-Jan-23 15:00N 44°44' E 037°47'756209363.5
2018-Jan-23 14:59N 37°56' E 023°39'6918529878.8
2018-Jan-23 14:59N 37°47' W 122°23'7524.4
2018-Jan-23 14:58N 37°52' W 122°29'68644118586.5
2018-Jan-23 14:58N 46°56' E 031°57'84694355273.6
2018-Jan-23 14:58S 38°20' E 144°45'84671693458.5
2018-Jan-23 14:57N 46°57' E 031°59'6258523901.5
2018-Jan-23 14:57N 27°54' W 097°08'1229201054.9
2018-Jan-23 14:56N 38°58' W 076°29'5119409519.5
2018-Jan-23 14:55N 44°44' E 037°47'4025198491.3
2018-Jan-23 14:54N 31°30' E 121°22'105983179253.0
2018-Jan-23 14:54N 26°07' W 080°06'382372828.1
2018-Jan-23 14:51N 50°09' W 005°05'458013417.0
2018-Jan-23 14:30N 49°17' W 123°08'62222799676.5
2018-Jan-23 14:30N 46°50' E 031°57'531119117961.9
2018-Jan-23 14:30N 32°05' W 081°05'53084777378.7
2018-Jan-23 14:30N 46°56' E 031°57'62575631023.1
2018-Jan-23 14:30N 27°54' W 097°08'2179603444.5
2018-Jan-23 14:30N 14°26' W 060°58'1277242048.1
2018-Jan-23 14:30N 25°48' W 080°09'58887065646.2
2018-Jan-23 14:30N 44°44' E 037°47'64501290070.9
2018-Jan-23 14:29S 23°57' W 046°18'5057827535.3
2018-Jan-23 14:29N 50°09' W 005°05'5120970102.6
2018-Jan-23 14:29N 37°47' W 122°23'72372894676.6
2018-Jan-23 14:28N 44°44' E 037°47'27522468.2
2018-Jan-23 14:28N 46°50' E 031°57'8465586048.5
2018-Jan-23 14:27S 38°20' E 144°45'3319746716.6
2018-Jan-23 14:27N 01°18' E 104°03'50481068979.9
2018-Jan-23 14:26N 37°56' E 023°39'47068469921.8
2018-Jan-23 14:26N 38°58' W 076°29'4786189343.9
2018-Jan-23 14:25N 46°56' E 031°57'4258589632.3
2018-Jan-23 14:24N 31°30' E 121°22'207726998.5
2018-Jan-23 14:20N 01°14' E 103°50'7872578327.3
2018-Jan-23 14:19N 37°52' W 122°29'145812769.2
2018-Jan-23 14:12N 29°33' W 095°02'6078105202.3
2018-Jan-23 14:09N 46°46' E 031°57'479435660.0
2018-Jan-23 14:00N 01°15' E 103°51'560710091942.1
2018-Jan-23 14:00N 63°13' E 021°09'1166839627.1
2018-Jan-23 14:00N 50°09' W 005°05'36036484950.6
2018-Jan-23 14:00N 32°05' W 081°05'531119117918.8
2018-Jan-23 14:00N 46°50' E 031°57'42607668827.5
2018-Jan-23 14:00N 31°30' E 121°22'1057612690720.6
2018-Jan-23 14:00S 23°57' W 046°18'6266751914.5
2018-Jan-23 14:00N 46°56' E 031°57'55632860811.0
2018-Jan-23 14:00N 25°48' W 080°09'53429616410.2
2018-Jan-23 14:00N 37°55' E 023°42'755339626.8
2018-Jan-23 13:59N 44°44' E 037°47'659023724310.3
2018-Jan-23 13:59N 49°17' W 123°08'64132886009.4
2018-Jan-23 13:59N 37°56' E 023°39'6918607422.4
2018-Jan-23 13:59N 37°47' W 122°23'723713026052.9
2018-Jan-23 13:59N 44°44' E 037°47'5461517324.2
2018-Jan-23 13:58N 14°27' W 060°55'36012160858.8
2018-Jan-23 13:58N 37°52' W 122°29'68644942304.5
2018-Jan-23 13:58N 46°56' E 031°57'67718.7
2018-Jan-23 13:58N 46°50' E 031°57'84653386059.8
2018-Jan-23 13:58S 38°20' E 144°45'81001267795.4
2018-Jan-23 13:57N 27°54' W 097°08'6261593136.8
2018-Jan-23 13:57N 46°46' E 031°57'4791907804.7
2018-Jan-23 13:56N 38°58' W 076°29'1255351.9
2018-Jan-23 13:55N 36°53' W 076°22'487583571.5
2018-Jan-23 13:51N 46°57' E 031°59'6075109900.0
2018-Jan-23 13:48N 29°33' W 095°02'8366068.3
2018-Jan-23 13:40N 25°40' W 079°56'249816087.8
2018-Jan-23 13:30N 49°17' W 123°08'776513977031.0
2018-Jan-23 13:30N 01°17' E 103°57'658311849090.6
2018-Jan-23 13:30N 50°09' W 005°05'360312969901.2
2018-Jan-23 13:30N 32°05' W 081°05'871261294.5
2018-Jan-23 13:30N 27°54' W 097°08'1182472994.6
2018-Jan-23 13:30N 36°53' W 076°22'15851426088.8
2018-Jan-23 13:30N 14°28' W 060°53'124795615561.7
2018-Jan-23 13:30S 38°20' E 144°44'98498864232.5
2018-Jan-23 13:30S 23°57' W 046°18'626622557434.9
2018-Jan-23 13:30N 46°56' E 031°57'653470275.7
2018-Jan-23 13:30N 37°55' E 023°42'534219232802.2
2018-Jan-23 13:30N 25°48' W 080°09'58882355213.5
2018-Jan-23 13:29N 44°44' E 037°47'756247427.1
2018-Jan-23 13:29N 37°56' E 023°39'533419202687.9
2018-Jan-23 13:29N 25°40' W 079°57'8171470953.4
2018-Jan-23 13:29N 38°58' W 076°29'3130512101.6
2018-Jan-23 13:29N 27°55' W 015°24'54251220722.6
2018-Jan-23 13:29N 37°47' W 122°23'72375210421.2
2018-Jan-23 13:29N 44°44' E 037°47'27721707.2
2018-Jan-23 13:28N 46°56' E 031°57'611567.3
2018-Jan-23 13:28N 46°50' E 031°57'71142.3
2018-Jan-23 13:27N 46°57' E 031°59'6943357047.5
2018-Jan-23 13:26N 32°37' W 117°25'6164191292.4
2018-Jan-23 13:24N 31°30' E 121°22'404613425.4
2018-Jan-23 13:06S 27°52' E 153°23'338435825.9
2018-Jan-23 13:01N 01°14' E 103°45'77779332532.1
2018-Jan-23 13:00N 49°17' W 123°08'487217538793.1
2018-Jan-23 13:00N 63°12' E 020°49'646023256287.3
2018-Jan-23 13:00S 23°57' W 046°18'626211271535.3
2018-Jan-23 13:00N 46°50' E 031°57'48778778096.5
2018-Jan-23 13:00N 36°53' W 076°22'371667577.1
2018-Jan-23 13:00N 32°05' W 081°05'103257434018.2
2018-Jan-23 13:00N 31°30' E 121°22'718912940737.4
2018-Jan-23 13:00N 27°14' W 016°02'43145176987.7
2018-Jan-23 13:00N 27°54' W 097°08'6257866293.6
2018-Jan-23 13:00N 46°56' E 031°57'55634005130.6
2018-Jan-23 13:00N 25°48' W 080°09'58883028134.1
2018-Jan-23 13:00N 44°44' E 037°47'756181448.4
2018-Jan-23 12:59N 37°56' E 023°39'85871188936.6
2018-Jan-23 12:59S 38°20' E 144°45'72041995063.8
2018-Jan-23 12:59N 37°47' W 122°23'72374342017.6
2018-Jan-23 12:59N 44°44' E 037°47'27521034.7
2018-Jan-23 12:58N 46°50' E 031°57'47952157837.6
2018-Jan-23 12:58N 01°15' E 103°50'5036287746.1
2018-Jan-23 12:57N 37°55' E 023°42'4709847646.2
2018-Jan-23 12:56N 38°58' W 076°29'3126341002.2
2018-Jan-23 12:56N 50°09' W 005°05'3548319335.2
2018-Jan-23 12:55N 14°28' W 060°52'1271269051.2
2018-Jan-23 12:55N 25°39' W 080°01'4264103719.2
2018-Jan-23 12:52N 39°33' E 002°43'9861144891.6
2018-Jan-23 12:48S 27°52' E 153°23'847087370.5
2018-Jan-23 12:42N 46°57' E 031°59'686549038.5
2018-Jan-23 12:34N 37°52' W 122°29'68611753.1
2018-Jan-23 12:30N 49°17' W 123°08'21811308493.6
2018-Jan-23 12:30N 36°53' W 076°22'487717556203.8
2018-Jan-23 12:30N 46°50' E 031°57'531119117961.9
2018-Jan-23 12:30N 32°05' W 081°05'39543558500.9
2018-Jan-23 12:30S 23°57' W 046°18'359812954315.9
2018-Jan-23 12:30N 25°38' W 080°03'426615358769.3
2018-Jan-23 12:30N 39°33' E 002°43'50326037855.3
2018-Jan-23 12:30N 27°54' W 097°08'14976470.9
2018-Jan-23 12:30N 29°33' W 095°02'60741150842.0
2018-Jan-23 12:30N 46°56' E 031°57'55633337608.8
2018-Jan-23 12:30N 25°48' W 080°09'58882119692.1
2018-Jan-23 12:29N 44°44' E 037°47'4485424905.1
2018-Jan-23 12:29N 01°15' E 103°50'332511970515.0
2018-Jan-23 12:29S 38°20' E 144°45'81182087407.0
2018-Jan-23 12:29N 44°44' E 037°47'27519384.6
2018-Jan-23 12:28N 46°50' E 031°57'4260568029.4
2018-Jan-23 12:27N 31°30' E 121°22'4833404588.0
2018-Jan-23 12:27N 37°55' E 023°42'3716.4
2018-Jan-23 12:26N 37°56' E 023°39'47064234965.1
2018-Jan-23 12:26N 38°58' W 076°29'21425699.7
2018-Jan-23 12:26N 41°12' W 072°51'28922081950.1
2018-Jan-23 12:26N 50°09' W 005°04'3548336144.4
2018-Jan-23 12:25N 14°28' W 060°52'98161104327.3
2018-Jan-23 12:24N 01°17' E 103°46'47911724742.5
2018-Jan-23 12:24N 46°57' E 031°59'686548748.3
2018-Jan-23 12:16N 37°52' W 122°29'591339936.9
2018-Jan-23 12:07S 23°00' W 044°19'635158174.1
2018-Jan-23 12:00N 63°12' E 021°04'15771419650.0
2018-Jan-23 12:00N 39°33' E 002°43'13524865702.1
2018-Jan-23 12:00N 46°50' E 031°57'48778778110.0
2018-Jan-23 12:00N 36°53' W 076°22'98198836873.4
2018-Jan-23 12:00N 31°30' E 121°22'73778852976.1
2018-Jan-23 12:00N 27°54' W 097°08'17701274117.2
2018-Jan-23 12:00N 49°17' W 123°08'777513994107.8
2018-Jan-23 12:00N 01°15' E 103°47'947711372393.7
2018-Jan-23 12:00N 29°33' W 095°02'828212955.6
2018-Jan-23 12:00N 25°38' W 080°06'55686681459.5
2018-Jan-23 12:00N 46°56' E 031°57'55632503207.5
2018-Jan-23 12:00N 25°48' W 080°09'53426410934.1
2018-Jan-23 12:00N 37°55' E 023°42'1443399498.6
2018-Jan-23 11:59N 50°09' W 005°05'14391295491.6
2018-Jan-23 11:59N 37°56' E 023°39'44691462584.5
2018-Jan-23 11:59N 41°15' W 072°55'42181380441.0
2018-Jan-23 11:59S 23°57' W 046°18'89614608735.3
2018-Jan-23 11:59N 01°15' E 103°50'44851076426.4
2018-Jan-23 11:59N 44°44' E 037°47'5457595356.3
2018-Jan-23 11:58N 14°28' W 060°52'36031441123.6
2018-Jan-23 11:58N 37°52' W 122°29'591310643174.0
2018-Jan-23 11:58S 23°00' W 044°19'980035281610.9
2018-Jan-23 11:58S 38°20' E 144°45'84656094905.4
2018-Jan-23 11:58N 46°50' E 031°57'4790193737.3
2018-Jan-23 11:56N 38°58' W 076°29'2161216050.4
2018-Jan-23 11:56N 37°47' W 122°23'6865457654.4
2018-Jan-23 11:55N 46°56' E 031°57'124.2
2018-Jan-23 11:51N 46°57' E 031°59'479624525.8
2018-Jan-23 11:40N 01°15' E 103°50'1044068834.2
2018-Jan-23 11:31N 36°53' W 076°22'21813925487.4
2018-Jan-23 11:30N 49°17' W 123°08'62163729616.7
2018-Jan-23 11:30N 46°57' E 031°59'725211.5
2018-Jan-23 11:30N 46°50' E 031°57'53116372653.8
2018-Jan-23 11:30N 32°05' W 081°05'453516324959.5
2018-Jan-23 11:30N 63°13' E 021°09'10451880493.3
2018-Jan-23 11:30N 46°56' E 031°57'626622556903.1
2018-Jan-23 11:30S 23°57' W 046°18'3602418307.5
2018-Jan-23 11:30N 25°39' W 080°08'95211.0
2018-Jan-23 11:30N 25°48' W 080°09'534219232820.4
2018-Jan-23 11:30N 37°55' E 023°42'4709737082.9
2018-Jan-23 11:29N 38°58' W 076°29'12294423210.5
2018-Jan-23 11:29N 27°54' W 097°08'1404157956.8
2018-Jan-23 11:29N 37°47' W 122°23'72374342014.9
2018-Jan-23 11:29N 44°44' E 037°47'4488850398.7
2018-Jan-23 11:28N 01°16' E 103°55'3322442984.0
2018-Jan-23 11:28S 38°20' E 144°44'84687621635.8
2018-Jan-23 11:28N 46°56' E 031°57'65327036.4
2018-Jan-23 11:26N 37°56' E 023°39'4835143847.3
2018-Jan-23 11:24N 31°30' E 121°22'74231781407.8
2018-Jan-23 11:24N 29°33' W 095°02'145840062.3
2018-Jan-23 11:22N 37°52' W 122°29'58631172610.3
2018-Jan-23 11:22N 39°33' E 002°43'135183851.7
2018-Jan-23 11:21N 46°46' E 031°57'487814586.6
2018-Jan-23 11:01N 36°53' W 076°22'1401216814126.2
2018-Jan-23 11:00S 38°20' E 144°45'1039918718071.8
2018-Jan-23 11:00N 50°09' W 005°05'36034323284.0
2018-Jan-23 11:00N 32°05' W 081°05'53119558975.8
2018-Jan-23 11:00N 46°50' E 031°57'62595633332.0
2018-Jan-23 11:00N 27°54' W 097°08'435515678783.5
2018-Jan-23 11:00S 23°57' W 046°18'89666455681.8
2018-Jan-23 11:00N 01°16' E 103°55'77676990341.6
2018-Jan-23 11:00N 49°17' W 123°08'4882976474.5
2018-Jan-23 11:00N 63°13' E 021°09'10453761019.0
2018-Jan-23 11:00N 46°56' E 031°57'55632002565.3
2018-Jan-23 11:00N 25°48' W 080°09'53429616401.1
2018-Jan-23 11:00N 37°55' E 023°42'3637.6
2018-Jan-23 10:59N 37°56' E 023°39'50396046681.5
2018-Jan-23 10:59N 01°15' E 103°50'4485351008.7
2018-Jan-23 10:58N 44°44' E 037°47'27722694.0
2018-Jan-23 10:58N 46°56' E 031°57'623112.7
2018-Jan-23 10:58N 46°50' E 031°57'4260547742.1
2018-Jan-23 10:57N 31°30' E 121°22'40462913303.1
2018-Jan-23 10:57S 27°52' E 153°23'8468823930.8
2018-Jan-23 10:57N 46°46' E 031°57'4791907806.4
2018-Jan-23 10:56N 38°58' W 076°29'2160210210.8
2018-Jan-23 10:56N 37°47' W 122°23'5862115316.7
2018-Jan-23 10:53N 39°33' E 002°43'4867192552.7
2018-Jan-23 10:51N 29°33' W 095°02'418913217.5
2018-Jan-23 10:32N 27°55' W 015°26'2616100201.4
2018-Jan-23 10:30N 63°13' E 021°09'64717765449.9
2018-Jan-23 10:30S 23°57' W 046°18'62627514352.3
2018-Jan-23 10:30N 46°50' E 031°57'48778778125.9
2018-Jan-23 10:30N 36°53' W 076°22'371667571.8
2018-Jan-23 10:30N 32°05' W 081°05'21747826035.1
2018-Jan-23 10:30N 49°17' W 123°08'17703185286.1
2018-Jan-23 10:30N 27°54' W 097°08'73778852976.1
2018-Jan-23 10:30N 31°30' E 121°22'74232969011.5
2018-Jan-23 10:30N 29°33' W 095°02'82662975649.7
2018-Jan-23 10:30S 38°20' E 144°45'84683810797.0
2018-Jan-23 10:30N 46°56' E 031°57'55632860808.6
2018-Jan-23 10:30N 25°48' W 080°09'53424808200.6
2018-Jan-23 10:30N 37°55' E 023°42'50412268375.6
2018-Jan-23 10:29N 01°15' E 103°56'50442017674.1
2018-Jan-23 10:29N 37°56' E 023°39'47064234958.0
2018-Jan-23 10:29N 38°58' W 076°29'2161204679.4
2018-Jan-23 10:29N 37°47' W 122°23'72372605212.4
2018-Jan-23 10:28N 44°44' E 037°47'4491505207.7
2018-Jan-23 10:28N 01°17' E 103°59'48032161372.8
2018-Jan-23 10:28N 46°56' E 031°57'148338143.9
2018-Jan-23 10:25N 50°09' W 005°05'1486130452.9
2018-Jan-23 10:25N 46°50' E 031°57'6870142129.1
2018-Jan-23 10:22N 37°52' W 122°29'22006192.5
2018-Jan-23 10:01N 36°53' W 076°22'1044812537563.4
2018-Jan-23 10:00N 01°16' E 103°60'561220202990.9
2018-Jan-23 10:00N 63°13' E 021°09'647111648174.8
2018-Jan-23 10:00S 23°57' W 046°18'626222543041.3
2018-Jan-23 10:00N 46°50' E 031°57'53116372654.0
2018-Jan-23 10:00N 32°05' W 081°05'21741956508.8
2018-Jan-23 10:00N 49°17' W 123°08'17703185300.8
2018-Jan-23 10:00N 27°54' W 097°08'81001166372.0
2018-Jan-23 10:00S 38°20' E 144°45'84687621442.8
2018-Jan-23 10:00N 46°56' E 031°57'55632860823.0
2018-Jan-23 10:00N 25°48' W 080°09'53424808200.6
2018-Jan-23 10:00N 37°55' E 023°42'3674.5
2018-Jan-23 09:59N 37°56' E 023°39'47068469922.1
2018-Jan-23 09:59N 38°58' W 076°29'10409960847.8
2018-Jan-23 09:59N 01°16' E 103°52'44852306745.8
2018-Jan-23 09:59N 44°44' E 037°47'1769796184.8
2018-Jan-23 09:58N 50°09' W 005°05'1486148569.3
2018-Jan-23 09:58N 46°50' E 031°57'611567.3
2018-Jan-23 09:58N 46°56' E 031°57'4798557166.7
2018-Jan-23 09:57N 01°15' E 103°51'7876298445.8
2018-Jan-23 09:56N 37°47' W 122°23'5751249430.0
2018-Jan-23 09:54N 31°30' E 121°22'574440944.8
2018-Jan-23 09:46N 37°52' W 122°29'585643109.5
2018-Jan-23 09:38S 23°55' W 046°22'406333854.8
2018-Jan-23 09:30N 36°53' W 076°22'40753667836.0
2018-Jan-23 09:30N 63°13' E 021°09'10511260812.2
2018-Jan-23 09:30N 46°50' E 031°57'53114779486.2
2018-Jan-23 09:30N 32°05' W 081°05'39544744673.9
2018-Jan-23 09:30S 23°57' W 046°18'105769518118.1
2018-Jan-23 09:30N 31°30' E 121°22'53854846202.6
2018-Jan-23 09:30N 49°17' W 123°08'76091611377.5
2018-Jan-23 09:30S 38°20' E 144°45'846810162125.3
2018-Jan-23 09:30N 46°56' E 031°57'48012469226.7
2018-Jan-23 09:30N 01°14' E 103°54'1083819508037.1
2018-Jan-23 09:30N 25°48' W 080°09'108389753880.9
2018-Jan-23 09:30N 01°14' E 103°54'50431067886.7
2018-Jan-23 09:29N 37°56' E 023°39'6918622607.6
2018-Jan-23 09:29N 37°47' W 122°23'58494211534.7
2018-Jan-23 09:29S 23°55' W 046°21'645111611845.2
2018-Jan-23 09:29N 44°44' E 037°47'27523538.5
2018-Jan-23 09:28N 46°50' E 031°57'65783.6
2018-Jan-23 09:28N 46°56' E 031°57'4786191447.7
2018-Jan-23 09:26N 38°58' W 076°29'3126341000.9
2018-Jan-23 09:26N 50°09' W 005°05'4494188112.7
2018-Jan-23 09:24N 27°54' W 097°08'9364370440.7
2018-Jan-23 09:23N 01°15' E 103°58'7863524219.9
2018-Jan-23 09:22N 37°52' W 122°29'6391106028.9
2018-Jan-23 09:18S 27°52' E 153°23'932831590.8
2018-Jan-23 09:01N 63°13' E 021°09'48825858850.7
2018-Jan-23 09:00N 49°17' W 123°08'776927966908.2
2018-Jan-23 09:00N 01°15' E 103°54'56215.5
2018-Jan-23 09:00N 01°14' E 103°49'47968632625.9
2018-Jan-23 09:00N 46°50' E 031°57'53116372648.3
2018-Jan-23 09:00N 32°05' W 081°05'39544744673.9
2018-Jan-23 09:00S 23°57' W 046°18'196.4
2018-Jan-23 09:00S 23°56' W 046°19'62665639050.0
2018-Jan-23 09:00N 46°56' E 031°57'55632002566.0
2018-Jan-23 09:00N 25°48' W 080°09'53429616401.1
2018-Jan-23 09:00N 37°55' E 023°42'1443399497.9
2018-Jan-23 08:59N 50°09' W 005°05'14391036391.4
2018-Jan-23 08:59N 37°56' E 023°39'6918607422.4
2018-Jan-23 08:59N 37°47' W 122°23'72372368373.3
2018-Jan-23 08:58N 44°44' E 037°47'66004752242.8
2018-Jan-23 08:58N 27°54' W 097°08'6260643836.7
2018-Jan-23 08:58N 46°50' E 031°57'623134.4
2018-Jan-23 08:58N 46°56' E 031°57'4786195798.8
2018-Jan-23 08:56N 38°58' W 076°29'14301411859.1
2018-Jan-23 08:54S 27°52' E 153°23'75292710594.6
2018-Jan-23 08:54N 29°33' W 095°02'948024188.2
2018-Jan-23 08:31N 01°11' E 103°46'56086729256.6
2018-Jan-23 08:30N 63°13' E 021°09'10511260813.7
2018-Jan-23 08:30N 46°50' E 031°57'48773511250.4
2018-Jan-23 08:30N 36°53' W 076°22'371667557.6
2018-Jan-23 08:30N 32°05' W 081°05'39542846801.3
2018-Jan-23 08:30S 23°57' W 046°18'1078019403151.2
2018-Jan-23 08:30S 27°52' E 153°23'763130821.9
2018-Jan-23 08:30S 38°20' E 144°45'846830486387.7
2018-Jan-23 08:30N 46°56' E 031°57'621522375310.9
2018-Jan-23 08:30N 49°17' W 123°08'2484993527.4
2018-Jan-23 08:30N 25°48' W 080°09'53424808205.1
2018-Jan-23 08:30N 37°55' E 023°42'3818.8
2018-Jan-23 08:29N 37°56' E 023°39'6918553429.3
2018-Jan-23 08:29N 37°47' W 122°23'1404315912.6
2018-Jan-23 08:28N 27°54' W 097°08'66001033096.3
2018-Jan-23 08:28N 44°44' E 037°47'27598861.5
2018-Jan-23 08:28N 46°50' E 031°57'4790189479.5
2018-Jan-23 08:26N 38°58' W 076°29'418158560.3
2018-Jan-23 08:22S 23°00' W 044°19'4950231451.3
2018-Jan-23 08:21N 50°09' W 005°05'432430048.8
2018-Jan-23 08:12N 29°33' W 095°02'607541816.6
2018-Jan-23 08:03N 46°57' E 031°59'6216129350.8
2018-Jan-23 08:00N 49°17' W 123°08'776713980221.8
2018-Jan-23 08:00N 01°16' E 103°55'47998637367.9
2018-Jan-23 08:00N 46°50' E 031°57'53114779487.9
2018-Jan-23 08:00N 32°05' W 081°05'1417451026153.8
2018-Jan-23 08:00S 38°20' E 144°45'140126305297.3
2018-Jan-23 08:00N 36°53' W 076°22'1035414069.8
2018-Jan-23 08:00N 29°33' W 095°02'52159387166.2
2018-Jan-23 08:00N 63°13' E 021°09'64715824087.4
2018-Jan-23 08:00S 23°57' W 046°18'011.3
2018-Jan-23 08:00S 23°57' W 046°18'62667519161.0
2018-Jan-23 08:00N 46°56' E 031°57'55632002566.0
2018-Jan-23 08:00N 25°48' W 080°09'53424808200.6
2018-Jan-23 08:00N 37°55' E 023°42'3675.2
2018-Jan-23 07:59N 37°56' E 023°39'6918607422.0
2018-Jan-23 07:59N 37°47' W 122°23'1404297328.9
2018-Jan-23 07:58N 27°54' W 097°08'6600990049.1
2018-Jan-23 07:58N 44°44' E 037°47'63183249291.1
2018-Jan-23 07:58S 23°00' W 044°19'613222076001.2
2018-Jan-23 07:58N 46°50' E 031°57'67711.5
2018-Jan-23 07:58N 46°56' E 031°57'1483232176.9
2018-Jan-23 07:57N 50°09' W 005°05'58492105788.1
2018-Jan-23 07:57N 31°30' E 121°23'4262464956.1
2018-Jan-23 07:57N 46°46' E 031°57'4791784013.2
2018-Jan-23 07:56N 38°58' W 076°29'478726232.1
2018-Jan-23 07:45N 46°57' E 031°59'4796107243.4
2018-Jan-23 07:43N 01°15' E 103°50'10170220545.5
2018-Jan-23 07:40N 41°18' W 072°54'4860972003.9
2018-Jan-23 07:40N 44°44' E 037°47'645042843.8
2018-Jan-23 07:31S 23°57' W 046°18'62874526885.0
2018-Jan-23 07:30N 49°17' W 123°08'62227465808.7
2018-Jan-23 07:30N 46°50' E 031°57'47965755479.1
2018-Jan-23 07:30N 01°15' E 103°51'47978634534.7
2018-Jan-23 07:30N 46°57' E 031°59'530919113225.2
2018-Jan-23 07:30N 32°05' W 081°05'107926475252.9
2018-Jan-23 07:30N 01°16' E 103°54'20742488699.3
2018-Jan-23 07:30N 31°30' E 121°23'74223339845.6
2018-Jan-23 07:30N 29°33' W 095°02'10353726628.0
2018-Jan-23 07:30N 36°53' W 076°22'40662927299.6
2018-Jan-23 07:30S 23°57' W 046°18'62663759574.6
2018-Jan-23 07:30N 46°56' E 031°57'55632225072.6
2018-Jan-23 07:30N 25°48' W 080°09'53423205467.0
2018-Jan-23 07:30N 37°55' E 023°42'1521547592.6
2018-Jan-23 07:29N 63°13' E 021°09'1519911651.4
2018-Jan-23 07:29N 37°56' E 023°39'858715456178.4
2018-Jan-23 07:29S 38°20' E 144°45'81181461184.0
2018-Jan-23 07:29N 44°44' E 037°47'72371302607.0
2018-Jan-23 07:29N 37°47' W 122°23'723713026052.9
2018-Jan-23 07:29N 44°44' E 037°47'6318812323.4
2018-Jan-23 07:28S 23°00' W 044°19'61321051238.9
2018-Jan-23 07:28N 46°50' E 031°57'623156.0
2018-Jan-23 07:28N 46°56' E 031°57'4529452917.2
2018-Jan-23 07:27N 41°18' W 072°54'4534494658.7
2018-Jan-23 07:27N 46°46' E 031°57'4791862414.5
2018-Jan-23 07:26N 38°58' W 076°29'122977600.4
2018-Jan-23 07:25N 27°54' W 097°08'9371503540.3
2018-Jan-23 07:24N 01°15' E 103°50'337912165371.2
2018-Jan-23 07:24S 27°52' E 153°23'639122123.3
2018-Jan-23 07:07N 37°52' W 122°29'686963900.6
2018-Jan-23 07:00N 46°50' E 031°57'53116372654.0
2018-Jan-23 07:00N 32°05' W 081°05'39542372334.0
2018-Jan-23 07:00S 23°57' W 046°18'1057612691597.5
2018-Jan-23 07:00N 31°30' E 121°23'981935349942.7
2018-Jan-23 07:00N 36°53' W 076°22'21812616982.3
2018-Jan-23 07:00N 49°17' W 123°08'17601267100.9
2018-Jan-23 07:00N 29°33' W 095°02'946711360796.1
2018-Jan-23 07:00N 01°16' E 103°57'48012160514.2
2018-Jan-23 07:00N 46°56' E 031°57'14835340481.1
2018-Jan-23 07:00N 50°09' W 005°05'1039937436113.9
2018-Jan-23 07:00S 38°20' E 144°45'946434070345.4
2018-Jan-23 07:00N 63°13' E 021°09'37001903071.6
2018-Jan-23 07:00N 41°13' W 072°53'9941788722.7
2018-Jan-23 07:00N 25°48' W 080°09'53424808200.6
2018-Jan-23 07:00N 37°55' E 023°42'75569667.0
2018-Jan-23 06:59N 44°44' E 037°47'0 1.8
2018-Jan-23 06:59N 44°44' E 037°47'44891346614.4
2018-Jan-23 06:58N 01°14' E 103°54'93695621591.2
2018-Jan-23 06:58N 27°54' W 097°08'6260662773.0
2018-Jan-23 06:58N 46°50' E 031°57'611567.1
2018-Jan-23 06:58N 46°56' E 031°57'6136460201.9
2018-Jan-23 06:57S 23°00' W 044°19'61301103377.4
2018-Jan-23 06:57N 46°46' E 031°57'645129051.5
2018-Jan-23 06:56N 37°56' E 023°39'47063387972.1
2018-Jan-23 06:56N 38°58' W 076°29'216160764.2
2018-Jan-23 06:54N 37°47' W 122°23'7174.8
2018-Jan-23 06:52N 37°52' W 122°29'7864615481.8
2018-Jan-23 06:51N 01°16' E 103°57'896826161.9
2018-Jan-23 06:31S 23°57' W 046°18'647111648190.8
2018-Jan-23 06:30N 63°13' E 021°09'48825858846.8
2018-Jan-23 06:30N 49°17' W 123°08'628711317220.0
2018-Jan-23 06:30S 23°57' W 046°18'395414234040.4
2018-Jan-23 06:30N 32°05' W 081°05'675151901.8
2018-Jan-23 06:30N 41°12' W 072°52'23028287922.9
2018-Jan-23 06:30N 37°47' W 122°23'68651372997.0
2018-Jan-23 06:30N 46°56' E 031°57'653180875.3
2018-Jan-23 06:30N 37°55' E 023°42'50392015689.4
2018-Jan-23 06:29N 01°14' E 103°54'4489646366.3
2018-Jan-23 06:29N 44°44' E 037°47'81182656698.1
2018-Jan-23 06:29S 38°20' E 144°45'33202988256.4
2018-Jan-23 06:29N 01°16' E 103°58'104476268050.7
2018-Jan-23 06:29N 36°53' W 076°22'520518738453.0
2018-Jan-23 06:29N 44°44' E 037°47'66001131485.5
2018-Jan-23 06:28N 27°54' W 097°08'1410220678.0
2018-Jan-23 06:28N 37°52' W 122°29'68704121742.6
2018-Jan-23 06:28N 46°50' E 031°57'64626.9
2018-Jan-23 06:28N 46°56' E 031°57'61099.5
2018-Jan-23 06:27N 46°50' E 031°57'712605.8
2018-Jan-23 06:27N 46°57' E 031°59'5564455230.0
2018-Jan-23 06:27N 25°48' W 080°09'556510017896.0
2018-Jan-23 06:27N 46°46' E 031°57'645129051.0
2018-Jan-23 06:26N 37°56' E 023°39'47068469924.5
2018-Jan-23 06:26N 38°58' W 076°29'9708275186.1
2018-Jan-23 06:24N 31°30' E 121°23'207211266.4
2018-Jan-23 06:13N 01°16' E 103°58'480122650.5
2018-Jan-23 06:00N 46°50' E 031°57'62622049370.3
2018-Jan-23 06:00S 23°57' W 046°18'1057612691607.3
2018-Jan-23 06:00N 31°30' E 121°23'538419383382.1
2018-Jan-23 06:00N 49°17' W 123°08'6912485927.2
2018-Jan-23 06:00N 37°47' W 122°23'21971129668.3
2018-Jan-23 06:00N 36°53' W 076°22'40691627478.6
2018-Jan-23 06:00S 23°00' W 044°19'613611044860.7
2018-Jan-23 06:00N 46°56' E 031°57'10451253679.9
2018-Jan-23 06:00N 63°13' E 021°09'48811952515.7
2018-Jan-23 06:00N 25°48' W 080°09'53426410934.1
2018-Jan-23 06:00N 37°55' E 023°42'3674.3
2018-Jan-23 05:59N 37°56' E 023°39'558110045083.4
2018-Jan-23 05:59S 23°57' W 046°18'89642933636.1
2018-Jan-23 05:59N 01°15' E 103°53'44882692620.3
2018-Jan-23 05:59N 44°44' E 037°47'44903232802.0
2018-Jan-23 05:59N 01°15' E 103°57'44901616403.5
2018-Jan-23 05:59N 44°44' E 037°47'6600990049.8
2018-Jan-23 05:58N 27°54' W 097°08'449416177677.8
2018-Jan-23 05:58N 50°09' W 005°05'5120682667.1
2018-Jan-23 05:58N 37°52' W 122°29'72034321901.8
2018-Jan-23 05:58S 38°20' E 144°45'846930487471.0
2018-Jan-23 05:58N 46°56' E 031°57'1205.9
2018-Jan-23 05:57N 46°57' E 031°59'4787273563.8
2018-Jan-23 05:56N 38°58' W 076°29'47014336.4
2018-Jan-23 05:54N 32°05' W 081°05'5311126615.0
2018-Jan-23 05:52N 46°50' E 031°57'480153180.1
2018-Jan-23 05:46N 01°17' E 103°60'9464130038.8
2018-Jan-23 05:42N 29°33' W 095°02'10355393.1
2018-Jan-23 05:31N 36°53' W 076°22'48772926036.6
2018-Jan-23 05:30N 46°50' E 031°57'47998638325.3
2018-Jan-23 05:30N 01°14' E 103°54'561020196712.2
2018-Jan-23 05:30N 63°13' E 021°09'45355441660.5
2018-Jan-23 05:30N 32°05' W 081°05'39544744667.9
2018-Jan-23 05:30S 23°57' W 046°18'0 7.3
2018-Jan-23 05:30S 23°57' W 046°18'58524213762.6
2018-Jan-23 05:30N 37°47' W 122°23'68651453760.3
2018-Jan-23 05:30N 46°56' E 031°57'480117282596.3
2018-Jan-23 05:30N 01°15' E 103°55'108384335124.2
2018-Jan-23 05:30N 25°48' W 080°09'53423846564.1
2018-Jan-23 05:30N 37°55' E 023°42'3819.8
2018-Jan-23 05:29N 37°56' E 023°39'611322007092.0
2018-Jan-23 05:29N 27°54' W 097°08'66001080054.8
2018-Jan-23 05:29N 44°44' E 037°47'0 2.2
2018-Jan-23 05:29N 44°44' E 037°47'65901977021.5
2018-Jan-23 05:28N 49°17' W 123°08'68663285.3
2018-Jan-23 05:28N 37°52' W 122°29'68708243478.7
2018-Jan-23 05:28N 46°50' E 031°57'623156.0
2018-Jan-23 05:28N 46°56' E 031°57'1198.0
2018-Jan-23 05:27N 46°57' E 031°59'613822095510.9
2018-Jan-23 05:27S 23°00' W 044°19'98004410028.8
2018-Jan-23 05:27S 38°20' E 144°45'14060903875.2
2018-Jan-23 05:26N 38°58' W 076°29'104162499807.7
2018-Jan-23 05:26N 01°17' E 103°59'207142612.3
2018-Jan-23 05:23N 31°31' E 121°22'449611918.5
2018-Jan-23 05:00N 63°13' E 021°09'1051945610.3
2018-Jan-23 05:00N 46°50' E 031°57'626211271544.6
2018-Jan-23 05:00S 23°57' W 046°18'406614636498.7
2018-Jan-23 05:00N 36°53' W 076°22'487417545296.9
2018-Jan-23 05:00N 46°56' E 031°57'621511187049.9
2018-Jan-23 05:00N 49°17' W 123°08'691276214.1
2018-Jan-23 05:00N 37°47' W 122°23'6922755111.6
2018-Jan-23 05:00N 37°55' E 023°42'3637.6
2018-Jan-23 04:59N 37°56' E 023°39'756129606.0
2018-Jan-23 04:59N 44°44' E 037°47'645011610646.3
2018-Jan-23 04:59S 23°57' W 046°18'64501290072.2
2018-Jan-23 04:59N 44°44' E 037°47'1769454962.4
2018-Jan-23 04:58N 50°09' W 005°05'4494808884.0
2018-Jan-23 04:58N 27°54' W 097°08'62601733405.0
2018-Jan-23 04:58N 46°50' E 031°57'61324415196.8
2018-Jan-23 04:58S 23°00' W 044°19'98001008007.2
2018-Jan-23 04:57S 38°20' E 144°45'3325855039.2
2018-Jan-23 04:57N 01°15' E 103°50'108342294157.1
2018-Jan-23 04:57N 25°48' W 080°09'811116851.8
2018-Jan-23 04:56N 38°58' W 076°29'97074992159.8
2018-Jan-23 04:56N 31°30' E 121°23'10325344160.2
2018-Jan-23 04:54N 32°05' W 081°05'531286141.2
2018-Jan-23 04:51N 46°46' E 031°57'480022557.6
2018-Jan-23 04:38N 01°17' E 103°59'7861118412.1
2018-Jan-23 04:34N 37°52' W 122°29'68612039.8
2018-Jan-23 04:30N 49°17' W 123°08'622211198705.9
2018-Jan-23 04:30N 46°50' E 031°57'610858.1
2018-Jan-23 04:30N 46°56' E 031°57'68651453800.0
2018-Jan-23 04:30N 37°47' W 122°23'585221068802.1
2018-Jan-23 04:30S 23°57' W 046°18'014.6
2018-Jan-23 04:30S 23°57' W 046°18'40664878836.1
2018-Jan-23 04:30N 36°53' W 076°22'693113391.8
2018-Jan-23 04:30N 25°48' W 080°09'53429616401.1
2018-Jan-23 04:30N 37°55' E 023°42'3637.6
2018-Jan-23 04:29N 37°56' E 023°39'756129606.0
2018-Jan-23 04:29N 44°44' E 037°47'44852691062.9
2018-Jan-23 04:29N 01°15' E 103°50'44851345533.5
2018-Jan-23 04:29N 44°44' E 037°47'1769424632.1
2018-Jan-23 04:28N 50°09' W 005°05'49501272981.5
2018-Jan-23 04:28S 23°00' W 044°19'44002262683.7
2018-Jan-23 04:28N 27°54' W 097°08'1410634451.3
2018-Jan-23 04:28N 37°52' W 122°29'68644118590.1
2018-Jan-23 04:28N 46°56' E 031°57'8469781716.1
2018-Jan-23 04:27S 38°20' E 144°45'8464952154.3
2018-Jan-23 04:27N 46°46' E 031°57'4791718679.4
2018-Jan-23 04:26N 38°58' W 076°29'4790200495.8
2018-Jan-23 04:25N 46°50' E 031°57'7122.0
2018-Jan-23 04:21N 46°57' E 031°59'6075109350.4
2018-Jan-23 04:18N 29°33' W 095°02'434014892.6
2018-Jan-23 04:01S 23°57' W 046°18'64714659278.7
2018-Jan-23 04:00N 63°13' E 021°09'488217576540.3
2018-Jan-23 04:00N 49°17' W 123°08'622222397411.8
2018-Jan-23 04:00N 46°50' E 031°57'48005760143.3
2018-Jan-23 04:00N 01°16' E 103°57'1044637604610.8
2018-Jan-23 04:00N 36°53' W 076°22'40662439418.0
2018-Jan-23 04:00S 23°57' W 046°18'58522633602.1
2018-Jan-23 04:00N 37°47' W 122°23'1452871398.9
2018-Jan-23 04:00N 29°33' W 095°02'823128755.2
2018-Jan-23 04:00N 25°48' W 080°09'53424808200.6
2018-Jan-23 04:00N 37°55' E 023°42'1443472134.1
2018-Jan-23 03:59N 50°09' W 005°05'14842670388.0
2018-Jan-23 03:59N 46°56' E 031°57'47872461635.5
2018-Jan-23 03:59N 38°58' W 076°29'51191084022.9
2018-Jan-23 03:59N 44°44' E 037°47'0 1.2
2018-Jan-23 03:59N 44°44' E 037°47'44851242031.1
2018-Jan-23 03:58N 01°15' E 103°50'88504551512.9
2018-Jan-23 03:58S 23°00' W 044°19'55391812844.3
2018-Jan-23 03:58N 32°39' W 118°14'81372092291.1
2018-Jan-23 03:58N 01°15' E 103°50'78709444538.7
2018-Jan-23 03:58N 37°52' W 122°29'687012365236.7
2018-Jan-23 03:58N 46°50' E 031°57'64635.5
2018-Jan-23 03:58N 46°56' E 031°57'10533.9
2018-Jan-23 03:57N 46°46' E 031°57'645116146.3
2018-Jan-23 03:56N 37°56' E 023°39'5159156066.8
2018-Jan-23 03:54N 32°05' W 081°05'5309106777.7
2018-Jan-23 03:51N 46°57' E 031°59'425724999.2
2018-Jan-23 03:41N 31°31' E 121°23'207411755.6
2018-Jan-23 03:31N 01°16' E 103°56'1044437597996.1
2018-Jan-23 03:31N 36°53' W 076°22'1044237590422.2
2018-Jan-23 03:30N 01°16' E 103°53'560810094227.6
2018-Jan-23 03:30N 63°13' E 021°09'488217576540.3
2018-Jan-23 03:30N 49°17' W 123°08'622222397411.8
2018-Jan-23 03:30N 46°50' E 031°57'53112731135.0
2018-Jan-23 03:30N 32°05' W 081°05'39542033432.7
2018-Jan-23 03:30S 23°57' W 046°18'43553919696.0
2018-Jan-23 03:30N 27°54' W 097°08'14045054590.5
2018-Jan-23 03:30N 37°47' W 122°23'720425935830.0
2018-Jan-23 03:30S 38°20' E 144°45'103994159565.8
2018-Jan-23 03:30N 50°09' W 005°05'14831335121.3
2018-Jan-23 03:30N 46°56' E 031°57'69725020012.5
2018-Jan-23 03:30N 32°38' W 118°07'20301044149.9
2018-Jan-23 03:30N 25°48' W 080°09'53423205467.0
2018-Jan-23 03:30N 37°55' E 023°42'3717.4
2018-Jan-23 03:29N 37°56' E 023°39'47064234960.9
2018-Jan-23 03:29N 38°58' W 076°29'51191084024.8
2018-Jan-23 03:29N 44°44' E 037°47'44881077191.2
2018-Jan-23 03:29N 01°15' E 103°54'44888078946.4
2018-Jan-23 03:29N 44°44' E 037°47'63181337943.4
2018-Jan-23 03:28S 23°00' W 044°19'5913645077.3
2018-Jan-23 03:28N 37°52' W 122°29'687012365227.7
2018-Jan-23 03:28N 46°50' E 031°57'611578.0
2018-Jan-23 03:28N 46°56' E 031°57'1214.3
2018-Jan-23 03:27N 46°57' E 031°59'10819.5
2018-Jan-23 03:27N 46°46' E 031°57'426126867.0
2018-Jan-23 03:17N 31°31' E 121°23'466949289.5
2018-Jan-23 03:11N 54°35' E 019°41'416022865.9
2018-Jan-23 03:01N 36°53' W 076°22'40757335667.6
2018-Jan-23 03:00N 63°13' E 021°09'10511260813.7
2018-Jan-23 03:00N 46°50' E 031°57'62627514363.1
2018-Jan-23 03:00S 23°57' W 046°18'62875658606.2
2018-Jan-23 03:00N 49°17' W 123°08'691310740.9
2018-Jan-23 03:00N 37°47' W 122°23'59067087373.9
2018-Jan-23 03:00S 23°00' W 044°19'885931891353.3
2018-Jan-23 03:00N 01°16' E 103°59'48031441038.3
2018-Jan-23 03:00N 46°56' E 031°57'48014320692.8
2018-Jan-23 03:00N 01°14' E 103°54'332211959111.1
2018-Jan-23 03:00S 38°20' E 144°45'139544186096.0
2018-Jan-23 03:00N 25°48' W 080°09'534219232820.4
2018-Jan-23 03:00N 37°55' E 023°42'55821826932.3
2018-Jan-23 02:59S 23°57' W 046°18'55812870023.8
2018-Jan-23 02:59N 37°56' E 023°39'48351243258.0
2018-Jan-23 02:59N 31°31' E 121°23'40252069958.2
2018-Jan-23 02:59N 44°44' E 037°47'0 1.2
2018-Jan-23 02:59N 44°44' E 037°47'7236592062.5
2018-Jan-23 02:58N 37°52' W 122°29'68644942304.5
2018-Jan-23 02:58N 46°56' E 031°57'4786185272.0
2018-Jan-23 02:56N 38°58' W 076°29'12294423225.7
2018-Jan-23 02:56N 27°54' W 097°08'6261459984.0
2018-Jan-23 02:55N 46°46' E 031°57'1487314833.9
2018-Jan-23 02:55N 50°09' W 005°05'1486297139.0
2018-Jan-23 02:55N 46°50' E 031°57'5311708106.6
2018-Jan-23 02:54N 32°05' W 081°05'107891078898.9
2018-Jan-23 02:54N 01°15' E 103°50'815541999.7
2018-Jan-23 02:42N 32°37' W 117°55'696572887.8
2018-Jan-23 02:36N 46°57' E 031°59'479848796.2
2018-Jan-23 02:30N 01°17' E 103°55'479817271257.3
2018-Jan-23 02:30N 46°50' E 031°57'622222397426.2
2018-Jan-23 02:30N 49°17' W 123°08'62875658606.2
2018-Jan-23 02:30S 23°57' W 046°18'40664878836.1
2018-Jan-23 02:30N 36°53' W 076°22'3711335160.0
2018-Jan-23 02:30N 32°05' W 081°05'18663359006.7
2018-Jan-23 02:30N 32°38' W 117°54'546519674361.8
2018-Jan-23 02:30S 23°57' W 046°18'58522340978.0
2018-Jan-23 02:30N 37°47' W 122°23'720412967915.0
2018-Jan-23 02:30S 38°20' E 144°45'139541932044.3
2018-Jan-23 02:30N 25°48' W 080°09'5339961011.9
2018-Jan-23 02:29N 37°56' E 023°39'47064234962.3
2018-Jan-23 02:29N 38°58' W 076°29'51191151775.3
2018-Jan-23 02:29N 44°44' E 037°47'63181137252.9
2018-Jan-23 02:29S 23°00' W 044°19'631822745053.8
2018-Jan-23 02:29N 44°44' E 037°47'27771352.8
2018-Jan-23 02:28N 46°56' E 031°57'62567507553.6
2018-Jan-23 02:28N 27°54' W 097°08'1410175021.1
2018-Jan-23 02:28N 37°52' W 122°29'68708243478.1
2018-Jan-23 02:28N 46°50' E 031°57'65789.0
2018-Jan-23 02:28N 46°56' E 031°57'48033458170.9
2018-Jan-23 02:28N 01°17' E 103°59'4802864310.4
2018-Jan-23 02:27N 46°57' E 031°59'65452347.8
2018-Jan-23 02:27N 37°55' E 023°42'64532253.6
2018-Jan-23 02:25N 46°46' E 031°57'4261111978.2
2018-Jan-23 02:23N 31°31' E 121°23'20745513.9
2018-Jan-23 02:01N 01°15' E 103°58'1044737608024.4
2018-Jan-23 02:01N 36°53' W 076°22'40754890445.1
2018-Jan-23 02:00N 63°13' E 021°09'10511891218.4
2018-Jan-23 02:00N 46°50' E 031°57'480017281586.4
2018-Jan-23 02:00N 01°17' E 103°58'107967772879.3
2018-Jan-23 02:00N 32°05' W 081°05'39544744680.1
2018-Jan-23 02:00S 23°57' W 046°18'58522106881.7
2018-Jan-23 02:00N 37°47' W 122°23'58521620677.0
2018-Jan-23 02:00S 23°57' W 046°18'98498864411.8
2018-Jan-23 02:00S 38°20' E 144°45'139544186094.2
2018-Jan-23 02:00N 25°48' W 080°09'53426410934.1
2018-Jan-23 02:00N 37°55' E 023°42'3675.2
2018-Jan-23 01:59N 37°56' E 023°39'47065646610.7
2018-Jan-23 01:59N 38°58' W 076°29'5119921419.5
2018-Jan-23 01:59N 44°44' E 037°47'0 1.2
2018-Jan-23 01:59N 44°44' E 037°47'27521034.4
2018-Jan-23 01:58N 46°50' E 031°57'61321161894.8
2018-Jan-23 01:58S 23°00' W 044°19'61382761938.3
2018-Jan-23 01:57N 46°57' E 031°59'156.1
2018-Jan-23 01:56N 46°56' E 031°57'14831780160.4
2018-Jan-23 01:56N 50°09' W 005°05'1487191149.0
2018-Jan-23 01:55N 46°46' E 031°57'6261148284.1
2018-Jan-23 01:53N 27°54' W 097°08'141083206.7
2018-Jan-23 01:52N 37°52' W 122°29'6864132147.3
2018-Jan-23 01:49N 46°56' E 031°57'479765419.8
2018-Jan-23 01:44N 01°15' E 103°50'560724143.4
2018-Jan-23 01:30N 63°13' E 021°09'561020195402.7
2018-Jan-23 01:30N 01°13' E 103°51'658223693829.3
2018-Jan-23 01:30N 50°09' W 005°05'320211527564.9
2018-Jan-23 01:30N 36°53' W 076°22'371667580.0
2018-Jan-23 01:30N 32°05' W 081°05'39543558500.9
2018-Jan-23 01:30S 23°57' W 046°18'12344448.8
2018-Jan-23 01:30S 23°00' W 044°19'43793941216.2
2018-Jan-23 01:30N 29°33' W 095°02'17601267104.3
2018-Jan-23 01:30N 49°17' W 123°08'2484470619.0
2018-Jan-23 01:30N 25°48' W 080°09'53426410934.1
2018-Jan-23 01:30N 37°55' E 023°42'61172446705.7
2018-Jan-23 01:29N 27°54' W 097°08'61132750888.3
2018-Jan-23 01:29N 37°56' E 023°39'50441068134.1
2018-Jan-23 01:29N 01°17' E 103°57'44893232340.3
2018-Jan-23 01:29N 44°44' E 037°47'277998106.5
2018-Jan-23 01:29N 46°56' E 031°57'27752531.9
2018-Jan-23 01:29N 44°44' E 037°47'27521034.4
2018-Jan-23 01:28N 46°50' E 031°57'611567.2
2018-Jan-23 01:28N 46°56' E 031°57'61099.5
2018-Jan-23 01:27N 46°50' E 031°57'68701236562.9
2018-Jan-23 01:27N 37°47' W 122°23'78769451281.1
2018-Jan-23 01:27N 01°15' E 103°50'3325997542.2
2018-Jan-23 01:27S 38°20' E 144°45'140601406027.4
2018-Jan-23 01:26N 38°58' W 076°29'203946160.6
2018-Jan-23 01:24N 32°37' W 117°38'695899395.7
2018-Jan-23 01:19N 46°46' E 031°57'1062.4
2018-Jan-23 01:09N 46°57' E 031°59'694847371.5
2018-Jan-23 01:01N 32°37' W 117°32'587110568467.3
2018-Jan-23 01:00N 63°13' E 021°09'10511260812.2
2018-Jan-23 01:00N 46°50' E 031°57'626222543058.1
2018-Jan-23 01:00S 23°57' W 046°18'896432271944.3
2018-Jan-23 01:00N 01°16' E 103°53'107916474829.6
2018-Jan-23 01:00N 32°05' W 081°05'2060570515.7
2018-Jan-23 01:00N 37°47' W 122°23'585210534400.3
2018-Jan-23 01:00S 23°57' W 046°18'43407811165.8
2018-Jan-23 01:00N 29°33' W 095°02'1035169393.1
2018-Jan-23 01:00N 36°53' W 076°22'47704293208.8
2018-Jan-23 01:00N 37°55' E 023°42'3674.3
2018-Jan-23 00:59N 37°56' E 023°39'50381209199.2
2018-Jan-23 00:59N 01°13' E 103°48'44852691080.5
2018-Jan-23 00:59N 44°44' E 037°47'277499058.8
2018-Jan-23 00:59N 46°56' E 031°57'6531174900.6
2018-Jan-23 00:59N 54°33' E 019°40'54936591066.7
2018-Jan-23 00:59N 01°14' E 103°52'44871153873.1
2018-Jan-23 00:59N 44°44' E 037°47'6600660033.5
2018-Jan-23 00:58N 27°54' W 097°08'62602048569.5
2018-Jan-23 00:58N 46°50' E 031°57'64626.9
2018-Jan-23 00:58N 46°56' E 031°57'1198.5
2018-Jan-23 00:57N 46°57' E 031°59'84671524111.8
2018-Jan-23 00:57S 38°20' E 144°45'140601100369.4
2018-Jan-23 00:56N 38°58' W 076°29'479142069.0
2018-Jan-23 00:49N 46°46' E 031°57'411.2
2018-Jan-23 00:30N 46°50' E 031°57'62623757181.5
2018-Jan-23 00:30S 23°57' W 046°18'647111648184.8
2018-Jan-23 00:30N 63°13' E 021°09'45358162484.0
2018-Jan-23 00:30N 32°05' W 081°05'2060674246.6
2018-Jan-23 00:30N 37°47' W 122°23'21971129668.3
2018-Jan-23 00:30N 36°53' W 076°22'40662439416.3
2018-Jan-23 00:30S 23°57' W 046°18'89626452404.7
2018-Jan-23 00:30N 01°15' E 103°51'777113988659.3
2018-Jan-23 00:30N 49°17' W 123°08'64171777127.6
2018-Jan-23 00:30N 37°55' E 023°42'3675.2
2018-Jan-23 00:29N 37°56' E 023°39'54511226548.4
2018-Jan-23 00:29S 23°00' W 044°19'61363681614.6
2018-Jan-23 00:29N 46°56' E 031°57'277249529.4
2018-Jan-23 00:29N 44°44' E 037°47'0 1.7
2018-Jan-23 00:29N 44°44' E 037°47'1769199045.8
2018-Jan-23 00:28N 50°09' W 005°05'449416177683.4
2018-Jan-23 00:28N 27°54' W 097°08'62601877855.5
2018-Jan-23 00:28N 46°50' E 031°57'63859.3
2018-Jan-23 00:28N 46°56' E 031°57'1205.3
2018-Jan-23 00:27N 46°57' E 031°59'8467983298.5
2018-Jan-23 00:27S 38°20' E 144°45'139544566648.3
2018-Jan-23 00:27N 25°48' W 080°09'108373001091.1
2018-Jan-23 00:26N 01°14' E 103°54'104133407767.1
2018-Jan-23 00:26N 38°58' W 076°29'479142171.9
2018-Jan-23 00:19N 46°46' E 031°57'487815473.4
2018-Jan-23 00:01N 36°53' W 076°22'487717556219.7
2018-Jan-23 00:00N 46°50' E 031°57'53111737996.5
2018-Jan-23 00:00N 32°05' W 081°05'2174652169.6
2018-Jan-23 00:00N 49°17' W 123°08'6912485927.2
2018-Jan-23 00:00N 37°47' W 122°23'58522340979.7
2018-Jan-23 00:00S 23°57' W 046°18'3609721877.8
2018-Jan-23 00:00N 25°48' W 080°09'9181102005.2
2018-Jan-23 00:00N 27°54' W 097°08'61131222617.0
2018-Jan-22 23:59N 37°56' E 023°39'47065646616.4
2018-Jan-22 23:59N 38°58' W 076°29'4786906884.6
2018-Jan-22 23:59N 46°56' E 031°57'27755450.8
2018-Jan-22 23:59N 44°44' E 037°47'64504644261.7
2018-Jan-22 23:59S 23°57' W 046°18'6262536759.0
2018-Jan-22 23:58N 46°50' E 031°57'63855.7
2018-Jan-22 23:58N 46°56' E 031°57'61367363225.4
2018-Jan-22 23:58S 23°00' W 044°19'8847442326.8
2018-Jan-22 23:56N 01°17' E 103°46'6574110585.9
2018-Jan-22 23:53N 50°09' W 005°05'5849397262.0
2018-Jan-22 23:52N 31°31' E 121°23'4047280148.5
2018-Jan-22 23:51S 27°52' E 153°23'847042946.9
2018-Jan-22 23:39N 46°57' E 031°59'747.3
2018-Jan-22 23:30N 46°50' E 031°57'48772508033.7
2018-Jan-22 23:30N 36°53' W 076°22'40661829563.5
2018-Jan-22 23:30S 23°57' W 046°18'58524213760.1
2018-Jan-22 23:30N 37°47' W 122°23'1452871398.9
2018-Jan-22 23:30N 29°33' W 095°02'43402231766.0
2018-Jan-22 23:30S 23°57' W 046°18'3609764341.2
2018-Jan-22 23:30N 25°48' W 080°09'53426410934.1
2018-Jan-22 23:30N 37°55' E 023°42'1443519347.1
2018-Jan-22 23:29N 50°09' W 005°05'4580916083.7
2018-Jan-22 23:29N 49°17' W 123°08'63263795777.8
2018-Jan-22 23:29S 23°00' W 044°19'63187581686.1
2018-Jan-22 23:29N 44°44' E 037°47'277499065.4
2018-Jan-22 23:29N 46°56' E 031°57'27752531.2
2018-Jan-22 23:29N 44°44' E 037°47'6600880044.3
2018-Jan-22 23:28N 27°54' W 097°08'62601186014.9
2018-Jan-22 23:28N 46°50' E 031°57'65783.6
2018-Jan-22 23:28N 46°56' E 031°57'10463764717.6
2018-Jan-22 23:28N 63°13' E 021°03'1046144795.5
2018-Jan-22 23:27N 46°57' E 031°59'84671270094.4
2018-Jan-22 23:27S 38°20' E 144°45'8587813483.0
2018-Jan-22 23:26N 37°56' E 023°39'47064234960.9
2018-Jan-22 23:26N 38°58' W 076°29'47014839.1
2018-Jan-22 23:24N 32°05' W 081°05'1079337324.4
2018-Jan-22 23:07N 01°14' E 103°54'479944185.5
2018-Jan-22 23:00N 46°50' E 031°57'622222397433.0
2018-Jan-22 23:00N 49°17' W 123°08'21811570189.0
2018-Jan-22 23:00N 36°53' W 076°22'371445047.6
2018-Jan-22 23:00N 32°05' W 081°05'2060570515.7
2018-Jan-22 23:00N 37°47' W 122°23'14521742797.7
2018-Jan-22 23:00N 29°33' W 095°02'82662288961.3
2018-Jan-22 23:00S 38°20' E 144°45'1039912478696.2
2018-Jan-22 23:00N 50°09' W 005°05'44944044420.2
2018-Jan-22 23:00N 27°54' W 097°08'918826503.9
2018-Jan-22 23:00N 25°48' W 080°09'53424808200.6
2018-Jan-22 23:00N 37°55' E 023°42'545319630802.7
2018-Jan-22 23:00S 23°00' W 044°19'54511226549.4
2018-Jan-22 22:59N 37°56' E 023°39'55811435025.7
2018-Jan-22 22:59S 23°57' W 046°19'62663222519.2
2018-Jan-22 22:59N 46°56' E 031°57'626611278717.5
2018-Jan-22 22:59S 23°57' W 046°18'64501658663.4
2018-Jan-22 22:59N 44°44' E 037°47'27520596.2
2018-Jan-22 22:58N 46°50' E 031°57'63304.9
2018-Jan-22 22:58N 46°56' E 031°57'4786189343.7
2018-Jan-22 22:56N 38°58' W 076°29'9707137579.0
2018-Jan-22 22:52N 31°30' E 121°23'404763614.8
2018-Jan-22 22:48S 27°52' E 153°23'846928655.9
2018-Jan-22 22:30N 46°50' E 031°57'622222397411.8
2018-Jan-22 22:30N 49°17' W 123°08'2174978252.5
2018-Jan-22 22:30N 32°05' W 081°05'145117462840.5
2018-Jan-22 22:30S 27°52' E 153°23'1428025704272.9
2018-Jan-22 22:30N 36°53' W 076°22'21971976918.3
2018-Jan-22 22:30N 37°47' W 122°23'72042357804.0
2018-Jan-22 22:30S 38°20' E 144°45'94755684778.0
2018-Jan-22 22:30N 63°15' E 020°55'11624182561.9
2018-Jan-22 22:30N 50°10' W 005°05'38401382284.9
2018-Jan-22 22:30N 25°48' W 080°09'53426410940.1
2018-Jan-22 22:30N 37°55' E 023°42'55822232917.2
2018-Jan-22 22:29S 23°57' W 046°18'55812511268.8
2018-Jan-22 22:29N 37°56' E 023°39'756151206.2
2018-Jan-22 22:29N 44°44' E 037°47'277332705.9
2018-Jan-22 22:29N 46°56' E 031°57'27752531.8
2018-Jan-22 22:29N 44°44' E 037°47'4025391610.9
2018-Jan-22 22:28N 31°30' E 121°23'42601533634.2
2018-Jan-22 22:28N 46°50' E 031°57'63859.3
2018-Jan-22 22:28N 46°56' E 031°57'6136525944.9
2018-Jan-22 22:27S 23°00' W 044°19'4181313541.2
2018-Jan-22 22:26N 38°58' W 076°29'122929292.9
2018-Jan-22 22:24N 27°54' W 097°08'625844786.9
2018-Jan-22 22:15N 46°57' E 031°59'626825381.6
2018-Jan-22 22:01S 23°58' W 046°18'406714641442.3
2018-Jan-22 22:01N 36°53' W 076°22'407214658935.2
2018-Jan-22 22:00N 63°13' E 021°03'64685821414.4
2018-Jan-22 22:00S 23°57' W 046°18'39541779253.6
2018-Jan-22 22:00N 32°05' W 081°05'2060618060.2
2018-Jan-22 22:00N 37°47' W 122°23'691138107.1
2018-Jan-22 22:00N 49°17' W 123°08'2484993529.0
2018-Jan-22 22:00N 25°48' W 080°09'5339961010.1
2018-Jan-22 21:59N 37°56' E 023°39'653106907.1
2018-Jan-22 21:59N 46°56' E 031°57'27747528.9
2018-Jan-22 21:59N 44°44' E 037°47'4025413981.7
2018-Jan-22 21:58N 31°31' E 121°23'4258958111.5
2018-Jan-22 21:58N 46°56' E 031°57'61357.0
2018-Jan-22 21:57N 46°50' E 031°57'73154.1
2018-Jan-22 21:57N 46°57' E 031°59'84703811539.2
2018-Jan-22 21:57S 27°52' E 153°23'763130822.8
2018-Jan-22 21:57S 38°20' E 144°45'85831817564.6
2018-Jan-22 21:57N 37°55' E 023°42'4709892257.6
2018-Jan-22 21:56N 38°58' W 076°29'31261250339.1
2018-Jan-22 21:56N 50°09' W 005°05'1769636949.4
2018-Jan-22 21:56N 44°44' E 037°47'4494237936.9
2018-Jan-22 21:55N 01°18' E 104°05'9356526284.0
2018-Jan-22 21:54N 27°54' W 097°08'91730000.2
2018-Jan-22 21:52N 26°07' W 080°06'554819971399.2
2018-Jan-22 21:52N 46°50' E 031°57'4108.8
2018-Jan-22 21:50N 46°46' E 031°57'480314854.7
2018-Jan-22 21:31N 01°18' E 104°05'1045112541562.3
2018-Jan-22 21:30N 36°53' W 076°22'21812616982.3
2018-Jan-22 21:30N 49°17' W 123°08'21741118005.0
2018-Jan-22 21:30N 32°05' W 081°05'39543558505.6
2018-Jan-22 21:30S 23°57' W 046°18'98491266318.2
2018-Jan-22 21:30S 38°20' E 144°44'94642839166.9
2018-Jan-22 21:30N 63°13' E 021°09'647223298378.8
2018-Jan-22 21:30S 23°58' W 046°18'50581213870.3
2018-Jan-22 21:29N 50°09' W 005°05'14395181965.0
2018-Jan-22 21:29N 37°56' E 023°39'47064234962.3
2018-Jan-22 21:29N 38°58' W 076°29'47861148719.4
2018-Jan-22 21:29N 46°56' E 031°57'1017663.9
2018-Jan-22 21:29N 46°46' E 031°57'27337857.9
2018-Jan-22 21:29N 44°44' E 037°47'4025452789.0
2018-Jan-22 21:28N 31°31' E 121°23'42602555999.7
2018-Jan-22 21:28N 46°50' E 031°57'62894.5
2018-Jan-22 21:28N 46°56' E 031°57'61358.2
2018-Jan-22 21:27N 46°50' E 031°57'68701075271.3
2018-Jan-22 21:27N 37°47' W 122°23'14525228393.2
2018-Jan-22 21:27N 29°33' W 095°02'823109680.4
2018-Jan-22 21:27N 25°48' W 080°09'91818784.2
2018-Jan-22 21:24N 27°54' W 097°08'91730555.9
2018-Jan-22 21:22N 26°07' W 080°06'143771203649.9
2018-Jan-22 21:21S 27°52' E 153°23'337524799.3
2018-Jan-22 21:13N 01°16' E 103°55'479922972.7
2018-Jan-22 21:00N 46°50' E 031°57'622211198705.9
2018-Jan-22 21:00N 49°17' W 123°08'2174978252.5
2018-Jan-22 21:00N 32°05' W 081°05'45358162479.7
2018-Jan-22 21:00N 63°13' E 021°09'93286716204.0
2018-Jan-22 21:00S 27°52' E 153°23'1428051408545.7
2018-Jan-22 21:00N 36°53' W 076°22'21971581535.6
2018-Jan-22 21:00N 37°47' W 122°23'2271292011.1
2018-Jan-22 21:00N 25°48' W 080°09'384013822811.1
2018-Jan-22 21:00N 50°09' W 005°05'14432596737.0
2018-Jan-22 21:00N 37°55' E 023°42'50423630039.2
2018-Jan-22 20:59N 01°19' E 104°00'50451513521.0
2018-Jan-22 20:59N 37°56' E 023°39'653117598.7
2018-Jan-22 20:59N 46°56' E 031°57'277499063.6
2018-Jan-22 20:59N 44°44' E 037°47'4025268319.2
2018-Jan-22 20:58N 31°31' E 121°23'42601916997.9
2018-Jan-22 20:58N 46°50' E 031°57'62891.8
2018-Jan-22 20:58N 46°56' E 031°57'4786193598.8
2018-Jan-22 20:56N 38°58' W 076°29'4791862414.5
2018-Jan-22 20:56N 46°46' E 031°57'84633808568.8
2018-Jan-22 20:56S 38°20' E 144°44'81182247946.1
2018-Jan-22 20:56N 44°44' E 037°47'587195639.8
2018-Jan-22 20:52N 26°07' W 080°06'554792877.0
2018-Jan-22 20:48N 46°57' E 031°59'48001152093.8
2018-Jan-22 20:48N 01°15' E 103°56'9367117903.4
2018-Jan-22 20:43N 27°54' W 097°08'1492091.0
2018-Jan-22 20:39N 29°33' W 095°02'607742643.3
2018-Jan-22 20:30N 46°50' E 031°57'62227465803.9
2018-Jan-22 20:30N 49°17' W 123°08'21811308491.1
2018-Jan-22 20:30N 36°53' W 076°22'371445047.6
2018-Jan-22 20:30N 32°05' W 081°05'39544744673.9
2018-Jan-22 20:30S 23°57' W 046°18'107809701574.1
2018-Jan-22 20:30S 27°52' E 153°23'63935753667.8
2018-Jan-22 20:30N 37°47' W 122°23'786928329379.1
2018-Jan-22 20:30N 01°16' E 103°57'108401500900.4
2018-Jan-22 20:30N 25°48' W 080°09'53423846560.4
2018-Jan-22 20:30N 37°55' E 023°42'3675.2
2018-Jan-22 20:29N 37°56' E 023°39'756143248.7
2018-Jan-22 20:29N 44°44' E 037°47'277998140.4
2018-Jan-22 20:29N 46°56' E 031°57'27745368.9
2018-Jan-22 20:29N 44°44' E 037°47'1769398088.2
2018-Jan-22 20:28N 50°09' W 005°04'44945392587.3
2018-Jan-22 20:28N 27°54' W 097°08'73771896882.3
2018-Jan-22 20:28N 31°31' E 121°23'42601916999.9
2018-Jan-22 20:28N 46°50' E 031°57'62568.1
2018-Jan-22 20:28N 46°56' E 031°57'1190.1
2018-Jan-22 20:27N 46°57' E 031°59'60751215005.2
2018-Jan-22 20:27N 29°33' W 095°02'82662975650.3
2018-Jan-22 20:27S 38°20' E 144°45'140601406027.8
2018-Jan-22 20:26N 38°58' W 076°29'4791958238.5
2018-Jan-22 20:26N 46°46' E 031°57'554847332.8
2018-Jan-22 20:19N 26°07' W 080°06'2472136937.3
2018-Jan-22 20:18N 48°53' W 123°24'632434442.1
2018-Jan-22 20:07S 23°00' W 044°19'3683779864.7
2018-Jan-22 20:07N 26°54' W 080°04'550954783.3
2018-Jan-22 20:01N 46°50' E 031°57'480017281316.5
2018-Jan-22 20:00N 01°15' E 103°57'56115049749.0
2018-Jan-22 20:00N 63°13' E 021°09'561120198540.3
2018-Jan-22 20:00N 01°16' E 103°58'1044612535614.9
2018-Jan-22 20:00N 36°53' W 076°22'371445047.6
2018-Jan-22 20:00N 32°05' W 081°05'21747826020.3
2018-Jan-22 20:00N 49°17' W 123°08'628711317211.3
2018-Jan-22 20:00S 23°57' W 046°18'58522106880.2
2018-Jan-22 20:00N 37°47' W 122°23'667266880.0
2018-Jan-22 20:00N 48°53' W 123°24'63242845585.6
2018-Jan-22 20:00S 23°00' W 044°19'36321307578.1
2018-Jan-22 20:00N 25°48' W 080°09'53426410934.1
2018-Jan-22 20:00N 37°55' E 023°42'1443649185.5
2018-Jan-22 19:59N 50°09' W 005°05'1439575772.7
2018-Jan-22 19:59N 37°56' E 023°39'653111997.9
2018-Jan-22 19:59N 46°56' E 031°57'277332710.3
2018-Jan-22 19:59N 44°44' E 037°47'0 1.5
2018-Jan-22 19:59N 44°44' E 037°47'273109367.2
2018-Jan-22 19:58N 46°46' E 031°57'4360.5
2018-Jan-22 19:58N 46°50' E 031°57'846510158179.4
2018-Jan-22 19:58S 38°20' E 144°45'84697621738.9
2018-Jan-22 19:58N 46°56' E 031°57'4786193598.8
2018-Jan-22 19:56N 38°58' W 076°29'9707465928.0
2018-Jan-22 19:55N 31°31' E 121°23'10597204011.2
2018-Jan-22 19:52N 26°07' W 080°06'3811415754.2
2018-Jan-22 19:51N 43°33' W 005°42'455254260.5
2018-Jan-22 19:46N 27°54' W 097°08'141043013.7
2018-Jan-22 19:44N 37°52' W 122°29'686929723.0
2018-Jan-22 19:30N 46°50' E 031°57'62227465803.9
2018-Jan-22 19:30N 49°17' W 123°08'48825858846.8
2018-Jan-22 19:30N 63°13' E 021°09'40757335667.6
2018-Jan-22 19:30N 36°53' W 076°22'371445053.3
2018-Jan-22 19:30N 32°05' W 081°05'36036484965.3
2018-Jan-22 19:30N 50°09' W 005°05'50579102898.2
2018-Jan-22 19:30S 23°57' W 046°18'123444495.8
2018-Jan-22 19:30S 23°00' W 044°19'88563985017.3
2018-Jan-22 19:30N 01°17' E 103°56'77543101416.0
2018-Jan-22 19:30N 48°50' W 123°26'626322546164.8
2018-Jan-22 19:30N 46°46' E 031°57'55651113099.2
2018-Jan-22 19:30N 25°48' W 080°09'53429616401.1
2018-Jan-22 19:30N 37°55' E 023°42'3637.6
2018-Jan-22 19:29N 37°56' E 023°39'653117597.8
2018-Jan-22 19:29N 46°56' E 031°57'277142590.1
2018-Jan-22 19:29N 44°44' E 037°47'0 1.8
2018-Jan-22 19:29N 44°44' E 037°47'66001250589.3
2018-Jan-22 19:28N 27°54' W 097°08'73771770422.6
2018-Jan-22 19:28N 31°31' E 121°23'42601703997.1
2018-Jan-22 19:28N 46°50' E 031°57'687012365236.7
2018-Jan-22 19:28N 37°52' W 122°29'68644942308.1
2018-Jan-22 19:28N 46°56' E 031°57'6865633674.4
2018-Jan-22 19:27N 37°47' W 122°23'72041178902.6
2018-Jan-22 19:27S 38°20' E 144°45'140601745414.1
2018-Jan-22 19:26N 38°58' W 076°29'10797863.7
2018-Jan-22 19:18N 29°33' W 095°02'6075135839.1
2018-Jan-22 19:15N 46°57' E 031°59'160535441.4
2018-Jan-22 19:13N 43°33' W 005°42'16047952.8
2018-Jan-22 19:01N 46°50' E 031°57'62225599353.0
2018-Jan-22 19:00N 49°17' W 123°08'48823515311.8
2018-Jan-22 19:00N 63°13' E 021°09'407514671339.9
2018-Jan-22 19:00N 36°53' W 076°22'371445047.6
2018-Jan-22 19:00N 32°05' W 081°05'1079412952393.3
2018-Jan-22 19:00N 01°16' E 103°56'78712833384.5
2018-Jan-22 19:00N 37°47' W 122°23'2271292011.2
2018-Jan-22 19:00N 25°48' W 080°09'53429616401.1
2018-Jan-22 19:00N 37°55' E 023°42'1443741925.1
2018-Jan-22 18:59N 50°09' W 005°05'1439471086.0
2018-Jan-22 18:59N 37°56' E 023°39'50436052113.6
2018-Jan-22 18:59N 01°17' E 103°57'48011080224.1
2018-Jan-22 18:59N 46°56' E 031°57'277249532.1
2018-Jan-22 18:59N 44°44' E 037°47'81182435307.0
2018-Jan-22 18:59S 38°20' E 144°45'81185844741.7
2018-Jan-22 18:59N 44°44' E 037°47'63185686259.4
2018-Jan-22 18:59S 23°00' W 044°19'12349388.7
2018-Jan-22 18:58S 23°57' W 046°18'43552239826.3
2018-Jan-22 18:58N 27°54' W 097°08'73771475351.1
2018-Jan-22 18:58N 31°31' E 121°23'42602190853.4
2018-Jan-22 18:58N 46°50' E 031°57'687012365226.0
2018-Jan-22 18:58N 37°52' W 122°29'6865797270.2
2018-Jan-22 18:57N 46°57' E 031°59'4787261129.0
2018-Jan-22 18:56N 38°58' W 076°29'4786198049.2
2018-Jan-22 18:55N 46°56' E 031°57'607419453.3
2018-Jan-22 18:36N 29°33' W 095°02'607765891.7
2018-Jan-22 18:31N 46°50' E 031°57'62227465803.9
2018-Jan-22 18:30N 49°17' W 123°08'628711317211.3
2018-Jan-22 18:30S 23°57' W 046°18'39542033410.3
2018-Jan-22 18:30N 32°05' W 081°05'36033242498.1
2018-Jan-22 18:30N 50°09' W 005°05'51202047996.0
2018-Jan-22 18:30N 37°47' W 122°23'72041620991.1
2018-Jan-22 18:30S 38°20' E 144°45'94644867192.2
2018-Jan-22 18:30N 63°13' E 021°09'1521782275.1
2018-Jan-22 18:30N 37°55' E 023°42'50402591983.3
2018-Jan-22 18:29N 01°16' E 103°56'50431650540.2
2018-Jan-22 18:29N 37°56' E 023°39'47068469916.1
2018-Jan-22 18:29N 38°58' W 076°29'47861076925.2
2018-Jan-22 18:29N 46°56' E 031°57'277249529.4
2018-Jan-22 18:29N 44°44' E 037°47'660023761207.3
2018-Jan-22 18:29N 27°54' W 097°08'66001033095.2
2018-Jan-22 18:29N 44°44' E 037°47'4025439067.9
2018-Jan-22 18:28N 31°31' E 121°23'57433445733.2
2018-Jan-22 18:28N 37°52' W 122°29'68643530214.5
2018-Jan-22 18:28N 46°56' E 031°57'6136380856.9
2018-Jan-22 18:27S 23°00' W 044°19'549682442.0
2018-Jan-22 18:23N 32°37' W 117°21'199155138.7
2018-Jan-22 18:21N 25°48' W 080°09'8235739.1
2018-Jan-22 18:12N 29°33' W 095°02'607731658.5
2018-Jan-22 18:01N 46°50' E 031°57'62217465796.9
2018-Jan-22 18:00N 49°17' W 123°08'628722634435.5
2018-Jan-22 18:00S 23°57' W 046°18'64717765449.9
2018-Jan-22 18:00N 63°13' E 021°09'45324079103.2
2018-Jan-22 18:00N 32°05' W 081°02'18471329720.5
2018-Jan-22 18:00N 32°37' W 117°28'20421838059.5
2018-Jan-22 18:00N 36°53' W 076°22'21971976919.5
2018-Jan-22 18:00N 37°47' W 122°23'575010350017.5
2018-Jan-22 18:00N 31°31' E 121°23'73822415957.4
2018-Jan-22 18:00N 27°51' W 097°04'915205783.3
2018-Jan-22 18:00N 25°48' W 080°09'53426410934.1
2018-Jan-22 18:00N 37°55' E 023°42'50404535779.0
2018-Jan-22 18:00N 01°17' E 103°57'65827898772.3
2018-Jan-22 17:59N 50°09' W 005°05'1439575770.2
2018-Jan-22 17:59N 37°56' E 023°39'47064234960.9
2018-Jan-22 17:59N 38°58' W 076°29'47861230772.8
2018-Jan-22 17:59N 46°56' E 031°57'277166352.9
2018-Jan-22 17:59N 44°44' E 037°47'81184870616.0
2018-Jan-22 17:59S 38°20' E 144°45'980017640146.1
2018-Jan-22 17:59S 23°00' W 044°19'63183249282.5
2018-Jan-22 17:59N 44°44' E 037°47'7236531648.3
2018-Jan-22 17:58N 37°52' W 122°29'68644118590.1
2018-Jan-22 17:58N 46°56' E 031°57'665.9
2018-Jan-22 17:52N 46°50' E 031°57'4854236161.8
2018-Jan-22 17:51N 36°49' W 075°47'1041243035.2
2018-Jan-22 17:36N 01°17' E 103°55'10817256188.1
2018-Jan-22 17:34N 26°54' W 080°04'55081321956.5
2018-Jan-22 17:33N 46°57' E 031°59'6268128200.3
2018-Jan-22 17:30S 23°57' W 046°18'545119625157.8
2018-Jan-22 17:30N 32°41' W 117°34'586821123982.5
2018-Jan-22 17:30N 63°13' E 021°09'56871204251.4
2018-Jan-22 17:30N 37°47' W 122°23'691248592.7
2018-Jan-22 17:30N 49°17' W 123°08'22011584446.3
2018-Jan-22 17:30N 36°52' W 075°53'700209909.1
2018-Jan-22 17:30N 25°48' W 080°09'53423846560.4
2018-Jan-22 17:30N 37°55' E 023°42'51571160434.0
2018-Jan-22 17:29N 32°05' W 080°59'51549277003.8
2018-Jan-22 17:29N 37°56' E 023°39'50451297292.7
2018-Jan-22 17:29N 01°16' E 103°58'48035763215.5
2018-Jan-22 17:29N 46°56' E 031°57'277199624.0
2018-Jan-22 17:29N 44°44' E 037°47'659611872333.3
2018-Jan-22 17:29N 27°49' W 096°57'65961187232.5
2018-Jan-22 17:29N 44°44' E 037°47'4025402491.5
2018-Jan-22 17:28N 31°30' E 121°22'42607668315.7
2018-Jan-22 17:28N 46°50' E 031°57'84655079094.5
2018-Jan-22 17:28S 38°20' E 144°45'846910162324.2
2018-Jan-22 17:28N 46°56' E 031°57'613622089704.1
2018-Jan-22 17:28S 23°00' W 044°19'61321576800.4
2018-Jan-22 17:28N 46°50' E 031°57'72294.2
2018-Jan-22 17:27N 46°57' E 031°59'4875302586.4
2018-Jan-22 17:26N 36°53' W 076°22'12564222.9
2018-Jan-22 17:26N 38°58' W 076°29'3126229654.3
2018-Jan-22 17:25N 50°10' W 005°05'65821077082.5
2018-Jan-22 17:25N 01°17' E 103°56'66023961236.2
2018-Jan-22 17:25N 43°33' W 005°57'16153965.6
2018-Jan-22 17:01N 46°50' E 031°57'62224479489.7
2018-Jan-22 17:00N 49°17' W 123°08'628722634422.7
2018-Jan-22 17:00S 23°57' W 046°18'40662927299.6
2018-Jan-22 17:00N 36°53' W 076°22'40752445222.5
2018-Jan-22 17:00N 63°13' E 021°09'56113366432.8
2018-Jan-22 17:00N 01°17' E 103°59'786714161136.8
2018-Jan-22 17:00N 37°47' W 122°23'1410390446.5
2018-Jan-22 17:00N 27°50' W 097°03'914205549.8
2018-Jan-22 17:00N 25°48' W 080°09'53429616410.2
2018-Jan-22 17:00N 37°55' E 023°42'51561091873.2
2018-Jan-22 16:59N 32°03' W 080°56'515218548911.2
2018-Jan-22 16:59N 37°56' E 023°39'474817094359.4
2018-Jan-22 16:59N 36°57' W 076°02'122146943.0
2018-Jan-22 16:59N 38°58' W 076°29'47861325447.6
2018-Jan-22 16:59N 46°56' E 031°57'277199626.2
2018-Jan-22 16:59N 44°44' E 037°47'63181895420.2
2018-Jan-22 16:59S 23°00' W 044°19'63184549007.5
2018-Jan-22 16:59N 44°44' E 037°47'27521969.0
2018-Jan-22 16:58N 46°50' E 031°57'63301.8
2018-Jan-22 16:58N 46°56' E 031°57'84693387433.7
2018-Jan-22 16:58S 38°20' E 144°45'332292706.4
2018-Jan-22 16:55N 01°15' E 103°55'6584128121.3
2018-Jan-22 16:52N 50°10' W 005°06'511847004.5
2018-Jan-22 16:46N 37°52' W 122°29'6865116582.0
2018-Jan-22 16:42N 46°57' E 031°59'1079.9
2018-Jan-22 16:34N 46°46' E 031°57'453.4
2018-Jan-22 16:31N 46°50' E 031°57'62225599353.0
2018-Jan-22 16:30N 49°17' W 123°08'2185983228.8
2018-Jan-22 16:30N 32°02' W 080°51'1078419411220.5
2018-Jan-22 16:30N 01°16' E 103°59'897032291895.2
2018-Jan-22 16:30S 23°57' W 046°18'89635378095.9
2018-Jan-22 16:30N 01°13' E 103°53'787528348704.9
2018-Jan-22 16:30N 37°47' W 122°23'2197878632.8
2018-Jan-22 16:30N 36°53' W 076°22'140125604707.9
2018-Jan-22 16:30S 38°20' E 144°45'94644867192.2
2018-Jan-22 16:30N 63°13' E 021°09'1521608436.2
2018-Jan-22 16:30N 37°55' E 023°42'48291738357.2
2018-Jan-22 16:29N 31°33' E 121°20'48312484540.4
2018-Jan-22 16:29N 37°56' E 023°39'47065646620.2
2018-Jan-22 16:29N 38°58' W 076°29'47861148721.3
2018-Jan-22 16:29N 46°56' E 031°57'625711261830.0
2018-Jan-22 16:29N 27°54' W 097°08'660023761242.6
2018-Jan-22 16:29N 44°44' E 037°47'0 1.1
2018-Jan-22 16:29N 44°44' E 037°47'27526719.4
2018-Jan-22 16:28N 46°50' E 031°57'62897.2
2018-Jan-22 16:28N 46°56' E 031°57'5563290220.7
2018-Jan-22 16:27N 25°48' W 080°09'5566200358.1
2018-Jan-22 16:25N 46°46' E 031°57'69465000887.2
2018-Jan-22 16:25N 32°38' W 117°23'6940780779.0
2018-Jan-22 16:24N 46°57' E 031°59'148626344.3
2018-Jan-22 16:21N 50°10' W 005°06'511837991.2
2018-Jan-22 16:13N 37°52' W 122°29'686933328.2
2018-Jan-22 16:01N 46°50' E 031°57'69308316595.8
2018-Jan-22 16:00N 33°02' W 117°36'10073623519.5
2018-Jan-22 16:00N 49°17' W 123°08'21811308493.6
2018-Jan-22 16:00N 36°53' W 076°22'2197564835.4
2018-Jan-22 16:00N 37°47' W 122°23'56876824091.1
2018-Jan-22 16:00N 63°13' E 021°09'58663016980.2
2018-Jan-22 16:00N 32°39' W 117°28'81739807265.1
2018-Jan-22 16:00N 01°16' E 103°58'108402439020.8
2018-Jan-22 16:00N 25°48' W 080°09'9181653007.9
2018-Jan-22 16:00N 27°54' W 097°08'61131222616.0
2018-Jan-22 15:59N 37°56' E 023°39'653138350.4
2018-Jan-22 15:59N 46°56' E 031°57'277166352.9
2018-Jan-22 15:59N 44°44' E 037°47'1770254840.6
2018-Jan-22 15:58N 50°09' W 005°05'65795921249.3
2018-Jan-22 15:58N 01°15' E 103°50'4795556860.4
2018-Jan-22 15:58N 46°50' E 031°57'687012365236.7
2018-Jan-22 15:58N 37°52' W 122°29'68646177885.1
2018-Jan-22 15:58N 46°56' E 031°57'4786183301.0
2018-Jan-22 15:56N 38°58' W 076°29'5119460709.4
2018-Jan-22 15:56N 44°44' E 037°47'2763932.8
2018-Jan-22 15:51N 46°57' E 031°59'424871462.4
2018-Jan-22 15:48N 31°36' E 121°16'9802236829.7
2018-Jan-22 15:45N 36°57' W 076°20'487219774.8
2018-Jan-22 15:31N 46°50' E 031°57'62224479480.8
2018-Jan-22 15:30N 49°17' W 123°08'48824394135.1
2018-Jan-22 15:30N 63°13' E 021°09'40754890445.1
2018-Jan-22 15:30N 36°53' W 076°22'20441839855.1
2018-Jan-22 15:30N 32°40' W 117°31'389140028.8
2018-Jan-22 15:30N 37°47' W 122°23'57521150358.5
2018-Jan-22 15:30N 31°38' E 121°15'73793320703.3
2018-Jan-22 15:30N 27°54' W 097°08'9181653007.9
2018-Jan-22 15:30N 25°48' W 080°09'534219232802.2
2018-Jan-22 15:30N 37°55' E 023°42'858310299540.2
2018-Jan-22 15:30S 38°20' E 144°45'85872060825.0
2018-Jan-22 15:29N 37°56' E 023°39'47065646614.5
2018-Jan-22 15:29N 38°58' W 076°29'47861148721.3
2018-Jan-22 15:29N 46°56' E 031°57'277332705.9
2018-Jan-22 15:29N 44°44' E 037°47'0 1.0
2018-Jan-22 15:29N 44°44' E 037°47'27525349.2
2018-Jan-22 15:28N 46°50' E 031°57'68708243485.8
2018-Jan-22 15:28N 37°52' W 122°29'78704722271.2
2018-Jan-22 15:28N 01°15' E 103°50'479717270811.3
2018-Jan-22 15:28N 46°56' E 031°57'607454122.5
2018-Jan-22 15:21N 29°33' W 095°02'43241729473.8
2018-Jan-22 15:21N 50°09' W 005°05'4950387429.3
2018-Jan-22 15:20S 23°00' W 044°19'613060459.0
2018-Jan-22 15:14N 46°46' E 031°57'5302424173.1
2018-Jan-22 15:13N 32°01' W 080°48'530124911.8
2018-Jan-22 15:01N 46°50' E 031°57'44510.7
2018-Jan-22 15:00N 46°46' E 031°57'479817272555.6
2018-Jan-22 15:00N 01°17' E 103°57'896832284531.1
2018-Jan-22 15:00S 23°57' W 046°18'40662439411.6
2018-Jan-22 15:00N 36°53' W 076°22'365657057.8
2018-Jan-22 15:00N 32°02' W 080°49'45282037513.9
2018-Jan-22 15:00N 63°13' E 021°09'56875118068.3
2018-Jan-22 15:00N 37°47' W 122°23'2271281941.1
2018-Jan-22 15:00N 25°48' W 080°09'3840987344.8
2018-Jan-22 14:59N 50°09' W 005°05'1439863659.7
2018-Jan-22 14:59N 37°56' E 023°39'54511784071.9
2018-Jan-22 14:59S 23°00' W 044°19'61363681614.6
2018-Jan-22 14:59N 46°56' E 031°57'277499058.8
2018-Jan-22 14:59N 44°44' E 037°47'0 1.0
2018-Jan-22 14:59N 44°44' E 037°47'27523538.5
2018-Jan-22 14:58N 46°50' E 031°57'84654353507.2
2018-Jan-22 14:58S 38°20' E 144°45'846910162320.3
2018-Jan-22 14:58N 46°56' E 031°57'4243258891.6
2018-Jan-22 14:57N 31°40' E 121°11'48181734406.9
2018-Jan-22 14:57N 37°55' E 023°42'6117423468.2
2018-Jan-22 14:56N 27°54' W 097°08'177082735.1
2018-Jan-22 14:54N 49°17' W 123°08'2103105140.0
2018-Jan-22 14:53N 38°58' W 076°29'216429729.3
2018-Jan-22 14:49N 37°52' W 122°29'6865116581.9
2018-Jan-22 14:45N 46°57' E 031°59'846734249.7
2018-Jan-22 14:31S 38°20' E 144°45'76099131139.3
2018-Jan-22 14:30N 49°17' W 123°08'45803297899.1
2018-Jan-22 14:30N 50°09' W 005°05'35923233021.9
2018-Jan-22 14:30N 32°04' W 080°50'39453550825.3
2018-Jan-22 14:30S 23°57' W 046°18'40661125883.0
2018-Jan-22 14:30N 36°53' W 076°22'693103941.6
2018-Jan-22 14:30N 25°48' W 080°09'53426410934.1
2018-Jan-22 14:30N 37°55' E 023°42'3717.4
2018-Jan-22 14:29N 37°56' E 023°39'645211086.1
2018-Jan-22 14:29N 46°46' E 031°57'1054759086.2
2018-Jan-22 14:29N 63°13' E 021°09'10453761019.0
2018-Jan-22 14:29N 46°56' E 031°57'277332713.5
2018-Jan-22 14:29N 44°44' E 037°47'66001827786.5
2018-Jan-22 14:29N 27°54' W 097°08'9360612675.0
2018-Jan-22 14:28N 01°17' E 104°01'48045764975.8
2018-Jan-22 14:28N 46°56' E 031°57'61362761214.9
2018-Jan-22 14:28S 23°00' W 044°19'61322759402.6
2018-Jan-22 14:28N 46°50' E 031°57'72101.0
2018-Jan-22 14:27N 46°57' E 031°59'68661901319.0
2018-Jan-22 14:27N 37°47' W 122°23'2161146751.2
2018-Jan-22 14:26N 38°58' W 076°29'5119472522.1
2018-Jan-22 14:26N 44°44' E 037°47'641719711.0
2018-Jan-22 14:06N 29°33' W 095°02'6077170913.7
2018-Jan-22 14:04N 46°50' E 031°57'4795107221.6
2018-Jan-22 14:01N 01°15' E 103°50'4795421062.5
2018-Jan-22 14:01N 46°50' E 031°57'62224479482.4
2018-Jan-22 14:00N 49°17' W 123°08'628711317211.3
2018-Jan-22 14:00S 23°57' W 046°18'647111648174.8
2018-Jan-22 14:00N 63°13' E 021°09'45233256753.8
2018-Jan-22 14:00N 32°07' W 080°50'361162642.5
2018-Jan-22 14:00N 36°53' W 076°22'21971581539.0
2018-Jan-22 14:00N 37°47' W 122°23'14521307100.8
2018-Jan-22 14:00N 29°33' W 095°02'823141017.4
2018-Jan-22 14:00N 25°48' W 080°09'53423846560.4
2018-Jan-22 14:00N 37°55' E 023°42'1443432789.4
2018-Jan-22 13:59N 50°09' W 005°05'1439863657.3
2018-Jan-22 13:59N 37°56' E 023°39'50481068908.3
2018-Jan-22 13:59N 01°18' E 104°02'44928086289.3
2018-Jan-22 13:59N 44°44' E 037°47'63182067734.1
2018-Jan-22 13:59S 23°00' W 044°19'63181516338.0
2018-Jan-22 13:59N 44°44' E 037°47'27526719.1
2018-Jan-22 13:58N 46°50' E 031°57'62107.1
2018-Jan-22 13:58N 46°56' E 031°57'113506.0
2018-Jan-22 13:58N 46°46' E 031°56'84646093746.4
2018-Jan-22 13:57S 38°20' E 144°45'14060684013.2
2018-Jan-22 13:56N 38°58' W 076°29'47861325445.2
2018-Jan-22 13:56N 46°56' E 031°57'62571324921.2
2018-Jan-22 13:56N 27°54' W 097°08'93711297584.4
2018-Jan-22 13:55N 01°15' E 103°50'8856187540.4
2018-Jan-22 13:52S 23°08' W 044°26'5913626134.2
2018-Jan-22 13:52N 37°52' W 122°29'14103931.5
2018-Jan-22 13:30N 27°54' W 097°08'540219446547.4
2018-Jan-22 13:30N 63°13' E 021°09'45224069460.8
2018-Jan-22 13:30N 32°09' W 080°51'21803924439.1
2018-Jan-22 13:30N 49°17' W 123°08'21811308495.8
2018-Jan-22 13:30N 36°53' W 076°22'40662927293.9
2018-Jan-22 13:30S 23°57' W 046°18'626022534851.8
2018-Jan-22 13:30N 46°46' E 031°57'84642031256.3
2018-Jan-22 13:30S 38°20' E 144°45'139544566648.3
2018-Jan-22 13:30N 25°48' W 080°09'53424808200.6
2018-Jan-22 13:30N 37°55' E 023°42'1443432789.4
2018-Jan-22 13:29N 50°09' W 005°05'14391295485.9
2018-Jan-22 13:29N 37°56' E 023°39'653146997.2
2018-Jan-22 13:29N 46°56' E 031°57'277142589.8
2018-Jan-22 13:29N 44°44' E 037°47'449316173454.9
2018-Jan-22 13:29N 01°18' E 104°03'4493851235.4
2018-Jan-22 13:29N 44°44' E 037°47'73168779626.5
2018-Jan-22 13:29N 32°42' W 117°44'6955695541.4
2018-Jan-22 13:28N 46°50' E 031°57'61929.7
2018-Jan-22 13:28N 46°56' E 031°57'61924.3
2018-Jan-22 13:28N 46°50' E 031°57'68701030468.4
2018-Jan-22 13:27N 37°47' W 122°23'1452746913.3
2018-Jan-22 13:27N 29°33' W 095°02'107986325.9
2018-Jan-22 13:26N 38°58' W 076°29'10409527766.2
2018-Jan-22 13:25N 01°15' E 103°50'479676738.6
2018-Jan-22 13:21N 46°57' E 031°59'686575122.7
2018-Jan-22 13:16N 37°52' W 122°29'586022780.1
2018-Jan-22 13:00S 23°57' W 046°18'40662927297.7
2018-Jan-22 13:00N 36°53' W 076°22'104473134029.4
2018-Jan-22 13:00N 01°18' E 104°00'786528315255.6
2018-Jan-22 13:00N 37°47' W 122°23'56875118068.3
2018-Jan-22 13:00N 63°13' E 021°09'48823515308.1
2018-Jan-22 13:00N 49°17' W 123°08'2484447088.0
2018-Jan-22 13:00N 25°48' W 080°09'53426410934.1
2018-Jan-22 13:00N 37°55' E 023°42'85833433177.5
2018-Jan-22 12:59S 38°20' E 144°45'1039912478698.7
2018-Jan-22 12:59N 50°09' W 005°05'1439863658.8
2018-Jan-22 12:59N 37°56' E 023°39'653146997.2
2018-Jan-22 12:59N 46°56' E 031°57'277142588.2
2018-Jan-22 12:59N 44°44' E 037°47'0 1.3
2018-Jan-22 12:59N 44°44' E 037°47'66003394456.5
2018-Jan-22 12:58N 27°54' W 097°08'6260751141.0
2018-Jan-22 12:58N 46°50' E 031°57'52963813454.8
2018-Jan-22 12:58N 32°10' W 080°51'52943176177.1
2018-Jan-22 12:58N 46°56' E 031°57'61924.2
2018-Jan-22 12:58N 46°50' E 031°57'71799.3
2018-Jan-22 12:57N 46°57' E 031°59'4797785017.4
2018-Jan-22 12:57N 01°13' E 103°50'47951015502.6
2018-Jan-22 12:57N 46°46' E 031°57'4791663393.9
2018-Jan-22 12:56N 38°58' W 076°29'125291.2
2018-Jan-22 12:31N 36°53' W 076°22'40662439414.8
2018-Jan-22 12:30S 23°57' W 046°18'647123296361.6
2018-Jan-22 12:30N 63°13' E 021°09'48821098533.8
2018-Jan-22 12:30N 49°17' W 123°08'621611188604.0
2018-Jan-22 12:30N 46°56' E 031°57'48031729018.7
2018-Jan-22 12:30N 01°16' E 103°58'108412295715.7
2018-Jan-22 12:30N 25°48' W 080°09'53424808200.6
2018-Jan-22 12:30N 37°55' E 023°42'1443432789.4
2018-Jan-22 12:29N 50°09' W 005°05'14391036391.4
2018-Jan-22 12:29N 37°56' E 023°39'47065646620.2
2018-Jan-22 12:29N 38°58' W 076°29'5119837654.8
2018-Jan-22 12:29N 44°44' E 037°47'0 1.5
2018-Jan-22 12:29N 44°44' E 037°47'66003394454.1
2018-Jan-22 12:28N 27°54' W 097°08'81009719764.5
2018-Jan-22 12:28S 38°20' E 144°45'84651050845.6
2018-Jan-22 12:28N 46°50' E 031°57'52969533645.2
2018-Jan-22 12:28N 32°10' W 080°51'52942117451.4
2018-Jan-22 12:28N 46°56' E 031°57'62568.0
2018-Jan-22 12:28N 46°50' E 031°57'72100.7
2018-Jan-22 12:27N 46°57' E 031°59'10835.8
2018-Jan-22 12:27N 46°46' E 031°57'6872233392.5
2018-Jan-22 12:25N 37°52' W 122°29'1458104962.9
2018-Jan-22 12:24N 29°33' W 095°02'10352637.4
2018-Jan-22 12:00N 36°53' W 076°22'40752095913.0
2018-Jan-22 12:00N 63°13' E 021°09'48823515308.1
2018-Jan-22 12:00N 49°17' W 123°08'77713497150.9
2018-Jan-22 12:00N 01°15' E 103°50'78767088458.4
2018-Jan-22 12:00N 37°47' W 122°23'14522614196.6
2018-Jan-22 12:00N 29°33' W 095°02'823113898.1
2018-Jan-22 12:00N 25°48' W 080°09'53426410940.1
2018-Jan-22 12:00N 37°55' E 023°42'1443472134.9
2018-Jan-22 11:59N 50°09' W 005°05'14391036390.9
2018-Jan-22 11:59N 37°56' E 023°39'47064234965.1
2018-Jan-22 11:59N 38°58' W 076°29'5119921421.9
2018-Jan-22 11:59N 44°44' E 037°47'66001250590.8
2018-Jan-22 11:59N 27°54' W 097°08'625711261816.3
2018-Jan-22 11:59N 46°56' E 031°57'277998116.2
2018-Jan-22 11:59N 44°44' E 037°47'5626493957.9
2018-Jan-22 11:58N 32°10' W 080°51'1416350986175.8
2018-Jan-22 11:58S 38°20' E 144°45'84695081157.3
2018-Jan-22 11:58N 46°56' E 031°57'62100.9
2018-Jan-22 11:58N 46°50' E 031°57'71939.1
2018-Jan-22 11:57N 46°57' E 031°59'10916.3
2018-Jan-22 11:57N 46°46' E 031°57'613072116.4
2018-Jan-22 11:52S 23°00' W 044°19'5913130598.6
2018-Jan-22 11:49N 37°52' W 122°29'3791303.2
2018-Jan-22 11:31N 32°46' W 117°56'2062137485.7
2018-Jan-22 11:31N 36°53' W 076°22'21811962705.2
2018-Jan-22 11:30N 49°17' W 123°08'48825858798.7
2018-Jan-22 11:30N 63°13' E 021°09'56871204251.4
2018-Jan-22 11:30N 37°47' W 122°23'687012365619.7
2018-Jan-22 11:30N 46°50' E 031°57'1369704121.8
2018-Jan-22 11:30N 41°09' E 001°14'4176835129.1
2018-Jan-22 11:30N 25°48' W 080°09'53423846564.1
2018-Jan-22 11:30N 37°55' E 023°42'3717.4
2018-Jan-22 11:29N 37°56' E 023°39'756100804.1
2018-Jan-22 11:29N 44°44' E 037°47'0 1.4
2018-Jan-22 11:29N 44°44' E 037°47'277332702.2
2018-Jan-22 11:29N 46°56' E 031°57'61365522421.9
2018-Jan-22 11:28S 23°00' W 044°19'49502545961.3
2018-Jan-22 11:28N 50°09' W 005°05'6579763974.0
2018-Jan-22 11:28N 01°15' E 103°50'1077538788641.2
2018-Jan-22 11:28N 32°10' W 080°51'52943811409.2
2018-Jan-22 11:28N 46°56' E 031°57'69561391156.1
2018-Jan-22 11:27N 32°46' W 117°56'72264335866.8
2018-Jan-22 11:27S 38°20' E 144°45'8464743145.5
2018-Jan-22 11:27N 46°46' E 031°57'62605633875.2
2018-Jan-22 11:27S 23°57' W 046°18'4179683914.2
2018-Jan-22 11:26N 38°58' W 076°29'107929429.0
2018-Jan-22 11:24N 29°33' W 095°02'145810688.7
2018-Jan-22 11:16N 37°52' W 122°29'686563210.6
2018-Jan-22 11:09N 46°57' E 031°59'132355361.5
2018-Jan-22 11:08N 66°24' E 013°08'624750540.4
2018-Jan-22 11:00S 23°00' W 044°19'632611387225.0
2018-Jan-22 11:00N 49°17' W 123°08'10161218650.1
2018-Jan-22 11:00N 32°49' W 117°56'20611855121.5
2018-Jan-22 11:00N 36°53' W 076°22'2197608281.2
2018-Jan-22 11:00N 37°47' W 122°23'14521045680.7
2018-Jan-22 11:00N 29°33' W 095°02'60771458401.3
2018-Jan-22 11:00N 46°50' E 031°57'626211271534.7
2018-Jan-22 11:00S 23°57' W 046°18'36091624221.3
2018-Jan-22 11:00N 25°48' W 080°09'53429616401.1
2018-Jan-22 11:00N 37°55' E 023°42'1521421225.1
2018-Jan-22 10:59N 63°13' E 021°09'15191367476.9
2018-Jan-22 10:59N 37°56' E 023°39'47064234962.3
2018-Jan-22 10:59N 38°58' W 076°29'5119801235.7
2018-Jan-22 10:59N 44°44' E 037°47'27762383.8
2018-Jan-22 10:59N 46°56' E 031°57'277499058.1
2018-Jan-22 10:59N 44°44' E 037°47'5626470983.1
2018-Jan-22 10:58N 32°10' W 080°51'52943176178.7
2018-Jan-22 10:58N 46°56' E 031°57'1205.9
2018-Jan-22 10:57N 46°57' E 031°59'4796431654.9
2018-Jan-22 10:57N 01°15' E 103°50'47948629683.9
2018-Jan-22 10:57N 46°46' E 031°57'6872229070.3
2018-Jan-22 10:55N 37°52' W 122°29'5120801392.5
2018-Jan-22 10:54N 50°10' W 005°05'449481295.0
2018-Jan-22 10:51N 27°54' W 097°08'9371462116.3
2018-Jan-22 10:50N 01°14' E 103°52'479772560.9
2018-Jan-22 10:46N 46°50' E 031°57'13648452.2
2018-Jan-22 10:36N 41°08' E 001°22'573859188.3
2018-Jan-22 10:30N 32°52' W 117°56'815514679871.7
2018-Jan-22 10:30N 01°13' E 103°49'560820189143.1
2018-Jan-22 10:30N 63°13' E 021°09'40753667839.2
2018-Jan-22 10:30N 36°53' W 076°22'40662439414.8
2018-Jan-22 10:30S 23°57' W 046°18'48171020054.0
2018-Jan-22 10:30N 41°06' E 001°17'13691231786.5
2018-Jan-22 10:30N 46°50' E 031°57'84657618642.9
2018-Jan-22 10:30S 38°20' E 144°45'760913696695.2
2018-Jan-22 10:30N 49°17' W 123°08'44728048708.4
2018-Jan-22 10:30N 66°24' E 013°07'13321598123.6
2018-Jan-22 10:30N 46°46' E 031°57'55655008938.9
2018-Jan-22 10:30N 25°48' W 080°09'53424808200.6
2018-Jan-22 10:30N 37°55' E 023°42'3717.4
2018-Jan-22 10:29N 37°56' E 023°39'47064234958.0
2018-Jan-22 10:29N 38°58' W 076°29'5119767850.2
2018-Jan-22 10:29N 44°44' E 037°47'27762383.8
2018-Jan-22 10:29N 46°56' E 031°57'277199625.4
2018-Jan-22 10:28N 44°44' E 037°47'27722189.4
2018-Jan-22 10:28N 46°56' E 031°57'1214.5
2018-Jan-22 10:27N 46°57' E 031°59'68661544820.6
2018-Jan-22 10:27N 37°47' W 122°23'5120224778.0
2018-Jan-22 10:26N 50°10' W 005°05'5120347771.2
2018-Jan-22 10:25N 37°52' W 122°29'6870143781.7
2018-Jan-22 10:22N 46°50' E 031°57'47994318961.9
2018-Jan-22 10:22N 01°14' E 103°54'1077919401648.7
2018-Jan-22 10:22N 32°10' W 080°51'158672719977.6
2018-Jan-22 10:22S 36°03' E 174°47'668525876.0
2018-Jan-22 10:06N 29°33' W 095°02'9477103390.4
2018-Jan-22 10:01N 01°12' E 103°48'1044037583798.8
2018-Jan-22 10:01N 36°53' W 076°22'48768776704.1
2018-Jan-22 10:00N 46°50' E 031°56'69526257018.4
2018-Jan-22 10:00N 32°55' W 117°57'1010519214.8
2018-Jan-22 10:00N 49°17' W 123°08'691248592.7
2018-Jan-22 10:00N 37°47' W 122°23'58521620675.8
2018-Jan-22 10:00S 23°57' W 046°18'63562542416.6
2018-Jan-22 10:00N 66°23' E 013°04'45802060902.1
2018-Jan-22 10:00N 25°48' W 080°09'53429616401.1
2018-Jan-22 10:00N 37°55' E 023°42'3637.1
2018-Jan-22 09:59N 37°56' E 023°39'756104682.2
2018-Jan-22 09:59N 44°44' E 037°47'81185844656.3
2018-Jan-22 09:59S 38°20' E 144°44'81183652913.9
2018-Jan-22 09:59N 44°44' E 037°47'277249526.6
2018-Jan-22 09:59N 46°56' E 031°57'6667.2
2018-Jan-22 09:58N 46°50' E 031°57'52962118586.1
2018-Jan-22 09:58N 32°10' W 080°51'52942722436.6
2018-Jan-22 09:58N 46°56' E 031°57'1206.5
2018-Jan-22 09:57N 46°57' E 031°59'1369144929.2
2018-Jan-22 09:57N 41°06' E 001°19'1366819794.7
2018-Jan-22 09:57N 46°46' E 031°57'4791718678.1
2018-Jan-22 09:56N 38°58' W 076°29'3126170500.9
2018-Jan-22 09:55N 50°09' W 005°05'5120921600.9
2018-Jan-22 09:55N 37°52' W 122°29'1458109336.7
2018-Jan-22 09:54N 29°33' W 095°02'9473454706.8
2018-Jan-22 09:53N 01°16' E 103°51'1137.6
2018-Jan-22 09:35N 01°17' E 104°02'7760103472.2
2018-Jan-22 09:30N 49°17' W 123°08'776227942886.5
2018-Jan-22 09:30N 01°17' E 104°01'104486268961.1
2018-Jan-22 09:30N 36°53' W 076°22'20631485529.3
2018-Jan-22 09:30N 32°54' W 117°60'81467331476.1
2018-Jan-22 09:30N 01°15' E 103°53'56096730495.2
2018-Jan-22 09:30N 63°13' E 021°09'568720472273.3
2018-Jan-22 09:30N 37°47' W 122°23'6922778708.9
2018-Jan-22 09:30N 37°55' E 023°42'3637.6
2018-Jan-22 09:29N 37°56' E 023°39'5039755848.6
2018-Jan-22 09:29N 01°12' E 103°48'44868074435.5
2018-Jan-22 09:29N 44°44' E 037°47'81187305912.7
2018-Jan-22 09:29S 38°20' E 144°45'991311895448.4
2018-Jan-22 09:29N 66°22' E 013°01'13282391148.7
2018-Jan-22 09:29N 46°50' E 031°57'62828.5
2018-Jan-22 09:29N 46°56' E 031°57'6630.1
2018-Jan-22 09:28N 46°50' E 031°57'52962383405.1
2018-Jan-22 09:28N 32°10' W 080°51'52943176166.1
2018-Jan-22 09:28N 46°56' E 031°57'68643088938.3
2018-Jan-22 09:28N 37°52' W 122°29'68651453844.9
2018-Jan-22 09:27N 46°57' E 031°59'4791574910.3
2018-Jan-22 09:27N 01°17' E 103°46'47892155058.2
2018-Jan-22 09:27N 46°46' E 031°57'4791638824.0
2018-Jan-22 09:26N 38°58' W 076°29'41791671793.4
2018-Jan-22 09:26S 23°57' W 046°18'5057866942.2
2018-Jan-22 09:26N 50°09' W 005°05'3840108840.9
2018-Jan-22 09:24N 25°48' W 080°09'8234261.0
2018-Jan-22 09:12N 29°33' W 095°02'10355377.5
2018-Jan-22 09:00N 36°53' W 076°22'21817850974.7
2018-Jan-22 09:00N 49°17' W 123°08'1012911078.2
2018-Jan-22 09:00N 32°51' W 118°00'36569215.1
2018-Jan-22 09:00N 37°47' W 122°23'58522106878.6
2018-Jan-22 09:00S 23°57' W 046°18'63542079542.9
2018-Jan-22 09:00N 66°22' E 013°01'45782746938.4
2018-Jan-22 09:00N 25°48' W 080°09'53429616401.1
2018-Jan-22 09:00N 37°55' E 023°42'50362589983.7
2018-Jan-22 08:59N 01°14' E 103°50'50391511827.6
2018-Jan-22 08:59N 37°56' E 023°39'47065646616.4
2018-Jan-22 08:59N 38°58' W 076°29'4789522476.9
2018-Jan-22 08:59N 46°50' E 031°57'275247344.0
2018-Jan-22 08:59N 44°44' E 037°47'277499063.6
2018-Jan-22 08:59N 46°56' E 031°57'84681451732.7
2018-Jan-22 08:58S 38°20' E 144°45'84651904657.6
2018-Jan-22 08:58N 46°50' E 031°57'61654.0
2018-Jan-22 08:58N 46°56' E 031°57'6074508499.7
2018-Jan-22 08:57N 29°33' W 095°02'60781042001.3
2018-Jan-22 08:57N 46°46' E 031°57'27320507.5
2018-Jan-22 08:56N 44°44' E 037°47'1769219638.4
2018-Jan-22 08:55N 50°09' W 005°05'5120400696.2
2018-Jan-22 08:55N 37°52' W 122°29'207444976.1
2018-Jan-22 08:52N 32°10' W 080°51'5295595675.2
2018-Jan-22 08:51N 46°57' E 031°59'625837113.3
2018-Jan-22 08:41N 27°54' W 097°08'936978435.1
2018-Jan-22 08:34N 01°14' E 103°54'228.5
2018-Jan-22 08:30N 01°15' E 103°53'104439398259.9
2018-Jan-22 08:30N 36°53' W 076°22'40662927297.7
2018-Jan-22 08:30S 23°57' W 046°18'58522106878.6
2018-Jan-22 08:30N 37°47' W 122°23'14521307098.3
2018-Jan-22 08:30N 29°33' W 095°02'17601583876.1
2018-Jan-22 08:30N 49°17' W 123°08'76093043713.1
2018-Jan-22 08:30S 38°20' E 144°45'722413003341.5
2018-Jan-22 08:30N 32°48' W 118°00'814714664137.1
2018-Jan-22 08:30N 01°14' E 103°54'1083713004641.6
2018-Jan-22 08:30N 25°48' W 080°09'5339800842.5
2018-Jan-22 08:29N 37°56' E 023°39'47065646616.4
2018-Jan-22 08:29N 38°58' W 076°29'5119682533.5
2018-Jan-22 08:29N 44°44' E 037°47'275197877.9
2018-Jan-22 08:29N 46°50' E 031°57'478817236472.7
2018-Jan-22 08:29N 01°14' E 103°39'1913579.1
2018-Jan-22 08:29N 01°17' E 103°57'480117282503.4
2018-Jan-22 08:29N 46°56' E 031°57'277199623.2
2018-Jan-22 08:29N 44°44' E 037°47'1769909925.4
2018-Jan-22 08:28N 50°09' W 005°05'1486222854.0
2018-Jan-22 08:28N 46°50' E 031°57'52962118582.3
2018-Jan-22 08:28N 32°10' W 080°51'52943176168.9
2018-Jan-22 08:28N 46°56' E 031°57'68643088937.7
2018-Jan-22 08:28N 37°52' W 122°29'6872449810.5
2018-Jan-22 08:27N 46°46' E 031°57'645387056.1
2018-Jan-22 08:27N 37°55' E 023°42'1011071088.0
2018-Jan-22 08:18S 36°19' E 174°60'6519460159.4
2018-Jan-22 08:17N 27°54' W 097°08'625827044.2
2018-Jan-22 08:03N 46°57' E 031°59'4790101426.3
2018-Jan-22 08:00N 01°13' E 103°39'89498054427.2
2018-Jan-22 08:00S 23°57' W 046°18'54749853295.2
2018-Jan-22 08:00N 32°47' W 117°58'20642476685.8
2018-Jan-22 08:00N 36°53' W 076°22'1044637607223.9
2018-Jan-22 08:00N 01°16' E 103°58'78692179126.5
2018-Jan-22 08:00N 37°47' W 122°23'78794727466.0
2018-Jan-22 08:00N 01°14' E 103°48'77756997216.3
2018-Jan-22 08:00N 49°17' W 123°08'62227465801.3
2018-Jan-22 08:00N 46°50' E 031°57'55641251991.8
2018-Jan-22 08:00N 25°48' W 080°09'556210012326.7
2018-Jan-22 08:00N 46°56' E 031°57'653130676.3
2018-Jan-22 07:59N 37°56' E 023°39'653588039.2
2018-Jan-22 07:59N 46°56' E 031°57'27747549.7
2018-Jan-22 07:59N 44°44' E 037°47'1546695908.0
2018-Jan-22 07:59N 66°22' E 013°02'1546428249.5
2018-Jan-22 07:59N 44°44' E 037°47'5626506305.6
2018-Jan-22 07:58N 32°10' W 080°51'3589445573.7
2018-Jan-22 07:57N 50°10' W 005°05'103993743606.9
2018-Jan-22 07:57S 38°20' E 144°45'14060872706.8
2018-Jan-22 07:56N 38°58' W 076°29'15749476426.0
2018-Jan-22 07:54S 36°24' E 175°00'66861719162.5
2018-Jan-22 07:54N 29°33' W 095°02'6078276987.9
2018-Jan-22 07:53N 46°46' E 031°57'6872374842.3
2018-Jan-22 07:52N 37°52' W 122°29'68651453844.7
2018-Jan-22 07:51N 46°57' E 031°59'736.9
2018-Jan-22 07:40N 46°50' E 031°57'479230317.9
2018-Jan-22 07:31N 01°16' E 103°46'81584894984.1
2018-Jan-22 07:30N 32°47' W 117°54'816714701129.9
2018-Jan-22 07:30N 01°13' E 103°38'1043018774128.8
2018-Jan-22 07:30N 36°53' W 076°22'40662439416.3
2018-Jan-22 07:30S 23°57' W 046°18'984917728824.6
2018-Jan-22 07:30S 38°20' E 144°45'72048645276.7
2018-Jan-22 07:30N 37°47' W 122°23'686524713108.6
2018-Jan-22 07:30N 46°56' E 031°57'621511187230.6
2018-Jan-22 07:30N 49°17' W 123°08'62222036129.6
2018-Jan-22 07:30N 46°50' E 031°57'648111074.0
2018-Jan-22 07:30N 37°55' E 023°42'61171468023.4
2018-Jan-22 07:29N 27°54' W 097°08'505418194914.1
2018-Jan-22 07:29N 66°22' E 013°02'17506300596.5
2018-Jan-22 07:29N 37°56' E 023°39'653784064.0
2018-Jan-22 07:29N 46°56' E 031°57'27736983.5
2018-Jan-22 07:29N 44°44' E 037°47'0 1.8
2018-Jan-22 07:29N 44°44' E 037°47'4491489893.1
2018-Jan-22 07:28N 01°16' E 103°58'78631347970.5
2018-Jan-22 07:28N 37°52' W 122°29'2276134346.0
2018-Jan-22 07:27N 25°48' W 080°09'811127013.7
2018-Jan-22 07:26N 38°58' W 076°29'107929429.3
2018-Jan-22 07:24N 29°33' W 095°02'74720838.0
2018-Jan-22 07:22N 32°10' W 080°51'52981733788.9
2018-Jan-22 07:22N 46°46' E 031°57'336.4
2018-Jan-22 07:16N 46°50' E 031°57'7643.8
2018-Jan-22 07:15N 46°57' E 031°59'479719447.5
2018-Jan-22 07:01N 01°13' E 103°49'1044018792665.4
2018-Jan-22 07:00N 36°53' W 076°22'40652926932.2
2018-Jan-22 07:00S 23°56' W 046°19'89705381849.9
2018-Jan-22 07:00N 01°16' E 103°59'33201493989.3
2018-Jan-22 07:00S 38°20' E 144°45'846810161941.8
2018-Jan-22 07:00N 46°56' E 031°57'686512357524.2
2018-Jan-22 07:00N 37°47' W 122°23'14521307099.5
2018-Jan-22 07:00N 29°33' W 095°02'17601583879.1
2018-Jan-22 07:00N 49°17' W 123°08'622111198695.3
2018-Jan-22 07:00N 46°50' E 031°57'55641251991.2
2018-Jan-22 07:00N 25°48' W 080°09'38402764562.5
2018-Jan-22 07:00N 50°09' W 005°05'1483281055.5
2018-Jan-22 06:59N 46°56' E 031°57'478617230290.6
2018-Jan-22 06:59N 38°58' W 076°29'104023744556.3
2018-Jan-22 06:59N 01°12' E 103°40'93834222502.9
2018-Jan-22 06:59N 27°54' W 097°08'66004752244.9
2018-Jan-22 06:59N 44°44' E 037°47'0 2.0
2018-Jan-22 06:59N 44°44' E 037°47'27529957.6
2018-Jan-22 06:58N 46°50' E 031°57'52962383405.1
2018-Jan-22 06:58N 32°10' W 080°51'42102165194.7
2018-Jan-22 06:58N 66°22' E 013°02'13321597967.2
2018-Jan-22 06:58N 46°46' E 031°57'68724947922.8
2018-Jan-22 06:58N 37°52' W 122°29'37912195.7
2018-Jan-22 06:56N 32°48' W 117°51'5791245286.1
2018-Jan-22 06:54S 36°34' E 174°59'464752775.1
2018-Jan-22 06:49N 01°18' E 104°05'2579.7
2018-Jan-22 06:30N 01°13' E 103°41'81709803881.8
2018-Jan-22 06:30N 32°45' W 117°48'20571480770.8
2018-Jan-22 06:30N 36°53' W 076°22'21811962735.0
2018-Jan-22 06:30N 49°17' W 123°08'691225989.5
2018-Jan-22 06:30N 37°47' W 122°23'58292997669.5
2018-Jan-22 06:30S 36°30' E 175°00'990417826832.6
2018-Jan-22 06:30N 46°50' E 031°57'62622049459.2
2018-Jan-22 06:30S 23°55' W 046°20'36071623290.4
2018-Jan-22 06:30N 25°48' W 080°09'38401727855.1
2018-Jan-22 06:29N 50°09' W 005°05'1483381432.9
2018-Jan-22 06:29N 46°56' E 031°57'84695081154.9
2018-Jan-22 06:29S 38°20' E 144°45'81181719040.9
2018-Jan-22 06:29N 44°44' E 037°47'27776770.8
2018-Jan-22 06:29N 46°56' E 031°57'277124750.8
2018-Jan-22 06:29N 44°44' E 037°47'27531890.1
2018-Jan-22 06:28N 46°50' E 031°57'4801131944.3
2018-Jan-22 06:26N 01°17' E 103°60'480040377.2
2018-Jan-22 06:19N 46°46' E 031°57'687224739594.8
2018-Jan-22 06:19N 37°52' W 122°29'1458138109.2
2018-Jan-22 06:18N 29°33' W 095°02'107979276.2
2018-Jan-22 06:17N 38°58' W 076°29'46020204.1
2018-Jan-22 06:16N 32°10' W 080°51'107879708171.5
2018-Jan-22 06:16N 01°18' E 104°05'935652383.7
2018-Jan-22 06:05N 27°54' W 097°08'9375121402.0
2018-Jan-22 06:00N 01°13' E 103°48'46562394306.4
2018-Jan-22 06:00S 36°25' E 174°59'58251613132.4
2018-Jan-22 06:00N 37°47' W 122°23'68702060938.1
2018-Jan-22 06:00N 46°50' E 031°57'62222799676.5
2018-Jan-22 06:00N 49°17' W 123°08'77583103370.4
2018-Jan-22 06:00N 01°18' E 104°04'412651.0
2018-Jan-22 06:00N 01°19' E 104°00'65842962753.4
2018-Jan-22 05:59N 50°09' W 005°05'1130290606.6
2018-Jan-22 05:59N 66°23' E 013°06'99104459437.9
2018-Jan-22 05:59S 38°20' E 144°45'81009719772.6
2018-Jan-22 05:59N 27°54' W 097°08'66002376120.8
2018-Jan-22 05:59N 44°44' E 037°47'27776778.3
2018-Jan-22 05:59N 46°56' E 031°57'27799809.3
2018-Jan-22 05:59N 44°44' E 037°47'27534090.2
2018-Jan-22 05:58N 46°50' E 031°57'52961906722.5
2018-Jan-22 05:58N 32°10' W 080°51'52942722430.4
2018-Jan-22 05:58N 46°56' E 031°57'68644942304.5
2018-Jan-22 05:58N 37°52' W 122°29'1458145781.8
2018-Jan-22 05:57N 29°33' W 095°02'82314516.5
2018-Jan-22 05:54N 25°48' W 080°09'556567460.5
2018-Jan-22 05:49N 46°46' E 031°57'613048500.2
2018-Jan-22 05:41S 23°00' W 044°19'6085561674.7
2018-Jan-22 05:40N 46°37' E 031°02'44372.3
2018-Jan-22 05:33N 46°57' E 031°59'4875103846.3
2018-Jan-22 05:31N 36°53' W 076°22'21811962736.7
2018-Jan-22 05:30N 49°17' W 123°08'63261897888.7
2018-Jan-22 05:30S 23°00' W 044°19'884410613097.1
2018-Jan-22 05:30N 01°11' E 103°46'78839459310.2
2018-Jan-22 05:30N 37°47' W 122°23'1452746913.3
2018-Jan-22 05:30N 29°33' W 095°02'60773125144.5
2018-Jan-22 05:30N 46°50' E 031°57'98942226212.9
2018-Jan-22 05:30S 36°18' E 174°58'1569128243657.6
2018-Jan-22 05:30N 25°48' W 080°09'55266630662.2
2018-Jan-22 05:30N 46°37' E 031°02'1327238861.3
2018-Jan-22 05:29N 66°24' E 013°09'1546222586.7
2018-Jan-22 05:29N 44°44' E 037°47'0 1.2
2018-Jan-22 05:29N 44°44' E 037°47'17693184732.4
2018-Jan-22 05:28N 50°10' W 005°05'1483314145.0
2018-Jan-22 05:28N 46°56' E 031°57'84684355200.6
2018-Jan-22 05:28S 38°20' E 144°45'84656094913.4
2018-Jan-22 05:28N 46°50' E 031°57'52962118580.5
2018-Jan-22 05:28N 32°10' W 080°51'2074497735.0
2018-Jan-22 05:28N 37°52' W 122°29'7856725177.4
2018-Jan-22 05:27N 01°18' E 104°05'10420872366.4
2018-Jan-22 05:26N 38°58' W 076°29'4786189343.9
2018-Jan-22 05:25N 46°56' E 031°57'1035662.6
2018-Jan-22 05:25N 46°46' E 031°57'1066.8
2018-Jan-22 05:15N 46°57' E 031°59'4791134744.0
2018-Jan-22 05:13N 01°18' E 103°46'1990.6
2018-Jan-22 05:01N 01°17' E 104°04'65881248311.7
2018-Jan-22 05:00N 50°10' W 005°05'45808244736.6
2018-Jan-22 05:00N 49°17' W 123°08'686617037.5
2018-Jan-22 05:00N 37°52' W 122°29'22003960123.1
2018-Jan-22 05:00N 36°53' W 076°22'48741754549.2
2018-Jan-22 05:00N 46°56' E 031°57'68654942626.4
2018-Jan-22 05:00N 37°47' W 122°23'78659438210.3
2018-Jan-22 05:00N 01°19' E 104°00'109209.1
2018-Jan-22 05:00N 01°15' E 103°50'108342166704.3
2018-Jan-22 05:00N 25°48' W 080°09'1569156488907.0
2018-Jan-22 05:00S 36°21' E 174°58'112221836294.8
2018-Jan-22 04:59N 66°24' E 013°09'36536574805.9
2018-Jan-22 04:59N 38°58' W 076°29'41811504999.0
2018-Jan-22 04:59S 23°00' W 044°19'63181516336.1
2018-Jan-22 04:59N 44°44' E 037°47'0 0.0
2018-Jan-22 04:58N 44°44' E 037°47'5626519288.1
2018-Jan-22 04:58N 32°10' W 080°51'52943176169.4
2018-Jan-22 04:58N 46°56' E 031°57'48051441626.7
2018-Jan-22 04:58N 01°17' E 104°03'48041330375.4
2018-Jan-22 04:57N 46°57' E 031°59'84672032152.1
2018-Jan-22 04:57S 38°20' E 144°45'84653386168.1
2018-Jan-22 04:57N 46°50' E 031°57'4790242885.1
2018-Jan-22 04:56N 01°17' E 103°46'4789282633.5
2018-Jan-22 04:55N 46°46' E 031°57'10544412.1
2018-Jan-22 04:40N 63°13' E 021°09'1051164467.7
2018-Jan-22 04:40N 46°50' E 031°57'695866792.5
2018-Jan-22 04:34N 32°35' W 117°38'8176151713.7
2018-Jan-22 04:31N 01°17' E 103°45'77756997658.2
2018-Jan-22 04:30N 49°17' W 123°08'21811308491.1
2018-Jan-22 04:30N 36°53' W 076°22'2197564834.1
2018-Jan-22 04:30N 37°47' W 122°23'14521307100.8
2018-Jan-22 04:30N 29°33' W 095°02'947734117242.5
2018-Jan-22 04:30N 01°17' E 103°46'54697.9
2018-Jan-22 04:30N 01°15' E 103°50'56072883407.6
2018-Jan-22 04:30N 63°13' E 021°09'48811351741.7
2018-Jan-22 04:30N 25°48' W 080°09'5562770072.2
2018-Jan-22 04:29N 46°56' E 031°56'61353154990.7
2018-Jan-22 04:29S 23°00' W 044°19'55072202999.8
2018-Jan-22 04:29N 32°34' W 117°37'73183293287.4
2018-Jan-22 04:29N 44°44' E 037°47'1769353861.5
2018-Jan-22 04:29N 50°10' W 005°05'17696369493.2
2018-Jan-22 04:28N 44°44' E 037°47'27534090.5
2018-Jan-22 04:28N 46°50' E 031°57'52961906725.8
2018-Jan-22 04:28N 32°10' W 080°51'52982724531.5
2018-Jan-22 04:28N 46°46' E 031°57'68721178076.7
2018-Jan-22 04:27N 37°52' W 122°29'68658238453.1
2018-Jan-22 04:27N 46°57' E 031°59'71096.9
2018-Jan-22 04:27N 46°50' E 031°57'4789420530.8
2018-Jan-22 04:26N 38°58' W 076°29'157453542512.6
2018-Jan-22 04:26S 36°17' E 174°59'464590877.0
2018-Jan-22 04:23N 01°16' E 103°59'658517639.3
2018-Jan-22 04:01N 50°09' W 005°05'32025763793.4
2018-Jan-22 04:00N 36°53' W 076°22'21812616982.3
2018-Jan-22 04:00N 49°17' W 123°08'686352592.8
2018-Jan-22 04:00N 37°52' W 122°29'400360065.2
2018-Jan-22 04:00N 32°32' W 117°35'587910582113.1
2018-Jan-22 04:00N 63°13' E 021°09'56872924610.5
2018-Jan-22 04:00N 37°47' W 122°23'14521742797.7
2018-Jan-22 04:00N 29°33' W 095°02'60773125144.5
2018-Jan-22 04:00N 46°50' E 031°57'47902874091.2
2018-Jan-22 04:00N 01°17' E 103°45'47922464534.1
2018-Jan-22 04:00N 46°56' E 031°57'8469743581.3
2018-Jan-22 03:59S 38°20' E 144°45'81182656695.5
2018-Jan-22 03:59N 44°44' E 037°47'27519385.1
2018-Jan-22 03:58N 46°50' E 031°57'52962118589.7
2018-Jan-22 03:58N 32°10' W 080°51'52944764269.8
2018-Jan-22 03:58N 46°56' E 031°57'47885745120.2
2018-Jan-22 03:58N 01°14' E 103°36'224347.3
2018-Jan-22 03:57N 01°16' E 103°58'48012880638.1
2018-Jan-22 03:57N 46°57' E 031°59'5564465816.7
2018-Jan-22 03:57N 25°48' W 080°09'811127013.6
2018-Jan-22 03:56N 38°58' W 076°29'5119428566.8
2018-Jan-22 03:56N 44°44' E 037°47'27320088.4
2018-Jan-22 03:55N 46°46' E 031°57'6130580726.2
2018-Jan-22 03:54S 23°00' W 044°19'1146187971.5
2018-Jan-22 03:46S 36°20' E 174°59'993859827.1
2018-Jan-22 03:36N 46°37' E 031°02'482749794.0
2018-Jan-22 03:30N 01°17' E 103°45'81797360803.7
2018-Jan-22 03:30N 32°29' W 117°35'588221176623.1
2018-Jan-22 03:30N 63°13' E 021°09'40754890445.1
2018-Jan-22 03:30N 36°53' W 076°22'2197608282.9
2018-Jan-22 03:30N 37°47' W 122°23'6912485927.2
2018-Jan-22 03:30N 49°17' W 123°08'62222036128.3
2018-Jan-22 03:30N 46°50' E 031°57'72127.4
2018-Jan-22 03:30N 46°56' E 031°57'99018910517.0
2018-Jan-22 03:30S 36°24' E 174°59'1191642898856.7
2018-Jan-22 03:30N 50°09' W 005°05'3126489264.0
2018-Jan-22 03:29N 38°58' W 076°29'104091972177.7
2018-Jan-22 03:29N 01°15' E 103°50'44851467853.1
2018-Jan-22 03:29N 44°44' E 037°47'0 2.8
2018-Jan-22 03:28N 44°44' E 037°47'631822745098.0
2018-Jan-22 03:28S 23°00' W 044°19'883615905018.3
2018-Jan-22 03:28N 01°15' E 103°36'4785748962.9
2018-Jan-22 03:28N 46°50' E 031°57'52961906729.0
2018-Jan-22 03:28N 32°10' W 080°51'52942722476.7
2018-Jan-22 03:28N 46°56' E 031°57'6864988475.1
2018-Jan-22 03:27N 37°52' W 122°29'2276204878.1
2018-Jan-22 03:27N 25°48' W 080°09'5565142097.6
2018-Jan-22 03:24N 46°46' E 031°57'3970285.1
2018-Jan-22 03:24N 46°37' E 031°02'60411449750.5
2018-Jan-22 03:24N 29°33' W 095°02'6075135839.0
2018-Jan-22 03:21N 46°57' E 031°59'478813744.2
2018-Jan-22 03:00N 01°13' E 103°36'56004032046.7
2018-Jan-22 03:00N 63°13' E 021°09'40757335678.3
2018-Jan-22 03:00N 36°53' W 076°22'48743509034.9
2018-Jan-22 03:00N 46°56' E 031°57'62153196278.3
2018-Jan-22 03:00N 49°17' W 123°08'63335699988.6
2018-Jan-22 03:00S 36°31' E 174°58'669012042875.5
2018-Jan-22 03:00N 29°33' W 095°02'60774375198.9
2018-Jan-22 03:00N 46°50' E 031°57'55641054309.3
2018-Jan-22 03:00N 25°48' W 080°09'2271327051.7
2018-Jan-22 02:59N 37°47' W 122°23'78761492306.7
2018-Jan-22 02:59N 01°15' E 103°50'448516146367.5
2018-Jan-22 02:59N 44°44' E 037°47'0 1.2
2018-Jan-22 02:58N 44°44' E 037°47'1769303312.4
2018-Jan-22 02:58N 50°09' W 005°05'14861069706.7
2018-Jan-22 02:58N 46°50' E 031°57'52961906730.0
2018-Jan-22 02:58N 32°10' W 080°51'1416312746543.9
2018-Jan-22 02:58S 38°20' E 144°45'846910162210.3
2018-Jan-22 02:58N 46°56' E 031°57'6136513714.9
2018-Jan-22 02:57S 23°00' W 044°19'4181334444.4
2018-Jan-22 02:56N 38°58' W 076°29'10403558955.3
2018-Jan-22 02:55N 01°17' E 103°46'8177180605.7
2018-Jan-22 02:52N 32°31' W 117°35'6961309381.7
2018-Jan-22 02:51N 46°46' E 031°57'10874.2
2018-Jan-22 02:50N 46°57' E 031°59'990629841.8
2018-Jan-22 02:30S 36°37' E 174°57'634022823062.5
2018-Jan-22 02:30N 49°17' W 123°08'48825858846.8
2018-Jan-22 02:30N 63°13' E 021°09'560220167727.3
2018-Jan-22 02:30N 01°16' E 103°44'78759450587.2
2018-Jan-22 02:30N 37°52' W 122°29'2200440013.7
2018-Jan-22 02:30N 36°53' W 076°22'1044018791734.5
2018-Jan-22 02:30N 01°15' E 103°50'47955754518.0
2018-Jan-22 02:30N 46°50' E 031°57'6539.8
2018-Jan-22 02:29N 46°56' E 031°57'686524713928.1
2018-Jan-22 02:29N 37°47' W 122°23'59061012483.5
2018-Jan-22 02:29S 23°00' W 044°19'63185686252.5
2018-Jan-22 02:29N 44°44' E 037°47'0 1.8
2018-Jan-22 02:29N 44°44' E 037°47'27534090.1
2018-Jan-22 02:28N 46°50' E 031°57'52961906729.0
2018-Jan-22 02:28N 32°10' W 080°51'52942382167.1
2018-Jan-22 02:28N 46°56' E 031°57'14831335023.6
2018-Jan-22 02:28N 50°10' W 005°04'51741330547.1
2018-Jan-22 02:27N 32°34' W 117°33'7237898355.3
2018-Jan-22 02:27S 38°20' E 144°45'139542511657.6
2018-Jan-22 02:27N 25°48' W 080°09'811127013.7
2018-Jan-22 02:26N 38°58' W 076°29'478722266.8
2018-Jan-22 02:13N 46°57' E 031°59'695132328.9
2018-Jan-22 02:00N 32°34' W 117°32'58757049870.4
2018-Jan-22 02:00N 63°13' E 021°09'568520464270.1
2018-Jan-22 02:00N 37°52' W 122°29'22002640080.5
2018-Jan-22 02:00N 36°53' W 076°22'40692929455.7
2018-Jan-22 02:00S 23°00' W 044°19'43791313738.7
2018-Jan-22 02:00N 29°33' W 095°02'94746820977.5
2018-Jan-22 02:00N 01°15' E 103°50'479517263552.4
2018-Jan-22 02:00N 46°50' E 031°57'55641054308.4
2018-Jan-22 02:00N 25°48' W 080°09'5563953602.9
2018-Jan-22 01:59N 46°56' E 031°57'47868615401.7
2018-Jan-22 01:59N 38°58' W 076°29'21617777816.1
2018-Jan-22 01:59N 37°47' W 122°23'5120970100.6
2018-Jan-22 01:59N 50°10' W 005°05'1769254779.6
2018-Jan-22 01:58N 44°44' E 037°47'27536615.0
2018-Jan-22 01:58N 46°50' E 031°57'52961906730.7
2018-Jan-22 01:58N 32°10' W 080°51'52942117483.7
2018-Jan-22 01:58N 46°56' E 031°57'2778913.5
2018-Jan-22 01:56N 44°44' E 037°47'9549162161.1
2018-Jan-22 01:52S 36°44' E 174°50'990466029.8
2018-Jan-22 01:43N 46°57' E 031°59'487522792.3
2018-Jan-22 01:30N 36°53' W 076°22'1042837540387.6
2018-Jan-22 01:30N 01°13' E 103°36'81909828125.7
2018-Jan-22 01:30N 32°31' W 117°34'58805291833.5
2018-Jan-22 01:30N 63°13' E 021°09'56856821436.4
2018-Jan-22 01:30N 37°52' W 122°29'6862468149.9
2018-Jan-22 01:30N 49°17' W 123°08'1760395970.1
2018-Jan-22 01:30N 29°33' W 095°02'60777292009.9
2018-Jan-22 01:30N 46°50' E 031°57'479517263562.5
2018-Jan-22 01:30N 01°15' E 103°50'33251330057.2
2018-Jan-22 01:30S 38°20' E 144°45'139545023315.2
2018-Jan-22 01:30N 25°48' W 080°09'811132786.1
2018-Jan-22 01:29N 38°58' W 076°29'478617230819.4
2018-Jan-22 01:29N 46°56' E 031°57'686524713945.9
2018-Jan-22 01:29N 37°47' W 122°23'72371042085.0
2018-Jan-22 01:29N 44°44' E 037°47'0 1.3
2018-Jan-22 01:28N 44°44' E 037°47'63181337942.4
2018-Jan-22 01:28S 23°00' W 044°19'61322207598.9
2018-Jan-22 01:28N 46°50' E 031°57'14862674242.6
2018-Jan-22 01:28N 50°09' W 005°05'35891435745.3
2018-Jan-22 01:28N 32°10' W 080°51'52943176225.5
2018-Jan-22 01:28N 46°56' E 031°57'9908213589.9
2018-Jan-22 01:25S 36°49' E 174°50'9907105516.2
2018-Jan-22 01:19N 46°57' E 031°59'6867380323.3
2018-Jan-22 01:18N 37°48' W 122°27'7858291621.5
2018-Jan-22 01:17N 01°19' E 104°05'29106.7
2018-Jan-22 01:00N 01°13' E 103°37'104294171595.8
2018-Jan-22 01:00N 36°53' W 076°22'40752095908.1
2018-Jan-22 01:00N 63°13' E 021°09'52151564529.6
2018-Jan-22 01:00N 29°33' W 095°02'60775469007.4
2018-Jan-22 01:00N 46°50' E 031°57'55641054308.4
2018-Jan-22 01:00N 25°48' W 080°09'38402764568.2
2018-Jan-22 01:00N 50°10' W 005°04'45802355644.8
2018-Jan-22 00:59N 49°17' W 123°08'62152237531.1
2018-Jan-22 00:59N 46°56' E 031°57'478617230791.7
2018-Jan-22 00:59N 38°58' W 076°29'21612592605.4
2018-Jan-22 00:59N 37°47' W 122°23'395177634.8
2018-Jan-22 00:59N 32°30' W 117°35'73202395693.9
2018-Jan-22 00:59N 44°44' E 037°47'81184174886.1
2018-Jan-22 00:59S 38°20' E 144°45'81181948283.3
2018-Jan-22 00:59N 44°44' E 037°47'5626519289.1
2018-Jan-22 00:58N 32°10' W 080°51'3967264443.8
2018-Jan-22 00:57S 23°00' W 044°19'6138225464.4
2018-Jan-22 00:55N 46°57' E 031°59'1132.5
2018-Jan-22 00:55N 46°56' E 031°57'4805227618.3
2018-Jan-22 00:53N 01°18' E 104°04'4803203425.4
2018-Jan-22 00:52N 46°50' E 031°57'6870110898.8
2018-Jan-22 00:48N 37°52' W 122°29'568519036.5
2018-Jan-22 00:30N 63°13' E 021°09'56853410711.7
2018-Jan-22 00:30N 37°52' W 122°29'78834729543.3
2018-Jan-22 00:30N 01°12' E 103°40'81893684847.0
2018-Jan-22 00:30N 32°33' W 117°32'11714214247.3
2018-Jan-22 00:30N 29°33' W 095°02'10351242209.3
2018-Jan-22 00:30N 36°53' W 076°22'48778778109.9
2018-Jan-22 00:30N 46°50' E 031°57'55641001593.0
2018-Jan-22 00:30N 25°48' W 080°09'2484425798.1
2018-Jan-22 00:29N 49°17' W 123°08'621522375310.9
2018-Jan-22 00:29N 46°56' E 031°57'47868615403.8
2018-Jan-22 00:29N 38°58' W 076°29'21613888910.4
2018-Jan-22 00:29N 37°47' W 122°23'78763544228.5
2018-Jan-22 00:29N 01°15' E 103°50'88504551513.8
2018-Jan-22 00:29S 23°00' W 044°19'63184549008.4
2018-Jan-22 00:29N 44°44' E 037°47'1769318473.6
2018-Jan-22 00:29N 50°09' W 005°05'17696369472.6
2018-Jan-22 00:29N 44°44' E 037°47'5626506307.6
2018-Jan-22 00:28N 32°10' W 080°51'52942382169.1
2018-Jan-22 00:28N 46°56' E 031°57'4805393153.9
2018-Jan-22 00:27N 01°19' E 104°04'33191706684.4
2018-Jan-22 00:27S 38°20' E 144°45'846547101.3
2018-Jan-22 00:16N 46°50' E 031°57'686131422.6
2018-Jan-22 00:03N 37°55' W 122°21'219353342.6
2018-Jan-22 00:01N 36°53' W 076°22'21817852090.7
2018-Jan-22 00:01N 49°17' W 123°09'6832459492.4
2018-Jan-22 00:00N 37°55' W 122°21'398357891.5
2018-Jan-22 00:00N 32°36' W 117°29'819029483612.3
2018-Jan-22 00:00N 01°11' E 103°41'47934313726.6
2018-Jan-22 00:00N 46°57' E 031°59'10453760482.6
2018-Jan-22 00:00N 63°13' E 021°09'1166699682.5
2018-Jan-22 00:00N 50°09' W 005°04'65803383767.8
2018-Jan-22 00:00N 01°16' E 103°52'94726820062.0
2018-Jan-22 00:00N 29°33' W 095°02'607710938005.7
2018-Jan-22 00:00N 46°50' E 031°57'61327358374.7
2018-Jan-22 00:00S 23°00' W 044°19'3632688197.6
2018-Jan-22 00:00N 25°48' W 080°09'5563953602.9
2018-Jan-21 23:59N 46°56' E 031°57'68658237974.9
2018-Jan-21 23:59N 37°47' W 122°23'72371132700.1
2018-Jan-21 23:59N 44°44' E 037°47'0 1.1
2018-Jan-21 23:58N 44°44' E 037°47'27541192.9
2018-Jan-21 23:58N 46°50' E 031°57'52961588942.2
2018-Jan-21 23:58N 32°10' W 080°51'52942722479.0
2018-Jan-21 23:58N 46°56' E 031°57'4803298087.5
2018-Jan-21 23:57N 01°16' E 103°58'104151249809.3
2018-Jan-21 23:56N 38°58' W 076°29'216411873.6
2018-Jan-21 23:45N 37°52' W 122°29'22008919.2
2018-Jan-21 23:31N 36°53' W 076°22'20411049819.1
2018-Jan-21 23:30N 32°39' W 117°27'586610558732.9
2018-Jan-21 23:30N 63°13' E 021°09'56771075622.1
2018-Jan-21 23:30N 37°54' W 122°22'68614940197.5
2018-Jan-21 23:30N 46°50' E 031°57'62222488601.3
2018-Jan-21 23:30N 49°17' W 123°08'778414010871.9
2018-Jan-21 23:30N 01°12' E 103°39'4791689836.5
2018-Jan-21 23:29N 46°57' E 031°59'11212.7
2018-Jan-21 23:29N 46°56' E 031°57'68656178482.0
2018-Jan-21 23:29N 37°47' W 122°23'21617777820.8
2018-Jan-21 23:29N 38°58' W 076°29'5119969916.1
2018-Jan-21 23:29N 44°44' E 037°47'0 0.9
2018-Jan-21 23:29N 44°44' E 037°47'44904041295.3
2018-Jan-21 23:28N 01°17' E 103°60'88602126375.2
2018-Jan-21 23:28S 23°01' W 044°19'61332453022.0
2018-Jan-21 23:28N 46°50' E 031°57'52961588940.9
2018-Jan-21 23:28N 32°10' W 080°51'52942382167.1
2018-Jan-21 23:28N 46°56' E 031°57'1483130251.1
2018-Jan-21 23:27N 50°09' W 005°05'103992879699.1
2018-Jan-21 23:27S 38°20' E 144°45'139545023313.1
2018-Jan-21 23:27N 25°48' W 080°09'82318742.8
2018-Jan-21 23:24N 29°33' W 095°02'145832396.0
2018-Jan-21 23:21N 37°52' W 122°29'687245899.0
2018-Jan-21 23:12N 46°46' E 031°56'622531475.1
2018-Jan-21 23:00N 49°17' W 123°08'10291235258.2
2018-Jan-21 23:00N 32°40' W 117°25'586310553629.9
2018-Jan-21 23:00N 63°13' E 021°09'568020447895.8
2018-Jan-21 23:00N 37°53' W 122°25'21977907534.6
2018-Jan-21 23:00N 36°53' W 076°22'22003960123.1
2018-Jan-21 23:00N 37°52' W 122°29'51201316572.7
2018-Jan-21 23:00N 50°10' W 005°05'657323662354.0
2018-Jan-21 23:00N 01°15' E 103°43'948111377147.5
2018-Jan-21 23:00N 29°33' W 095°02'60777292000.2
2018-Jan-21 23:00N 46°50' E 031°57'55641001592.6
2018-Jan-21 23:00N 25°48' W 080°09'5563910257.0
2018-Jan-21 22:59N 46°56' E 031°57'27738389.5
2018-Jan-21 22:59N 44°44' E 037°47'811829223668.0
2018-Jan-21 22:59S 38°20' E 144°45'33202390645.4
2018-Jan-21 22:59N 01°17' E 104°00'78112343220.4
2018-Jan-21 22:59N 47°39' W 122°21'665423953243.8
2018-Jan-21 22:59N 44°44' E 037°47'27535307.7
2018-Jan-21 22:58N 46°50' E 031°57'52961588942.2
2018-Jan-21 22:58N 32°10' W 080°51'52942722481.4
2018-Jan-21 22:58N 46°56' E 031°57'6136736363.6
2018-Jan-21 22:57S 23°01' W 044°19'4181259494.4
2018-Jan-21 22:56N 38°58' W 076°29'21612592605.4
2018-Jan-21 22:56N 37°47' W 122°23'786962672.0
2018-Jan-21 22:49N 01°17' E 103°57'480017615.6
2018-Jan-21 22:32N 46°57' E 031°59'6216199800.8
2018-Jan-21 22:30N 49°17' W 123°08'1029740789.7
2018-Jan-21 22:30N 32°41' W 117°26'694525001716.5
2018-Jan-21 22:30N 46°46' E 031°57'686924729852.8
2018-Jan-21 22:30N 37°52' W 122°26'21987911713.3
2018-Jan-21 22:30N 36°53' W 076°22'40753667830.6
2018-Jan-21 22:30N 63°13' E 021°09'49738952259.7
2018-Jan-21 22:30N 47°39' W 122°20'1678464704.7
2018-Jan-21 22:30N 29°33' W 095°02'607710938014.1
2018-Jan-21 22:30N 46°50' E 031°57'84652344238.1
2018-Jan-21 22:30S 38°20' E 144°44'139535581391.9
2018-Jan-21 22:30N 25°48' W 080°09'38401151904.1
2018-Jan-21 22:29N 50°09' W 005°04'14841068804.3
2018-Jan-21 22:29N 46°57' E 031°59'47872872419.5
2018-Jan-21 22:29N 38°58' W 076°29'103985347786.6
2018-Jan-21 22:29N 01°12' E 103°37'4477767524.8
2018-Jan-21 22:29N 44°44' E 037°47'0 1.5
2018-Jan-21 22:28N 44°44' E 037°47'44912020848.2
2018-Jan-21 22:28N 01°18' E 104°00'4803467319.7
2018-Jan-21 22:28N 46°56' E 031°57'6864123559.5
2018-Jan-21 22:24N 37°52' W 122°29'7336.9
2018-Jan-21 22:23N 37°47' W 122°23'6870353316.7
2018-Jan-21 22:22N 46°50' E 031°57'52961588940.9
2018-Jan-21 22:22N 32°10' W 080°51'529415633.8
2018-Jan-21 22:02N 46°56' E 031°57'6215355163.7
2018-Jan-21 22:00N 49°17' W 123°08'48825858846.8
2018-Jan-21 22:00N 63°13' E 021°09'56852923467.2
2018-Jan-21 22:00N 37°52' W 122°29'1458291564.4
2018-Jan-21 22:00N 29°33' W 095°02'60777292009.9
2018-Jan-21 22:00N 46°50' E 031°57'62853232447.6
2018-Jan-21 22:00N 47°39' W 122°20'925416437.0
2018-Jan-21 22:00N 32°41' W 117°26'19963592026.8
2018-Jan-21 22:00N 25°48' W 080°09'1084139027136.6
2018-Jan-21 22:00N 01°16' E 103°58'1044737608458.5
2018-Jan-21 22:00N 36°53' W 076°22'2198416531.4
2018-Jan-21 21:59N 37°52' W 122°27'686324708463.5
2018-Jan-21 21:59N 46°57' E 031°59'68666179286.9
2018-Jan-21 21:59N 37°47' W 122°23'21617777816.1
2018-Jan-21 21:59N 38°58' W 076°29'140602410333.1
2018-Jan-21 21:59S 38°20' E 144°45'81183247072.3
2018-Jan-21 21:59N 44°44' E 037°47'27776779.3
2018-Jan-21 21:59N 46°56' E 031°57'277166348.9
2018-Jan-21 21:58N 44°44' E 037°47'5626595654.7
2018-Jan-21 21:58N 32°10' W 080°51'107876472243.7
2018-Jan-21 21:58N 01°18' E 104°05'8866476377.9
2018-Jan-21 21:57S 23°01' W 044°19'6136197240.1
2018-Jan-21 21:55N 46°56' E 031°57'10131.1
2018-Jan-21 21:50N 46°46' E 031°57'6873229105.3
2018-Jan-21 21:48N 37°49' W 122°26'6871171765.6
2018-Jan-21 21:46N 46°50' E 031°57'10514042.8
2018-Jan-21 21:30N 63°12' E 021°04'58585272453.5
2018-Jan-21 21:30N 32°42' W 117°24'397475850.6
2018-Jan-21 21:30N 37°52' W 122°26'21987912596.2
2018-Jan-21 21:30N 36°53' W 076°22'21813925393.3
2018-Jan-21 21:30N 49°17' W 123°08'77563102549.5
2018-Jan-21 21:30N 01°17' E 104°07'94574255736.0
2018-Jan-21 21:30N 29°33' W 095°02'607710938005.7
2018-Jan-21 21:30N 46°50' E 031°57'62852514125.9
2018-Jan-21 21:30N 47°39' W 122°20'758227295491.7
2018-Jan-21 21:30S 38°20' E 144°45'139545581459.0
2018-Jan-21 21:30N 25°48' W 080°09'108392167700.0
2018-Jan-21 21:29N 01°16' E 103°56'78712833430.9
2018-Jan-21 21:29N 37°47' W 122°23'72371002005.4
2018-Jan-21 21:29N 44°44' E 037°47'27776779.3
2018-Jan-21 21:29N 46°56' E 031°57'277332705.9
2018-Jan-21 21:29N 44°44' E 037°47'27541192.7
2018-Jan-21 21:28N 46°50' E 031°57'52961466713.4
2018-Jan-21 21:28N 32°10' W 080°51'52942722474.3
2018-Jan-21 21:28N 46°56' E 031°57'4786187288.8
2018-Jan-21 21:26N 38°58' W 076°29'216468325.3
2018-Jan-21 21:24N 37°52' W 122°29'512019361.4
2018-Jan-21 21:08N 50°09' W 005°05'515738359.5
2018-Jan-21 21:00N 32°43' W 117°21'9243325974.8
2018-Jan-21 21:00N 47°38' W 122°20'5862107989.2
2018-Jan-21 21:00N 37°53' W 122°25'21973954529.1
2018-Jan-21 21:00N 36°53' W 076°22'1035196138.3
2018-Jan-21 21:00N 29°33' W 095°02'607710938005.7
2018-Jan-21 21:00N 46°50' E 031°57'62221866572.0
2018-Jan-21 21:00N 49°17' W 123°09'48748774049.9
2018-Jan-21 21:00N 63°12' E 020°53'947534110767.6
2018-Jan-21 21:00S 38°20' E 144°45'33212391257.9
2018-Jan-21 21:00N 01°19' E 104°00'65841481388.8
2018-Jan-21 20:59N 50°09' W 005°05'65792368319.8
2018-Jan-21 20:59N 01°15' E 103°50'787628353837.0
2018-Jan-21 20:59N 37°47' W 122°23'72371042084.8
2018-Jan-21 20:59N 44°44' E 037°47'27771295.7
2018-Jan-21 20:59N 46°56' E 031°57'277499057.0
2018-Jan-21 20:59N 44°44' E 037°47'27538024.1
2018-Jan-21 20:58N 46°50' E 031°57'52961271150.5
2018-Jan-21 20:58N 32°10' W 080°51'52942722474.3
2018-Jan-21 20:58N 46°56' E 031°57'68641029661.5
2018-Jan-21 20:57N 37°52' W 122°29'63912300827.9
2018-Jan-21 20:57S 27°52' E 153°23'143741617103.4
2018-Jan-21 20:57N 25°48' W 080°09'363289560.0
2018-Jan-21 20:54S 23°00' W 044°19'6138424913.3
2018-Jan-21 20:53N 46°57' E 031°59'478731739.4
2018-Jan-21 20:44N 38°58' W 076°29'4756417629.9
2018-Jan-21 20:44N 46°37' E 031°02'683431025.7
2018-Jan-21 20:30N 37°54' W 122°24'21962635195.1
2018-Jan-21 20:30N 36°53' W 076°22'22007920246.2
2018-Jan-21 20:30N 37°52' W 122°29'6862468193.1
2018-Jan-21 20:30N 49°17' W 123°08'10271849418.2
2018-Jan-21 20:30N 32°43' W 117°21'693212477336.8
2018-Jan-21 20:30N 46°56' E 031°57'61756.8
2018-Jan-21 20:30N 46°50' E 031°57'48041017318.4
2018-Jan-21 20:30N 01°17' E 104°04'108456507266.0
2018-Jan-21 20:30N 25°48' W 080°09'38401151900.8
2018-Jan-21 20:29N 50°09' W 005°05'14841336008.7
2018-Jan-21 20:29N 46°57' E 031°59'47872462072.2
2018-Jan-21 20:29N 38°58' W 076°29'21617777820.8
2018-Jan-21 20:29N 37°47' W 122°23'7237898349.7
2018-Jan-21 20:29N 44°44' E 037°47'811814611832.6
2018-Jan-21 20:29S 38°20' E 144°45'84683810798.8
2018-Jan-21 20:29N 46°56' E 031°57'277166351.1
2018-Jan-21 20:28N 44°44' E 037°47'5626578636.4
2018-Jan-21 20:28N 32°10' W 080°51'3967793324.2
2018-Jan-21 20:28S 23°00' W 044°19'4379477720.0
2018-Jan-21 20:27N 29°33' W 095°02'5205936946.6
2018-Jan-21 20:27N 63°12' E 020°53'105413694.4
2018-Jan-21 20:22N 46°50' E 031°57'40445.4
2018-Jan-21 20:17N 46°37' E 031°02'484317991.1
2018-Jan-21 20:01N 36°53' W 076°22'40714885179.8
2018-Jan-21 20:00N 63°12' E 021°01'56802921248.9
2018-Jan-21 20:00N 37°52' W 122°29'68644942375.3
2018-Jan-21 20:00N 46°56' E 031°57'60741681982.9
2018-Jan-21 20:00N 29°33' W 095°02'607721876017.3
2018-Jan-21 20:00N 46°50' E 031°57'68642745614.7
2018-Jan-21 20:00N 37°54' W 122°25'683492034.1
2018-Jan-21 20:00N 49°17' W 123°08'77584654990.7
2018-Jan-21 20:00N 01°18' E 104°04'331811944199.8
2018-Jan-21 20:00S 38°20' E 144°45'332511970523.6
2018-Jan-21 20:00N 01°15' E 103°50'1083419500333.4
2018-Jan-21 20:00N 25°48' W 080°09'2271327052.4
2018-Jan-21 19:59N 37°47' W 122°23'68652745900.0
2018-Jan-21 19:59N 46°56' E 031°57'27749936.5
2018-Jan-21 19:59N 44°44' E 037°47'63183249298.0
2018-Jan-21 19:59S 23°00' W 044°19'63183249295.7
2018-Jan-21 19:58N 44°44' E 037°47'27541192.3
2018-Jan-21 19:58N 46°50' E 031°57'52961361948.1
2018-Jan-21 19:58N 32°10' W 080°51'46017258.7
2018-Jan-21 19:56N 38°58' W 076°29'3126341001.4
2018-Jan-21 19:56N 50°09' W 005°05'32027619.0
2018-Jan-21 19:30N 36°53' W 076°22'104314172521.6
2018-Jan-21 19:30N 01°13' E 103°39'788228375123.3
2018-Jan-21 19:30N 37°52' W 122°29'6861234096.5
2018-Jan-21 19:30N 49°17' W 123°08'621511187487.5
2018-Jan-21 19:30N 46°56' E 031°57'480117282048.4
2018-Jan-21 19:30N 01°15' E 103°54'560920194168.5
2018-Jan-21 19:30N 63°13' E 021°09'56782920007.2
2018-Jan-21 19:30N 37°54' W 122°23'68588229060.4
2018-Jan-21 19:30N 46°56' E 031°57'607410932816.2
2018-Jan-21 19:30N 29°33' W 095°02'607721876000.5
2018-Jan-21 19:30N 46°50' E 031°57'5564910538.7
2018-Jan-21 19:30N 25°48' W 080°09'3840863925.7
2018-Jan-21 19:29N 50°09' W 005°05'14845344033.3
2018-Jan-21 19:29N 46°57' E 031°59'48051235461.8
2018-Jan-21 19:29N 01°17' E 104°04'4494808839.1
2018-Jan-21 19:29N 44°44' E 037°47'81183652959.9
2018-Jan-21 19:29S 38°20' E 144°45'850210202526.2
2018-Jan-21 19:29N 46°37' E 031°02'305219484.4
2018-Jan-21 19:29N 44°44' E 037°47'27538023.7
2018-Jan-21 19:28N 46°50' E 031°57'52961361947.0
2018-Jan-21 19:28N 32°10' W 080°51'46017080.7
2018-Jan-21 19:26N 38°58' W 076°29'21617777816.1
2018-Jan-21 19:26N 37°47' W 122°23'5906118124.7
2018-Jan-21 19:23S 23°01' W 044°19'613017612.8
2018-Jan-21 19:02N 46°46' E 031°57'4878159656.6
2018-Jan-21 19:01N 36°53' W 076°22'2200720022.4
2018-Jan-21 19:00N 37°52' W 122°29'68646177970.5
2018-Jan-21 19:00N 46°56' E 031°57'10451880406.6
2018-Jan-21 19:00N 63°13' E 021°09'48754387589.2
2018-Jan-21 19:00N 49°18' W 122°58'62132795952.4
2018-Jan-21 19:00N 46°50' E 031°57'68611234992.1
2018-Jan-21 19:00N 37°55' W 122°22'22712043975.4
2018-Jan-21 19:00N 25°48' W 080°09'55641178242.9
2018-Jan-21 18:59N 46°57' E 031°59'68664119524.3
2018-Jan-21 18:59N 37°47' W 122°23'78632021915.5
2018-Jan-21 18:59N 01°18' E 104°03'44931244197.6
2018-Jan-21 18:59N 44°44' E 037°47'305109742.6
2018-Jan-21 18:59N 46°37' E 031°02'4338617.0
2018-Jan-21 18:59N 46°56' E 031°57'277332705.9
2018-Jan-21 18:59N 44°44' E 037°47'27539545.0
2018-Jan-21 18:58N 46°50' E 031°57'613311038606.7
2018-Jan-21 18:58S 23°01' W 044°19'39671098497.0
2018-Jan-21 18:58N 32°10' W 080°51'141634248841.8
2018-Jan-21 18:58S 38°20' E 144°45'14060617280.5
2018-Jan-21 18:56N 38°58' W 076°29'10413357020.4
2018-Jan-21 18:55N 01°15' E 103°55'658356021.9
2018-Jan-21 18:47N 50°09' W 005°05'148728169.2
2018-Jan-21 18:44N 46°46' E 031°57'626130749.0
2018-Jan-21 18:32S 23°55' W 046°22'8979343862.5
2018-Jan-21 18:31N 01°18' E 104°04'1045118811171.0
2018-Jan-21 18:30N 36°53' W 076°22'2200720022.4
2018-Jan-21 18:30N 37°52' W 122°29'68648237299.2
2018-Jan-21 18:30N 46°56' E 031°57'62055584867.2
2018-Jan-21 18:30N 49°19' W 122°57'62122236182.9
2018-Jan-21 18:30N 46°50' E 031°57'5564953897.7
2018-Jan-21 18:30N 25°48' W 080°09'827247990.2
2018-Jan-21 18:29N 29°31' W 095°07'43293116931.8
2018-Jan-21 18:29N 50°10' W 005°05'14841336004.1
2018-Jan-21 18:29N 46°57' E 031°59'68664943429.5
2018-Jan-21 18:29N 37°47' W 122°23'72371240577.4
2018-Jan-21 18:29N 44°44' E 037°47'64511366164.1
2018-Jan-21 18:29S 23°55' W 046°21'626711280167.4
2018-Jan-21 18:29N 46°56' E 031°57'277998104.3
2018-Jan-21 18:29N 44°44' E 037°47'1255410648.9
2018-Jan-21 18:28N 63°13' E 021°09'1051236421.0
2018-Jan-21 18:28N 46°50' E 031°57'613311038622.8
2018-Jan-21 18:28S 23°01' W 044°19'39671098497.9
2018-Jan-21 18:28N 32°10' W 080°51'141633399075.6
2018-Jan-21 18:28S 38°20' E 144°45'7211480751.6
2018-Jan-21 18:27N 37°55' W 122°21'2156277255.1
2018-Jan-21 18:26N 38°58' W 076°29'475629675.6
2018-Jan-21 18:17N 46°37' E 031°02'6041228907.9
2018-Jan-21 18:15N 29°33' W 095°02'12157292.1
2018-Jan-21 18:05N 40°22' W 074°07'4627101575.1
2018-Jan-21 18:02N 46°46' E 031°57'6078197136.4
2018-Jan-21 18:00N 29°33' W 095°02'1035532328.8
2018-Jan-21 18:00N 36°53' W 076°22'22007920246.2
2018-Jan-21 18:00N 37°52' W 122°29'68648237299.2
2018-Jan-21 18:00N 46°56' E 031°57'626622556398.8
2018-Jan-21 18:00S 23°56' W 046°19'41965035159.0
2018-Jan-21 18:00N 40°22' W 074°07'37934551027.1
2018-Jan-21 18:00N 63°13' E 021°09'56113366414.5
2018-Jan-21 18:00N 01°17' E 103°60'48018641722.3
2018-Jan-21 18:00N 46°50' E 031°57'55645007964.8
2018-Jan-21 18:00N 25°48' W 080°09'139542283324.3
2018-Jan-21 18:00S 38°20' E 144°45'84672032152.1
2018-Jan-21 17:59N 46°57' E 031°59'68663089643.4
2018-Jan-21 17:59N 37°47' W 122°23'72052358090.9
2018-Jan-21 17:59S 38°16' E 144°40'141588494688.7
2018-Jan-21 17:59N 32°10' W 080°51'56261687701.7
2018-Jan-21 17:59N 44°44' E 037°47'305274354.2
2018-Jan-21 17:59N 46°37' E 031°02'4330893.6
2018-Jan-21 17:59N 46°56' E 031°57'277199621.3
2018-Jan-21 17:58N 44°44' E 037°47'63181421642.7
2018-Jan-21 17:58S 23°01' W 044°19'61332759657.8
2018-Jan-21 17:58N 46°50' E 031°57'6077358638.5
2018-Jan-21 17:57N 29°33' W 095°02'6078508884.4
2018-Jan-21 17:56N 46°46' E 031°57'47913449655.7
2018-Jan-21 17:56N 38°58' W 076°29'312665046.8
2018-Jan-21 17:53N 50°10' W 005°05'458087238.6
2018-Jan-21 17:50N 49°18' W 123°10'21826606.4
2018-Jan-21 17:30N 32°08' W 080°52'1078319409262.1
2018-Jan-21 17:30N 01°17' E 103°59'78617075272.5
2018-Jan-21 17:30N 37°52' W 122°29'14601751552.9
2018-Jan-21 17:30N 29°33' W 094°60'607221858950.2
2018-Jan-21 17:30N 46°56' E 031°57'46222377131.8
2018-Jan-21 17:30N 40°22' W 074°07'37932730616.2
2018-Jan-21 17:30N 63°13' E 021°09'10511891218.4
2018-Jan-21 17:30N 46°50' E 031°57'62213732892.8
2018-Jan-21 17:30N 49°17' W 123°08'62882263541.0
2018-Jan-21 17:30S 23°57' W 046°18'40662927612.1
2018-Jan-21 17:30N 36°53' W 076°22'693831532.9
2018-Jan-21 17:30N 25°48' W 080°09'811121721.3
2018-Jan-21 17:29N 38°58' W 076°29'41811254223.7
2018-Jan-21 17:29S 23°01' W 044°19'63181624732.5
2018-Jan-21 17:29N 44°44' E 037°47'81182087406.9
2018-Jan-21 17:29S 38°20' E 144°45'81185844741.7
2018-Jan-21 17:28N 44°44' E 037°47'27544937.7
2018-Jan-21 17:28N 46°50' E 031°57'6748.3
2018-Jan-21 17:28N 46°56' E 031°57'6865301379.9
2018-Jan-21 17:26N 37°47' W 122°23'5120368639.4
2018-Jan-21 17:25N 50°10' W 005°05'148443447.2
2018-Jan-21 17:23N 46°57' E 031°59'84611522994.7
2018-Jan-21 17:23S 38°16' E 144°40'849679856.9
2018-Jan-21 17:17N 46°37' E 031°02'10533915.6
2018-Jan-21 17:00N 63°13' E 021°09'1166699685.3
2018-Jan-21 17:00N 50°09' W 005°05'32025763784.3
2018-Jan-21 17:00N 36°53' W 076°22'48742924275.2
2018-Jan-21 17:00N 46°56' E 031°57'480017281534.3
2018-Jan-21 17:00N 01°16' E 103°55'947117048609.9
2018-Jan-21 17:00N 29°35' W 094°58'60693641616.5
2018-Jan-21 17:00N 46°56' E 031°57'621511187630.5
2018-Jan-21 17:00N 49°17' W 123°08'622222397426.2
2018-Jan-21 17:00N 46°50' E 031°57'84652770499.6
2018-Jan-21 17:00S 38°20' E 144°45'139543348877.0
2018-Jan-21 17:00N 25°48' W 080°09'1083413000944.9
2018-Jan-21 17:00N 01°14' E 103°51'107789700615.7
2018-Jan-21 17:00N 32°07' W 080°54'52991734310.5
2018-Jan-21 16:59N 46°57' E 031°59'47874308629.2
2018-Jan-21 16:59N 38°58' W 076°29'21603888896.6
2018-Jan-21 16:59N 37°47' W 122°23'72371240577.1
2018-Jan-21 16:59N 44°44' E 037°47'0 1.3
2018-Jan-21 16:59N 44°44' E 037°47'4954938606.5
2018-Jan-21 16:58N 40°21' W 074°07'46262775428.5
2018-Jan-21 16:58N 46°50' E 031°57'61333679543.8
2018-Jan-21 16:58S 23°01' W 044°19'591398100.7
2018-Jan-21 16:54N 37°52' W 122°29'6840232290.0
2018-Jan-21 16:53N 46°37' E 031°02'6041231343.2
2018-Jan-21 16:51N 29°33' W 095°02'532128131.0
2018-Jan-21 16:40N 54°39' E 019°37'5948297376.3
2018-Jan-21 16:39S 23°03' W 044°21'438032785.3
2018-Jan-21 16:30N 29°37' W 094°59'52103125706.5
2018-Jan-21 16:30N 63°13' E 021°09'56855116074.0
2018-Jan-21 16:30N 37°52' W 122°29'68646177868.7
2018-Jan-21 16:30N 46°56' E 031°57'658592149.9
2018-Jan-21 16:30N 54°39' E 019°37'415614962884.4
2018-Jan-21 16:30N 36°53' W 076°22'48743509183.2
2018-Jan-21 16:30N 46°56' E 031°57'67553.2
2018-Jan-21 16:30N 46°50' E 031°57'61327358822.4
2018-Jan-21 16:30S 23°01' W 044°19'12388869.3
2018-Jan-21 16:30S 23°57' W 046°18'3610764486.6
2018-Jan-21 16:30N 25°48' W 080°09'381342827.4
2018-Jan-21 16:30N 32°07' W 080°54'1416416996422.3
2018-Jan-21 16:30S 38°20' E 144°45'84673048228.2
2018-Jan-21 16:29N 46°57' E 031°59'68663531021.1
2018-Jan-21 16:29N 37°47' W 122°23'691276214.1
2018-Jan-21 16:29N 49°17' W 123°08'65901078377.7
2018-Jan-21 16:29N 44°44' E 037°47'305274357.7
2018-Jan-21 16:29N 46°37' E 031°02'404683.1
2018-Jan-21 16:28N 46°50' E 031°57'479517262676.6
2018-Jan-21 16:28N 01°15' E 103°50'41860.7
2018-Jan-21 16:28N 01°13' E 103°48'884815927247.7
2018-Jan-21 16:28S 23°03' W 044°21'4954132107.9
2018-Jan-21 16:26N 50°09' W 005°05'1769530789.6
2018-Jan-21 16:26N 44°44' E 037°47'207687936.6
2018-Jan-21 16:24N 37°07' W 006°54'44413997341.4
2018-Jan-21 16:24N 29°33' W 095°02'14583688.1
2018-Jan-21 16:00N 37°52' W 122°29'550719824253.2
2018-Jan-21 16:00N 37°06' W 006°50'18276577347.3
2018-Jan-21 16:00N 46°56' E 031°57'621522374577.6
2018-Jan-21 16:00N 49°17' W 123°08'62221866451.0
2018-Jan-21 16:00N 46°50' E 031°57'10513782436.7
2018-Jan-21 16:00N 63°13' E 021°09'521518774332.3
2018-Jan-21 16:00N 29°33' W 095°02'43797882620.9
2018-Jan-21 16:00S 23°01' W 044°19'12331737.1
2018-Jan-21 16:00S 23°57' W 046°18'62662819638.6
2018-Jan-21 16:00N 46°56' E 031°57'52982724816.0
2018-Jan-21 16:00N 32°07' W 080°54'35932156039.8
2018-Jan-21 15:59N 50°09' W 005°05'31261250338.1
2018-Jan-21 15:59N 38°58' W 076°29'21617777816.1
2018-Jan-21 15:59N 37°47' W 122°23'7237868404.1
2018-Jan-21 15:59N 44°44' E 037°47'305182901.6
2018-Jan-21 15:59N 46°37' E 031°02'30599764.5
2018-Jan-21 15:58N 44°44' E 037°47'27547077.4
2018-Jan-21 15:58N 46°50' E 031°57'479517262679.3
2018-Jan-21 15:58N 01°15' E 103°50'3325332514.6
2018-Jan-21 15:57S 38°20' E 144°45'13954966021.8
2018-Jan-21 15:57N 25°48' W 080°09'55651178573.9
2018-Jan-21 15:56N 46°46' E 031°57'479299718.8
2018-Jan-21 15:53N 01°16' E 103°48'479423706.3
2018-Jan-21 15:41N 46°57' E 031°59'846746823.8
2018-Jan-21 15:30S 38°20' E 144°45'94646814069.1
2018-Jan-21 15:30N 63°13' E 021°09'568510232148.0
2018-Jan-21 15:30N 37°52' W 122°29'68644118582.1
2018-Jan-21 15:30N 46°56' E 031°57'626622559130.4
2018-Jan-21 15:30S 23°57' W 046°18'62663759831.1
2018-Jan-21 15:30N 46°56' E 031°57'47993454969.8
2018-Jan-21 15:30N 01°13' E 103°50'479717267693.7
2018-Jan-21 15:30N 46°50' E 031°57'61325519108.3
2018-Jan-21 15:30S 23°01' W 044°19'363213076246.2
2018-Jan-21 15:30N 25°48' W 080°09'693166308.3
2018-Jan-21 15:30N 36°53' W 076°22'4875763043.7
2018-Jan-21 15:29N 46°57' E 031°59'68664119524.6
2018-Jan-21 15:29N 37°47' W 122°23'691310740.9
2018-Jan-21 15:29N 49°17' W 123°08'6198826446.0
2018-Jan-21 15:29N 46°37' E 031°02'404839.9
2018-Jan-21 15:28N 46°50' E 031°57'47954315668.3
2018-Jan-21 15:28N 01°15' E 103°50'9474541347.7
2018-Jan-21 15:27N 29°33' W 095°02'107982652.3
2018-Jan-21 15:26N 38°58' W 076°29'5119708785.4
2018-Jan-21 15:26N 44°44' E 037°47'0 0.9
2018-Jan-21 15:26N 44°44' E 037°47'5630171762.8
2018-Jan-21 15:24N 32°07' W 080°54'530234516.2
2018-Jan-21 15:14N 46°46' E 031°57'479540240.1
2018-Jan-21 15:07N 01°15' E 103°52'560749721.6
2018-Jan-21 15:00N 63°13' E 021°09'56106732505.0
2018-Jan-21 15:00N 01°13' E 103°53'786928328821.9
2018-Jan-21 15:00N 37°52' W 122°29'68644942295.0
2018-Jan-21 15:00N 46°56' E 031°57'62152237455.5
2018-Jan-21 15:00N 49°17' W 123°08'622122397397.4
2018-Jan-21 15:00N 46°50' E 031°57'607710937997.4
2018-Jan-21 15:00N 29°33' W 095°02'60784376396.1
2018-Jan-21 15:00N 46°46' E 031°57'84642769875.9
2018-Jan-21 15:00S 38°20' E 144°44'1395310046505.4
2018-Jan-21 15:00N 25°48' W 080°09'6931247312.2
2018-Jan-21 15:00N 36°53' W 076°22'364145490.0
2018-Jan-21 15:00N 32°07' W 080°54'52991907738.2
2018-Jan-21 14:59N 46°57' E 031°59'47872872416.8
2018-Jan-21 14:59N 38°58' W 076°29'21617777810.1
2018-Jan-21 14:59N 37°47' W 122°23'59061328901.3
2018-Jan-21 14:59S 23°01' W 044°19'884710616131.7
2018-Jan-21 14:59N 01°13' E 103°48'44852306707.8
2018-Jan-21 14:59N 44°44' E 037°47'305156775.8
2018-Jan-21 14:59N 46°37' E 031°02'43154481.1
2018-Jan-21 14:59N 46°56' E 031°57'2775198.5
2018-Jan-21 14:55N 44°44' E 037°47'2751774.9
2018-Jan-21 14:46N 46°50' E 031°57'480129646.1
2018-Jan-21 14:36N 01°17' E 103°60'561155494.2
2018-Jan-21 14:30N 63°13' E 021°09'40753667828.5
2018-Jan-21 14:30N 36°53' W 076°22'22007920240.3
2018-Jan-21 14:30N 37°52' W 122°29'686412355729.5
2018-Jan-21 14:30N 46°56' E 031°57'613622090870.6
2018-Jan-21 14:30S 23°01' W 044°19'632622775064.8
2018-Jan-21 14:30N 49°17' W 123°08'77693496021.7
2018-Jan-21 14:30N 01°15' E 103°54'896532272646.5
2018-Jan-21 14:30S 23°57' W 046°18'62627514932.6
2018-Jan-21 14:30N 46°50' E 031°57'5564910539.0
2018-Jan-21 14:30N 25°48' W 080°09'381152372.7
2018-Jan-21 14:30N 32°07' W 080°54'107865547178.9
2018-Jan-21 14:29N 01°17' E 104°01'104174166665.4
2018-Jan-21 14:29N 38°58' W 076°29'21613888908.1
2018-Jan-21 14:29N 37°47' W 122°23'6865726880.2
2018-Jan-21 14:29N 46°56' E 031°57'43154490.8
2018-Jan-21 14:29N 46°37' E 031°02'305121935.8
2018-Jan-21 14:28N 44°44' E 037°47'81187305927.2
2018-Jan-21 14:28S 38°20' E 144°45'84651693029.9
2018-Jan-21 14:28N 46°50' E 031°57'4790478997.7
2018-Jan-21 14:28N 01°17' E 103°46'4480156580.5
2018-Jan-21 14:26N 44°44' E 037°47'27311060.0
2018-Jan-21 14:24N 46°46' E 031°57'10626.8
2018-Jan-21 14:23N 46°57' E 031°59'480012585.6
2018-Jan-21 14:00N 01°17' E 103°57'896832286419.0
2018-Jan-21 14:00S 23°57' W 046°18'647211649281.2
2018-Jan-21 14:00N 63°13' E 021°09'40757335671.9
2018-Jan-21 14:00N 36°53' W 076°22'22002640089.7
2018-Jan-21 14:00N 37°52' W 122°29'68648237180.8
2018-Jan-21 14:00N 46°56' E 031°57'48021728659.0
2018-Jan-21 14:00N 01°14' E 103°55'776927968893.6
2018-Jan-21 14:00N 49°17' W 123°08'622222397411.8
2018-Jan-21 14:00N 46°50' E 031°57'61323153776.2
2018-Jan-21 14:00S 23°01' W 044°19'3632726458.1
2018-Jan-21 14:00N 25°48' W 080°09'381171419.3
2018-Jan-21 14:00N 32°07' W 080°54'2069413767.7
2018-Jan-21 13:59N 37°47' W 122°23'72371002004.8
2018-Jan-21 13:59N 44°44' E 037°47'277142588.2
2018-Jan-21 13:59N 46°56' E 031°57'27790737.0
2018-Jan-21 13:58N 44°44' E 037°47'27552033.1
2018-Jan-21 13:58N 46°50' E 031°57'84651269780.2
2018-Jan-21 13:58S 38°20' E 144°45'14060568730.0
2018-Jan-21 13:56N 38°58' W 076°29'312599564.2
2018-Jan-21 13:54N 50°10' W 005°05'4323741090.1
2018-Jan-21 13:54N 29°33' W 095°02'607863982.6
2018-Jan-21 13:48N 46°46' E 031°57'487816413.3
2018-Jan-21 13:31N 36°53' W 076°22'104375367616.4
2018-Jan-21 13:30N 01°16' E 103°48'78735668495.3
2018-Jan-21 13:30N 37°52' W 122°29'56856821432.0
2018-Jan-21 13:30N 63°13' E 021°09'1051343857.9
2018-Jan-21 13:30N 46°50' E 031°57'62621252487.9
2018-Jan-21 13:30S 23°57' W 046°18'36101444030.2
2018-Jan-21 13:30N 25°48' W 080°09'24844470880.3
2018-Jan-21 13:30N 49°17' W 123°08'21801569905.1
2018-Jan-21 13:30N 32°07' W 080°54'141647284182.2
2018-Jan-21 13:29S 38°20' E 144°45'1406010123398.9
2018-Jan-21 13:29N 38°58' W 076°29'104137497427.3
2018-Jan-21 13:29N 01°17' E 103°57'4488621475.9
2018-Jan-21 13:29N 44°44' E 037°47'277166356.7
2018-Jan-21 13:29N 46°56' E 031°57'43154490.8
2018-Jan-21 13:29N 46°37' E 031°02'48321449726.2
2018-Jan-21 13:28N 01°15' E 103°51'65794736794.0
2018-Jan-21 13:28N 50°09' W 005°05'1486356565.5
2018-Jan-21 13:28N 46°50' E 031°57'61331576943.8
2018-Jan-21 13:28S 23°01' W 044°19'6136566432.8
2018-Jan-21 13:27N 46°56' E 031°57'60741822126.7
2018-Jan-21 13:27N 29°33' W 095°02'6417253860.5
2018-Jan-21 13:26N 44°44' E 037°47'27313484.4
2018-Jan-21 13:24N 46°46' E 031°57'6624361.9
2018-Jan-21 13:15N 54°33' E 019°37'415816933.9
2018-Jan-21 13:00N 36°53' W 076°22'104349390562.3
2018-Jan-21 13:00N 01°17' E 103°46'560210082952.8
2018-Jan-21 13:00N 63°13' E 021°09'56855116074.0
2018-Jan-21 13:00N 37°52' W 122°29'68648237186.7
2018-Jan-21 13:00N 46°56' E 031°57'61365522715.9
2018-Jan-21 13:00S 23°01' W 044°19'61322759552.2
2018-Jan-21 13:00N 46°50' E 031°57'60777292003.8
2018-Jan-21 13:00N 29°33' W 095°02'4340624987.4
2018-Jan-21 13:00S 23°57' W 046°18'39507109946.9
2018-Jan-21 13:00N 32°07' W 080°54'2180784952.6
2018-Jan-21 12:59N 49°17' W 123°08'77703996194.0
2018-Jan-21 12:59N 01°14' E 103°53'78757087145.8
2018-Jan-21 12:59N 37°47' W 122°23'72041037433.2
2018-Jan-21 12:59S 38°20' E 144°45'811814611834.0
2018-Jan-21 12:59N 44°44' E 037°47'277166352.9
2018-Jan-21 12:59N 46°56' E 031°57'27766540.4
2018-Jan-21 12:58N 44°44' E 037°47'27561789.3
2018-Jan-21 12:58N 46°50' E 031°57'47951726270.2
2018-Jan-21 12:58N 01°15' E 103°50'5493299613.0
2018-Jan-21 12:57N 54°33' E 019°36'48881099804.3
2018-Jan-21 12:57N 25°48' W 080°09'811127012.7
2018-Jan-21 12:56N 38°58' W 076°29'3126103238.6
2018-Jan-21 12:54N 50°10' W 005°05'14871070428.5
2018-Jan-21 12:54N 46°46' E 031°57'1089.6
2018-Jan-21 12:47N 46°57' E 031°59'487517376.3
2018-Jan-21 12:31N 36°53' W 076°22'40752095908.1
2018-Jan-21 12:30N 63°13' E 021°09'568510232148.0
2018-Jan-21 12:30N 37°52' W 122°29'68646177894.0
2018-Jan-21 12:30N 46°56' E 031°57'621511187332.7
2018-Jan-21 12:30N 49°17' W 123°08'628822636907.6
2018-Jan-21 12:30S 23°57' W 046°18'62623220685.0
2018-Jan-21 12:30N 46°50' E 031°57'47903448936.2
2018-Jan-21 12:30N 01°17' E 103°46'947734117446.8
2018-Jan-21 12:30N 29°33' W 095°02'94733100299.7
2018-Jan-21 12:30N 01°15' E 103°51'108343250296.0
2018-Jan-21 12:30N 25°48' W 080°09'381195904.7
2018-Jan-21 12:30N 32°07' W 080°54'141645098926.7
2018-Jan-21 12:29S 38°20' E 144°45'72043241978.7
2018-Jan-21 12:29N 37°47' W 122°23'59861077506.7
2018-Jan-21 12:29N 54°31' E 019°35'919551591.7
2018-Jan-21 12:29N 44°44' E 037°47'277142589.6
2018-Jan-21 12:29N 46°56' E 031°57'27771293.1
2018-Jan-21 12:28N 44°44' E 037°47'27554922.3
2018-Jan-21 12:28N 46°50' E 031°57'4790153952.0
2018-Jan-21 12:26N 38°58' W 076°29'10410416389.4
2018-Jan-21 12:25N 01°15' E 103°52'65801029845.1
2018-Jan-21 12:24N 50°09' W 005°05'14871784038.0
2018-Jan-21 12:24N 46°46' E 031°57'1329159512.2
2018-Jan-21 12:24N 50°47' W 001°07'132712216.2
2018-Jan-21 12:17N 46°57' E 031°59'444193.6
2018-Jan-21 12:17N 46°37' E 031°02'484317972.6
2018-Jan-21 12:01N 36°53' W 076°22'1044437598944.3
2018-Jan-21 12:01N 01°16' E 103°55'77674660140.3
2018-Jan-21 12:00N 49°17' W 123°08'52929525847.1
2018-Jan-21 12:00N 54°32' E 019°33'655336789.5
2018-Jan-21 12:00N 46°56' E 031°57'10453760565.7
2018-Jan-21 12:00N 63°13' E 021°09'1051378244.1
2018-Jan-21 12:00N 46°50' E 031°57'62621127239.0
2018-Jan-21 12:00S 23°57' W 046°18'36101856606.8
2018-Jan-21 12:00N 25°48' W 080°09'2271371649.7
2018-Jan-21 11:59N 37°47' W 122°23'787914182307.1
2018-Jan-21 11:59N 01°17' E 103°46'4480620298.3
2018-Jan-21 11:59N 44°44' E 037°47'277199625.4
2018-Jan-21 11:59N 46°56' E 031°57'27762382.9
2018-Jan-21 11:58N 44°44' E 037°47'81184174809.7
2018-Jan-21 11:58S 38°20' E 144°45'332574351.0
2018-Jan-21 11:56N 01°15' E 103°50'657963324.1
2018-Jan-21 11:49N 50°09' W 005°05'1486356565.6
2018-Jan-21 11:49N 46°50' E 031°57'3255.7
2018-Jan-21 11:48N 46°46' E 031°57'5302381748.9
2018-Jan-21 11:48N 32°07' W 080°54'52991907739.9
2018-Jan-21 11:47N 46°57' E 031°59'47872872416.8
2018-Jan-21 11:47N 38°58' W 076°29'216426314.5
2018-Jan-21 11:42N 37°52' W 122°29'1458328009.1
2018-Jan-21 11:42N 29°33' W 095°02'7529121008.7
2018-Jan-21 11:38S 27°52' E 153°23'932870696.9
2018-Jan-21 11:30N 63°13' E 021°09'56854092859.2
2018-Jan-21 11:30N 37°52' W 122°29'68648237186.7
2018-Jan-21 11:30N 46°56' E 031°57'48002468392.9
2018-Jan-21 11:30N 01°15' E 103°52'47984317879.3
2018-Jan-21 11:30N 46°50' E 031°57'48773511244.0
2018-Jan-21 11:30N 36°53' W 076°22'693113391.3
2018-Jan-21 11:30N 25°48' W 080°09'381228555.2
2018-Jan-21 11:30N 32°07' W 080°54'52991907739.9
2018-Jan-21 11:29N 46°57' E 031°59'47872462073.8
2018-Jan-21 11:29N 38°58' W 076°29'21607777799.2
2018-Jan-21 11:29N 37°47' W 122°23'7237964893.5
2018-Jan-21 11:29N 44°44' E 037°47'277199625.4
2018-Jan-21 11:29N 46°56' E 031°57'27755450.9
2018-Jan-21 11:28N 44°44' E 037°47'27570616.3
2018-Jan-21 11:28N 46°50' E 031°57'84651269795.7
2018-Jan-21 11:28S 38°20' E 144°45'10399304362.7
2018-Jan-21 11:26N 50°09' W 005°05'148766901.6
2018-Jan-21 11:24N 46°46' E 031°57'6633465.2
2018-Jan-21 11:13N 54°34' E 019°35'6474751.4
2018-Jan-21 11:05N 46°37' E 031°02'482368901.5
2018-Jan-21 11:01N 01°12' E 103°35'1042837540565.8
2018-Jan-21 11:01N 36°53' W 076°22'21811570189.4
2018-Jan-21 11:00N 49°17' W 123°08'48828788270.2
2018-Jan-21 11:00N 63°13' E 021°09'56855116067.5
2018-Jan-21 11:00N 37°52' W 122°29'68648237190.9
2018-Jan-21 11:00N 46°56' E 031°57'62302.5
2018-Jan-21 11:00N 46°50' E 031°57'607721876011.4
2018-Jan-21 11:00N 29°33' W 095°02'43401420211.9
2018-Jan-21 11:00S 23°57' W 046°18'98494432118.6
2018-Jan-21 11:00S 38°20' E 144°44'141643186793.2
2018-Jan-21 11:00N 32°07' W 080°54'52991734308.1
2018-Jan-21 10:59N 46°57' E 031°59'47875744829.8
2018-Jan-21 10:59N 38°58' W 076°29'21612592605.4
2018-Jan-21 10:59N 37°47' W 122°23'787628353839.1
2018-Jan-21 10:59N 01°15' E 103°50'4832579865.9
2018-Jan-21 10:59N 46°37' E 031°02'43154477.7
2018-Jan-21 10:59N 46°56' E 031°57'27776778.2
2018-Jan-21 10:58N 44°44' E 037°47'92150252.5
2018-Jan-21 10:57N 54°35' E 019°35'4887399821.0
2018-Jan-21 10:57N 25°48' W 080°09'5888392535.9
2018-Jan-21 10:56N 44°44' E 037°47'448978826.3
2018-Jan-21 10:52N 01°16' E 103°56'479946817.5
2018-Jan-21 10:46N 46°50' E 031°57'354.5
2018-Jan-21 10:42N 46°46' E 031°57'487824735.5
2018-Jan-21 10:31N 36°53' W 076°22'40662927293.9
2018-Jan-21 10:30S 23°57' W 046°18'628722634420.4
2018-Jan-21 10:30N 49°17' W 123°08'62257470013.9
2018-Jan-21 10:30N 46°46' E 031°57'687212369807.1
2018-Jan-21 10:30N 37°52' W 122°29'786914164612.7
2018-Jan-21 10:30N 01°16' E 103°52'47961438852.4
2018-Jan-21 10:30N 46°50' E 031°57'10511891218.4
2018-Jan-21 10:30N 63°13' E 021°09'5191867208.7
2018-Jan-21 10:30N 54°36' E 019°36'532119156314.6
2018-Jan-21 10:30N 29°33' W 095°02'823123390.4
2018-Jan-21 10:30N 25°48' W 080°09'381195904.7
2018-Jan-21 10:30N 32°07' W 080°54'464111384.0
2018-Jan-21 10:29N 38°58' W 076°29'21613888905.0
2018-Jan-21 10:29N 37°47' W 122°23'72371002003.9
2018-Jan-21 10:29N 44°44' E 037°47'277166353.3
2018-Jan-21 10:29N 46°56' E 031°57'43154467.9
2018-Jan-21 10:29N 46°37' E 031°02'30578386.3
2018-Jan-21 10:28N 44°44' E 037°47'27558153.8
2018-Jan-21 10:28N 46°50' E 031°57'84651385205.5
2018-Jan-21 10:28S 38°20' E 144°45'8469952716.3
2018-Jan-21 10:27N 46°56' E 031°57'121.1
2018-Jan-21 10:23N 46°57' E 031°59'479737867.4
2018-Jan-21 10:16N 01°15' E 103°51'726.7
2018-Jan-21 10:00N 01°15' E 103°58'77666988974.9
2018-Jan-21 10:00N 49°17' W 123°08'62257470028.3
2018-Jan-21 10:00N 46°46' E 031°57'487817562264.9
2018-Jan-21 10:00N 36°53' W 076°22'22007920247.4
2018-Jan-21 10:00N 37°52' W 122°29'68648237179.6
2018-Jan-21 10:00N 46°56' E 031°57'62304.6
2018-Jan-21 10:00N 46°50' E 031°57'84651523754.7
2018-Jan-21 10:00S 38°20' E 144°44'139536279065.9
2018-Jan-21 10:00N 25°48' W 080°09'381171413.7
2018-Jan-21 10:00N 32°07' W 080°54'52991734310.5
2018-Jan-21 09:59N 46°57' E 031°59'27630151.5
2018-Jan-21 09:59N 44°44' E 037°47'277199623.5
2018-Jan-21 09:59N 46°56' E 031°57'27752531.2
2018-Jan-21 09:58N 44°44' E 037°47'27576047.3
2018-Jan-21 09:58N 46°50' E 031°57'1486116271.6
2018-Jan-21 09:57N 50°09' W 005°05'3126160758.2
2018-Jan-21 09:56N 38°58' W 076°29'107929429.1
2018-Jan-21 09:54N 29°33' W 095°02'947387216.5
2018-Jan-21 09:48N 01°15' E 103°52'658023087.2
2018-Jan-21 09:30N 50°09' W 005°05'11664198115.2
2018-Jan-21 09:30N 63°13' E 021°09'10543794432.2
2018-Jan-21 09:30N 46°46' E 031°57'48788781127.0
2018-Jan-21 09:30N 36°53' W 076°22'48744386426.3
2018-Jan-21 09:30N 46°56' E 031°57'626611278704.1
2018-Jan-21 09:30S 23°57' W 046°18'62622504784.1
2018-Jan-21 09:30N 46°50' E 031°57'686924729542.5
2018-Jan-21 09:30N 37°52' W 122°29'14581749381.8
2018-Jan-21 09:30N 29°33' W 095°02'823123390.4
2018-Jan-21 09:30N 25°48' W 080°09'381195898.3
2018-Jan-21 09:30N 32°07' W 080°54'107879708335.8
2018-Jan-21 09:29N 01°17' E 104°02'78652177941.7
2018-Jan-21 09:29N 37°47' W 122°23'72048645276.7
2018-Jan-21 09:29S 38°20' E 144°45'81181217652.1
2018-Jan-21 09:29N 44°44' E 037°47'277249532.7
2018-Jan-21 09:29N 46°56' E 031°57'27771293.3
2018-Jan-21 09:28N 44°44' E 037°47'27558153.8
2018-Jan-21 09:28N 46°50' E 031°57'7492.8
2018-Jan-21 09:27N 46°57' E 031°59'48011440297.1
2018-Jan-21 09:27N 01°16' E 103°57'483727772.8
2018-Jan-21 09:17N 46°37' E 031°02'14545358.6
2018-Jan-21 09:00N 50°09' W 005°05'11664198106.4
2018-Jan-21 09:00N 63°13' E 021°09'10543794441.0
2018-Jan-21 09:00N 46°46' E 031°57'48035763691.7
2018-Jan-21 09:00N 01°18' E 104°05'48064325610.6
2018-Jan-21 09:00N 46°56' E 031°57'626622557408.2
2018-Jan-21 09:00S 23°57' W 046°18'62623757176.1
2018-Jan-21 09:00N 46°50' E 031°57'60775469002.9
2018-Jan-21 09:00N 29°33' W 095°02'14585248150.0
2018-Jan-21 09:00N 37°52' W 122°29'22001980066.1
2018-Jan-21 09:00N 36°53' W 076°22'2181560783.9
2018-Jan-21 09:00N 49°17' W 123°08'24841117720.1
2018-Jan-21 09:00N 25°48' W 080°09'381228548.0
2018-Jan-21 09:00N 32°07' W 080°54'46492821.7
2018-Jan-21 08:59N 38°58' W 076°29'1406025308497.3
2018-Jan-21 08:59S 38°20' E 144°45'84681088799.1
2018-Jan-21 08:59N 46°56' E 031°57'43154491.1
2018-Jan-21 08:59N 46°37' E 031°02'3051097423.8
2018-Jan-21 08:59N 44°44' E 037°47'0 1.5
2018-Jan-21 08:58N 44°44' E 037°47'27561788.5
2018-Jan-21 08:58N 46°50' E 031°57'4799194126.2
2018-Jan-21 08:57N 01°17' E 103°57'245710180.0
2018-Jan-21 08:42N 33°36' E 130°19'1097278218.1
2018-Jan-21 08:34S 23°00' W 044°19'8851243247.2
2018-Jan-21 08:32N 01°16' E 103°52'5607296840.7
2018-Jan-21 08:30N 63°13' E 021°09'561120201196.9
2018-Jan-21 08:30N 01°17' E 104°01'48041729340.7
2018-Jan-21 08:30N 46°56' E 031°57'45743293467.8
2018-Jan-21 08:30N 33°36' E 130°19'45772353850.8
2018-Jan-21 08:30N 46°50' E 031°57'479617265631.3
2018-Jan-21 08:30N 01°16' E 103°52'786914164369.0
2018-Jan-21 08:30N 37°52' W 122°29'14585248145.3
2018-Jan-21 08:30N 29°33' W 095°02'10351863314.0
2018-Jan-21 08:30N 36°53' W 076°22'4066914780.5
2018-Jan-21 08:30S 23°57' W 046°18'36091856252.9
2018-Jan-21 08:30N 25°48' W 080°09'381457096.1
2018-Jan-21 08:30N 32°07' W 080°54'107892427417.1
2018-Jan-21 08:29N 01°18' E 104°03'104197501576.7
2018-Jan-21 08:29N 38°58' W 076°29'2103841121.5
2018-Jan-21 08:29N 49°17' W 123°08'65901318016.1
2018-Jan-21 08:29N 44°44' E 037°47'277249535.1
2018-Jan-21 08:29N 46°56' E 031°57'1483281077.7
2018-Jan-21 08:28N 50°09' W 005°05'17696369483.9
2018-Jan-21 08:28N 44°44' E 037°47'27589874.1
2018-Jan-21 08:28N 46°50' E 031°57'84651269771.7
2018-Jan-21 08:28S 38°20' E 144°45'85027651883.3
2018-Jan-21 08:28N 46°37' E 031°02'6085405654.5
2018-Jan-21 08:27S 23°00' W 044°19'6138148292.1
2018-Jan-21 08:24N 46°57' E 031°59'10212.6
2018-Jan-21 08:21N 46°46' E 031°57'487814027.3
2018-Jan-21 08:01N 36°53' W 076°22'21811308493.6
2018-Jan-21 08:00N 49°17' W 123°08'622522410062.8
2018-Jan-21 08:00N 46°46' E 031°57'47974317686.1
2018-Jan-21 08:00N 01°16' E 103°55'48013456429.3
2018-Jan-21 08:00N 46°56' E 031°57'45748233661.4
2018-Jan-21 08:00N 33°36' E 130°19'68872479240.6
2018-Jan-21 08:00N 29°33' W 095°02'521518774355.3
2018-Jan-21 08:00N 63°13' E 021°09'4526525610.7
2018-Jan-21 08:00N 32°07' W 080°54'464104425.6
2018-Jan-21 07:59N 38°58' W 076°29'21613888908.1
2018-Jan-21 07:59N 37°47' W 122°23'7237964894.1
2018-Jan-21 07:59N 44°44' E 037°47'277998140.4
2018-Jan-21 07:59N 46°56' E 031°57'27749905.1
2018-Jan-21 07:58N 44°44' E 037°47'27570614.4
2018-Jan-21 07:58N 46°50' E 031°57'48011440295.5
2018-Jan-21 07:58N 01°17' E 103°60'658511852892.5
2018-Jan-21 07:58N 50°09' W 005°05'1485106954.2
2018-Jan-21 07:57N 46°50' E 031°57'84651523774.9
2018-Jan-21 07:57S 38°20' E 144°45'139545023313.2
2018-Jan-21 07:57N 25°48' W 080°09'5526120557.3
2018-Jan-21 07:54N 46°37' E 031°02'6840145696.6
2018-Jan-21 07:51N 37°52' W 122°29'785622845.9
2018-Jan-21 07:30N 01°18' E 104°04'775827928046.6
2018-Jan-21 07:30N 49°17' W 123°08'48825858846.8
2018-Jan-21 07:30N 63°13' E 021°09'1045626761.7
2018-Jan-21 07:30N 46°56' E 031°57'48742924284.1
2018-Jan-21 07:30N 36°53' W 076°22'48775852073.2
2018-Jan-21 07:30N 46°50' E 031°57'686924729521.2
2018-Jan-21 07:30N 37°52' W 122°29'14581749383.3
2018-Jan-21 07:30N 29°33' W 095°02'4379563029.8
2018-Jan-21 07:30S 23°00' W 044°19'39653568642.1
2018-Jan-21 07:30N 32°07' W 080°54'35932587250.2
2018-Jan-21 07:29N 50°09' W 005°05'31261023003.7
2018-Jan-21 07:29N 38°58' W 076°29'21617777816.1
2018-Jan-21 07:29N 37°47' W 122°23'6865852204.4
2018-Jan-21 07:29N 46°56' E 031°57'45744116748.8
2018-Jan-21 07:29N 33°36' E 130°19'2458680548.6
2018-Jan-21 07:28N 01°16' E 103°58'449016163972.5
2018-Jan-21 07:28N 44°44' E 037°47'27570615.4
2018-Jan-21 07:28N 46°50' E 031°57'3256.2
2018-Jan-21 07:27N 46°46' E 031°57'39666.2
2018-Jan-21 07:24N 46°37' E 031°02'55261420854.5
2018-Jan-21 07:24N 25°48' W 080°09'10834406268.4
2018-Jan-21 07:22N 01°15' E 103°51'777121570.1
2018-Jan-21 07:00N 49°17' W 123°08'48828788270.2
2018-Jan-21 07:00N 63°13' E 021°09'40753667833.8
2018-Jan-21 07:00N 36°53' W 076°22'40661045463.5
2018-Jan-21 07:00S 23°57' W 046°18'586010547166.6
2018-Jan-21 07:00N 37°52' W 122°29'14585248145.3
2018-Jan-21 07:00N 29°33' W 095°02'823118454.8
2018-Jan-21 07:00N 25°48' W 080°09'381195898.3
2018-Jan-21 07:00N 32°07' W 080°54'107844313555.0
2018-Jan-21 06:59N 01°16' E 103°57'104155356081.6
2018-Jan-21 06:59N 38°58' W 076°29'140605061700.2
2018-Jan-21 06:59S 38°20' E 144°45'81181826480.0
2018-Jan-21 06:59N 44°44' E 037°47'43541959426.0
2018-Jan-21 06:59N 33°38' E 130°18'43541306286.1
2018-Jan-21 06:58N 44°44' E 037°47'44931347962.4
2018-Jan-21 06:58N 01°19' E 104°04'88652659489.2
2018-Jan-21 06:58S 23°00' W 044°19'4950456967.7
2018-Jan-21 06:57N 50°09' W 005°05'658514679.7
2018-Jan-21 06:31N 01°17' E 104°00'53934.2
2018-Jan-21 06:30N 01°16' E 103°55'896632276968.9
2018-Jan-21 06:30S 23°57' W 046°18'123444488.1
2018-Jan-21 06:30S 23°00' W 044°19'635322871035.0
2018-Jan-21 06:30N 63°13' E 021°09'40757335661.2
2018-Jan-21 06:30N 36°53' W 076°22'2181490685.1
2018-Jan-21 06:30N 49°17' W 123°08'17603167752.1
2018-Jan-21 06:30N 29°33' W 095°02'43241729474.9
2018-Jan-21 06:30N 50°09' W 005°05'3840863925.8
2018-Jan-21 06:30N 25°48' W 080°09'381342822.1
2018-Jan-21 06:30N 32°07' W 080°54'46487936.4
2018-Jan-21 06:29N 38°58' W 076°29'21617777816.1
2018-Jan-21 06:29N 37°47' W 122°23'7237789458.8
2018-Jan-21 06:29N 44°44' E 037°47'0 1.7
2018-Jan-21 06:28N 44°44' E 037°47'81181461186.4
2018-Jan-21 06:28S 38°20' E 144°45'440741636.7
2018-Jan-21 06:22N 33°40' E 130°15'488313777.2
2018-Jan-21 06:00N 49°17' W 123°08'48828788257.2
2018-Jan-21 06:00N 63°13' E 021°09'5610961755.9
2018-Jan-21 06:00N 01°17' E 103°58'946534075521.7
2018-Jan-21 06:00N 29°33' W 095°02'1035338784.4
2018-Jan-21 06:00N 36°53' W 076°22'40662927297.7
2018-Jan-21 06:00S 23°57' W 046°18'36092165628.4
2018-Jan-21 06:00N 25°48' W 080°09'381152365.4
2018-Jan-21 06:00N 32°07' W 080°54'2069496524.0
2018-Jan-21 05:59N 37°47' W 122°23'51202303994.2
2018-Jan-21 05:59N 50°09' W 005°05'49504455434.7
2018-Jan-21 05:59S 23°00' W 044°19'63181197108.1
2018-Jan-21 05:59N 44°44' E 037°47'0 1.9
2018-Jan-21 05:58N 44°44' E 037°47'81181082360.7
2018-Jan-21 05:58S 38°20' E 144°45'14060477519.0
2018-Jan-21 05:56N 38°58' W 076°29'9998378879.0
2018-Jan-21 05:55N 33°41' E 130°14'5229522868.2
2018-Jan-21 05:54N 37°52' W 122°29'6861738.1
2018-Jan-21 05:30N 49°17' W 123°08'21811962736.7
2018-Jan-21 05:30N 36°53' W 076°22'40752934267.1
2018-Jan-21 05:30N 63°13' E 021°09'1166524763.7
2018-Jan-21 05:30N 50°09' W 005°05'43245188422.1
2018-Jan-21 05:30N 29°33' W 095°02'14585248145.3
2018-Jan-21 05:30N 37°52' W 122°29'2276315197.0
2018-Jan-21 05:30N 25°48' W 080°09'381195898.3
2018-Jan-21 05:30N 32°07' W 080°54'2069496524.0
2018-Jan-21 05:29N 37°47' W 122°23'78692179057.3
2018-Jan-21 05:29N 01°17' E 103°57'4489850588.0
2018-Jan-21 05:29N 44°44' E 037°47'0 1.3
2018-Jan-21 05:28N 44°44' E 037°47'63181516336.9
2018-Jan-21 05:28S 23°00' W 044°19'98003207294.0
2018-Jan-21 05:28S 38°20' E 144°45'14060477519.0
2018-Jan-21 05:26N 38°58' W 076°29'999879456.2
2018-Jan-21 05:19N 33°41' E 130°14'246127510.2
2018-Jan-21 05:13N 01°15' E 103°56'1044548833.5
2018-Jan-21 05:00N 36°53' W 076°22'40663659122.1
2018-Jan-21 05:00S 23°57' W 046°18'50579102896.2
2018-Jan-21 05:00N 50°09' W 005°05'11662099053.6
2018-Jan-21 05:00N 63°13' E 021°09'560710091931.8
2018-Jan-21 05:00N 01°15' E 103°50'77715595443.5
2018-Jan-21 05:00N 49°17' W 123°08'686224377.3
2018-Jan-21 05:00N 37°52' W 122°29'2276315196.4
2018-Jan-21 05:00N 25°48' W 080°09'381195898.0
2018-Jan-21 05:00N 32°07' W 080°54'2069465491.2
2018-Jan-21 04:59N 37°47' W 122°23'21617777816.1
2018-Jan-21 04:59N 38°58' W 076°29'104141874518.4
2018-Jan-21 04:59N 01°15' E 103°56'44892308883.9
2018-Jan-21 04:59N 44°44' E 037°47'0 0.7
2018-Jan-21 04:58N 44°44' E 037°47'6318320352.6
2018-Jan-21 04:57S 23°00' W 044°19'43791313740.0
2018-Jan-21 04:57N 29°33' W 095°02'82667439128.7
2018-Jan-21 04:57S 38°20' E 144°45'332510284.0
2018-Jan-21 04:38N 01°15' E 103°50'1044088431.7
2018-Jan-21 04:30N 36°53' W 076°22'40663659122.1
2018-Jan-21 04:30S 23°57' W 046°18'89696457407.3
2018-Jan-21 04:30N 01°16' E 103°58'76542.4
2018-Jan-21 04:30N 01°15' E 103°50'777127977214.0
2018-Jan-21 04:30N 49°17' W 123°08'686205679.2
2018-Jan-21 04:30N 37°52' W 122°29'72034321817.6
2018-Jan-21 04:30S 38°20' E 144°45'94645678390.9
2018-Jan-21 04:30N 63°13' E 021°09'4526775899.5
2018-Jan-21 04:30N 32°07' W 080°54'39651297691.8
2018-Jan-21 04:29S 23°00' W 044°19'59065315545.0
2018-Jan-21 04:29N 37°47' W 122°23'51201675630.5
2018-Jan-21 04:29N 50°09' W 005°05'1769398094.3
2018-Jan-21 04:29N 44°44' E 037°47'0 1.2
2018-Jan-21 04:28N 44°44' E 037°47'5888198102.0
2018-Jan-21 04:27N 25°48' W 080°09'811121720.5
2018-Jan-21 04:26N 38°58' W 076°29'10409217857.0
2018-Jan-21 04:23N 01°15' E 103°50'9474106911.9
2018-Jan-21 04:18N 29°33' W 095°02'607740889.8
2018-Jan-21 04:09N 46°50' E 031°57'6277.7
2018-Jan-21 04:08N 46°56' E 031°57'0488.8
2018-Jan-21 04:08N 46°56' E 031°57'1194.4
2018-Jan-21 04:07N 46°57' E 031°59'75021.4
2018-Jan-21 04:07N 46°50' E 031°57'3250.6
2018-Jan-21 04:06N 46°46' E 031°57'0 0.0
2018-Jan-21 04:00N 46°46' E 031°57'626022535500.7
2018-Jan-21 04:00S 23°57' W 046°18'647123296361.6
2018-Jan-21 04:00N 63°13' E 021°09'40757335667.6
2018-Jan-21 04:00N 36°53' W 076°22'104406263911.9
2018-Jan-21 04:00N 01°15' E 103°50'47952466223.5
2018-Jan-21 04:00N 46°50' E 031°57'68694945908.5
2018-Jan-21 04:00N 37°52' W 122°29'14582624072.6
2018-Jan-21 04:00N 29°33' W 095°02'1760395969.0
2018-Jan-21 04:00N 49°17' W 123°08'2180523301.7
2018-Jan-21 04:00N 32°07' W 080°54'464104420.1
2018-Jan-21 03:59N 38°58' W 076°29'21613888910.4
2018-Jan-21 03:59N 37°47' W 122°23'1404280810.6
2018-Jan-21 03:59N 27°54' W 097°08'62572815455.2
2018-Jan-21 03:59N 46°56' E 031°57'277998130.8
2018-Jan-21 03:59N 44°44' E 037°47'0 1.3
2018-Jan-21 03:58N 44°44' E 037°47'1769909925.4
2018-Jan-21 03:58N 50°09' W 005°05'49505940591.1
2018-Jan-21 03:58S 23°00' W 044°19'613222076005.5
2018-Jan-21 03:58N 46°50' E 031°57'8465390699.6
2018-Jan-21 03:57S 38°20' E 144°45'139543139571.0
2018-Jan-21 03:57N 25°48' W 080°09'5563377834.3
2018-Jan-21 03:56N 46°56' E 031°57'4803751705.7
2018-Jan-21 03:55N 01°16' E 103°58'48014321150.9
2018-Jan-21 03:55N 46°57' E 031°59'45651825957.1
2018-Jan-21 03:55N 33°41' E 130°14'488311830.6
2018-Jan-21 03:30N 49°17' W 123°08'622522410085.0
2018-Jan-21 03:30N 46°46' E 031°57'10543794457.4
2018-Jan-21 03:30N 63°13' E 021°09'560910096045.8
2018-Jan-21 03:30N 01°16' E 103°55'1044337596264.7
2018-Jan-21 03:30N 36°53' W 076°22'48771596020.0
2018-Jan-21 03:30N 46°50' E 031°57'68694945908.5
2018-Jan-21 03:30N 37°52' W 122°29'78815674156.3
2018-Jan-21 03:30N 01°13' E 103°41'33291089531.5
2018-Jan-21 03:30S 38°20' E 144°45'139544566648.7
2018-Jan-21 03:30N 25°48' W 080°09'381195907.8
2018-Jan-21 03:30N 32°07' W 080°54'3593995094.5
2018-Jan-21 03:29N 50°09' W 005°05'31262813265.4
2018-Jan-21 03:29N 38°58' W 076°29'4786615368.4
2018-Jan-21 03:29N 46°56' E 031°57'277166425.3
2018-Jan-21 03:29N 44°44' E 037°47'0 1.2
2018-Jan-21 03:28N 44°44' E 037°47'66007920402.4
2018-Jan-21 03:28N 27°54' W 097°08'62602503805.3
2018-Jan-21 03:28N 46°50' E 031°57'613211038001.3
2018-Jan-21 03:28S 23°00' W 044°19'10967789648.6
2018-Jan-21 03:27N 33°41' E 130°13'68891180965.2
2018-Jan-21 03:27N 29°33' W 095°02'6075214412.7
2018-Jan-21 03:25N 46°57' E 031°59'480411622.7
2018-Jan-21 03:01N 01°18' E 104°03'2623411.9
2018-Jan-21 03:00N 01°13' E 103°38'56015040689.6
2018-Jan-21 03:00N 63°13' E 021°09'64722588678.6
2018-Jan-21 03:00S 23°57' W 046°18'62627514799.4
2018-Jan-21 03:00N 46°50' E 031°57'48772926036.6
2018-Jan-21 03:00N 36°53' W 076°22'22003960131.7
2018-Jan-21 03:00N 37°52' W 122°29'2276327804.9
2018-Jan-21 03:00N 25°48' W 080°09'918826499.2
2018-Jan-21 03:00N 27°54' W 097°08'8813170914.2
2018-Jan-21 03:00N 32°07' W 080°54'2180981190.7
2018-Jan-21 02:59N 49°17' W 123°08'2103688190.3
2018-Jan-21 02:59N 38°58' W 076°29'21617777820.8
2018-Jan-21 02:59N 37°47' W 122°23'72371002004.8
2018-Jan-21 02:59N 44°44' E 037°47'277998525.2
2018-Jan-21 02:59N 46°56' E 031°57'0480.9
2018-Jan-21 02:59N 46°56' E 031°57'27752531.9
2018-Jan-21 02:58N 44°44' E 037°47'63182067732.2
2018-Jan-21 02:58S 23°00' W 044°19'613222076016.6
2018-Jan-21 02:58N 46°50' E 031°57'84655079086.9
2018-Jan-21 02:58S 38°20' E 144°45'8266444126.8
2018-Jan-21 02:57N 29°33' W 095°02'4324228901.2
2018-Jan-21 02:56N 50°10' W 005°05'10410871557.5
2018-Jan-21 02:55S 38°18' E 144°59'440876287.5
2018-Jan-21 02:52N 33°40' E 130°13'457129542.6
2018-Jan-21 02:42N 46°46' E 031°57'10124.1
2018-Jan-21 02:37N 46°57' E 031°59'480342071.4
2018-Jan-21 02:31N 01°17' E 104°01'2226698.0
2018-Jan-21 02:30N 01°15' E 103°39'47865743692.6
2018-Jan-21 02:30N 46°46' E 031°57'10541897228.7
2018-Jan-21 02:30N 63°13' E 021°09'48822197067.5
2018-Jan-21 02:30N 49°17' W 123°08'628922641699.9
2018-Jan-21 02:30S 23°58' W 046°17'62627514800.2
2018-Jan-21 02:30N 46°50' E 031°57'847410169261.0
2018-Jan-21 02:30S 38°19' E 144°57'71936473891.9
2018-Jan-21 02:30N 37°52' W 122°29'2276303522.5
2018-Jan-21 02:30N 25°48' W 080°09'381195907.5
2018-Jan-21 02:30N 32°07' W 080°54'364119036.3
2018-Jan-21 02:29N 36°53' W 076°22'12589912.0
2018-Jan-21 02:29N 38°58' W 076°29'21617777816.1
2018-Jan-21 02:29N 37°47' W 122°23'6865915331.3
2018-Jan-21 02:29N 46°56' E 031°57'0488.8
2018-Jan-21 02:29N 46°56' E 031°57'277998551.6
2018-Jan-21 02:29N 44°44' E 037°47'1769303308.7
2018-Jan-21 02:28N 50°10' W 005°05'17692123152.5
2018-Jan-21 02:28N 44°44' E 037°47'63183249291.1
2018-Jan-21 02:28S 23°00' W 044°19'44003167760.4
2018-Jan-21 02:28N 27°54' W 097°08'6258133300.5
2018-Jan-21 02:25N 46°57' E 031°59'75026.2
2018-Jan-21 02:25N 46°50' E 031°57'480084291.2
2018-Jan-21 02:22N 01°15' E 103°57'946858063.2
2018-Jan-21 02:12N 29°33' W 095°02'603156986.8
2018-Jan-21 02:06N 46°30' E 030°45'52593.9
2018-Jan-21 02:00N 46°46' E 031°57'48008639244.3
2018-Jan-21 02:00N 01°17' E 103°59'561120198343.1
2018-Jan-21 02:00N 63°13' E 021°09'407514671335.3
2018-Jan-21 02:00N 36°53' W 076°22'48742924281.5
2018-Jan-21 02:00N 46°56' E 031°57'5640344.8
2018-Jan-21 02:00N 46°30' E 030°45'53191066.0
2018-Jan-21 02:00N 46°50' E 031°57'68694121590.4
2018-Jan-21 02:00N 37°52' W 122°29'686308518.7
2018-Jan-21 02:00N 49°17' W 123°08'62892264171.7
2018-Jan-21 02:00S 23°58' W 046°17'36111857237.9
2018-Jan-21 02:00N 25°48' W 080°09'381171419.3
2018-Jan-21 02:00N 32°07' W 080°54'35931848034.7
2018-Jan-21 01:59N 50°10' W 005°05'1040518729512.5
2018-Jan-21 01:59S 38°20' E 144°52'140677234630.1
2018-Jan-21 01:59N 38°58' W 076°29'21617777816.1
2018-Jan-21 01:59N 37°47' W 122°23'6865950535.7
2018-Jan-21 01:59N 46°56' E 031°57'277199628.1
2018-Jan-21 01:59N 44°44' E 037°47'0 1.2
2018-Jan-21 01:58N 44°44' E 037°47'275164769.2
2018-Jan-21 01:58N 46°50' E 031°57'62602816783.1
2018-Jan-21 01:58N 27°54' W 097°08'810029159293.6
2018-Jan-21 01:58S 38°20' E 144°45'9800678466.6
2018-Jan-21 01:57S 23°00' W 044°19'8854142289.9
2018-Jan-21 01:53N 01°16' E 103°54'9470103940.2
2018-Jan-21 01:48N 29°33' W 095°02'688829414.9
2018-Jan-21 01:34N 33°37' E 130°17'488482168.5
2018-Jan-21 01:30N 49°17' W 123°08'458016489502.6
2018-Jan-21 01:30N 50°09' W 005°05'32022881890.5
2018-Jan-21 01:30N 36°53' W 076°22'48745848563.0
2018-Jan-21 01:30N 46°56' E 031°57'5396207.3
2018-Jan-21 01:30N 46°28' E 030°51'5045122.5
2018-Jan-21 01:30N 46°50' E 031°57'68694121593.1
2018-Jan-21 01:30N 37°52' W 122°29'720025919674.4
2018-Jan-21 01:30S 38°19' E 144°48'139571932480.1
2018-Jan-21 01:30N 25°48' W 080°09'381342838.7
2018-Jan-21 01:30N 32°07' W 080°54'106444789965.0
2018-Jan-21 01:29N 33°37' E 130°18'111083635466.0
2018-Jan-21 01:29S 23°58' W 046°17'585421075781.5
2018-Jan-21 01:29N 37°47' W 122°23'590621262181.0
2018-Jan-21 01:29S 23°00' W 044°19'6136883589.4
2018-Jan-21 01:29N 46°56' E 031°57'27743396.4
2018-Jan-21 01:28N 44°44' E 037°47'275109845.1
2018-Jan-21 01:28N 46°50' E 031°57'62602503808.4
2018-Jan-21 01:28N 27°54' W 097°08'810014579646.8
2018-Jan-21 01:28S 38°20' E 144°45'3320519700.6
2018-Jan-21 01:28N 01°17' E 103°59'627.0
2018-Jan-21 01:15N 01°16' E 103°54'4798181825.4
2018-Jan-21 01:13N 46°57' E 031°59'6075284027.0
2018-Jan-21 01:12N 29°33' W 095°02'607864931.8
2018-Jan-21 01:06N 46°46' E 031°57'66011827.6
2018-Jan-21 01:03N 54°35' E 019°42'4931113784.7
2018-Jan-21 01:00N 33°36' E 130°19'101306078298.4
2018-Jan-21 01:00N 36°53' W 076°22'104427518221.0
2018-Jan-21 01:00N 01°16' E 103°53'47998638232.8
2018-Jan-21 01:00N 46°56' E 031°57'65761.4
2018-Jan-21 01:00N 46°50' E 031°57'60772430669.8
2018-Jan-21 01:00N 29°33' W 095°02'946634076578.6
2018-Jan-21 01:00N 01°16' E 103°59'77646987962.2
2018-Jan-21 01:00N 49°17' W 123°08'1770398160.0
2018-Jan-21 01:00N 27°54' W 097°08'9181102011.6
2018-Jan-21 01:00N 25°48' W 080°09'381171419.3
2018-Jan-21 01:00N 32°07' W 080°54'464111381.5
2018-Jan-21 00:59N 38°58' W 076°29'21613888910.4
2018-Jan-21 00:59N 37°47' W 122°23'6865988557.1
2018-Jan-21 00:59N 46°56' E 031°57'277249535.1
2018-Jan-21 00:59N 44°44' E 037°47'0 1.4
2018-Jan-21 00:58N 44°44' E 037°47'81169739315.0
2018-Jan-21 00:58S 38°18' E 144°44'980111761004.5
2018-Jan-21 00:58S 23°00' W 044°19'613211037992.1
2018-Jan-21 00:58N 46°50' E 031°57'84652176751.5
2018-Jan-21 00:58S 38°20' E 144°45'103991011786.2
2018-Jan-21 00:57N 50°09' W 005°05'50581655360.4
2018-Jan-21 00:57S 23°58' W 046°17'58611918302.8
2018-Jan-21 00:57N 37°52' W 122°29'686553265.9
2018-Jan-21 00:49N 46°57' E 031°59'487515531.0
2018-Jan-21 00:31N 36°53' W 076°22'1043612523692.2
2018-Jan-21 00:30N 01°15' E 103°47'56044035074.1
2018-Jan-21 00:30N 63°13' E 021°09'1045626761.7
2018-Jan-21 00:30N 46°56' E 031°57'64609.2
2018-Jan-21 00:30N 46°50' E 031°57'60772187602.8
2018-Jan-21 00:30N 29°33' W 095°02'1760905072.0
2018-Jan-21 00:30N 49°17' W 123°08'1770530881.0
2018-Jan-21 00:30N 27°54' W 097°08'918661203.1
2018-Jan-21 00:30N 25°48' W 080°09'381228559.1
2018-Jan-21 00:30N 32°07' W 080°54'3951889013.8
2018-Jan-21 00:29S 23°58' W 046°17'418115052943.7
2018-Jan-21 00:29N 38°58' W 076°29'21617777816.1
2018-Jan-21 00:29N 37°47' W 122°23'7204997531.9
2018-Jan-21 00:29S 38°20' E 144°45'846830486387.7
2018-Jan-21 00:29N 46°56' E 031°57'277499063.6
2018-Jan-21 00:29N 44°44' E 037°47'1769353859.6
2018-Jan-21 00:28N 50°10' W 005°05'17693184724.5
2018-Jan-21 00:28N 44°44' E 037°47'275123575.2
2018-Jan-21 00:28N 46°50' E 031°57'7142.7
2018-Jan-21 00:25N 46°57' E 031°59'4573748253.5
2018-Jan-21 00:25N 33°36' E 130°19'522745237.9
2018-Jan-21 00:18N 37°52' W 122°29'788226997.4
2018-Jan-21 00:01N 01°12' E 103°41'95387.7
2018-Jan-21 00:00N 01°13' E 103°50'777427988174.4
2018-Jan-21 00:00N 49°17' W 123°08'48822197067.5
2018-Jan-21 00:00N 63°13' E 021°09'10453760586.5
2018-Jan-21 00:00N 46°56' E 031°57'64604.9
2018-Jan-21 00:00N 46°50' E 031°57'62623757400.3
2018-Jan-21 00:00S 23°58' W 046°17'4068610138.4
2018-Jan-21 00:00N 36°53' W 076°22'2197292876.8
2018-Jan-20 23:59N 37°47' W 122°23'14042527306.8
2018-Jan-20 23:59N 27°54' W 097°08'81002650846.6
2018-Jan-20 23:59S 38°20' E 144°45'81182247974.1
2018-Jan-20 23:59N 44°44' E 037°47'277998129.4
2018-Jan-20 23:59N 46°56' E 031°57'27738389.1
2018-Jan-20 23:58N 44°44' E 037°47'276994986.9
2018-Jan-20 23:58N 46°57' E 031°59'76276.7
2018-Jan-20 23:58N 46°50' E 031°57'4795863139.5
2018-Jan-20 23:58N 01°15' E 103°51'7870544872.9
2018-Jan-20 23:57N 37°52' W 122°29'2276341463.5
2018-Jan-20 23:57N 25°48' W 080°09'811116852.5
2018-Jan-20 23:56N 38°58' W 076°29'107929208.0
2018-Jan-20 23:54N 29°33' W 095°02'74486430.1
2018-Jan-20 23:54N 32°07' W 080°54'396549911.5
2018-Jan-20 23:49S 23°00' W 044°19'635320772.9
2018-Jan-20 23:30N 63°13' E 021°09'40754890445.1
2018-Jan-20 23:30N 36°53' W 076°22'21811570189.4
2018-Jan-20 23:30N 49°17' W 123°08'62225599353.0
2018-Jan-20 23:30N 46°50' E 031°57'61646.2
2018-Jan-20 23:30N 46°56' E 031°57'5298706401.2
2018-Jan-20 23:30N 32°07' W 080°54'2069572909.1
2018-Jan-20 23:29N 37°47' W 122°23'21612592606.9
2018-Jan-20 23:29N 38°58' W 076°29'4786662723.4
2018-Jan-20 23:29N 46°56' E 031°57'846815243186.7
2018-Jan-20 23:29S 38°20' E 144°45'81185844730.8
2018-Jan-20 23:29N 44°44' E 037°47'0 1.3
2018-Jan-20 23:28N 44°44' E 037°47'275109846.1
2018-Jan-20 23:28N 46°50' E 031°57'47951015452.3
2018-Jan-20 23:28N 01°15' E 103°50'88501098640.6
2018-Jan-20 23:27S 23°00' W 044°19'43941318251.3
2018-Jan-20 23:27N 27°51' W 097°04'14835545.4
2018-Jan-20 23:27N 29°33' W 095°02'823128755.2
2018-Jan-20 23:27N 25°48' W 080°09'5564250376.6
2018-Jan-20 23:25N 46°57' E 031°59'686596923.1
2018-Jan-20 23:21N 37°52' W 122°29'687273411.3
2018-Jan-20 23:15N 46°46' E 031°57'480043093.3
2018-Jan-20 23:09N 01°17' E 103°60'344939163.1
2018-Jan-20 23:03S 32°47' E 152°06'8601169209.7
2018-Jan-20 23:00N 46°46' E 031°57'613022067579.5
2018-Jan-20 23:00S 23°00' W 044°19'406914647268.6
2018-Jan-20 23:00N 36°53' W 076°22'407514671339.9
2018-Jan-20 23:00N 63°13' E 021°09'561110099815.0
2018-Jan-20 23:00N 01°16' E 103°58'48011728292.4
2018-Jan-20 23:00N 46°50' E 031°57'60772187602.8
2018-Jan-20 23:00N 29°33' W 095°02'60747288509.8
2018-Jan-20 23:00N 46°56' E 031°57'62155593671.9
2018-Jan-20 23:00N 49°17' W 123°08'76093424255.7
2018-Jan-20 23:00S 38°20' E 144°44'139535581391.9
2018-Jan-20 23:00N 25°48' W 080°09'381457118.2
2018-Jan-20 23:00N 32°07' W 080°54'3593680853.7
2018-Jan-20 22:59N 50°09' W 005°05'312611253040.3
2018-Jan-20 22:59N 38°58' W 076°29'1228232600.3
2018-Jan-20 22:59N 27°51' W 097°04'62562815162.7
2018-Jan-20 22:59N 46°56' E 031°57'277142589.6
2018-Jan-20 22:59N 44°44' E 037°47'0 1.6
2018-Jan-20 22:58N 44°44' E 037°47'275141227.5
2018-Jan-20 22:58N 46°50' E 031°57'4795822032.4
2018-Jan-20 22:58N 01°15' E 103°50'7870544877.6
2018-Jan-20 22:57N 37°52' W 122°29'6865237647.9
2018-Jan-20 22:55N 46°57' E 031°59'626826086.2
2018-Jan-20 22:41S 23°58' W 046°17'406823466.8
2018-Jan-20 22:31N 36°53' W 076°22'40682928660.3
2018-Jan-20 22:30S 23°58' W 046°17'894510734341.4
2018-Jan-20 22:30N 01°13' E 103°36'56002519972.7
2018-Jan-20 22:30N 63°13' E 021°09'10511260812.2
2018-Jan-20 22:30N 46°50' E 031°57'68693532791.8
2018-Jan-20 22:30N 37°52' W 122°29'68643530227.7
2018-Jan-20 22:30N 46°56' E 031°57'1483410776.5
2018-Jan-20 22:30N 50°09' W 005°05'658423703982.4
2018-Jan-20 22:30N 01°16' E 103°58'108417805368.2
2018-Jan-20 22:30N 25°48' W 080°09'24844470880.3
2018-Jan-20 22:30N 49°17' W 123°08'21803924755.6
2018-Jan-20 22:30N 32°07' W 080°54'2069354657.2
2018-Jan-20 22:29N 37°47' W 122°23'1409281846.0
2018-Jan-20 22:29N 27°51' W 097°04'62563217328.8
2018-Jan-20 22:29N 46°56' E 031°57'846830486387.7
2018-Jan-20 22:29S 38°20' E 144°45'81189741217.0
2018-Jan-20 22:29N 44°44' E 037°47'27652369.0
2018-Jan-20 22:28N 46°57' E 031°59'276497493.5
2018-Jan-20 22:28N 44°44' E 037°47'275141230.7
2018-Jan-20 22:28N 46°50' E 031°57'4795313874.2
2018-Jan-20 22:27N 01°15' E 103°51'8850142236.3
2018-Jan-20 22:24S 23°00' W 044°19'6130169750.6
2018-Jan-20 22:21N 46°46' E 031°57'846870896.5
2018-Jan-20 22:14S 27°52' E 153°23'752940156.9
2018-Jan-20 22:03N 29°33' W 095°02'107980930.8
2018-Jan-20 22:02N 38°58' W 076°29'10411353590.5
2018-Jan-20 22:00N 01°14' E 103°52'479717267782.2
2018-Jan-20 22:00N 46°46' E 031°57'47854306756.2
2018-Jan-20 22:00N 01°13' E 103°36'560020159538.1
2018-Jan-20 22:00N 63°13' E 021°09'407514671322.5
2018-Jan-20 22:00N 36°53' W 076°22'48771755620.4
2018-Jan-20 22:00N 46°50' E 031°57'47998638851.4
2018-Jan-20 22:00N 01°15' E 103°56'89658068569.0
2018-Jan-20 22:00S 23°58' W 046°17'628922641717.2
2018-Jan-20 22:00N 49°17' W 123°08'6861234064.2
2018-Jan-20 22:00N 37°52' W 122°29'68644942307.8
2018-Jan-20 22:00N 46°56' E 031°57'55631001260.9
2018-Jan-20 22:00N 25°48' W 080°09'381195907.8
2018-Jan-20 22:00N 32°07' W 080°54'39651098052.0
2018-Jan-20 21:59S 23°00' W 044°19'1071519287804.9
2018-Jan-20 21:59S 27°52' E 153°23'639323014658.9
2018-Jan-20 21:59N 37°47' W 122°23'72041037433.2
2018-Jan-20 21:59S 38°20' E 144°45'846830486387.7
2018-Jan-20 21:59N 46°56' E 031°57'277110904.5
2018-Jan-20 21:59N 44°44' E 037°47'0 2.6
2018-Jan-20 21:58N 44°44' E 037°47'276110555.2
2018-Jan-20 21:58N 46°57' E 031°59'76282.0
2018-Jan-20 21:58N 46°50' E 031°57'148687680.3
2018-Jan-20 21:57N 50°09' W 005°05'3126190729.5
2018-Jan-20 21:56N 38°58' W 076°29'122832495.7
2018-Jan-20 21:54N 27°51' W 097°04'1523357.4
2018-Jan-20 21:51N 29°37' W 094°60'10322976.1
2018-Jan-20 21:30N 36°53' W 076°22'10313713356.9
2018-Jan-20 21:30N 29°37' W 094°60'17582109647.3
2018-Jan-20 21:30N 49°17' W 123°08'48828788270.2
2018-Jan-20 21:30N 63°13' E 021°09'1051343858.3
2018-Jan-20 21:30N 46°50' E 031°57'68693091194.8
2018-Jan-20 21:30N 37°52' W 122°29'14585248145.3
2018-Jan-20 21:30N 29°33' W 095°02'60745466375.4
2018-Jan-20 21:30N 46°56' E 031°57'48028642703.9
2018-Jan-20 21:30N 01°14' E 103°55'108382167630.6
2018-Jan-20 21:30N 25°48' W 080°09'9141645455.9
2018-Jan-20 21:30N 27°51' W 097°04'878632364.3
2018-Jan-20 21:30N 32°07' W 080°54'39512370703.6
2018-Jan-20 21:29S 23°58' W 046°17'58541756315.1
2018-Jan-20 21:29N 37°47' W 122°23'78761288811.8
2018-Jan-20 21:29N 01°15' E 103°50'47975756795.3
2018-Jan-20 21:29N 46°56' E 031°57'277166355.1
2018-Jan-20 21:29N 44°44' E 037°47'0 1.7
2018-Jan-20 21:28N 44°44' E 037°47'276124373.4
2018-Jan-20 21:28N 46°57' E 031°59'712554.9
2018-Jan-20 21:28N 46°50' E 031°57'6132596648.3
2018-Jan-20 21:28S 23°00' W 044°19'10715145021.1
2018-Jan-20 21:23S 27°52' E 153°23'8468287598.9
2018-Jan-20 21:21N 46°46' E 031°57'479139742.5
2018-Jan-20 21:14N 38°58' W 076°29'418118158.0
2018-Jan-20 21:00S 23°58' W 046°17'628922641699.9
2018-Jan-20 21:00N 49°17' W 123°08'21811962736.7
2018-Jan-20 21:00N 36°53' W 076°22'48772194527.5
2018-Jan-20 21:00N 46°50' E 031°57'1051945609.2
2018-Jan-20 21:00N 63°13' E 021°09'52094688246.8
2018-Jan-20 21:00N 29°37' W 094°59'14585250028.1
2018-Jan-20 21:00N 37°52' W 122°29'14585248145.3
2018-Jan-20 21:00N 29°33' W 095°02'60744373100.4
2018-Jan-20 21:00N 46°56' E 031°57'479717270811.9
2018-Jan-20 21:00N 01°15' E 103°50'108342052666.5
2018-Jan-20 21:00N 25°48' W 080°09'381195902.0
2018-Jan-20 21:00N 32°07' W 080°54'464104424.2
2018-Jan-20 20:59N 38°58' W 076°29'4786662722.8
2018-Jan-20 20:59N 46°56' E 031°57'277199625.4
2018-Jan-20 20:59N 44°44' E 037°47'0 1.2
2018-Jan-20 20:58N 44°44' E 037°47'63184549010.8
2018-Jan-20 20:58S 23°00' W 044°19'61327358667.1
2018-Jan-20 20:58N 46°50' E 031°57'3261.0
2018-Jan-20 20:57N 46°46' E 031°57'6258433256.2
2018-Jan-20 20:57N 27°50' W 096°60'625587961.0
2018-Jan-20 20:52N 46°57' E 031°59'54316.4
2018-Jan-20 20:42N 46°20' E 031°01'10695504.4
2018-Jan-20 20:30N 63°13' E 021°09'40753667833.8
2018-Jan-20 20:30N 36°53' W 076°22'40683660828.0
2018-Jan-20 20:30S 23°58' W 046°17'626211272214.9
2018-Jan-20 20:30N 46°50' E 031°57'47952877265.6
2018-Jan-20 20:30N 01°15' E 103°50'77719325745.2
2018-Jan-20 20:30N 49°17' W 123°08'6862468149.9
2018-Jan-20 20:30N 37°52' W 122°29'68644942315.2
2018-Jan-20 20:30N 46°56' E 031°57'60694369374.3
2018-Jan-20 20:30N 29°36' W 094°58'82714253420.1
2018-Jan-20 20:30S 38°20' E 144°44'139536279065.9
2018-Jan-20 20:30N 25°48' W 080°09'381171408.4
2018-Jan-20 20:30N 32°07' W 080°54'2069438109.9
2018-Jan-20 20:29N 37°47' W 122°23'59067087394.4
2018-Jan-20 20:29S 23°00' W 044°19'61361299394.2
2018-Jan-20 20:29N 46°56' E 031°57'62561324784.7
2018-Jan-20 20:29N 27°53' W 097°06'66002159885.6
2018-Jan-20 20:28N 44°44' E 037°47'275123576.9
2018-Jan-20 20:28N 46°50' E 031°57'4795233279.5
2018-Jan-20 20:27N 01°15' E 103°50'4485209693.5
2018-Jan-20 20:26N 44°44' E 037°47'30325342.1
2018-Jan-20 20:25N 46°21' E 030°58'551213.7
2018-Jan-20 20:22N 46°57' E 031°59'148433610.3
2018-Jan-20 20:20N 50°09' W 005°05'148773317.1
2018-Jan-20 20:18N 46°46' E 031°57'607829332.5
2018-Jan-20 20:06N 29°33' W 095°02'521555381.5
2018-Jan-20 20:00N 63°13' E 021°09'40754890440.8
2018-Jan-20 20:00N 36°53' W 076°22'1044312531096.5
2018-Jan-20 20:00N 01°16' E 103°54'47983454286.3
2018-Jan-20 20:00N 46°50' E 031°57'62223199629.1
2018-Jan-20 20:00N 49°17' W 123°08'620622341933.7
2018-Jan-20 20:00N 46°24' E 030°54'60725464549.1
2018-Jan-20 20:00S 23°00' W 044°19'61367363227.2
2018-Jan-20 20:00N 46°56' E 031°57'626611279396.2
2018-Jan-20 20:00S 23°58' W 046°17'43571120401.2
2018-Jan-20 20:00N 27°54' W 097°08'44948088850.5
2018-Jan-20 20:00N 50°09' W 005°05'38406911405.5
2018-Jan-20 20:00N 25°48' W 080°09'820246000.1
2018-Jan-20 19:59N 29°35' W 094°59'1454475969.9
2018-Jan-20 19:59N 37°47' W 122°23'78763150428.0
2018-Jan-20 19:59N 01°15' E 103°50'47971079399.1
2018-Jan-20 19:59N 46°56' E 031°57'277142591.5
2018-Jan-20 19:59N 44°44' E 037°47'0 0.9
2018-Jan-20 19:58N 44°44' E 037°47'276198999.6
2018-Jan-20 19:58N 46°57' E 031°59'725109.9
2018-Jan-20 19:58N 46°50' E 031°57'84651015818.9
2018-Jan-20 19:58S 38°20' E 144°45'972375926.3
2018-Jan-20 19:50N 39°34' E 002°39'486357215.8
2018-Jan-20 19:45N 29°33' W 095°02'6078143019.7
2018-Jan-20 19:42N 46°46' E 031°57'487824494.0
2018-Jan-20 19:31N 36°53' W 076°22'48785854070.3
2018-Jan-20 19:30N 46°46' E 031°57'1054948602.9
2018-Jan-20 19:30N 63°13' E 021°09'56103366152.8
2018-Jan-20 19:30N 01°16' E 103°58'48005760114.6
2018-Jan-20 19:30N 46°50' E 031°57'622222397426.2
2018-Jan-20 19:30N 49°17' W 123°08'62004463890.1
2018-Jan-20 19:30N 46°27' E 030°49'62017440730.6
2018-Jan-20 19:30S 23°58' W 046°18'3611481418.6
2018-Jan-20 19:30N 25°48' W 080°09'426115341361.7
2018-Jan-20 19:30N 39°33' E 002°38'58581171541.3
2018-Jan-20 19:29N 37°47' W 122°23'51204607989.9
2018-Jan-20 19:29N 50°09' W 005°05'44948088842.1
2018-Jan-20 19:29N 27°54' W 097°08'44001055921.2
2018-Jan-20 19:29S 23°00' W 044°19'61362761209.2
2018-Jan-20 19:29N 46°56' E 031°57'277124766.3
2018-Jan-20 19:29N 44°44' E 037°47'0 1.3
2018-Jan-20 19:28N 44°44' E 037°47'275197725.7
2018-Jan-20 19:28N 46°50' E 031°57'84651015818.9
2018-Jan-20 19:28S 38°20' E 144°45'8266646880.8
2018-Jan-20 19:27N 29°33' W 095°02'6075212330.9
2018-Jan-20 19:25N 46°57' E 031°59'6865320978.9
2018-Jan-20 19:24N 37°52' W 122°29'68644942312.0
2018-Jan-20 19:24N 46°56' E 031°57'480152220.1
2018-Jan-20 19:18N 01°15' E 103°55'642229870.5
2018-Jan-20 19:06N 36°16' W 002°54'641476712.6
2018-Jan-20 19:01N 01°15' E 103°46'1043637570101.2
2018-Jan-20 19:01N 36°53' W 076°22'40662439836.4
2018-Jan-20 19:00S 23°57' W 046°18'647223298498.5
2018-Jan-20 19:00N 63°13' E 021°09'48822510934.3
2018-Jan-20 19:00N 49°17' W 123°08'622211198705.9
2018-Jan-20 19:00N 46°50' E 031°57'1357813934.1
2018-Jan-20 19:00N 39°32' E 002°36'614622125415.1
2018-Jan-20 19:00N 01°15' E 103°58'48488726256.6
2018-Jan-20 19:00N 46°30' E 030°46'603221713435.3
2018-Jan-20 19:00N 29°33' W 095°02'46544188186.0
2018-Jan-20 19:00N 36°05' W 003°04'17032043763.7
2018-Jan-20 19:00N 46°56' E 031°57'48024321623.0
2018-Jan-20 19:00N 01°16' E 103°57'108402601505.3
2018-Jan-20 19:00N 25°48' W 080°09'2271454239.4
2018-Jan-20 18:59N 37°47' W 122°23'6865797224.1
2018-Jan-20 18:59N 46°56' E 031°57'277142590.1
2018-Jan-20 18:59N 44°44' E 037°47'0 0.8
2018-Jan-20 18:58N 44°44' E 037°47'276331666.0
2018-Jan-20 18:58N 46°57' E 031°59'78369.0
2018-Jan-20 18:58N 46°50' E 031°57'61321471735.5
2018-Jan-20 18:58S 23°00' W 044°19'98002939965.4
2018-Jan-20 18:58S 38°20' E 144°44'84631523429.0
2018-Jan-20 18:58N 46°46' E 031°57'6872916282.7
2018-Jan-20 18:57N 37°52' W 122°29'141022458.4
2018-Jan-20 18:53N 27°54' W 097°08'449431231.1
2018-Jan-20 18:45N 50°09' W 005°05'297524175.5
2018-Jan-20 18:37N 40°21' W 074°07'215418864.5
2018-Jan-20 18:30N 49°17' W 123°08'48825858846.8
2018-Jan-20 18:30N 63°13' E 021°09'18906805440.0
2018-Jan-20 18:30N 35°56' W 003°11'43043873182.1
2018-Jan-20 18:30S 23°00' W 044°19'61325518805.7
2018-Jan-20 18:30N 46°50' E 031°57'48012160330.8
2018-Jan-20 18:30N 01°15' E 103°57'786428312172.8
2018-Jan-20 18:30N 37°52' W 122°29'78642177761.8
2018-Jan-20 18:30N 01°16' E 103°57'93658428353.4
2018-Jan-20 18:30N 27°54' W 097°08'918330597.8
2018-Jan-20 18:30N 25°48' W 080°09'381195891.6
2018-Jan-20 18:30N 32°07' W 080°54'2069677082.8
2018-Jan-20 18:29N 37°47' W 122°23'51204607990.7
2018-Jan-20 18:29N 50°09' W 005°05'1483213619.1
2018-Jan-20 18:29N 46°56' E 031°57'277110903.4
2018-Jan-20 18:29N 44°44' E 037°47'52059369248.8
2018-Jan-20 18:29N 36°53' W 076°22'52051102261.9
2018-Jan-20 18:28N 44°44' E 037°47'275329533.9
2018-Jan-20 18:28N 46°50' E 031°57'64618.2
2018-Jan-20 18:28N 46°56' E 031°57'84681051259.3
2018-Jan-20 18:28S 38°20' E 144°44'84631904286.3
2018-Jan-20 18:27N 46°46' E 031°57'6078105202.1
2018-Jan-20 18:24N 29°33' W 095°02'6075214412.7
2018-Jan-20 18:22N 46°57' E 031°59'8395514.4
2018-Jan-20 18:13N 44°16' E 012°21'5232477.1
2018-Jan-20 18:01N 39°31' E 002°33'3541274051.3
2018-Jan-20 18:01N 35°34' W 002°59'642111557446.0
2018-Jan-20 18:00N 01°11' E 103°48'77776999407.4
2018-Jan-20 18:00N 49°17' W 123°08'62882515197.0
2018-Jan-20 18:00S 23°57' W 046°18'626211272364.0
2018-Jan-20 18:00N 46°50' E 031°57'48774389058.9
2018-Jan-20 18:00N 36°53' W 076°22'1035532375.4
2018-Jan-20 18:00N 29°33' W 095°02'4324741203.0
2018-Jan-20 18:00N 50°09' W 005°05'38403455700.4
2018-Jan-20 18:00N 25°48' W 080°09'48818786320.9
2018-Jan-20 18:00N 63°13' E 021°09'45263258789.9
2018-Jan-20 18:00N 32°07' W 080°54'2069827546.5
2018-Jan-20 17:59N 37°47' W 122°23'6865797223.5
2018-Jan-20 17:59N 46°56' E 031°57'84686097286.1
2018-Jan-20 17:59S 38°20' E 144°45'81189741235.3
2018-Jan-20 17:59N 44°44' E 037°47'0 0.8
2018-Jan-20 17:58N 44°44' E 037°47'660023761213.9
2018-Jan-20 17:58N 27°54' W 097°08'626022534283.4
2018-Jan-20 17:58N 46°50' E 031°57'838137057.7
2018-Jan-20 17:58N 44°16' E 012°21'56876824469.6
2018-Jan-20 17:58N 01°15' E 103°57'4799664534.4
2018-Jan-20 17:57N 46°46' E 031°57'6872989584.6
2018-Jan-20 17:57N 37°52' W 122°29'6865237647.9
2018-Jan-20 17:55N 46°57' E 031°59'1824.7
2018-Jan-20 17:55N 46°56' E 031°57'621515016.6
2018-Jan-20 17:30N 49°17' W 123°08'48828788283.1
2018-Jan-20 17:30N 63°13' E 021°09'1051420270.7
2018-Jan-20 17:30N 46°50' E 031°57'47954315686.6
2018-Jan-20 17:30N 01°13' E 103°48'78755669832.7
2018-Jan-20 17:30N 37°52' W 122°29'14581749381.8
2018-Jan-20 17:30N 29°33' W 095°02'10353726628.0
2018-Jan-20 17:30N 36°53' W 076°22'4066914938.7
2018-Jan-20 17:30S 23°57' W 046°18'36103249036.4
2018-Jan-20 17:30N 25°48' W 080°09'381152358.0
2018-Jan-20 17:30N 32°07' W 080°54'2069531992.9
2018-Jan-20 17:29N 37°47' W 122°23'61122444680.3
2018-Jan-20 17:29N 44°16' E 012°21'838177483.3
2018-Jan-20 17:29N 46°56' E 031°57'27771294.8
2018-Jan-20 17:29N 44°44' E 037°47'0 1.7
2018-Jan-20 17:28N 44°44' E 037°47'275247157.1
2018-Jan-20 17:28N 46°50' E 031°57'63848.6
2018-Jan-20 17:28N 46°56' E 031°57'4801785657.9
2018-Jan-20 17:28N 01°14' E 103°54'33225978908.6
2018-Jan-20 17:28S 38°20' E 144°45'84641523449.7
2018-Jan-20 17:28N 46°46' E 031°57'13594891835.7
2018-Jan-20 17:27N 39°31' E 002°33'71615345.3
2018-Jan-20 17:25N 50°09' W 005°05'148437634.0
2018-Jan-20 17:22N 46°57' E 031°59'6258979468.3
2018-Jan-20 17:22N 27°54' W 097°08'502414052.3
2018-Jan-20 17:00N 39°31' E 002°33'613722094294.0
2018-Jan-20 17:00N 01°15' E 103°44'937733758796.7
2018-Jan-20 17:00N 27°54' W 097°08'62592253332.2
2018-Jan-20 17:00N 46°50' E 031°57'68691648634.7
2018-Jan-20 17:00N 37°52' W 122°29'14585248150.0
2018-Jan-20 17:00N 29°33' W 095°02'52151251622.2
2018-Jan-20 17:00N 63°13' E 021°09'48812510377.4
2018-Jan-20 17:00N 25°48' W 080°09'381171402.7
2018-Jan-20 17:00N 32°07' W 080°54'2069677081.9
2018-Jan-20 16:59N 37°47' W 122°23'2197416193.9
2018-Jan-20 16:59N 36°53' W 076°22'21811308493.3
2018-Jan-20 16:59N 49°17' W 123°08'62155593827.7
2018-Jan-20 16:59N 46°56' E 031°57'27790740.0
2018-Jan-20 16:59N 44°44' E 037°47'0 1.5
2018-Jan-20 16:58N 44°44' E 037°47'275988628.6
2018-Jan-20 16:58N 46°50' E 031°57'712554.9
2018-Jan-20 16:58N 46°57' E 031°59'11238.7
2018-Jan-20 16:58N 46°56' E 031°57'62661127955.1
2018-Jan-20 16:58S 23°57' W 046°18'98494431854.1
2018-Jan-20 16:58S 38°20' E 144°45'103991169878.4
2018-Jan-20 16:57N 50°09' W 005°05'148715513.5
2018-Jan-20 16:52N 46°46' E 031°57'10542994.8
2018-Jan-20 16:30N 63°13' E 021°09'1051472808.3
2018-Jan-20 16:30N 46°50' E 031°57'62622049523.9
2018-Jan-20 16:30S 23°57' W 046°18'586021096464.4
2018-Jan-20 16:30N 37°52' W 122°29'14582624075.0
2018-Jan-20 16:30N 29°33' W 095°02'82662125465.4
2018-Jan-20 16:30S 38°20' E 144°45'139545023315.5
2018-Jan-20 16:30N 25°48' W 080°09'24844470873.2
2018-Jan-20 16:30N 49°17' W 123°08'21801962063.8
2018-Jan-20 16:30N 32°08' W 080°53'362130431.0
2018-Jan-20 16:29N 36°53' W 076°22'21971976925.2
2018-Jan-20 16:29N 37°47' W 122°23'51209215983.6
2018-Jan-20 16:29N 50°09' W 005°05'1483242749.4
2018-Jan-20 16:29N 46°56' E 031°57'27776777.3
2018-Jan-20 16:29N 44°44' E 037°47'66003960201.2
2018-Jan-20 16:29N 27°54' W 097°08'66001584080.5
2018-Jan-20 16:28N 44°44' E 037°47'4485436389.1
2018-Jan-20 16:28N 01°15' E 103°50'0 2.2
2018-Jan-20 16:28N 01°15' E 103°50'47943451868.4
2018-Jan-20 16:28N 46°46' E 031°57'10291.5
2018-Jan-20 16:25N 46°57' E 031°59'712564.1
2018-Jan-20 16:25N 46°50' E 031°57'64622.5
2018-Jan-20 16:25N 46°56' E 031°57'1361108860.4
2018-Jan-20 16:24N 39°31' E 002°33'3651292.5
2018-Jan-20 16:08N 35°16' W 002°56'389233124.5
2018-Jan-20 16:01N 32°09' W 080°50'407914685435.8
2018-Jan-20 16:00N 39°31' E 002°33'47893448233.7
2018-Jan-20 16:00S 23°57' W 046°18'62622504969.9
2018-Jan-20 16:00N 46°50' E 031°57'68692248140.2
2018-Jan-20 16:00N 37°52' W 122°29'14581749381.8
2018-Jan-20 16:00N 29°33' W 095°02'823128755.2
2018-Jan-20 16:00N 25°48' W 080°09'2271454239.4
2018-Jan-20 15:59N 37°47' W 122°23'56874094454.7
2018-Jan-20 15:59N 63°13' E 021°09'56106731467.1
2018-Jan-20 15:59N 01°17' E 103°57'4801823069.8
2018-Jan-20 15:59N 46°56' E 031°57'84686097280.9
2018-Jan-20 15:59S 38°20' E 144°45'84651128687.0
2018-Jan-20 15:58N 46°50' E 031°57'14861337126.1
2018-Jan-20 15:58N 50°09' W 005°05'14835340057.4
2018-Jan-20 15:58N 46°56' E 031°57'10828.3
2018-Jan-20 15:58N 46°46' E 031°57'2739114.4
2018-Jan-20 15:56N 44°44' E 037°47'0 1.3
2018-Jan-20 15:55N 44°44' E 037°47'276165829.0
2018-Jan-20 15:55N 46°57' E 031°59'62582252781.7
2018-Jan-20 15:55N 27°54' W 097°08'118260814.1
2018-Jan-20 15:54N 36°53' W 076°22'477013353.7
2018-Jan-20 15:33N 37°55' E 023°42'3717.4
2018-Jan-20 15:32N 37°56' E 023°39'5049162279.4
2018-Jan-20 15:30N 01°18' E 104°04'1425124.4
2018-Jan-20 15:30N 01°15' E 103°50'641423089668.2
2018-Jan-20 15:30N 35°52' W 002°51'17016123669.4
2018-Jan-20 15:30N 46°56' E 031°57'62153196510.3
2018-Jan-20 15:30N 49°17' W 123°08'622222397411.8
2018-Jan-20 15:30N 46°50' E 031°57'68692747726.9
2018-Jan-20 15:30N 37°52' W 122°29'14581749381.8
2018-Jan-20 15:30N 29°33' W 095°02'43401953069.9
2018-Jan-20 15:30S 23°57' W 046°18'50581517329.5
2018-Jan-20 15:30N 50°09' W 005°05'32025763789.6
2018-Jan-20 15:30N 36°53' W 076°22'693831532.9
2018-Jan-20 15:30N 25°48' W 080°09'53426410934.1
2018-Jan-20 15:30N 37°55' E 023°42'69221779906.0
2018-Jan-20 15:29N 37°47' W 122°23'69188301439.8
2018-Jan-20 15:29N 37°56' E 023°39'6113666881.5
2018-Jan-20 15:29N 27°54' W 097°08'66005940301.8
2018-Jan-20 15:29N 44°44' E 037°47'27554925.1
2018-Jan-20 15:28N 46°50' E 031°57'78370.0
2018-Jan-20 15:28N 46°57' E 031°59'8467952571.3
2018-Jan-20 15:28S 38°20' E 144°45'8469199261.9
2018-Jan-20 15:25N 46°56' E 031°57'10159.7
2018-Jan-20 15:22N 46°46' E 031°57'487813949.3
2018-Jan-20 15:01N 36°53' W 076°22'21811308493.9
2018-Jan-20 15:00N 49°17' W 123°08'536219301518.8
2018-Jan-20 15:00N 36°00' W 003°01'17036130906.6
2018-Jan-20 15:00N 46°56' E 031°57'47983454653.6
2018-Jan-20 15:00N 01°15' E 103°51'479617266485.9
2018-Jan-20 15:00N 46°50' E 031°57'68691766395.9
2018-Jan-20 15:00N 37°52' W 122°29'72031440639.8
2018-Jan-20 15:00S 38°20' E 144°44'139536279068.4
2018-Jan-20 15:00N 25°48' W 080°09'53426410940.1
2018-Jan-20 15:00N 37°55' E 023°42'69221916821.8
2018-Jan-20 14:59N 37°47' W 122°23'69188301434.2
2018-Jan-20 14:59N 37°56' E 023°39'75673559.8
2018-Jan-20 14:59N 44°44' E 037°47'27647380.9
2018-Jan-20 14:58N 46°57' E 031°59'276994986.9
2018-Jan-20 14:58N 44°44' E 037°47'277166440.7
2018-Jan-20 14:58N 46°56' E 031°57'6074303685.6
2018-Jan-20 14:57N 29°33' W 095°02'4860194382.7
2018-Jan-20 14:56N 39°31' E 002°33'9721128184.7
2018-Jan-20 14:51S 38°16' E 144°40'8457207119.7
2018-Jan-20 14:49N 46°46' E 031°57'480492981.6
2018-Jan-20 14:45N 01°17' E 104°06'485221917.8
2018-Jan-20 14:32N 46°30' E 030°45'4842177861.0
2018-Jan-20 14:31N 01°14' E 103°48'77744664571.0
2018-Jan-20 14:30N 49°17' W 123°08'537119336815.5
2018-Jan-20 14:30N 36°03' W 002°44'18756750347.9
2018-Jan-20 14:30N 63°13' E 021°09'407514671335.3
2018-Jan-20 14:30N 36°53' W 076°22'48773511240.8
2018-Jan-20 14:30N 46°50' E 031°57'5327465.5
2018-Jan-20 14:30N 46°30' E 030°45'60313618660.5
2018-Jan-20 14:30N 29°33' W 095°02'94783101784.7
2018-Jan-20 14:30N 01°13' E 103°48'108322785458.3
2018-Jan-20 14:30N 25°48' W 080°09'5339915247.7
2018-Jan-20 14:29N 37°56' E 023°39'8587966011.7
2018-Jan-20 14:29S 38°20' E 144°45'81187305919.8
2018-Jan-20 14:29N 44°44' E 037°47'27549432.0
2018-Jan-20 14:28N 46°50' E 031°57'725107.0
2018-Jan-20 14:28N 46°57' E 031°59'625822527799.8
2018-Jan-20 14:28N 27°54' W 097°08'62564504604.0
2018-Jan-20 14:28N 46°56' E 031°57'1359326244.4
2018-Jan-20 14:28N 39°32' E 002°34'1357168510.2
2018-Jan-20 14:28N 46°46' E 031°57'64540742.7
2018-Jan-20 14:27N 37°55' E 023°42'5583717778.6
2018-Jan-20 14:26S 23°57' W 046°18'62662255908.7
2018-Jan-20 14:26N 46°56' E 031°57'5288174636.5
2018-Jan-20 14:24N 32°13' W 080°47'1415569899.1
2018-Jan-20 14:12S 38°16' E 144°40'10208100685.6
2018-Jan-20 14:06N 50°47' W 001°11'6947733.5
2018-Jan-20 14:00N 39°31' E 002°35'1359978155.4
2018-Jan-20 14:00N 46°56' E 031°57'63774.9
2018-Jan-20 14:00N 46°50' E 031°57'622211198705.9
2018-Jan-20 14:00N 49°17' W 123°08'61993719354.6
2018-Jan-20 14:00N 46°29' E 030°51'483817418078.0
2018-Jan-20 14:00N 36°53' W 076°22'3551278167.7
2018-Jan-20 14:00N 32°13' W 080°47'20771868862.7
2018-Jan-20 14:00N 37°52' W 122°29'14581749385.1
2018-Jan-20 14:00N 29°33' W 095°02'43402604090.5
2018-Jan-20 14:00S 23°57' W 046°18'3610722008.1
2018-Jan-20 14:00N 25°48' W 080°09'53429616401.1
2018-Jan-20 14:00N 37°55' E 023°42'69221557417.7
2018-Jan-20 13:59N 37°47' W 122°23'691824904319.3
2018-Jan-20 13:59N 37°56' E 023°39'5038788573.2
2018-Jan-20 13:59N 01°14' E 103°48'44851241915.7
2018-Jan-20 13:59N 44°44' E 037°47'81183247075.5
2018-Jan-20 13:59S 38°20' E 144°45'84652344195.3
2018-Jan-20 13:58N 46°50' E 031°57'725125.3
2018-Jan-20 13:58N 46°57' E 031°59'625822527782.9
2018-Jan-20 13:58N 27°54' W 097°08'660023761213.9
2018-Jan-20 13:58N 44°44' E 037°47'277499322.0
2018-Jan-20 13:58N 46°56' E 031°57'10872.4
2018-Jan-20 13:58N 46°46' E 031°57'1331319417.8
2018-Jan-20 13:57N 50°47' W 001°10'640418699.1
2018-Jan-20 13:37N 01°18' E 104°06'775673095.3
2018-Jan-20 13:30N 49°17' W 123°08'17706370572.3
2018-Jan-20 13:30N 27°54' W 097°08'54022778078.2
2018-Jan-20 13:30N 63°13' E 021°09'10513782436.7
2018-Jan-20 13:30N 46°50' E 031°57'52902720701.2
2018-Jan-20 13:30N 32°13' W 080°47'20771495090.2
2018-Jan-20 13:30N 37°52' W 122°29'78733542905.1
2018-Jan-20 13:30N 01°13' E 103°49'48331739982.6
2018-Jan-20 13:30N 46°29' E 030°58'55252486240.4
2018-Jan-20 13:30N 25°48' W 080°09'53426410934.1
2018-Jan-20 13:30N 37°55' E 023°42'653180875.3
2018-Jan-20 13:29N 46°56' E 031°57'487417546182.3
2018-Jan-20 13:29N 36°53' W 076°22'47675719956.6
2018-Jan-20 13:29N 37°56' E 023°39'69186226079.9
2018-Jan-20 13:29N 37°47' W 122°23'7237814129.4
2018-Jan-20 13:29N 44°44' E 037°47'1595522064.5
2018-Jan-20 13:29N 39°31' E 002°38'1356697307.8
2018-Jan-20 13:28N 46°50' E 031°57'76282.8
2018-Jan-20 13:28N 46°57' E 031°59'1826.6
2018-Jan-20 13:28N 46°56' E 031°57'84691129150.2
2018-Jan-20 13:28S 38°20' E 144°45'10212644965.0
2018-Jan-20 13:27N 50°48' W 001°07'3870278620.0
2018-Jan-20 13:26N 25°16' W 076°18'10629126281.2
2018-Jan-20 13:21N 01°18' E 104°02'6586311978.6
2018-Jan-20 13:20N 50°09' W 005°05'318441683.2
2018-Jan-20 13:15N 36°49' W 075°52'10561267296.7
2018-Jan-20 13:15N 29°33' W 095°02'4387144889.4
2018-Jan-20 13:13N 43°33' W 005°42'470922071.8
2018-Jan-20 13:00S 23°57' W 046°18'43567840467.1
2018-Jan-20 13:00N 27°54' W 097°08'62593755548.0
2018-Jan-20 13:00N 46°50' E 031°57'622111198698.7
2018-Jan-20 13:00N 49°17' W 123°08'2181981316.1
2018-Jan-20 13:00N 32°13' W 080°47'20771868862.7
2018-Jan-20 13:00N 37°52' W 122°29'58601318458.8
2018-Jan-20 13:00N 39°32' E 002°38'42621917804.1
2018-Jan-20 13:00N 25°48' W 080°09'53426410940.1
2018-Jan-20 13:00N 37°55' E 023°42'47501425092.6
2018-Jan-20 12:59N 36°50' W 075°54'48568741200.0
2018-Jan-20 12:59N 46°56' E 031°57'48748773091.1
2018-Jan-20 12:59N 36°53' W 076°22'47678579934.9
2018-Jan-20 12:59N 37°56' E 023°39'691824904319.5
2018-Jan-20 12:59N 37°47' W 122°23'78761890255.7
2018-Jan-20 12:59N 01°15' E 103°50'4485702016.3
2018-Jan-20 12:59N 44°44' E 037°47'0 1.8
2018-Jan-20 12:58N 44°44' E 037°47'275494314.3
2018-Jan-20 12:58N 46°50' E 031°57'1486764067.2
2018-Jan-20 12:58N 50°09' W 005°05'14832669990.8
2018-Jan-20 12:58N 46°56' E 031°57'48021234890.0
2018-Jan-20 12:58N 01°19' E 104°00'9463597643.1
2018-Jan-20 12:57N 29°33' W 095°02'60785470499.9
2018-Jan-20 12:57N 46°46' E 031°57'84642769908.5
2018-Jan-20 12:57S 38°20' E 144°45'8467346389.2
2018-Jan-20 12:55N 46°57' E 031°59'10452513.7
2018-Jan-20 12:30N 63°13' E 021°09'1051756487.3
2018-Jan-20 12:30N 46°50' E 031°57'62627514909.8
2018-Jan-20 12:30S 23°57' W 046°18'4066975934.6
2018-Jan-20 12:30N 36°53' W 076°22'140124203529.9
2018-Jan-20 12:30S 38°20' E 144°45'76099131139.3
2018-Jan-20 12:30N 49°17' W 123°08'45803297901.1
2018-Jan-20 12:30N 50°09' W 005°05'1443865578.8
2018-Jan-20 12:30N 37°55' E 023°42'653213762.5
2018-Jan-20 12:29N 46°56' E 031°57'68658237980.2
2018-Jan-20 12:29N 37°47' W 122°23'69188301439.8
2018-Jan-20 12:29N 37°56' E 023°39'61131100355.8
2018-Jan-20 12:29N 27°54' W 097°08'66001397719.1
2018-Jan-20 12:29N 44°44' E 037°47'0 1.6
2018-Jan-20 12:28N 44°44' E 037°47'6513693.8
2018-Jan-20 12:28N 45°14' E 036°26'456316426051.5
2018-Jan-20 12:28N 01°18' E 104°00'6590465192.7
2018-Jan-20 12:27N 43°34' W 005°41'36211629283.6
2018-Jan-20 12:27N 32°13' W 080°47'38748008.8
2018-Jan-20 12:27N 25°48' W 080°09'5565267103.9
2018-Jan-20 12:25N 46°50' E 031°57'63877.3
2018-Jan-20 12:25N 46°56' E 031°57'6074291538.2
2018-Jan-20 12:24N 29°33' W 095°02'607810941008.2
2018-Jan-20 12:24N 46°46' E 031°57'6872140565.9
2018-Jan-20 12:21N 37°52' W 122°29'686587026.0
2018-Jan-20 12:16N 46°57' E 031°59'621623456.7
2018-Jan-20 12:00N 49°17' W 123°08'488217575355.6
2018-Jan-20 12:00N 63°13' E 021°08'40753667625.7
2018-Jan-20 12:00N 36°53' W 076°22'1045118811173.1
2018-Jan-20 12:00N 01°18' E 104°04'48048646627.1
2018-Jan-20 12:00N 46°50' E 031°57'626222544741.8
2018-Jan-20 12:00S 23°57' W 046°18'43401420415.8
2018-Jan-20 12:00N 29°33' W 095°02'14585248145.3
2018-Jan-20 12:00N 37°52' W 122°29'68726184899.5
2018-Jan-20 12:00N 46°46' E 031°57'16061445299.4
2018-Jan-20 12:00N 43°36' W 005°46'102743698500.2
2018-Jan-20 12:00S 38°20' E 144°45'139547176108.6
2018-Jan-20 12:00N 25°48' W 080°09'53426410940.1
2018-Jan-20 12:00N 37°55' E 023°42'50402268206.6
2018-Jan-20 11:59N 01°16' E 103°57'48014321339.5
2018-Jan-20 11:59N 46°56' E 031°57'686512356973.0
2018-Jan-20 11:59N 37°47' W 122°23'69186226075.6
2018-Jan-20 11:59N 37°56' E 023°39'75675603.5
2018-Jan-20 11:59N 44°44' E 037°47'66002970155.3
2018-Jan-20 11:59N 27°54' W 097°08'62602503810.4
2018-Jan-20 11:58N 46°50' E 031°57'13541624852.4
2018-Jan-20 11:58N 39°34' E 002°39'13572441701.1
2018-Jan-20 11:58N 46°57' E 031°59'276331666.0
2018-Jan-20 11:58N 44°44' E 037°47'17696369498.0
2018-Jan-20 11:58N 50°09' W 005°05'14835339990.5
2018-Jan-20 11:58N 46°56' E 031°57'5288279933.7
2018-Jan-20 11:57N 32°13' W 080°47'355800.9
2018-Jan-20 11:31N 36°53' W 076°22'21811570192.3
2018-Jan-20 11:30N 49°17' W 123°08'48828788270.2
2018-Jan-20 11:30N 63°13' E 021°09'1051630406.1
2018-Jan-20 11:30N 46°50' E 031°57'16121933842.0
2018-Jan-20 11:30N 43°50' W 006°01'52981733973.4
2018-Jan-20 11:30N 37°52' W 122°29'78603536788.6
2018-Jan-20 11:30N 01°18' E 104°01'897232300343.0
2018-Jan-20 11:30S 23°57' W 046°18'50581300567.4
2018-Jan-20 11:30N 50°09' W 005°05'1443741926.6
2018-Jan-20 11:30N 37°55' E 023°42'653261264.3
2018-Jan-20 11:29N 46°56' E 031°57'68656178490.5
2018-Jan-20 11:29N 37°47' W 122°23'69188301428.5
2018-Jan-20 11:29N 37°56' E 023°39'85871065943.8
2018-Jan-20 11:29S 38°20' E 144°45'81183247072.3
2018-Jan-20 11:29N 44°44' E 037°47'66003394463.2
2018-Jan-20 11:29N 27°54' W 097°08'62602253429.4
2018-Jan-20 11:28N 46°50' E 031°57'275164767.7
2018-Jan-20 11:28N 44°44' E 037°47'277499317.2
2018-Jan-20 11:28N 46°56' E 031°57'10483.1
2018-Jan-20 11:27N 46°46' E 031°57'5565910717.7
2018-Jan-20 11:27N 25°48' W 080°09'82318862.2
2018-Jan-20 11:24N 29°33' W 095°02'6075214412.5
2018-Jan-20 11:22N 46°57' E 031°59'5289260824.1
2018-Jan-20 11:21N 32°13' W 080°47'3551033.3
2018-Jan-20 11:00N 36°53' W 076°22'21811962740.9
2018-Jan-20 11:00N 49°17' W 123°08'48828788257.2
2018-Jan-20 11:00N 63°13' E 021°09'1527610984.0
2018-Jan-20 11:00N 43°33' W 005°57'53111593390.2
2018-Jan-20 11:00N 37°52' W 122°29'72031728726.1
2018-Jan-20 11:00S 38°20' E 144°45'139546279141.4
2018-Jan-20 11:00N 25°48' W 080°09'55631335045.1
2018-Jan-20 10:59N 46°56' E 031°57'68654118993.6
2018-Jan-20 10:59N 37°47' W 122°23'691824904302.5
2018-Jan-20 10:59N 37°56' E 023°39'14392590971.8
2018-Jan-20 10:59N 50°09' W 005°05'65842962845.8
2018-Jan-20 10:59N 01°16' E 103°58'4490557398.5
2018-Jan-20 10:59N 44°44' E 037°47'66004752245.1
2018-Jan-20 10:59N 27°54' W 097°08'62602048571.2
2018-Jan-20 10:58N 46°50' E 031°57'78369.0
2018-Jan-20 10:58N 46°57' E 031°59'276994973.7
2018-Jan-20 10:58N 44°44' E 037°47'277249652.0
2018-Jan-20 10:58N 46°56' E 031°57'6414.2
2018-Jan-20 10:57N 46°50' E 031°57'52901731353.8
2018-Jan-20 10:57N 32°13' W 080°47'751450636.8
2018-Jan-20 10:57N 29°33' W 095°02'5946823275.6
2018-Jan-20 10:57N 37°55' E 023°42'6051985.5
2018-Jan-20 10:38N 46°26' E 030°59'45508.3
2018-Jan-20 10:33N 46°46' E 031°57'6260144469.0
2018-Jan-20 10:30S 23°57' W 046°18'984917727433.2
2018-Jan-20 10:30S 38°20' E 144°45'85006120300.4
2018-Jan-20 10:30N 46°26' E 030°57'620511169880.1
2018-Jan-20 10:30N 49°17' W 123°08'1760487347.4
2018-Jan-20 10:30N 29°33' W 095°02'10351242209.3
2018-Jan-20 10:30N 36°53' W 076°22'693108461.7
2018-Jan-20 10:30N 25°48' W 080°09'53426410934.1
2018-Jan-20 10:30N 37°55' E 023°42'653213762.5
2018-Jan-20 10:29N 46°56' E 031°57'68656178490.5
2018-Jan-20 10:29N 37°47' W 122°23'691812452151.2
2018-Jan-20 10:29N 37°56' E 023°39'75680050.7
2018-Jan-20 10:29N 44°44' E 037°47'66002376124.2
2018-Jan-20 10:29N 27°54' W 097°08'62602253428.2
2018-Jan-20 10:28N 46°50' E 031°57'275329538.4
2018-Jan-20 10:28N 44°44' E 037°47'277166423.8
2018-Jan-20 10:28N 46°56' E 031°57'47971079425.9
2018-Jan-20 10:28N 01°15' E 103°50'4794639235.6
2018-Jan-20 10:28N 46°46' E 031°57'5292793761.1
2018-Jan-20 10:27N 32°13' W 080°47'5289176297.7
2018-Jan-20 10:25N 46°57' E 031°59'8470247905.0
2018-Jan-20 10:23S 27°52' E 153°23'337912141.1
2018-Jan-20 10:07N 01°15' E 103°50'777175819.0
2018-Jan-20 10:00N 49°17' W 123°08'48828788270.2
2018-Jan-20 10:00N 63°13' E 021°09'40754890452.2
2018-Jan-20 10:00N 36°53' W 076°22'483917419713.3
2018-Jan-20 10:00N 46°28' E 030°51'62025581842.1
2018-Jan-20 10:00S 23°58' W 046°18'5860781385.7
2018-Jan-20 10:00N 37°52' W 122°29'720325930878.3
2018-Jan-20 10:00S 38°20' E 144°45'139545581459.0
2018-Jan-20 10:00N 25°48' W 080°09'556620035968.0
2018-Jan-20 10:00N 46°46' E 031°57'102613.5
2018-Jan-20 09:59N 46°56' E 031°57'653783982.3
2018-Jan-20 09:59N 37°56' E 023°39'691824904319.5
2018-Jan-20 09:59N 37°47' W 122°23'63935753664.7
2018-Jan-20 09:59S 27°52' E 153°23'8127835890.4
2018-Jan-20 09:59N 44°44' E 037°47'27561790.0
2018-Jan-20 09:58N 46°50' E 031°57'275197725.2
2018-Jan-20 09:58N 44°44' E 037°47'4485645855.8
2018-Jan-20 09:58N 01°15' E 103°50'6579607261.4
2018-Jan-20 09:57N 50°09' W 005°05'1443126670.1
2018-Jan-20 09:57N 37°55' E 023°42'65329767.1
2018-Jan-20 09:55N 46°56' E 031°57'5288284113.0
2018-Jan-20 09:54N 32°13' W 080°47'751450632.8
2018-Jan-20 09:54N 29°33' W 095°02'607547337.8
2018-Jan-20 09:46N 46°57' E 031°59'48011329439.2
2018-Jan-20 09:46N 01°16' E 103°58'480023040.2
2018-Jan-20 09:34N 46°50' E 031°57'53976.7
2018-Jan-20 09:30N 46°30' E 030°45'851130641238.8
2018-Jan-20 09:30S 38°20' E 144°45'141603921122.1
2018-Jan-20 09:30N 32°13' W 080°47'395114223652.2
2018-Jan-20 09:30S 23°57' W 046°18'628711317205.0
2018-Jan-20 09:30N 49°17' W 123°08'488217576540.3
2018-Jan-20 09:30N 63°13' E 021°09'40754890447.9
2018-Jan-20 09:30N 36°53' W 076°22'2200660022.4
2018-Jan-20 09:30N 37°52' W 122°29'78634043584.9
2018-Jan-20 09:30N 01°16' E 103°58'658423703642.4
2018-Jan-20 09:30N 50°09' W 005°05'14871784037.0
2018-Jan-20 09:30N 46°46' E 031°56'626111269624.8
2018-Jan-20 09:30N 27°54' W 097°08'611722020348.0
2018-Jan-20 09:30N 37°55' E 023°42'653261265.3
2018-Jan-20 09:29N 46°56' E 031°57'68653089242.6
2018-Jan-20 09:29N 37°47' W 122°23'691824904302.6
2018-Jan-20 09:29N 37°56' E 023°39'64844030.1
2018-Jan-20 09:28N 46°50' E 031°57'275329541.9
2018-Jan-20 09:28N 44°44' E 037°47'277166425.7
2018-Jan-20 09:28N 46°56' E 031°57'6660.3
2018-Jan-20 09:28N 46°50' E 031°57'2758603.4
2018-Jan-20 09:26N 44°44' E 037°47'27643261.8
2018-Jan-20 09:25N 46°57' E 031°59'6075276836.3
2018-Jan-20 09:24N 29°33' W 095°02'752935340.2
2018-Jan-20 09:11S 27°52' E 153°23'10093305348.6
2018-Jan-20 09:09N 36°51' W 002°23'355124259.4
2018-Jan-20 09:00N 36°53' W 076°22'35496388538.4
2018-Jan-20 09:00N 36°36' W 002°33'640323049706.8
2018-Jan-20 09:00N 01°15' E 103°54'896432271628.0
2018-Jan-20 09:00S 23°57' W 046°18'98495909582.0
2018-Jan-20 09:00S 38°20' E 144°45'141604634053.4
2018-Jan-20 09:00N 32°13' W 080°47'21811962632.2
2018-Jan-20 09:00N 49°17' W 123°08'17603167752.1
2018-Jan-20 09:00N 29°33' W 095°02'52151877433.2
2018-Jan-20 09:00N 63°13' E 021°09'568510232148.0
2018-Jan-20 09:00N 37°52' W 122°29'2276630394.1
2018-Jan-20 09:00N 25°48' W 080°09'53429616401.1
2018-Jan-20 09:00N 37°55' E 023°42'653235138.7
2018-Jan-20 08:59N 46°56' E 031°57'68654118993.6
2018-Jan-20 08:59N 37°47' W 122°23'691824904302.5
2018-Jan-20 08:59N 37°56' E 023°39'75671624.4
2018-Jan-20 08:59N 44°44' E 037°47'27558155.2
2018-Jan-20 08:58N 46°50' E 031°57'275247156.5
2018-Jan-20 08:58N 44°44' E 037°47'277249640.9
2018-Jan-20 08:58N 46°56' E 031°57'6593.2
2018-Jan-20 08:58N 46°50' E 031°57'7184.1
2018-Jan-20 08:55N 46°57' E 031°59'480154352.4
2018-Jan-20 08:50N 01°17' E 103°58'4563245153.7
2018-Jan-20 08:49N 45°14' E 036°26'2093054.5
2018-Jan-20 08:45N 46°46' E 031°57'10544412.1
2018-Jan-20 08:30N 63°13' E 021°09'647111648200.8
2018-Jan-20 08:30S 23°57' W 046°18'89738075818.0
2018-Jan-20 08:30N 01°16' E 104°02'77613991332.5
2018-Jan-20 08:30N 49°17' W 123°08'2181981316.1
2018-Jan-20 08:30N 32°13' W 080°47'7511351898.3
2018-Jan-20 08:30N 29°33' W 095°02'10351863314.0
2018-Jan-20 08:30N 36°53' W 076°22'104426265070.3
2018-Jan-20 08:30N 01°16' E 103°53'78683147035.1
2018-Jan-20 08:30N 37°52' W 122°29'51202304004.6
2018-Jan-20 08:30N 50°09' W 005°05'8591031378.7
2018-Jan-20 08:30N 35°55' W 002°60'12871544115.9
2018-Jan-20 08:30N 37°55' E 023°42'653261277.0
2018-Jan-20 08:29N 46°56' E 031°57'68656178513.4
2018-Jan-20 08:29N 37°47' W 122°23'720412967915.0
2018-Jan-20 08:29S 38°20' E 144°45'858730912334.0
2018-Jan-20 08:29N 37°56' E 023°39'75666383.2
2018-Jan-20 08:29N 44°44' E 037°47'27570617.1
2018-Jan-20 08:28N 46°50' E 031°57'275329538.4
2018-Jan-20 08:28N 44°44' E 037°47'277142650.9
2018-Jan-20 08:28N 46°56' E 031°57'6624.0
2018-Jan-20 08:28N 46°50' E 031°57'5564339522.9
2018-Jan-20 08:27N 25°48' W 080°09'10839796342.4
2018-Jan-20 08:26N 01°15' E 103°56'456258865.2
2018-Jan-20 08:21N 45°14' E 036°26'20941744.3
2018-Jan-20 08:21N 46°46' E 031°57'8468140486.1
2018-Jan-20 08:17S 27°52' E 153°23'847031962.5
2018-Jan-20 08:01N 46°57' E 031°59'4875344118.4
2018-Jan-20 08:00N 36°53' W 076°22'35444252381.8
2018-Jan-20 08:00N 36°02' W 002°56'64231284519.1
2018-Jan-20 08:00N 01°15' E 103°54'1077319391495.5
2018-Jan-20 08:00N 32°13' W 080°47'45155418367.5
2018-Jan-20 08:00N 63°13' E 021°09'52159387166.2
2018-Jan-20 08:00N 29°33' W 095°02'17601267100.9
2018-Jan-20 08:00N 49°17' W 123°08'2484470618.2
2018-Jan-20 08:00N 25°48' W 080°09'36096496966.4
2018-Jan-20 08:00S 23°57' W 046°18'58521404596.2
2018-Jan-20 07:59N 37°47' W 122°23'69188301439.8
2018-Jan-20 07:59N 37°56' E 023°39'653106920.8
2018-Jan-20 07:59N 46°56' E 031°57'84693048721.6
2018-Jan-20 07:59S 38°20' E 144°45'81187305912.7
2018-Jan-20 07:59N 44°44' E 037°47'27558156.0
2018-Jan-20 07:58N 46°50' E 031°57'275141232.7
2018-Jan-20 07:58N 44°44' E 037°47'277249641.5
2018-Jan-20 07:58N 46°56' E 031°57'6660.9
2018-Jan-20 07:58N 46°50' E 031°57'64837024.4
2018-Jan-20 07:57N 37°55' E 023°42'65431408.7
2018-Jan-20 07:55N 46°57' E 031°59'6865268645.2
2018-Jan-20 07:54N 37°52' W 122°29'5120558546.3
2018-Jan-20 07:53N 50°09' W 005°05'10437104367.4
2018-Jan-20 07:47S 27°52' E 153°23'8468207384.2
2018-Jan-20 07:45N 46°46' E 031°57'480090476.7
2018-Jan-20 07:42N 01°17' E 103°60'738.6
2018-Jan-20 07:30N 01°15' E 103°53'896310755985.7
2018-Jan-20 07:30S 23°57' W 046°18'647111648200.8
2018-Jan-20 07:30N 63°13' E 021°09'40754890445.1
2018-Jan-20 07:30N 36°53' W 076°22'21811308491.1
2018-Jan-20 07:30N 49°17' W 123°08'77622149543.5
2018-Jan-20 07:30N 01°16' E 104°01'48044323937.0
2018-Jan-20 07:30N 46°56' E 031°57'68652745812.5
2018-Jan-20 07:30N 37°52' W 122°29'2276745011.2
2018-Jan-20 07:30N 25°48' W 080°09'53426410934.1
2018-Jan-20 07:30N 37°55' E 023°42'69221557417.7
2018-Jan-20 07:29N 37°47' W 122°23'691824904302.5
2018-Jan-20 07:29N 37°56' E 023°39'8587997173.0
2018-Jan-20 07:29S 38°20' E 144°45'81185844733.0
2018-Jan-20 07:29N 44°44' E 037°47'27561790.0
2018-Jan-20 07:28N 46°50' E 031°57'275141230.7
2018-Jan-20 07:28N 44°44' E 037°47'277249639.1
2018-Jan-20 07:28N 46°56' E 031°57'10414.7
2018-Jan-20 07:27N 46°46' E 031°57'1487198228.1
2018-Jan-20 07:26N 50°09' W 005°05'6578493358.2
2018-Jan-20 07:26N 01°16' E 103°50'4795302836.0
2018-Jan-20 07:25N 46°50' E 031°57'6077683625.4
2018-Jan-20 07:24N 29°33' W 095°02'607577007.3
2018-Jan-20 07:19N 46°57' E 031°59'5289260824.0
2018-Jan-20 07:18N 32°13' W 080°47'3551208.1
2018-Jan-20 07:00N 36°53' W 076°22'1044537600999.2
2018-Jan-20 07:00N 01°17' E 103°57'56094038511.2
2018-Jan-20 07:00N 63°13' E 021°09'560820189897.7
2018-Jan-20 07:00N 01°16' E 103°53'77693995434.7
2018-Jan-20 07:00N 49°17' W 123°08'628722634582.6
2018-Jan-20 07:00S 23°57' W 046°18'39512370632.4
2018-Jan-20 07:00N 32°13' W 080°47'2077393444.8
2018-Jan-20 07:00N 37°52' W 122°29'69232076788.3
2018-Jan-20 07:00N 37°55' E 023°42'69221465803.9
2018-Jan-20 06:59N 37°47' W 122°23'69188301428.5
2018-Jan-20 06:59N 37°56' E 023°39'8587997172.7
2018-Jan-20 06:59S 38°20' E 144°45'81187305917.0
2018-Jan-20 06:59N 44°44' E 037°47'27554924.4
2018-Jan-20 06:58N 46°50' E 031°57'275247151.1
2018-Jan-20 06:58N 44°44' E 037°47'17691273890.8
2018-Jan-20 06:58N 50°09' W 005°05'14835340039.1
2018-Jan-20 06:58N 46°56' E 031°57'4797575672.0
2018-Jan-20 06:58N 01°16' E 103°51'47952157864.0
2018-Jan-20 06:58N 46°50' E 031°57'62226.1
2018-Jan-20 06:57N 46°56' E 031°57'6074841026.2
2018-Jan-20 06:57N 29°33' W 095°02'60781683233.7
2018-Jan-20 06:57N 46°46' E 031°57'55651821434.5
2018-Jan-20 06:57N 25°48' W 080°09'5564260131.4
2018-Jan-20 06:55N 46°57' E 031°59'626815082.4
2018-Jan-20 06:30S 23°57' W 046°18'89686456812.3
2018-Jan-20 06:30N 01°15' E 103°57'77665591433.6
2018-Jan-20 06:30N 49°17' W 123°08'48822929419.1
2018-Jan-20 06:30N 63°13' E 021°09'45158127551.3
2018-Jan-20 06:30N 32°13' W 080°47'107773879565.3
2018-Jan-20 06:30N 01°16' E 103°58'108412054076.3
2018-Jan-20 06:30N 25°48' W 080°09'53426410934.1
2018-Jan-20 06:30N 37°55' E 023°42'69221916821.8
2018-Jan-20 06:29N 37°47' W 122°23'21973953847.5
2018-Jan-20 06:29N 36°53' W 076°22'476717159835.4
2018-Jan-20 06:29N 37°56' E 023°39'14391727312.8
2018-Jan-20 06:29N 50°09' W 005°05'1039912478691.9
2018-Jan-20 06:29S 38°20' E 144°45'8118885565.7
2018-Jan-20 06:29N 44°44' E 037°47'27790738.0
2018-Jan-20 06:28N 46°56' E 031°57'65671.2
2018-Jan-20 06:28N 46°50' E 031°57'76277.5
2018-Jan-20 06:28N 46°57' E 031°59'276331657.9
2018-Jan-20 06:28N 44°44' E 037°47'27755475.1
2018-Jan-20 06:28N 46°56' E 031°57'61101.5
2018-Jan-20 06:28N 46°50' E 031°57'6132959846.4
2018-Jan-20 06:27S 23°01' W 044°19'5913818763.4
2018-Jan-20 06:27N 37°52' W 122°29'687224739610.7
2018-Jan-20 06:27N 46°46' E 031°57'47941438297.3
2018-Jan-20 06:27N 01°15' E 103°51'947349141.8
2018-Jan-20 06:15N 29°33' W 095°02'10354268.8
2018-Jan-20 06:00N 36°53' W 076°22'40752445222.5
2018-Jan-20 06:00N 63°13' E 021°09'64712588489.1
2018-Jan-20 06:00S 23°57' W 046°18'62872514953.6
2018-Jan-20 06:00N 49°17' W 123°08'17603167758.1
2018-Jan-20 06:00N 29°33' W 095°02'94673098386.1
2018-Jan-20 06:00N 01°16' E 103°57'11345.6
2018-Jan-20 06:00N 01°16' E 103°57'786428309215.4
2018-Jan-20 06:00N 37°52' W 122°29'2276682927.2
2018-Jan-20 06:00N 25°48' W 080°09'53426410934.1
2018-Jan-20 06:00N 37°55' E 023°42'69221916821.8
2018-Jan-20 05:59N 37°47' W 122°23'691824904302.5
2018-Jan-20 05:59N 37°56' E 023°39'5452981299.5
2018-Jan-20 05:59S 23°01' W 044°19'98002204987.2
2018-Jan-20 05:59S 38°20' E 144°45'81184870613.4
2018-Jan-20 05:59N 44°44' E 037°47'277110901.8
2018-Jan-20 05:58N 46°56' E 031°57'64541.2
2018-Jan-20 05:58N 46°50' E 031°57'275329533.9
2018-Jan-20 05:58N 44°44' E 037°47'27747549.0
2018-Jan-20 05:58N 46°56' E 031°57'61004.9
2018-Jan-20 05:58N 46°50' E 031°57'5290656721.0
2018-Jan-20 05:57N 32°13' W 080°47'52921002644.7
2018-Jan-20 05:57N 46°46' E 031°57'479739518.7
2018-Jan-20 05:50N 01°15' E 103°54'479946317.6
2018-Jan-20 05:43N 46°57' E 031°59'487522792.2
2018-Jan-20 05:30N 36°53' W 076°22'21811570189.7
2018-Jan-20 05:30N 49°17' W 123°08'488217576514.3
2018-Jan-20 05:30N 63°13' E 021°09'64712912050.2
2018-Jan-20 05:30S 23°57' W 046°18'89671699042.2
2018-Jan-20 05:30N 01°15' E 103°57'78653539299.6
2018-Jan-20 05:30N 37°52' W 122°29'72036482882.3
2018-Jan-20 05:30S 38°20' E 144°44'139537176075.3
2018-Jan-20 05:30N 25°48' W 080°09'53426410934.1
2018-Jan-20 05:30N 37°55' E 023°42'50402591880.9
2018-Jan-20 05:29N 01°13' E 103°54'78744049584.8
2018-Jan-20 05:29N 37°47' W 122°23'69188301439.8
2018-Jan-20 05:29N 37°56' E 023°39'54521090333.7
2018-Jan-20 05:29S 23°01' W 044°19'88573985561.8
2018-Jan-20 05:29N 01°17' E 103°57'65834739462.3
2018-Jan-20 05:29N 50°09' W 005°04'17691273891.7
2018-Jan-20 05:29N 44°44' E 037°47'27783176.5
2018-Jan-20 05:28N 46°56' E 031°57'65671.1
2018-Jan-20 05:28N 46°50' E 031°57'6964.8
2018-Jan-20 05:28N 46°56' E 031°57'61004.8
2018-Jan-20 05:28N 46°50' E 031°57'3256.2
2018-Jan-20 05:27N 46°46' E 031°57'27311314.2
2018-Jan-20 05:25N 44°44' E 037°47'276331661.1
2018-Jan-20 05:25N 46°57' E 031°59'528975556.2
2018-Jan-20 05:21N 32°13' W 080°47'751540759.3
2018-Jan-20 05:21N 29°33' W 095°02'604174219.3
2018-Jan-20 05:16N 46°37' E 031°02'484318565.9
2018-Jan-20 05:01N 36°53' W 076°22'21811570189.4
2018-Jan-20 05:00N 49°17' W 123°08'628722634569.8
2018-Jan-20 05:00S 23°57' W 046°18'89666455649.5
2018-Jan-20 05:00N 01°15' E 103°55'94692130508.0
2018-Jan-20 05:00N 29°33' W 095°02'1458349876.7
2018-Jan-20 05:00N 37°52' W 122°29'78604715760.8
2018-Jan-20 05:00N 01°19' E 104°00'108417805723.6
2018-Jan-20 05:00N 25°48' W 080°09'5339961011.0
2018-Jan-20 04:59N 37°56' E 023°39'691824904319.5
2018-Jan-20 04:59N 37°47' W 122°23'72043241980.4
2018-Jan-20 04:59S 38°20' E 144°45'81181082358.0
2018-Jan-20 04:59N 44°44' E 037°47'27790815.1
2018-Jan-20 04:59N 46°56' E 031°57'613611045392.5
2018-Jan-20 04:58S 23°01' W 044°19'613311038598.9
2018-Jan-20 04:58N 46°50' E 031°57'275164771.4
2018-Jan-20 04:58N 44°44' E 037°47'27749927.2
2018-Jan-20 04:58N 46°56' E 031°57'1483356003.3
2018-Jan-20 04:58N 50°10' W 005°05'1485668461.7
2018-Jan-20 04:58N 46°50' E 031°57'5290656721.0
2018-Jan-20 04:57N 32°13' W 080°47'52921002645.6
2018-Jan-20 04:57N 46°46' E 031°57'645154823.0
2018-Jan-20 04:57N 37°55' E 023°42'503042404.0
2018-Jan-20 04:49N 01°17' E 103°45'47902463678.2
2018-Jan-20 04:49N 46°57' E 031°59'621619698.6
2018-Jan-20 04:30N 49°17' W 123°08'21812616982.3
2018-Jan-20 04:30N 36°53' W 076°22'32021921262.1
2018-Jan-20 04:30N 50°09' W 005°05'11664198101.1
2018-Jan-20 04:30N 63°13' E 021°09'45153251020.5
2018-Jan-20 04:30N 32°13' W 080°47'52881903624.7
2018-Jan-20 04:30N 46°56' E 031°57'62664511309.8
2018-Jan-20 04:30S 23°57' W 046°18'58605273622.8
2018-Jan-20 04:30N 37°52' W 122°29'72034321808.0
2018-Jan-20 04:30S 38°20' E 144°45'139547176193.2
2018-Jan-20 04:30N 25°48' W 080°09'53424808200.6
2018-Jan-20 04:30N 37°55' E 023°42'50303018222.9
2018-Jan-20 04:29N 01°17' E 103°45'78802836848.5
2018-Jan-20 04:29N 37°47' W 122°23'7237723669.6
2018-Jan-20 04:29N 44°44' E 037°47'63181895519.5
2018-Jan-20 04:28S 23°01' W 044°19'613311038598.9
2018-Jan-20 04:28N 46°50' E 031°57'73138.7
2018-Jan-20 04:28N 46°57' E 031°59'276994998.0
2018-Jan-20 04:28N 44°44' E 037°47'44893232150.7
2018-Jan-20 04:28N 01°15' E 103°55'610577.7
2018-Jan-20 04:28N 01°19' E 104°00'48021728823.2
2018-Jan-20 04:28N 46°56' E 031°57'61005.8
2018-Jan-20 04:28N 46°50' E 031°57'6077591243.6
2018-Jan-20 04:27N 29°33' W 095°02'60782188202.7
2018-Jan-20 04:27N 46°46' E 031°57'64568324.2
2018-Jan-20 04:26N 37°56' E 023°39'641314876.3
2018-Jan-20 04:00N 49°17' W 123°08'77584654698.0
2018-Jan-20 04:00N 01°18' E 104°04'74303.3
2018-Jan-20 04:00N 01°15' E 103°57'107767758674.6
2018-Jan-20 04:00N 32°13' W 080°47'39513555948.6
2018-Jan-20 04:00S 23°57' W 046°18'434015622485.1
2018-Jan-20 04:00N 29°33' W 095°02'10351242209.3
2018-Jan-20 04:00N 36°53' W 076°22'3202960630.2
2018-Jan-20 04:00N 50°09' W 005°05'1166839621.4
2018-Jan-20 04:00N 63°13' E 021°09'48814393160.4
2018-Jan-20 04:00N 25°48' W 080°09'53423846560.4
2018-Jan-20 04:00N 37°55' E 023°42'54532181328.3
2018-Jan-20 03:59S 23°01' W 044°19'59061932947.7
2018-Jan-20 03:59N 37°47' W 122°23'78811891434.1
2018-Jan-20 03:59N 01°15' E 103°45'4482896304.1
2018-Jan-20 03:59N 44°44' E 037°47'27561790.0
2018-Jan-20 03:58N 46°50' E 031°57'275109846.1
2018-Jan-20 03:58N 44°44' E 037°47'27735662.7
2018-Jan-20 03:58N 46°56' E 031°57'84697621775.4
2018-Jan-20 03:58S 38°20' E 144°45'84655079273.5
2018-Jan-20 03:58N 46°50' E 031°57'62626.2
2018-Jan-20 03:58N 46°56' E 031°57'6865602756.5
2018-Jan-20 03:57N 37°52' W 122°29'6919778346.1
2018-Jan-20 03:56N 37°56' E 023°39'65513312.1
2018-Jan-20 03:53N 46°57' E 031°59'10250.9
2018-Jan-20 03:51N 46°46' E 031°57'479519329.5
2018-Jan-20 03:36N 01°15' E 103°51'10440114590.2
2018-Jan-20 03:30N 36°53' W 076°22'1044237592013.2
2018-Jan-20 03:30N 01°15' E 103°53'658123690806.6
2018-Jan-20 03:30N 50°10' W 005°05'49518911484.8
2018-Jan-20 03:30S 23°01' W 044°19'885031858607.9
2018-Jan-20 03:30N 01°14' E 103°50'4799785248.0
2018-Jan-20 03:30N 46°56' E 031°57'48082472461.0
2018-Jan-20 03:30N 01°18' E 104°06'78554039588.5
2018-Jan-20 03:30N 37°52' W 122°29'56854092859.2
2018-Jan-20 03:30N 63°13' E 021°09'48814393160.4
2018-Jan-20 03:30N 25°48' W 080°09'53423846560.4
2018-Jan-20 03:30N 37°55' E 023°42'50303018176.6
2018-Jan-20 03:29N 01°15' E 103°44'50341812112.5
2018-Jan-20 03:29N 37°56' E 023°39'69184980860.5
2018-Jan-20 03:29N 37°47' W 122°23'69188783.1
2018-Jan-20 03:29N 49°17' W 123°08'65903954051.7
2018-Jan-20 03:29N 44°44' E 037°47'27576049.2
2018-Jan-20 03:28N 46°50' E 031°57'275109847.3
2018-Jan-20 03:28N 44°44' E 037°47'64507740430.3
2018-Jan-20 03:28S 23°57' W 046°18'6266867594.3
2018-Jan-20 03:28N 46°56' E 031°57'62565.5
2018-Jan-20 03:28N 46°50' E 031°57'5290595153.1
2018-Jan-20 03:27N 32°13' W 080°47'52921190641.6
2018-Jan-20 03:27N 46°46' E 031°57'84646093795.8
2018-Jan-20 03:27S 38°20' E 144°45'8467147257.3
2018-Jan-20 03:23N 46°57' E 031°59'479712614.7
2018-Jan-20 03:01N 01°13' E 103°49'1044037585601.7
2018-Jan-20 03:00N 36°53' W 076°22'40662927324.9
2018-Jan-20 03:00S 23°57' W 046°18'3951790210.8
2018-Jan-20 03:00N 32°13' W 080°47'751675949.2
2018-Jan-20 03:00N 29°33' W 095°02'1760452536.0
2018-Jan-20 03:00N 49°17' W 123°08'760913696717.0
2018-Jan-20 03:00S 38°20' E 144°45'139547176164.7
2018-Jan-20 03:00N 25°48' W 080°09'55635006423.1
2018-Jan-20 03:00N 46°56' E 031°57'6532350751.9
2018-Jan-20 03:00N 37°55' E 023°42'654157043.9
2018-Jan-20 02:59N 46°57' E 031°59'68664119524.3
2018-Jan-20 02:59N 37°47' W 122°23'7237744346.9
2018-Jan-20 02:59N 44°44' E 037°47'27582386.6
2018-Jan-20 02:58N 46°50' E 031°57'275141230.7
2018-Jan-20 02:58N 44°44' E 037°47'4480768013.5
2018-Jan-20 02:58N 01°14' E 103°42'65732366363.3
2018-Jan-20 02:58N 50°09' W 005°05'14835340037.7
2018-Jan-20 02:58N 46°56' E 031°57'63858.9
2018-Jan-20 02:58N 46°50' E 031°57'61321226467.8
2018-Jan-20 02:57S 23°01' W 044°19'6130668751.8
2018-Jan-20 02:57N 46°46' E 031°57'64570394.6
2018-Jan-20 02:56N 37°56' E 023°39'476711092.3
2018-Jan-20 02:31N 36°53' W 076°22'1043337558880.0
2018-Jan-20 02:30N 01°13' E 103°42'621312.8
2018-Jan-20 02:30N 01°15' E 103°47'56063363307.2
2018-Jan-20 02:30N 63°13' E 021°09'45151083673.5
2018-Jan-20 02:30N 32°13' W 080°47'395114223794.3
2018-Jan-20 02:30S 23°57' W 046°18'43403905621.3
2018-Jan-20 02:30N 29°33' W 095°02'1458403703.8
2018-Jan-20 02:30N 37°52' W 122°29'72038643639.8
2018-Jan-20 02:30S 38°20' E 144°45'139545581461.6
2018-Jan-20 02:30N 25°48' W 080°09'24842980582.1
2018-Jan-20 02:30N 49°17' W 123°08'45801648951.1
2018-Jan-20 02:29N 50°09' W 005°05'14841336010.1
2018-Jan-20 02:29N 46°57' E 031°59'6551178123.6
2018-Jan-20 02:29N 37°56' E 023°39'69186226075.6
2018-Jan-20 02:29N 37°47' W 122°23'68652246722.4
2018-Jan-20 02:29N 46°56' E 031°57'27734418.3
2018-Jan-20 02:29N 44°44' E 037°47'448516146392.3
2018-Jan-20 02:29N 01°15' E 103°50'47952877113.2
2018-Jan-20 02:28N 46°50' E 031°57'61337359076.8
2018-Jan-20 02:28S 23°01' W 044°19'63182274625.0
2018-Jan-20 02:28N 44°44' E 037°47'27738406.4
2018-Jan-20 02:28N 46°56' E 031°57'10648.8
2018-Jan-20 02:27N 46°46' E 031°57'480142152.1
2018-Jan-20 02:20N 01°16' E 104°00'1443.9
2018-Jan-20 02:01N 01°11' E 103°47'65803947825.2
2018-Jan-20 02:00N 50°10' W 005°05'11662099040.9
2018-Jan-20 02:00N 63°13' E 021°09'40754890445.1
2018-Jan-20 02:00N 36°53' W 076°22'21811962736.7
2018-Jan-20 02:00N 49°17' W 123°08'2181981316.1
2018-Jan-20 02:00N 32°13' W 080°47'751540759.3
2018-Jan-20 02:00N 29°33' W 095°02'94635677957.9
2018-Jan-20 02:00N 01°17' E 104°00'108422168481.8
2018-Jan-20 02:00N 25°48' W 080°09'36093248374.7
2018-Jan-20 02:00S 23°57' W 046°19'62681735647.6
2018-Jan-20 01:59N 46°57' E 031°59'655785407.0
2018-Jan-20 01:59N 37°56' E 023°39'691824904302.5
2018-Jan-20 01:59N 37°47' W 122°23'68651765281.9
2018-Jan-20 01:59N 46°56' E 031°57'27735647.1
2018-Jan-20 01:59N 44°44' E 037°47'44852691069.5
2018-Jan-20 01:58N 01°15' E 103°50'47958631340.0
2018-Jan-20 01:58N 46°50' E 031°57'275197718.5
2018-Jan-20 01:58N 44°44' E 037°47'63184549243.6
2018-Jan-20 01:58S 23°01' W 044°19'98001069062.7
2018-Jan-20 01:58S 38°20' E 144°44'84682540548.6
2018-Jan-20 01:58N 46°56' E 031°57'10869.8
2018-Jan-20 01:57N 46°46' E 031°57'68728246532.7
2018-Jan-20 01:57N 37°52' W 122°29'69231780104.3
2018-Jan-20 01:57N 37°55' E 023°42'61526989.0
2018-Jan-20 01:55N 46°37' E 031°02'4826124107.7
2018-Jan-20 01:53N 01°13' E 103°41'1745.0
2018-Jan-20 01:30N 01°16' E 103°57'104469401323.4
2018-Jan-20 01:30N 36°53' W 076°22'104465372213.8
2018-Jan-20 01:30N 01°16' E 103°57'94673098171.0
2018-Jan-20 01:30N 29°33' W 095°02'43401952801.1
2018-Jan-20 01:30S 23°57' W 046°18'58603515737.3
2018-Jan-20 01:30N 37°52' W 122°29'686617032.1
2018-Jan-20 01:30N 49°17' W 123°08'24841277392.3
2018-Jan-20 01:30N 25°48' W 080°09'53429616410.2
2018-Jan-20 01:30N 37°55' E 023°42'654157043.9
2018-Jan-20 01:29N 46°57' E 031°59'655785415.7
2018-Jan-20 01:29N 37°56' E 023°39'691824904302.5
2018-Jan-20 01:29N 37°47' W 122°23'788728392397.6
2018-Jan-20 01:29N 01°14' E 103°40'47901437072.5
2018-Jan-20 01:29N 46°56' E 031°57'47981570377.1
2018-Jan-20 01:29N 01°13' E 103°49'47962466762.5
2018-Jan-20 01:29N 46°50' E 031°57'275164898.3
2018-Jan-20 01:29N 44°44' E 037°47'27582386.6
2018-Jan-20 01:28N 46°50' E 031°57'275197723.0
2018-Jan-20 01:28N 44°44' E 037°47'1769909925.9
2018-Jan-20 01:28N 50°09' W 005°05'103991247869.6
2018-Jan-20 01:28S 38°20' E 144°45'141601341436.5
2018-Jan-20 01:27N 32°13' W 080°47'52921190641.6
2018-Jan-20 01:27N 46°46' E 031°57'10112.5
2018-Jan-20 01:22N 46°56' E 031°57'43148.1
2018-Jan-20 01:04N 46°37' E 031°02'619898734.7
2018-Jan-20 01:00N 49°17' W 123°08'488217576540.3
2018-Jan-20 01:00N 63°13' E 021°09'40753667833.8
2018-Jan-20 01:00N 36°53' W 076°22'104306257761.8
2018-Jan-20 01:00N 01°14' E 103°39'107595533092.1
2018-Jan-20 01:00N 32°13' W 080°47'39514741241.1
2018-Jan-20 01:00S 23°57' W 046°18'3609481253.6
2018-Jan-20 01:00N 25°48' W 080°09'53426410934.1
2018-Jan-20 01:00N 37°55' E 023°42'654168260.6
2018-Jan-20 00:59N 46°57' E 031°59'655785412.7
2018-Jan-20 00:59N 37°56' E 023°39'69188301434.2
2018-Jan-20 00:59N 37°47' W 122°23'68652471392.8
2018-Jan-20 00:59N 46°56' E 031°57'61193.2
2018-Jan-20 00:59N 46°50' E 031°57'27598936.6
2018-Jan-20 00:59N 44°44' E 037°47'275123576.9
2018-Jan-20 00:58N 46°50' E 031°57'275197720.4
2018-Jan-20 00:58N 44°44' E 037°47'17696369466.6
2018-Jan-20 00:58N 50°09' W 005°05'103991559836.9
2018-Jan-20 00:58S 38°20' E 144°45'8266541027.2
2018-Jan-20 00:57N 29°33' W 095°02'60782188201.1
2018-Jan-20 00:57N 46°46' E 031°57'4794185584.7
2018-Jan-20 00:55N 01°15' E 103°50'4797375452.8
2018-Jan-20 00:55N 46°56' E 031°57'431087.7
2018-Jan-20 00:52N 46°37' E 031°02'684039522.9
2018-Jan-20 00:42N 37°52' W 122°29'786741649.4
2018-Jan-20 00:30N 01°16' E 103°54'56085047060.1
2018-Jan-20 00:30N 63°13' E 021°09'64712588488.6
2018-Jan-20 00:30S 23°57' W 046°18'89646453833.3
2018-Jan-20 00:30N 01°14' E 103°54'78691490936.7
2018-Jan-20 00:30N 37°52' W 122°29'2200720022.4
2018-Jan-20 00:30N 36°53' W 076°22'693831539.8
2018-Jan-20 00:30N 25°48' W 080°09'53426410934.1
2018-Jan-20 00:30N 37°55' E 023°42'1443370962.1
2018-Jan-20 00:29N 50°10' W 005°05'14845344026.2
2018-Jan-20 00:29N 46°57' E 031°59'655785407.0
2018-Jan-20 00:29N 37°56' E 023°39'691812452151.2
2018-Jan-20 00:29N 37°47' W 122°23'68652471394.6
2018-Jan-20 00:29N 46°56' E 031°57'61258.3
2018-Jan-20 00:29N 46°50' E 031°57'275123672.0
2018-Jan-20 00:29N 44°44' E 037°47'27598862.6
2018-Jan-20 00:28N 46°50' E 031°57'27589872.9
2018-Jan-20 00:28N 44°44' E 037°47'81181328350.5
2018-Jan-20 00:28S 38°20' E 144°45'84691325519.9
2018-Jan-20 00:28N 46°56' E 031°57'4797822421.0
2018-Jan-20 00:27N 01°15' E 103°50'107699692414.7
2018-Jan-20 00:27N 32°13' W 080°47'751450632.8
2018-Jan-20 00:27N 29°33' W 095°02'60782431336.4
2018-Jan-20 00:27N 46°46' E 031°57'622514121.0
2018-Jan-20 00:00N 49°17' W 123°08'48828788270.2
2018-Jan-20 00:00N 63°13' E 021°09'40757335667.6
2018-Jan-20 00:00N 36°53' W 076°22'32021921263.3
2018-Jan-20 00:00N 50°10' W 005°05'65837899201.6
2018-Jan-20 00:00N 01°13' E 103°53'107737756821.8
2018-Jan-20 00:00N 32°13' W 080°47'38746408.6
2018-Jan-20 00:00N 25°48' W 080°09'53426410934.1
2018-Jan-20 00:00N 37°55' E 023°42'3674.5
2018-Jan-19 23:59N 37°56' E 023°39'69186226079.8
2018-Jan-19 23:59N 37°47' W 122°23'68653089241.0
2018-Jan-19 23:59N 46°56' E 031°57'62662255748.2
2018-Jan-19 23:59S 23°57' W 046°18'62622254307.6
2018-Jan-19 23:59N 46°50' E 031°57'275109929.5
2018-Jan-19 23:59N 44°44' E 037°47'448516146407.2
2018-Jan-19 23:59N 01°15' E 103°50'47952466095.6
2018-Jan-19 23:58N 46°50' E 031°57'27589872.9
2018-Jan-19 23:58N 44°44' E 037°47'8118913240.5
2018-Jan-19 23:58S 38°20' E 144°45'84692540578.7
2018-Jan-19 23:58N 46°56' E 031°57'6074705337.7
2018-Jan-19 23:57N 29°33' W 095°02'60782735253.4
2018-Jan-19 23:57N 46°46' E 031°57'68724123269.0
2018-Jan-19 23:57N 37°52' W 122°29'686543436.5
2018-Jan-19 23:47N 46°57' E 031°59'44202.5
2018-Jan-19 23:34N 46°37' E 031°02'483578752.9
2018-Jan-19 23:31N 01°16' E 103°54'916965.1
2018-Jan-19 23:30N 01°14' E 103°45'77776999218.5
2018-Jan-19 23:30N 49°17' W 123°08'48828788270.2
2018-Jan-19 23:30N 63°13' E 021°09'635311436161.8
2018-Jan-19 23:30S 23°01' W 044°19'12363362.0
2018-Jan-19 23:30S 23°57' W 046°18'39511777964.0
2018-Jan-19 23:30N 32°13' W 080°47'751540764.1
2018-Jan-19 23:30N 29°33' W 095°02'946434070070.1
2018-Jan-19 23:30N 01°17' E 103°60'1911238.7
2018-Jan-19 23:30N 01°14' E 103°41'108252598110.3
2018-Jan-19 23:30N 25°48' W 080°09'5339961011.0
2018-Jan-19 23:29N 37°56' E 023°39'69188301434.2
2018-Jan-19 23:29N 37°47' W 122°23'68652246720.7
2018-Jan-19 23:29N 46°56' E 031°57'61259.5
2018-Jan-19 23:29N 46°50' E 031°57'846530475484.2
2018-Jan-19 23:29S 38°20' E 144°45'81184870611.3
2018-Jan-19 23:29N 44°44' E 037°47'27589875.1
2018-Jan-19 23:28N 46°50' E 031°57'275123576.9
2018-Jan-19 23:28N 44°44' E 037°47'1769159236.6
2018-Jan-19 23:28N 50°10' W 005°05'1483762860.8
2018-Jan-19 23:28N 46°56' E 031°57'10870.9
2018-Jan-19 23:27N 46°46' E 031°57'68726184898.7
2018-Jan-19 23:27N 37°52' W 122°29'69231661429.5
2018-Jan-19 23:27N 37°55' E 023°42'47701226631.5
2018-Jan-19 23:26N 36°53' W 076°22'487596961.5
2018-Jan-19 23:23N 46°57' E 031°59'442378.4
2018-Jan-19 23:22N 46°37' E 031°02'483313372.2
2018-Jan-19 23:01N 01°13' E 103°48'97965.5
2018-Jan-19 23:00N 01°16' E 103°56'104459400096.3
2018-Jan-19 23:00N 36°53' W 076°22'1043337559922.0
2018-Jan-19 23:00N 01°17' E 103°45'89574606291.3
2018-Jan-19 23:00S 23°57' W 046°18'62662819615.8
2018-Jan-19 23:00N 46°56' E 031°57'528819035376.7
2018-Jan-19 23:00N 32°13' W 080°47'2181654210.7
2018-Jan-19 23:00N 49°17' W 123°08'2484558860.0
2018-Jan-19 23:00N 25°48' W 080°09'55641054216.8
2018-Jan-19 22:59N 46°57' E 031°59'68668239049.1
2018-Jan-19 22:59N 37°47' W 122°23'6870852833.5
2018-Jan-19 22:59N 46°50' E 031°57'0400.3
2018-Jan-19 22:59N 46°50' E 031°57'275123670.3
2018-Jan-19 22:59N 44°44' E 037°47'0 1.3
2018-Jan-19 22:58N 44°44' E 037°47'81181168947.2
2018-Jan-19 22:58S 38°20' E 144°45'84691693719.1
2018-Jan-19 22:58N 46°56' E 031°57'6074683295.9
2018-Jan-19 22:57N 29°33' W 095°02'60782735255.5
2018-Jan-19 22:57N 46°46' E 031°57'645122229.2
2018-Jan-19 22:57N 37°55' E 023°42'5042104920.3
2018-Jan-19 22:54N 01°21' E 104°02'4837195647.6
2018-Jan-19 22:52N 46°37' E 031°02'483813375.7
2018-Jan-19 22:31N 01°17' E 103°59'56113366398.7
2018-Jan-19 22:30N 63°13' E 021°09'48821952948.9
2018-Jan-19 22:30N 49°17' W 123°08'6225974350.6
2018-Jan-19 22:30N 46°46' E 031°57'55651335718.2
2018-Jan-19 22:30N 25°48' W 080°09'53429616401.1
2018-Jan-19 22:30N 37°55' E 023°42'654147227.5
2018-Jan-19 22:29N 46°57' E 031°59'6551178115.0
2018-Jan-19 22:29N 37°56' E 023°39'691812452151.2
2018-Jan-19 22:29N 37°47' W 122°23'6870915971.9
2018-Jan-19 22:29N 46°50' E 031°57'0407.7
2018-Jan-19 22:29N 46°50' E 031°57'275123579.9
2018-Jan-19 22:29N 44°44' E 037°47'277499406.2
2018-Jan-19 22:29N 46°56' E 031°57'1483266987.4
2018-Jan-19 22:28N 50°10' W 005°05'17693184722.3
2018-Jan-19 22:28N 44°44' E 037°47'305548697.0
2018-Jan-19 22:28N 46°37' E 031°02'6085842559.9
2018-Jan-19 22:28S 23°01' W 044°19'980035279758.7
2018-Jan-19 22:28S 38°20' E 144°45'84693048695.6
2018-Jan-19 22:28N 46°56' E 031°57'62661074121.2
2018-Jan-19 22:27S 23°56' W 046°19'43391735575.2
2018-Jan-19 22:27N 29°33' W 095°02'10356159.7
2018-Jan-19 22:17N 36°53' W 076°22'10436853888.4
2018-Jan-19 22:16N 01°25' E 103°54'1043639715.7
2018-Jan-19 22:01N 36°53' W 076°22'40752934267.1
2018-Jan-19 22:00N 63°13' E 021°09'56141554677.8
2018-Jan-19 22:00N 01°17' E 104°05'94593783436.2
2018-Jan-19 22:00N 29°33' W 095°02'823123390.4
2018-Jan-19 22:00N 25°48' W 080°09'53424808200.6
2018-Jan-19 22:00N 37°55' E 023°42'654147227.5
2018-Jan-19 21:59N 46°57' E 031°59'6551178115.0
2018-Jan-19 21:59N 37°56' E 023°39'691824904302.5
2018-Jan-19 21:59N 37°47' W 122°23'68652059437.5
2018-Jan-19 21:59N 46°56' E 031°57'47992159563.6
2018-Jan-19 21:59N 01°12' E 103°49'47971918701.2
2018-Jan-19 21:59N 46°50' E 031°57'0790.6
2018-Jan-19 21:59N 46°50' E 031°57'62329.4
2018-Jan-19 21:59N 46°56' E 031°57'62152034008.6
2018-Jan-19 21:58N 49°17' W 123°08'61982028549.2
2018-Jan-19 21:58N 46°37' E 031°02'6085952458.3
2018-Jan-19 21:58S 23°01' W 044°19'6130380496.7
2018-Jan-19 21:57N 46°46' E 031°57'84643808622.7
2018-Jan-19 21:57S 38°20' E 144°45'8118339810.2
2018-Jan-19 21:55N 44°44' E 037°47'1769254779.1
2018-Jan-19 21:55N 50°09' W 005°05'318730432.7
2018-Jan-19 21:49N 36°58' W 076°05'6832666.3
2018-Jan-19 21:33N 26°07' W 080°06'4860106691.0
2018-Jan-19 21:31N 63°13' E 021°09'56131554398.3
2018-Jan-19 21:30N 01°17' E 104°04'108389754503.5
2018-Jan-19 21:30N 26°07' W 080°06'683409936.8
2018-Jan-19 21:30N 36°57' W 075°60'40622924871.3
2018-Jan-19 21:30S 23°01' W 044°19'437915765240.9
2018-Jan-19 21:30N 29°33' W 095°02'1760372676.7
2018-Jan-19 21:30N 49°17' W 123°08'24841117720.1
2018-Jan-19 21:30N 25°48' W 080°09'53424808200.6
2018-Jan-19 21:30N 37°55' E 023°42'47701431070.0
2018-Jan-19 21:29N 36°53' W 076°22'487517550021.9
2018-Jan-19 21:29N 46°57' E 031°59'68668239049.1
2018-Jan-19 21:29N 37°47' W 122°23'68651765232.1
2018-Jan-19 21:29N 46°56' E 031°57'61445.7
2018-Jan-19 21:29N 46°50' E 031°57'0785.9
2018-Jan-19 21:29N 46°50' E 031°57'27565908.4
2018-Jan-19 21:29N 44°44' E 037°47'0 1.5
2018-Jan-19 21:28N 44°44' E 037°47'277124764.5
2018-Jan-19 21:28N 46°56' E 031°57'1483356031.4
2018-Jan-19 21:28N 50°09' W 005°05'103996239347.5
2018-Jan-19 21:28S 38°20' E 144°45'8464553981.2
2018-Jan-19 21:27N 46°46' E 031°57'39220.0
2018-Jan-19 21:16N 46°37' E 031°02'851163829.5
2018-Jan-19 21:08S 27°52' E 153°23'14280110794.2
2018-Jan-19 21:01N 36°53' W 076°22'674151612.5
2018-Jan-19 21:00N 26°07' W 080°06'55451996369.0
2018-Jan-19 21:00N 46°56' E 031°57'1045376050.8
2018-Jan-19 21:00N 63°13' E 021°09'48821757654.0
2018-Jan-19 21:00N 49°17' W 123°08'24841490293.4
2018-Jan-19 21:00N 25°48' W 080°09'53424808200.6
2018-Jan-19 21:00N 37°55' E 023°42'654168259.4
2018-Jan-19 20:59N 46°57' E 031°59'6551178110.5
2018-Jan-19 20:59N 37°56' E 023°39'69188301434.2
2018-Jan-19 20:59N 37°47' W 122°23'6870916006.4
2018-Jan-19 20:59N 46°50' E 031°57'0262.7
2018-Jan-19 20:59N 46°50' E 031°57'27598937.6
2018-Jan-19 20:59N 44°44' E 037°47'30557759.5
2018-Jan-19 20:58N 46°37' E 031°02'3051097408.0
2018-Jan-19 20:58N 44°44' E 037°47'277166350.5
2018-Jan-19 20:58N 46°56' E 031°57'61367363627.8
2018-Jan-19 20:58S 23°01' W 044°19'8861966651.0
2018-Jan-19 20:58N 01°19' E 104°00'4799431920.9
2018-Jan-19 20:57N 46°46' E 031°57'84645078160.8
2018-Jan-19 20:57S 38°20' E 144°45'76385852.5
2018-Jan-19 20:56S 27°52' E 153°23'104371174132.3
2018-Jan-19 20:56N 50°09' W 005°05'432433691.1
2018-Jan-19 20:48N 29°33' W 095°02'521517745.1
2018-Jan-19 20:30N 63°13' E 021°09'40757335667.6
2018-Jan-19 20:30N 36°53' W 076°22'40693661984.8
2018-Jan-19 20:30S 23°01' W 044°19'885931892734.7
2018-Jan-19 20:30N 01°17' E 103°59'77621397231.1
2018-Jan-19 20:30N 49°17' W 123°09'24711779288.6
2018-Jan-19 20:30N 26°07' W 080°06'5325563854.4
2018-Jan-19 20:29N 37°56' E 023°39'691824904319.5
2018-Jan-19 20:29N 37°47' W 122°23'5120921598.1
2018-Jan-19 20:29N 50°09' W 005°05'1483762862.5
2018-Jan-19 20:29N 46°56' E 031°57'846930486955.8
2018-Jan-19 20:29S 38°20' E 144°45'846530474538.6
2018-Jan-19 20:29N 46°50' E 031°57'0785.9
2018-Jan-19 20:29N 46°50' E 031°57'27589943.3
2018-Jan-19 20:29N 44°44' E 037°47'0 1.1
2018-Jan-19 20:28N 44°44' E 037°47'277166351.1
2018-Jan-19 20:28N 46°56' E 031°57'10469.6
2018-Jan-19 20:27N 46°46' E 031°57'55651178575.3
2018-Jan-19 20:27N 25°48' W 080°09'53426410934.1
2018-Jan-19 20:27N 37°55' E 023°42'5946140823.4
2018-Jan-19 20:24N 29°33' W 095°02'6075508606.2
2018-Jan-19 20:23N 46°57' E 031°59'8470165719.1
2018-Jan-19 20:20S 27°52' E 153°23'8511127659.0
2018-Jan-19 20:16N 46°37' E 031°02'483832433.1
2018-Jan-19 20:07N 01°16' E 103°59'561148911.0
2018-Jan-19 20:00N 63°13' E 021°09'40753667833.8
2018-Jan-19 20:00N 36°53' W 076°22'21811962736.7
2018-Jan-19 20:00N 49°17' W 123°08'24718896118.7
2018-Jan-19 20:00N 26°06' W 080°07'818210374.3
2018-Jan-19 20:00N 29°33' W 095°02'823123390.2
2018-Jan-19 20:00N 25°48' W 080°09'55641054216.4
2018-Jan-19 19:59N 46°57' E 031°59'686624717129.6
2018-Jan-19 19:59N 37°47' W 122°23'691824904302.5
2018-Jan-19 19:59N 37°56' E 023°39'50444540028.2
2018-Jan-19 19:59N 01°15' E 103°57'4800720054.7
2018-Jan-19 19:59N 46°50' E 031°57'0802.6
2018-Jan-19 19:59N 46°50' E 031°57'84657618630.4
2018-Jan-19 19:59S 38°20' E 144°45'81183247074.2
2018-Jan-19 19:59N 44°44' E 037°47'4489673312.4
2018-Jan-19 19:58N 01°14' E 103°54'48015761191.0
2018-Jan-19 19:58N 46°56' E 031°57'10482.5
2018-Jan-19 19:57N 46°46' E 031°57'645110587.4
2018-Jan-19 19:57N 37°55' E 023°42'75536226.8
2018-Jan-19 19:55N 44°44' E 037°47'3055932.0
2018-Jan-19 19:52N 46°37' E 031°02'8511259645.6
2018-Jan-19 19:50S 27°52' E 153°23'1038051332.0
2018-Jan-19 19:38N 43°34' W 005°41'659251589.6
2018-Jan-19 19:30N 01°17' E 104°01'561220202052.7
2018-Jan-19 19:30N 63°13' E 021°09'48608748387.7
2018-Jan-19 19:30N 26°06' W 080°05'55451247666.6
2018-Jan-19 19:30N 46°56' E 031°57'60743644382.3
2018-Jan-19 19:30N 29°33' W 095°02'10351242209.3
2018-Jan-19 19:30N 36°53' W 076°22'2181603919.0
2018-Jan-19 19:30N 49°17' W 123°08'24841490293.4
2018-Jan-19 19:30N 25°48' W 080°09'53422747543.2
2018-Jan-19 19:30N 37°55' E 023°42'3674.3
2018-Jan-19 19:29N 37°56' E 023°39'691824904319.5
2018-Jan-19 19:29N 37°47' W 122°23'6865988530.0
2018-Jan-19 19:29N 46°56' E 031°57'64626.5
2018-Jan-19 19:29N 46°50' E 031°57'275109932.2
2018-Jan-19 19:29N 44°44' E 037°47'0 0.8
2018-Jan-19 19:28N 44°44' E 037°47'4489199530.3
2018-Jan-19 19:27N 01°14' E 103°55'47998637516.5
2018-Jan-19 19:27N 46°46' E 031°57'2568330136.5
2018-Jan-19 19:26N 28°05' W 016°32'1071202835.5
2018-Jan-19 19:26N 43°34' W 005°36'1600303102.7
2018-Jan-19 19:26N 46°50' E 031°57'8469199273.9
2018-Jan-19 19:23S 27°52' E 153°23'8511502264.8
2018-Jan-19 19:22N 46°37' E 031°02'684024947.1
2018-Jan-19 19:06N 37°52' W 122°29'568563357.0
2018-Jan-19 19:00N 63°13' E 021°09'48553495913.0
2018-Jan-19 19:00N 26°11' W 080°04'108135561055.8
2018-Jan-19 19:00N 01°14' E 103°38'182966.2
2018-Jan-19 19:00N 01°16' E 103°57'65875928709.2
2018-Jan-19 19:00N 43°33' W 005°39'487317541574.6
2018-Jan-19 19:00N 49°17' W 123°08'64171925223.0
2018-Jan-19 19:00N 37°55' E 023°42'654168261.3
2018-Jan-19 18:59N 46°57' E 031°59'6551178119.1
2018-Jan-19 18:59N 37°56' E 023°39'69188301439.8
2018-Jan-19 18:59N 37°47' W 122°23'68654942789.2
2018-Jan-19 18:59N 46°56' E 031°57'47974317592.7
2018-Jan-19 18:59N 01°15' E 103°50'47971151387.8
2018-Jan-19 18:59N 46°56' E 031°57'623111.6
2018-Jan-19 18:59N 46°50' E 031°57'0400.3
2018-Jan-19 18:59N 46°50' E 031°57'27576048.1
2018-Jan-19 18:59N 44°44' E 037°47'0 0.9
2018-Jan-19 18:58N 44°44' E 037°47'3051097402.8
2018-Jan-19 18:58N 46°37' E 031°02'4843268206.1
2018-Jan-19 18:57N 36°53' W 076°22'140122017695.7
2018-Jan-19 18:57S 38°20' E 144°45'8266182555.2
2018-Jan-19 18:54N 29°33' W 095°02'1458374868.2
2018-Jan-19 18:54N 37°52' W 122°29'478.8
2018-Jan-19 18:51N 37°48' W 122°27'68743093120.7
2018-Jan-19 18:51N 46°46' E 031°57'478714079.1
2018-Jan-19 18:31N 01°14' E 103°39'56034034508.1
2018-Jan-19 18:30N 63°12' E 021°04'56141188816.4
2018-Jan-19 18:30N 01°16' E 103°59'776413975378.0
2018-Jan-19 18:30N 49°17' W 123°08'76091191045.5
2018-Jan-19 18:30S 38°20' E 144°44'85833089816.4
2018-Jan-19 18:30N 37°55' E 023°42'3819.8
2018-Jan-19 18:29N 37°56' E 023°39'691812452151.2
2018-Jan-19 18:29N 37°47' W 122°23'68653089243.2
2018-Jan-19 18:29N 46°56' E 031°57'48741754618.2
2018-Jan-19 18:29N 36°53' W 076°22'48771596101.3
2018-Jan-19 18:29N 46°50' E 031°57'0400.3
2018-Jan-19 18:29N 46°50' E 031°57'27570669.7
2018-Jan-19 18:29N 44°44' E 037°47'44851242030.9
2018-Jan-19 18:28N 01°15' E 103°50'448516146426.7
2018-Jan-19 18:28N 44°44' E 037°47'27311718.2
2018-Jan-19 18:27N 46°46' E 031°57'8468781679.2
2018-Jan-19 18:26S 27°52' E 153°23'7529200784.8
2018-Jan-19 18:24N 29°33' W 095°02'6075520715.8
2018-Jan-19 18:23N 46°57' E 031°59'5538664504.2
2018-Jan-19 18:23N 26°16' W 080°04'5499582289.9
2018-Jan-19 18:22N 46°37' E 031°02'483613289.2
2018-Jan-19 18:00N 01°14' E 103°53'48011234510.6
2018-Jan-19 18:00N 46°56' E 031°57'62155593943.5
2018-Jan-19 18:00N 49°17' W 123°08'17601267100.9
2018-Jan-19 18:00N 29°33' W 095°02'82661239854.8
2018-Jan-19 18:00S 38°20' E 144°45'858310299540.2
2018-Jan-19 18:00N 37°55' E 023°42'3637.6
2018-Jan-19 17:59N 37°56' E 023°39'691824904302.5
2018-Jan-19 17:59N 37°47' W 122°23'78882184348.3
2018-Jan-19 17:59N 01°12' E 103°39'47921326883.6
2018-Jan-19 17:59N 46°56' E 031°57'623155.9
2018-Jan-19 17:59N 46°50' E 031°57'0400.3
2018-Jan-19 17:59N 46°50' E 031°57'27582449.1
2018-Jan-19 17:59N 44°44' E 037°47'1869841007.3
2018-Jan-19 17:58N 43°33' W 005°36'32671680023.5
2018-Jan-19 17:58N 36°53' W 076°22'52052342308.7
2018-Jan-19 17:58N 44°44' E 037°47'1259116221.5
2018-Jan-19 17:58N 63°12' E 020°52'9341436701.4
2018-Jan-19 17:56S 27°52' E 153°23'8511510636.1
2018-Jan-19 17:55N 46°37' E 031°02'2541295085.6
2018-Jan-19 17:55N 27°51' W 016°40'258240420.8
2018-Jan-19 17:51N 46°46' E 031°57'39689.9
2018-Jan-19 17:48N 46°36' E 031°01'45219.5
2018-Jan-19 17:35N 46°57' E 031°59'58880.4
2018-Jan-19 17:31N 46°30' E 030°45'105971934.8
2018-Jan-19 17:31N 63°12' E 020°54'562020233591.4
2018-Jan-19 17:30N 01°15' E 103°56'14648.0
2018-Jan-19 17:30N 01°16' E 103°57'4798575818.6
2018-Jan-19 17:30N 46°46' E 031°57'5237528.0
2018-Jan-19 17:30N 46°30' E 030°45'602108442.0
2018-Jan-19 17:30N 37°55' E 023°42'654181203.8
2018-Jan-19 17:29N 46°57' E 031°59'6551178114.6
2018-Jan-19 17:29N 37°56' E 023°39'641323088075.0
2018-Jan-19 17:29N 49°17' W 123°08'6911242952.8
2018-Jan-19 17:29N 37°47' W 122°23'6870951201.4
2018-Jan-19 17:29N 46°50' E 031°57'611545.0
2018-Jan-19 17:29N 46°56' E 031°57'846910162314.6
2018-Jan-19 17:29S 38°20' E 144°45'846810161791.6
2018-Jan-19 17:29N 46°56' E 031°57'277166211.8
2018-Jan-19 17:29N 44°44' E 037°47'0 1.1
2018-Jan-19 17:28N 44°44' E 037°47'2756771.3
2018-Jan-19 17:26N 46°50' E 031°57'6077204457.5
2018-Jan-19 17:24N 29°33' W 095°02'103540071.3
2018-Jan-19 17:22N 36°53' W 076°22'407311090.9
2018-Jan-19 17:00N 63°12' E 021°04'488017569496.1
2018-Jan-19 17:00N 49°17' W 123°08'21811570189.4
2018-Jan-19 17:00N 36°53' W 076°22'104459400550.2
2018-Jan-19 17:00N 01°16' E 103°56'5040442564.6
2018-Jan-19 17:00N 37°55' E 023°42'654138566.6
2018-Jan-19 16:59N 46°57' E 031°59'6551178110.5
2018-Jan-19 16:59N 37°56' E 023°39'69188301434.2
2018-Jan-19 16:59N 37°47' W 122°23'78691491033.8
2018-Jan-19 16:59N 01°16' E 103°58'48012880339.0
2018-Jan-19 16:59N 46°50' E 031°57'0800.6
2018-Jan-19 16:59N 46°50' E 031°57'84652539626.1
2018-Jan-19 16:59S 38°20' E 144°45'811814611839.6
2018-Jan-19 16:59N 44°44' E 037°47'0 1.5
2018-Jan-19 16:58N 44°44' E 037°47'27731199.2
2018-Jan-19 16:58N 46°56' E 031°57'607498494.1
2018-Jan-19 16:54N 29°33' W 095°02'6078118924.1
2018-Jan-19 16:51N 46°46' E 031°57'687264763.4
2018-Jan-19 16:45N 37°52' W 122°29'211618091.4
2018-Jan-19 16:38N 21°14' W 086°44'10858981.3
2018-Jan-19 16:30N 36°53' W 076°22'21812616982.3
2018-Jan-19 16:30N 49°17' W 123°08'776427949712.6
2018-Jan-19 16:30N 01°17' E 103°58'5610918052.7
2018-Jan-19 16:30N 63°13' E 021°09'56851136905.3
2018-Jan-19 16:30N 37°52' W 122°29'69238307153.4
2018-Jan-19 16:30N 37°55' E 023°42'69221245933.3
2018-Jan-19 16:29N 37°47' W 122°23'68701075311.6
2018-Jan-19 16:29N 46°50' E 031°57'0400.3
2018-Jan-19 16:29N 46°50' E 031°57'27576105.2
2018-Jan-19 16:29N 44°44' E 037°47'0 0.0
2018-Jan-19 16:28N 44°44' E 037°47'277332677.4
2018-Jan-19 16:28N 46°56' E 031°57'84691051267.6
2018-Jan-19 16:28S 38°20' E 144°45'8266692025.7
2018-Jan-19 16:27N 29°33' W 095°02'5942497486.0
2018-Jan-19 16:26N 37°56' E 023°39'6453401.2
2018-Jan-19 16:15N 46°46' E 031°57'44772.2
2018-Jan-19 16:11N 46°26' E 030°59'15215.4
2018-Jan-19 16:07N 46°21' E 030°38'662165.3
2018-Jan-19 16:05N 46°57' E 031°59'487560309.3
2018-Jan-19 16:00N 36°53' W 076°22'21812616987.2
2018-Jan-19 16:00N 49°17' W 123°08'488217576540.3
2018-Jan-19 16:00N 63°13' E 021°09'56026722545.9
2018-Jan-19 16:00N 01°13' E 103°39'3330333045.6
2018-Jan-19 16:00S 38°20' E 144°45'85832808965.5
2018-Jan-19 16:00N 37°55' E 023°42'3819.8
2018-Jan-19 15:59N 37°56' E 023°39'6551178123.6
2018-Jan-19 15:59N 46°57' E 031°59'7866.6
2018-Jan-19 15:59N 46°50' E 031°57'0800.6
2018-Jan-19 15:59N 46°50' E 031°57'623048.1
2018-Jan-19 15:59N 46°56' E 031°57'27783208.2
2018-Jan-19 15:59N 44°44' E 037°47'4490221437.9
2018-Jan-19 15:57N 01°16' E 103°58'94661549063.2
2018-Jan-19 15:57N 29°33' W 095°02'60784376407.9
2018-Jan-19 15:57N 46°46' E 031°57'68721302085.1
2018-Jan-19 15:57N 37°52' W 122°29'71071.2
2018-Jan-19 15:56N 37°47' W 122°23'6840439719.3
2018-Jan-19 15:55N 46°37' E 031°02'238123.3
2018-Jan-19 15:55N 46°21' E 030°38'649257.4
2018-Jan-19 15:55N 46°56' E 031°57'2776740.3
2018-Jan-19 15:52N 44°44' E 037°47'2991665.8
2018-Jan-19 15:41N 46°22' E 031°03'485126540.3
2018-Jan-19 15:31N 36°53' W 076°22'21811570189.4
2018-Jan-19 15:30N 49°17' W 123°08'77833113321.6
2018-Jan-19 15:30N 01°13' E 103°39'94862276637.7
2018-Jan-19 15:30N 29°33' W 095°02'94674868738.8
2018-Jan-19 15:30N 01°16' E 103°57'33221087087.2
2018-Jan-19 15:30S 38°20' E 144°44'85833089816.4
2018-Jan-19 15:30N 37°55' E 023°42'654168260.6
2018-Jan-19 15:29N 46°57' E 031°59'686624717108.3
2018-Jan-19 15:29N 37°47' W 122°23'691812452142.8
2018-Jan-19 15:29N 37°56' E 023°39'65384005.3
2018-Jan-19 15:29N 46°56' E 031°57'0155.4
2018-Jan-19 15:29N 46°56' E 031°57'27771294.1
2018-Jan-19 15:29N 44°44' E 037°47'0 1.3
2018-Jan-19 15:28N 44°44' E 037°47'4491898121.1
2018-Jan-19 15:28N 01°16' E 103°58'4800287985.8
2018-Jan-19 15:27N 46°46' E 031°57'3184.3
2018-Jan-19 15:26N 46°50' E 031°57'0395.3
2018-Jan-19 15:26N 46°50' E 031°57'6869412158.7
2018-Jan-19 15:25N 37°52' W 122°29'684023405.6
2018-Jan-19 15:07N 46°37' E 031°02'484342939.3
2018-Jan-19 15:01N 36°53' W 076°22'1044518801628.3
2018-Jan-19 15:00N 01°16' E 103°57'776613978187.7
2018-Jan-19 15:00N 49°17' W 123°08'488217576540.3
2018-Jan-19 15:00N 63°13' E 021°09'560210083387.1
2018-Jan-19 15:00N 01°13' E 103°39'1346463.0
2018-Jan-19 15:00N 01°15' E 103°52'5037385818.6
2018-Jan-19 15:00N 37°55' E 023°42'3637.6
2018-Jan-19 14:59N 37°56' E 023°39'69181778878.7
2018-Jan-19 14:59N 37°47' W 122°23'68652059447.4
2018-Jan-19 14:59N 46°56' E 031°57'67682.7
2018-Jan-19 14:59N 46°50' E 031°57'846510158504.3
2018-Jan-19 14:59S 38°20' E 144°45'846830486404.5
2018-Jan-19 14:59N 46°56' E 031°57'277142588.2
2018-Jan-19 14:59N 44°44' E 037°47'0 1.0
2018-Jan-19 14:58N 44°44' E 037°47'6417316455.9
2018-Jan-19 14:57N 29°33' W 095°02'60784376404.3
2018-Jan-19 14:57N 46°46' E 031°57'3190.2
2018-Jan-19 14:56N 46°50' E 031°57'749.1
2018-Jan-19 14:47N 46°57' E 031°59'487517359.1
2018-Jan-19 14:30N 36°53' W 076°22'21812616987.2
2018-Jan-19 14:30N 49°17' W 123°08'48825858846.8
2018-Jan-19 14:30N 63°13' E 021°09'56025041686.8
2018-Jan-19 14:30N 01°13' E 103°39'204187.5
2018-Jan-19 14:30N 01°16' E 103°58'946634076961.1
2018-Jan-19 14:30N 29°33' W 095°02'145288617.0
2018-Jan-19 14:29N 37°47' W 122°23'68702060938.1
2018-Jan-19 14:29N 46°50' E 031°57'65667.7
2018-Jan-19 14:29N 46°56' E 031°57'037.3
2018-Jan-19 14:29N 46°56' E 031°57'277998498.7
2018-Jan-19 14:29N 44°44' E 037°47'81189741232.1
2018-Jan-19 14:29S 38°20' E 144°45'81182087407.8
2018-Jan-19 14:28N 44°44' E 037°47'75526637.4
2018-Jan-19 14:27N 37°55' E 023°42'3637.6
2018-Jan-19 14:26N 37°56' E 023°39'64889753.7
2018-Jan-19 14:26N 46°50' E 031°57'342.9
2018-Jan-19 14:21N 46°46' E 031°57'4794352231.8
2018-Jan-19 14:20N 01°15' E 103°50'7870165693.7
2018-Jan-19 14:17N 37°52' W 122°29'686534422.5
2018-Jan-19 14:05N 46°57' E 031°59'6268268609.6
2018-Jan-19 14:04S 23°57' W 046°18'406671051.1
2018-Jan-19 14:01N 36°53' W 076°22'21811962736.7
2018-Jan-19 14:00N 49°17' W 123°08'48824394135.1
2018-Jan-19 14:00N 63°13' E 021°09'56105049393.8
2018-Jan-19 14:00N 01°16' E 103°57'94672004866.4
2018-Jan-19 14:00N 29°33' W 095°02'5946823275.1
2018-Jan-19 14:00N 37°55' E 023°42'502518090278.8
2018-Jan-19 14:00N 01°13' E 103°36'47871148991.4
2018-Jan-19 13:59N 46°57' E 031°59'68661901319.0
2018-Jan-19 13:59N 37°47' W 122°23'68701648749.4
2018-Jan-19 13:59N 46°50' E 031°57'65662.5
2018-Jan-19 13:59N 46°56' E 031°57'035.9
2018-Jan-19 13:59N 46°56' E 031°57'277998512.0
2018-Jan-19 13:59N 44°44' E 037°47'30578388.4
2018-Jan-19 13:58N 46°37' E 031°02'3051097423.8
2018-Jan-19 13:58N 44°44' E 037°47'4486366995.5
2018-Jan-19 13:58N 01°15' E 103°51'33251709893.5
2018-Jan-19 13:57S 38°20' E 144°45'9849581271.5
2018-Jan-19 13:56S 23°57' W 046°18'55812511262.8
2018-Jan-19 13:56N 37°56' E 023°39'64886428.8
2018-Jan-19 13:56N 46°50' E 031°57'148612981.8
2018-Jan-19 13:49N 50°09' W 005°05'358455610.7
2018-Jan-19 13:45N 32°13' W 080°47'3551459.1
2018-Jan-19 13:31N 36°53' W 076°22'40754890445.1
2018-Jan-19 13:30N 63°13' E 021°09'561110099316.8
2018-Jan-19 13:30N 01°13' E 103°54'77713108241.2
2018-Jan-19 13:30N 49°17' W 123°08'2181785052.9
2018-Jan-19 13:30N 32°13' W 080°47'52889517825.4
2018-Jan-19 13:30N 46°56' E 031°57'607410932776.0
2018-Jan-19 13:30N 29°33' W 095°02'43402231769.9
2018-Jan-19 13:30S 23°57' W 046°18'5582956962.2
2018-Jan-19 13:30N 37°55' E 023°42'654147227.5
2018-Jan-19 13:29N 46°57' E 031°59'6551178110.1
2018-Jan-19 13:29N 37°56' E 023°39'69182264029.0
2018-Jan-19 13:29N 37°47' W 122°23'68701545703.6
2018-Jan-19 13:29N 46°50' E 031°57'622649.2
2018-Jan-19 13:29N 46°56' E 031°57'27762383.2
2018-Jan-19 13:29N 44°44' E 037°47'0 1.2
2018-Jan-19 13:28N 44°44' E 037°47'8118712773.0
2018-Jan-19 13:27S 38°20' E 144°45'10399241523.2
2018-Jan-19 13:25N 50°09' W 005°05'145415628.0
2018-Jan-19 13:19N 46°37' E 031°02'684026447.6
2018-Jan-19 13:04N 37°52' W 122°29'220040204.3
2018-Jan-19 13:01N 36°53' W 076°22'21811962736.7
2018-Jan-19 13:00N 49°17' W 123°08'488217576540.3
2018-Jan-19 13:00N 63°13' E 021°09'1045376104.0
2018-Jan-19 13:00N 46°56' E 031°57'042.4
2018-Jan-19 13:00N 46°56' E 031°57'60747288523.4
2018-Jan-19 13:00N 29°33' W 095°02'82661859780.3
2018-Jan-19 13:00S 38°20' E 144°45'85832574883.2
2018-Jan-19 13:00N 37°55' E 023°42'654196302.6
2018-Jan-19 12:59N 46°57' E 031°59'655471244.2
2018-Jan-19 12:59N 37°56' E 023°39'69181464959.0
2018-Jan-19 12:59N 37°47' W 122°23'58524213770.4
2018-Jan-19 12:59S 23°57' W 046°18'62624508598.9
2018-Jan-19 12:59N 46°50' E 031°57'47952466226.6
2018-Jan-19 12:59N 01°15' E 103°50'44852306631.0
2018-Jan-19 12:59N 44°44' E 037°47'0 1.1
2018-Jan-19 12:58N 44°44' E 037°47'1769289522.2
2018-Jan-19 12:58N 50°09' W 005°05'148644202.4
2018-Jan-19 12:56N 46°50' E 031°57'404032.8
2018-Jan-19 12:55N 46°37' E 031°02'621528574.6
2018-Jan-19 12:42S 23°55' W 046°21'896445840.4
2018-Jan-19 12:31N 01°15' E 103°51'77716994007.1
2018-Jan-19 12:30N 49°17' W 123°08'488217576540.3
2018-Jan-19 12:30N 63°13' E 021°09'40752934264.5
2018-Jan-19 12:30N 36°53' W 076°22'48741169716.5
2018-Jan-19 12:30N 46°56' E 031°57'60747288526.5
2018-Jan-19 12:30N 29°33' W 095°02'43381951879.3
2018-Jan-19 12:30S 23°55' W 046°20'98525066697.2
2018-Jan-19 12:30S 38°20' E 144°45'984917728797.0
2018-Jan-19 12:30S 23°57' W 046°18'55822009620.7
2018-Jan-19 12:30N 37°55' E 023°42'3636.8
2018-Jan-19 12:29N 37°56' E 023°39'69181464960.0
2018-Jan-19 12:29N 37°47' W 122°23'68702473125.7
2018-Jan-19 12:29N 46°50' E 031°57'27552072.4
2018-Jan-19 12:29N 44°44' E 037°47'0 1.1
2018-Jan-19 12:28N 44°44' E 037°47'1769353859.9
2018-Jan-19 12:28N 50°09' W 005°05'14841335223.2
2018-Jan-19 12:28N 46°56' E 031°57'6170.3
2018-Jan-19 12:26N 46°50' E 031°57'404537.2
2018-Jan-19 12:25N 46°37' E 031°02'44332.0
2018-Jan-19 12:17N 46°57' E 031°59'10266.7
2018-Jan-19 12:15N 46°46' E 031°57'479949217.4
2018-Jan-19 12:09N 01°16' E 103°57'561039140.7
2018-Jan-19 12:01N 63°13' E 021°09'48823515308.1
2018-Jan-19 12:00N 49°17' W 123°08'628722634031.1
2018-Jan-19 12:00S 23°57' W 046°19'984911819372.5
2018-Jan-19 12:00S 38°20' E 144°45'1401225221179.1
2018-Jan-19 12:00N 36°53' W 076°22'40662927303.4
2018-Jan-19 12:00S 23°57' W 046°18'62662255739.3
2018-Jan-19 12:00N 46°56' E 031°57'60747288517.3
2018-Jan-19 12:00N 29°33' W 095°02'94741550223.4
2018-Jan-19 12:00N 01°15' E 103°50'5039863813.0
2018-Jan-19 11:59N 37°56' E 023°39'69181660286.8
2018-Jan-19 11:59N 37°47' W 122°23'68701902474.7
2018-Jan-19 11:59N 46°50' E 031°57'0800.6
2018-Jan-19 11:59N 46°50' E 031°57'27554965.3
2018-Jan-19 11:59N 44°44' E 037°47'27723212.0
2018-Jan-19 11:58N 46°56' E 031°57'2776439.4
2018-Jan-19 11:55N 44°44' E 037°47'4491414544.6
2018-Jan-19 11:55N 01°17' E 103°60'5042292788.0
2018-Jan-19 11:54N 37°55' E 023°42'654168259.4
2018-Jan-19 11:53N 46°57' E 031°59'479741016.1
2018-Jan-19 11:46N 01°15' E 103°51'483396653.3
2018-Jan-19 11:43N 46°37' E 031°02'483422719.1
2018-Jan-19 11:31N 01°15' E 103°53'1044237591472.6
2018-Jan-19 11:31N 36°53' W 076°22'407514671322.5
2018-Jan-19 11:31N 63°13' E 021°09'56102885398.2
2018-Jan-19 11:30N 01°15' E 103°56'77673994399.0
2018-Jan-19 11:30N 49°17' W 123°08'777413993058.2
2018-Jan-19 11:30N 01°17' E 103°46'47922156483.4
2018-Jan-19 11:30N 46°56' E 031°57'65373486.7
2018-Jan-19 11:30N 37°55' E 023°42'55821057699.2
2018-Jan-19 11:29S 23°57' W 046°18'58522340988.4
2018-Jan-19 11:29N 37°47' W 122°23'72041296791.5
2018-Jan-19 11:29S 38°20' E 144°45'81182656695.5
2018-Jan-19 11:29N 44°44' E 037°47'0 0.1
2018-Jan-19 11:22N 44°44' E 037°47'27741587.7
2018-Jan-19 11:22N 46°56' E 031°57'6074475348.2
2018-Jan-19 11:21N 29°33' W 095°02'60785470509.9
2018-Jan-19 11:21N 46°46' E 031°57'148783627.3
2018-Jan-19 11:20N 50°09' W 005°05'14862674253.0
2018-Jan-19 11:20N 46°50' E 031°57'0800.6
2018-Jan-19 11:20N 46°50' E 031°57'4801151607.0
2018-Jan-19 11:18N 01°17' E 103°60'5045454093.0
2018-Jan-19 11:17N 37°56' E 023°39'60313833.4
2018-Jan-19 11:15N 46°26' E 030°55'6843226016.7
2018-Jan-19 11:13N 37°52' W 122°29'6865268645.4
2018-Jan-19 11:11N 46°57' E 031°59'44663.9
2018-Jan-19 11:07N 46°37' E 031°02'484342728.9
2018-Jan-19 11:01N 36°53' W 076°22'40754890452.2
2018-Jan-19 11:00N 63°13' E 021°09'64711792031.2
2018-Jan-19 11:00S 23°57' W 046°18'62872514946.9
2018-Jan-19 11:00N 49°17' W 123°08'621522374694.2
2018-Jan-19 11:00N 46°56' E 031°57'607410932776.0
2018-Jan-19 11:00N 29°33' W 095°02'6038987991.4
2018-Jan-19 11:00N 46°27' E 030°52'484117426365.7
2018-Jan-19 11:00N 01°16' E 103°56'50403629099.1
2018-Jan-19 11:00N 37°55' E 023°42'3637.6
2018-Jan-19 10:59N 37°56' E 023°39'55816696711.4
2018-Jan-19 10:59S 23°57' W 046°18'58522340983.4
2018-Jan-19 10:59N 37°47' W 122°23'51202303993.6
2018-Jan-19 10:59N 50°09' W 005°05'14851069541.8
2018-Jan-19 10:59N 46°50' E 031°57'84654353642.3
2018-Jan-19 10:59S 38°20' E 144°45'81183247074.2
2018-Jan-19 10:59N 44°44' E 037°47'0 0.0
2018-Jan-19 10:58N 44°44' E 037°47'44872692493.7
2018-Jan-19 10:58N 01°16' E 103°54'4800959940.1
2018-Jan-19 10:58N 46°56' E 031°57'10691.0
2018-Jan-19 10:57N 46°46' E 031°57'10940.8
2018-Jan-19 10:56N 46°57' E 031°59'71047.0
2018-Jan-19 10:56N 46°50' E 031°57'404148.1
2018-Jan-19 10:55N 46°37' E 031°02'484311692.4
2018-Jan-19 10:30N 36°53' W 076°22'1044318798125.5
2018-Jan-19 10:30N 01°16' E 103°55'64641.1
2018-Jan-19 10:30N 01°15' E 103°48'127389.6
2018-Jan-19 10:30N 01°12' E 103°36'894632206556.4
2018-Jan-19 10:30S 23°57' W 046°18'61997439246.1
2018-Jan-19 10:30N 46°30' E 030°46'5628559.5
2018-Jan-19 10:30N 46°56' E 031°57'607410932781.4
2018-Jan-19 10:30N 29°33' W 095°02'43401735826.6
2018-Jan-19 10:30S 23°57' W 046°18'4681991186.7
2018-Jan-19 10:30N 39°29' W 000°28'52931905540.0
2018-Jan-19 10:29N 49°17' W 123°08'64132308805.9
2018-Jan-19 10:29N 37°56' E 023°39'648388861.2
2018-Jan-19 10:29N 46°50' E 031°57'68702248296.1
2018-Jan-19 10:29N 37°47' W 122°23'68703091521.3
2018-Jan-19 10:29N 46°50' E 031°57'84653386016.6
2018-Jan-19 10:29S 38°20' E 144°44'81183652911.8
2018-Jan-19 10:29N 44°44' E 037°47'0 0.7
2018-Jan-19 10:28N 44°44' E 037°47'27739924.6
2018-Jan-19 10:28N 46°56' E 031°57'4805455191.4
2018-Jan-19 10:27N 01°17' E 104°02'5044477881.2
2018-Jan-19 10:27N 37°55' E 023°42'1443101832.7
2018-Jan-19 10:26N 50°10' W 005°05'658289753.0
2018-Jan-19 10:21N 01°17' E 103°56'4797908948.7
2018-Jan-19 10:21N 46°46' E 031°57'391419.9
2018-Jan-19 10:19N 46°37' E 031°02'441350.3
2018-Jan-19 10:17N 46°57' E 031°59'10453719.6
2018-Jan-19 10:01N 63°13' E 021°09'560920193722.9
2018-Jan-19 10:01N 01°17' E 103°57'77659317683.2
2018-Jan-19 10:00N 49°17' W 123°08'62877544823.4
2018-Jan-19 10:00S 23°57' W 046°18'40663659134.1
2018-Jan-19 10:00N 36°53' W 076°22'40662927319.1
2018-Jan-19 10:00S 23°57' W 046°18'896710760800.8
2018-Jan-19 10:00N 01°16' E 103°56'94683408366.3
2018-Jan-19 10:00N 29°33' W 095°02'4324864739.3
2018-Jan-19 10:00N 50°10' W 005°05'65791029818.3
2018-Jan-19 09:59N 01°12' E 103°48'50394535126.1
2018-Jan-19 09:59N 37°56' E 023°39'50311646586.3
2018-Jan-19 09:59N 01°12' E 103°39'788814199299.3
2018-Jan-19 09:59N 37°47' W 122°23'68702061014.2
2018-Jan-19 09:59N 46°50' E 031°57'84653386016.6
2018-Jan-19 09:59S 38°20' E 144°44'81182656662.0
2018-Jan-19 09:59N 44°44' E 037°47'27723212.6
2018-Jan-19 09:58N 46°56' E 031°57'48064325668.3
2018-Jan-19 09:58N 01°17' E 104°05'4806422025.7
2018-Jan-19 09:57N 46°56' E 031°57'107124.1
2018-Jan-19 09:57N 46°46' E 031°57'64592893.1
2018-Jan-19 09:57N 37°55' E 023°42'654157042.1
2018-Jan-19 09:56N 46°57' E 031°59'442795.3
2018-Jan-19 09:55N 46°37' E 031°02'305109742.2
2018-Jan-19 09:55N 44°44' E 037°47'812724441.3
2018-Jan-19 09:35S 27°52' E 153°23'14280181016.0
2018-Jan-19 09:31N 36°53' W 076°22'1044818805918.9
2018-Jan-19 09:30N 01°15' E 103°59'776513977176.9
2018-Jan-19 09:30N 49°17' W 123°08'628711317235.1
2018-Jan-19 09:30S 23°57' W 046°18'043.2
2018-Jan-19 09:30S 23°57' W 046°18'89588062586.5
2018-Jan-19 09:30N 01°13' E 103°48'94772006862.0
2018-Jan-19 09:30N 29°33' W 095°02'60787294009.1
2018-Jan-19 09:30N 46°46' E 031°57'64589321.0
2018-Jan-19 09:30N 37°55' E 023°42'654157043.3
2018-Jan-19 09:29N 46°57' E 031°59'68661300901.6
2018-Jan-19 09:29N 37°47' W 122°23'68703533167.2
2018-Jan-19 09:29N 46°50' E 031°57'61214.2
2018-Jan-19 09:29N 46°56' E 031°57'48065766932.1
2018-Jan-19 09:29N 01°17' E 104°04'449316176531.9
2018-Jan-19 09:29N 44°44' E 037°47'0 1.3
2018-Jan-19 09:28N 44°44' E 037°47'27752531.9
2018-Jan-19 09:28N 46°56' E 031°57'84686097275.2
2018-Jan-19 09:28S 38°20' E 144°45'8587359445.7
2018-Jan-19 09:26N 37°56' E 023°39'143962433.2
2018-Jan-19 09:25N 50°10' W 005°05'145415535.2
2018-Jan-19 09:19N 46°37' E 031°02'40675.0
2018-Jan-19 09:16N 46°50' E 031°57'8469342583.4
2018-Jan-19 09:14S 27°52' E 153°23'1428062237.9
2018-Jan-19 09:01N 36°53' W 076°22'1043237556012.4
2018-Jan-19 09:00N 01°12' E 103°40'77839339540.2
2018-Jan-19 09:00N 49°17' W 123°08'777427987211.4
2018-Jan-19 09:00N 01°14' E 103°49'56072018531.5
2018-Jan-19 09:00N 63°13' E 021°09'52151341023.7
2018-Jan-19 09:00N 29°33' W 095°02'607821882021.5
2018-Jan-19 09:00N 46°46' E 031°57'14791774612.6
2018-Jan-19 09:00N 39°17' W 000°11'62873233527.7
2018-Jan-19 09:00N 01°14' E 103°54'50401209486.6
2018-Jan-19 09:00N 37°55' E 023°42'6922830622.8
2018-Jan-19 08:59N 37°47' W 122°23'68702061014.2
2018-Jan-19 08:59N 46°50' E 031°57'61214.2
2018-Jan-19 08:59N 46°56' E 031°57'277332834.1
2018-Jan-19 08:59N 44°44' E 037°47'0 1.6
2018-Jan-19 08:58N 44°44' E 037°47'27535334.5
2018-Jan-19 08:58N 46°50' E 031°57'846515237742.1
2018-Jan-19 08:58S 38°20' E 144°45'8467367255.9
2018-Jan-19 08:56N 46°57' E 031°59'442612.2
2018-Jan-19 08:55N 46°37' E 031°02'435149.4
2018-Jan-19 08:55N 46°56' E 031°57'4808100627.4
2018-Jan-19 08:52N 01°17' E 104°06'3367116557.1
2018-Jan-19 08:50S 27°52' E 153°23'337911401.5
2018-Jan-19 08:32N 01°15' E 103°50'10440321226.2
2018-Jan-19 08:31N 36°53' W 076°22'21813925473.4
2018-Jan-19 08:30N 49°17' W 123°08'77833502184.0
2018-Jan-19 08:30N 01°13' E 103°39'56012880692.9
2018-Jan-19 08:30N 63°13' E 021°09'56061062121.1
2018-Jan-19 08:30N 01°15' E 103°48'4795539410.6
2018-Jan-19 08:29N 46°57' E 031°59'68661765509.3
2018-Jan-19 08:29N 37°47' W 122°23'68701766583.6
2018-Jan-19 08:29N 46°50' E 031°57'47972158742.0
2018-Jan-19 08:29N 01°14' E 103°52'26802.5
2018-Jan-19 08:29N 01°15' E 103°50'44851153312.1
2018-Jan-19 08:29N 44°44' E 037°47'27790772.9
2018-Jan-19 08:28N 46°56' E 031°57'277110940.8
2018-Jan-19 08:28N 44°44' E 037°47'27749904.8
2018-Jan-19 08:28N 46°56' E 031°57'63774.9
2018-Jan-19 08:28N 46°50' E 031°57'3285.3
2018-Jan-19 08:27N 46°46' E 031°57'8468648627.7
2018-Jan-19 08:26S 27°52' E 153°23'104371174132.2
2018-Jan-19 08:26N 50°10' W 005°05'6589431267.0
2018-Jan-19 08:25N 01°17' E 104°05'9459756743.3
2018-Jan-19 08:24N 29°33' W 095°02'437947772.3
2018-Jan-19 08:19S 23°00' W 044°19'406913524.7
2018-Jan-19 08:00N 36°53' W 076°22'1044412533096.5
2018-Jan-19 08:00N 01°14' E 103°54'561010098803.5
2018-Jan-19 08:00N 63°13' E 021°09'560120162919.8
2018-Jan-19 08:00N 01°13' E 103°38'4787749212.5
2018-Jan-19 08:00N 46°46' E 031°57'47973454019.5
2018-Jan-19 08:00N 01°16' E 103°55'7767716976.7
2018-Jan-19 07:59N 49°17' W 123°08'691248592.7
2018-Jan-19 07:59N 37°47' W 122°23'68702248379.1
2018-Jan-19 07:59N 46°50' E 031°57'27544937.5
2018-Jan-19 07:59N 44°44' E 037°47'27783207.4
2018-Jan-19 07:58N 46°56' E 031°57'013.8
2018-Jan-19 07:58N 46°56' E 031°57'65667.7
2018-Jan-19 07:58N 46°50' E 031°57'846530475484.2
2018-Jan-19 07:58S 38°20' E 144°45'8266676284.0
2018-Jan-19 07:57N 29°33' W 095°02'6075546751.9
2018-Jan-19 07:56N 46°57' E 031°59'27614632.0
2018-Jan-19 07:55N 44°44' E 037°47'1769353858.9
2018-Jan-19 07:55N 50°09' W 005°05'10437372002.3
2018-Jan-19 07:53S 27°52' E 153°23'3368180957.6
2018-Jan-19 07:52N 01°18' E 104°06'3311170289.3
2018-Jan-19 07:51S 38°16' E 144°40'979950613.3
2018-Jan-19 07:39S 23°00' W 044°19'406927688.6
2018-Jan-19 07:31N 36°53' W 076°22'1043318780267.4
2018-Jan-19 07:30N 01°15' E 103°44'2421171.9
2018-Jan-19 07:30N 01°17' E 104°07'1119945.5
2018-Jan-19 07:30N 01°16' E 103°56'415932.6
2018-Jan-19 07:30N 01°14' E 103°53'77711998311.9
2018-Jan-19 07:30N 49°17' W 123°08'62253201434.5
2018-Jan-19 07:30N 46°46' E 031°57'1054130842.6
2018-Jan-19 07:30N 63°13' E 021°09'1045313375.3
2018-Jan-19 07:29N 46°57' E 031°59'613822095477.0
2018-Jan-19 07:29S 23°00' W 044°19'98003920031.6
2018-Jan-19 07:29S 38°20' E 144°45'720412967915.0
2018-Jan-19 07:29N 37°47' W 122°23'68701766582.5
2018-Jan-19 07:29N 46°50' E 031°57'27549432.6
2018-Jan-19 07:29N 44°44' E 037°47'27771321.6
2018-Jan-19 07:28N 46°56' E 031°57'014.8
2018-Jan-19 07:28N 46°56' E 031°57'64534.1
2018-Jan-19 07:28N 46°50' E 031°57'1485167116.3
2018-Jan-19 07:27N 50°10' W 005°05'43241297104.1
2018-Jan-19 07:27N 29°33' W 095°02'5265315881.0
2018-Jan-19 07:26N 61°08' E 021°27'114877961.2
2018-Jan-19 07:25N 44°44' E 037°47'812761592.0
2018-Jan-19 07:17S 27°52' E 153°23'338579635.4
2018-Jan-19 07:15N 01°17' E 103°46'503033105.2
2018-Jan-19 07:06N 37°55' E 023°42'3674.3
2018-Jan-19 07:05N 37°56' E 023°39'50421210062.0
2018-Jan-19 07:05N 01°15' E 103°53'10443137711.9
2018-Jan-19 07:00N 36°53' W 076°22'21813925480.9
2018-Jan-19 07:00N 49°17' W 123°08'777413992774.4
2018-Jan-19 07:00N 01°17' E 103°46'63604.6
2018-Jan-19 07:00N 01°12' E 103°48'94771895475.8
2018-Jan-19 07:00N 29°33' W 095°02'5946823275.1
2018-Jan-19 07:00N 37°55' E 023°42'15212737962.9
2018-Jan-19 07:00N 63°13' E 021°09'1519420762.1
2018-Jan-19 06:59N 37°56' E 023°39'69181464958.0
2018-Jan-19 06:59N 37°47' W 122°23'51202047994.0
2018-Jan-19 06:59N 50°09' W 005°05'65902372246.9
2018-Jan-19 06:59N 01°18' E 104°06'44951471165.9
2018-Jan-19 06:59N 44°44' E 037°47'4480948694.9
2018-Jan-19 06:58N 01°17' E 103°46'44808063906.9
2018-Jan-19 06:58N 44°44' E 037°47'81184870611.3
2018-Jan-19 06:58S 38°20' E 144°45'84681793316.2
2018-Jan-19 06:58N 46°56' E 031°57'65662.3
2018-Jan-19 06:58N 46°50' E 031°57'4797863546.0
2018-Jan-19 06:57N 01°14' E 103°52'88513540451.8
2018-Jan-19 06:57S 23°00' W 044°19'62762824327.7
2018-Jan-19 06:57N 61°08' E 021°27'938375117.5
2018-Jan-19 06:57N 46°46' E 031°57'3190.2
2018-Jan-19 06:56N 46°50' E 031°57'6461.8
2018-Jan-19 06:55N 46°56' E 031°57'147.3
2018-Jan-19 06:53N 46°57' E 031°59'4802116798.8
2018-Jan-19 06:51N 01°15' E 103°58'337321008.7
2018-Jan-19 06:41S 27°52' E 153°23'927651691.9
2018-Jan-19 06:30N 61°08' E 021°27'12590059.3
2018-Jan-19 06:30N 63°13' E 021°09'40754890445.1
2018-Jan-19 06:30N 36°53' W 076°22'4878924328.9
2018-Jan-19 06:30N 46°46' E 031°57'62254482017.0
2018-Jan-19 06:30N 49°17' W 123°08'77661997028.9
2018-Jan-19 06:30N 01°15' E 103°57'50412016377.6
2018-Jan-19 06:30N 37°55' E 023°42'1443741924.3
2018-Jan-19 06:29N 50°09' W 005°05'1439518195.4
2018-Jan-19 06:29N 37°56' E 023°39'50402015805.0
2018-Jan-19 06:29N 01°15' E 103°51'78767088162.2
2018-Jan-19 06:29N 37°47' W 122°23'68702748020.9
2018-Jan-19 06:29N 46°50' E 031°57'27549430.8
2018-Jan-19 06:29N 44°44' E 037°47'0 1.0
2018-Jan-19 06:28N 44°44' E 037°47'277249612.9
2018-Jan-19 06:28N 46°56' E 031°57'033.9
2018-Jan-19 06:28N 46°56' E 031°57'65662.3
2018-Jan-19 06:28N 46°50' E 031°57'846515237742.1
2018-Jan-19 06:28S 38°20' E 144°45'98001680013.5
2018-Jan-19 06:27S 23°00' W 044°19'88651227432.3
2018-Jan-19 06:27N 01°17' E 104°05'3369295777.1
2018-Jan-19 06:26S 27°52' E 153°23'8470172272.8
2018-Jan-19 06:23N 46°57' E 031°59'6075160809.6
2018-Jan-19 06:21N 29°33' W 095°02'947729385.9
2018-Jan-19 06:02N 01°18' E 103°45'5600276185.9
2018-Jan-19 06:01N 63°13' E 021°09'407514671335.3
2018-Jan-19 06:00N 36°53' W 076°22'104343756227.5
2018-Jan-19 06:00N 01°17' E 103°46'11694.2
2018-Jan-19 06:00N 01°18' E 103°45'77731332588.3
2018-Jan-19 06:00N 49°17' W 123°08'64171050120.9
2018-Jan-19 06:00N 37°55' E 023°42'3674.3
2018-Jan-19 05:59N 37°56' E 023°39'50451816189.6
2018-Jan-19 05:59N 01°15' E 103°57'78707083137.1
2018-Jan-19 05:59N 37°47' W 122°23'51202633137.7
2018-Jan-19 05:59N 50°09' W 005°05'14865348479.0
2018-Jan-19 05:59N 46°50' E 031°57'27538025.1
2018-Jan-19 05:58N 44°44' E 037°47'63181749616.1
2018-Jan-19 05:58S 23°00' W 044°19'63185686251.3
2018-Jan-19 05:58N 44°44' E 037°47'277142637.8
2018-Jan-19 05:58N 46°56' E 031°57'033.9
2018-Jan-19 05:58N 46°56' E 031°57'65662.3
2018-Jan-19 05:58N 46°50' E 031°57'846510158494.7
2018-Jan-19 05:58S 38°20' E 144°45'8464692476.2
2018-Jan-19 05:57N 46°46' E 031°57'6078121566.9
2018-Jan-19 05:54N 29°33' W 095°02'607599409.4
2018-Jan-19 05:50N 46°57' E 031°59'479646919.0
2018-Jan-19 05:44N 01°15' E 103°50'1149.4
2018-Jan-19 05:31N 01°13' E 103°39'1518441.2
2018-Jan-19 05:30N 01°14' E 103°55'776927968667.5
2018-Jan-19 05:30N 49°17' W 123°08'1760287977.5
2018-Jan-19 05:30N 29°33' W 095°02'826629756496.7
2018-Jan-19 05:30S 38°20' E 144°45'33242393541.7
2018-Jan-19 05:30N 01°15' E 103°52'5037788327.5
2018-Jan-19 05:30N 37°55' E 023°42'50369063995.3
2018-Jan-19 05:30N 01°15' E 103°50'50391133753.3
2018-Jan-19 05:29N 37°56' E 023°39'69181383571.4
2018-Jan-19 05:29N 37°47' W 122°23'68704946426.7
2018-Jan-19 05:29N 46°50' E 031°57'4798863706.0
2018-Jan-19 05:29N 01°15' E 103°55'44882692966.3
2018-Jan-19 05:28N 44°44' E 037°47'0 1.7
2018-Jan-19 05:28N 44°44' E 037°47'17692123157.9
2018-Jan-19 05:28N 50°09' W 005°05'1483890021.9
2018-Jan-19 05:28N 46°56' E 031°57'48743509152.7
2018-Jan-19 05:28N 36°53' W 076°22'48771463018.3
2018-Jan-19 05:28N 46°50' E 031°57'6132788399.0
2018-Jan-19 05:27S 23°00' W 044°19'61301298092.0
2018-Jan-19 05:27N 46°46' E 031°57'47891915420.9
2018-Jan-19 05:27N 01°18' E 103°45'479081347.3
2018-Jan-19 05:23N 46°57' E 031°59'487512810.2
2018-Jan-19 05:01N 36°53' W 076°22'2181560781.9
2018-Jan-19 05:00N 49°17' W 123°08'76091956672.7
2018-Jan-19 05:00S 38°20' E 144°45'85831065468.9
2018-Jan-19 05:00N 37°55' E 023°42'654157043.3
2018-Jan-19 04:59N 46°57' E 031°59'6552356229.2
2018-Jan-19 04:59N 37°56' E 023°39'54516541591.7
2018-Jan-19 04:59S 23°00' W 044°19'49502970287.7
2018-Jan-19 04:59N 50°09' W 005°05'51202633138.0
2018-Jan-19 04:59N 37°47' W 122°23'68704122025.8
2018-Jan-19 04:59N 46°50' E 031°57'47951015452.9
2018-Jan-19 04:59N 01°15' E 103°50'44851345533.0
2018-Jan-19 04:58N 44°44' E 037°47'0 1.6
2018-Jan-19 04:58N 44°44' E 037°47'277199688.4
2018-Jan-19 04:58N 46°56' E 031°57'61278.1
2018-Jan-19 04:58N 46°50' E 031°57'3273.4
2018-Jan-19 04:57N 46°46' E 031°57'47882154822.9
2018-Jan-19 04:57N 01°17' E 103°45'56011120232.4
2018-Jan-19 04:57N 63°13' E 021°09'451549709.8
2018-Jan-19 04:51N 32°13' W 080°47'751540759.3
2018-Jan-19 04:51N 29°33' W 095°02'10352998.1
2018-Jan-19 04:30N 36°53' W 076°22'40753667830.6
2018-Jan-19 04:30N 63°13' E 021°09'1166199909.7
2018-Jan-19 04:30N 50°09' W 005°05'1443247308.1
2018-Jan-19 04:30N 37°55' E 023°42'3675.2
2018-Jan-19 04:29N 37°56' E 023°39'54519812371.6
2018-Jan-19 04:29S 23°00' W 044°19'61321298586.4
2018-Jan-19 04:29N 46°50' E 031°57'622211199129.0
2018-Jan-19 04:29N 49°17' W 123°08'777427985559.6
2018-Jan-19 04:29N 01°17' E 103°46'78793545579.6
2018-Jan-19 04:29N 37°47' W 122°23'72371860867.2
2018-Jan-19 04:29N 44°44' E 037°47'0 1.3
2018-Jan-19 04:28N 44°44' E 037°47'277166409.2
2018-Jan-19 04:28N 46°56' E 031°57'61437.9
2018-Jan-19 04:28N 46°50' E 031°57'84655079247.4
2018-Jan-19 04:28S 38°20' E 144°45'8266725768.2
2018-Jan-19 04:27N 29°33' W 095°02'94741065778.1
2018-Jan-19 04:27N 01°15' E 103°50'479452780.9
2018-Jan-19 04:21N 46°46' E 031°57'10836.2
2018-Jan-19 04:20N 46°57' E 031°59'479639783.3
2018-Jan-19 04:13N 01°16' E 103°50'942.2
2018-Jan-19 04:00N 01°10' E 103°44'778228014635.0
2018-Jan-19 04:00N 49°17' W 123°08'21811308491.1
2018-Jan-19 04:00N 36°53' W 076°22'3202720473.0
2018-Jan-19 04:00N 50°09' W 005°05'14871784042.3
2018-Jan-19 04:00N 46°46' E 031°57'607821882010.6
2018-Jan-19 04:00N 29°33' W 095°02'94694869937.6
2018-Jan-19 04:00N 01°16' E 103°55'5039954672.4
2018-Jan-19 04:00N 37°55' E 023°42'50396046711.9
2018-Jan-19 04:00N 01°14' E 103°53'47991329082.1
2018-Jan-19 03:59N 46°57' E 031°59'6551178119.1
2018-Jan-19 03:59N 37°56' E 023°39'54516541586.4
2018-Jan-19 03:59S 23°00' W 044°19'98002520020.3
2018-Jan-19 03:59S 38°20' E 144°45'84657618630.4
2018-Jan-19 03:59N 46°50' E 031°57'27534091.0
2018-Jan-19 03:58N 44°44' E 037°47'0 1.9
2018-Jan-19 03:58N 44°44' E 037°47'277110939.5
2018-Jan-19 03:58N 46°56' E 031°57'61436.5
2018-Jan-19 03:58N 46°50' E 031°57'4532418369.0
2018-Jan-19 03:57N 41°18' W 072°54'10171871799.0
2018-Jan-19 03:56N 01°16' E 103°53'7874726787.5
2018-Jan-19 03:56N 37°47' W 122°23'756.4
2018-Jan-19 03:49N 37°52' W 122°29'788125745.3
2018-Jan-19 03:30N 01°12' E 103°41'560410086906.8
2018-Jan-19 03:30N 63°13' E 021°09'40752934271.3
2018-Jan-19 03:30N 36°53' W 076°22'309556706.7
2018-Jan-19 03:30N 41°17' W 072°55'42135055680.7
2018-Jan-19 03:30S 23°00' W 044°19'5453467400.1
2018-Jan-19 03:30N 37°55' E 023°42'64173300382.2
2018-Jan-19 03:29N 49°17' W 123°08'62163196809.0
2018-Jan-19 03:29N 46°57' E 031°59'6552356238.2
2018-Jan-19 03:29N 37°56' E 023°39'1439345462.6
2018-Jan-19 03:29N 50°09' W 005°05'1486668561.5
2018-Jan-19 03:29N 46°50' E 031°57'68704122028.4
2018-Jan-19 03:29N 37°47' W 122°23'787428346330.2
2018-Jan-19 03:29N 01°14' E 103°54'33211992859.9
2018-Jan-19 03:29S 38°20' E 144°45'81183247072.3
2018-Jan-19 03:29N 44°44' E 037°47'0 1.6
2018-Jan-19 03:28N 44°44' E 037°47'277110939.2
2018-Jan-19 03:28N 46°56' E 031°57'61278.1
2018-Jan-19 03:28N 46°50' E 031°57'62621252388.6
2018-Jan-19 03:28S 23°57' W 046°18'21385.0
2018-Jan-19 03:27S 23°59' W 046°17'4342710493.1
2018-Jan-19 03:27N 29°33' W 095°02'6078121566.8
2018-Jan-19 03:24N 46°46' E 031°57'487812437.8
2018-Jan-19 03:01N 36°53' W 076°22'1044012527822.4
2018-Jan-19 03:00N 01°15' E 103°50'116549.6
2018-Jan-19 03:00N 01°13' E 103°40'1016212194478.0
2018-Jan-19 03:00N 41°12' W 072°52'21797842988.9
2018-Jan-19 03:00N 49°17' W 123°08'45801177822.1
2018-Jan-19 03:00N 50°09' W 005°05'43247782639.5
2018-Jan-19 03:00N 29°33' W 095°02'5946792783.4
2018-Jan-19 03:00N 37°55' E 023°42'3675.2
2018-Jan-19 02:59N 37°56' E 023°39'54513270793.2
2018-Jan-19 02:59S 23°00' W 044°19'61321576856.0
2018-Jan-19 02:59N 46°50' E 031°57'68702248379.1
2018-Jan-19 02:59N 37°47' W 122°23'72372171010.4
2018-Jan-19 02:59N 44°44' E 037°47'0 1.0
2018-Jan-19 02:58N 44°44' E 037°47'277142636.5
2018-Jan-19 02:58N 46°56' E 031°57'61437.9
2018-Jan-19 02:58N 46°50' E 031°57'84655079285.5
2018-Jan-19 02:58S 38°20' E 144°45'8464781261.4
2018-Jan-19 02:57N 46°46' E 031°57'62612817230.1
2018-Jan-19 02:57S 23°59' W 046°17'21381.8
2018-Jan-19 02:57S 23°57' W 046°18'6268752108.0
2018-Jan-19 02:56N 46°57' E 031°59'4791169092.2
2018-Jan-19 02:55N 01°17' E 103°46'12322.4
2018-Jan-19 02:52N 01°15' E 103°58'1044728686.2
2018-Jan-19 02:31N 36°53' W 076°22'406614636526.4
2018-Jan-19 02:31S 23°57' W 046°18'123222222.6
2018-Jan-19 02:30S 23°00' W 044°19'632622774664.8
2018-Jan-19 02:30N 49°17' W 123°08'488217576540.3
2018-Jan-19 02:30N 63°13' E 021°09'560720183857.5
2018-Jan-19 02:30N 01°15' E 103°50'896032256146.5
2018-Jan-19 02:30S 23°59' W 046°17'62611073230.7
2018-Jan-19 02:30N 46°46' E 031°57'14872676081.7
2018-Jan-19 02:30N 50°09' W 005°05'103999359023.2
2018-Jan-19 02:30S 38°20' E 144°45'85831343417.8
2018-Jan-19 02:30N 37°55' E 023°42'50411296262.2
2018-Jan-19 02:29N 01°15' E 103°56'480117284002.1
2018-Jan-19 02:29N 46°57' E 031°59'6551178115.0
2018-Jan-19 02:29N 37°56' E 023°39'648111124.0
2018-Jan-19 02:29N 46°50' E 031°57'68703533167.2
2018-Jan-19 02:29N 37°47' W 122°23'72371532477.9
2018-Jan-19 02:29N 44°44' E 037°47'0 1.0
2018-Jan-19 02:28N 44°44' E 037°47'44923233954.7
2018-Jan-19 02:28N 01°17' E 104°01'480417293998.1
2018-Jan-19 02:28N 46°56' E 031°57'61437.9
2018-Jan-19 02:28N 46°50' E 031°57'607737204.1
2018-Jan-19 02:18N 29°33' W 095°02'9458103175.5
2018-Jan-19 02:13N 01°18' E 104°06'897744823.6
2018-Jan-19 02:01S 23°57' W 046°18'406614636546.0
2018-Jan-19 02:00N 36°53' W 076°22'2180341240.7
2018-Jan-19 02:00N 49°17' W 123°07'488117570489.8
2018-Jan-19 02:00N 63°13' E 021°09'10543795546.0
2018-Jan-19 02:00N 46°46' E 031°56'607821881944.4
2018-Jan-19 02:00N 29°33' W 095°02'94604865306.6
2018-Jan-19 02:00N 01°18' E 104°03'33181086041.3
2018-Jan-19 02:00S 38°20' E 144°45'85833089859.8
2018-Jan-19 02:00N 37°55' E 023°42'50281508283.6
2018-Jan-19 01:59N 01°13' E 103°39'47904310728.5
2018-Jan-19 01:59N 46°57' E 031°59'6551178123.6
2018-Jan-19 01:59N 37°56' E 023°39'5049908793.4
2018-Jan-19 01:59N 01°18' E 104°04'480317292249.5
2018-Jan-19 01:59N 46°50' E 031°57'47952157832.3
2018-Jan-19 01:59N 01°15' E 103°50'787614176917.8
2018-Jan-19 01:59N 37°47' W 122°23'72371736806.9
2018-Jan-19 01:59N 44°44' E 037°47'0 1.3
2018-Jan-19 01:58N 44°44' E 037°47'277110938.0
2018-Jan-19 01:58N 46°56' E 031°57'626722559816.6
2018-Jan-19 01:58S 23°59' W 046°17'62631503026.8
2018-Jan-19 01:58N 46°50' E 031°57'6132580926.4
2018-Jan-19 01:57S 23°00' W 044°19'49501113858.5
2018-Jan-19 01:57N 50°09' W 005°05'505711486.3
2018-Jan-19 01:31S 23°57' W 046°18'64717765437.9
2018-Jan-19 01:30N 63°13' E 021°09'64727766841.3
2018-Jan-19 01:30S 23°59' W 046°17'89625377366.6
2018-Jan-19 01:30N 01°13' E 103°54'65833949701.5
2018-Jan-19 01:30N 50°09' W 005°05'320211527610.6
2018-Jan-19 01:30N 36°53' W 076°22'21801962174.3
2018-Jan-19 01:30N 49°17' W 123°07'76111957010.7
2018-Jan-19 01:30S 38°20' E 144°45'85831716589.4
2018-Jan-19 01:30N 37°55' E 023°42'3637.6
2018-Jan-19 01:29N 37°56' E 023°39'50461651270.8
2018-Jan-19 01:29N 01°17' E 103°60'48012880434.8
2018-Jan-19 01:29N 46°50' E 031°57'68702248379.1
2018-Jan-19 01:29N 37°47' W 122°23'72371132701.1
2018-Jan-19 01:28N 44°44' E 037°47'0 1.8
2018-Jan-19 01:28N 44°44' E 037°47'277110939.5
2018-Jan-19 01:28N 46°56' E 031°57'61437.8
2018-Jan-19 01:28N 46°50' E 031°57'7286.5
2018-Jan-19 01:26N 46°57' E 031°59'6075156215.1
2018-Jan-19 01:24N 29°33' W 095°02'6078383903.8
2018-Jan-19 01:23N 46°46' E 031°57'479967230.2
2018-Jan-19 01:19N 01°18' E 104°00'622.9
2018-Jan-19 01:02N 01°17' E 104°07'8977363096.0
2018-Jan-19 01:00S 23°59' W 046°17'896216131441.0
2018-Jan-19 01:00N 01°13' E 103°53'1451126.5
2018-Jan-19 01:00N 01°17' E 104°07'1045418816538.3
2018-Jan-19 01:00N 36°53' W 076°22'21802616328.1
2018-Jan-19 01:00N 49°18' W 123°07'62871331421.7
2018-Jan-19 01:00S 23°57' W 046°18'5582837342.6
2018-Jan-19 01:00N 37°55' E 023°42'50421512687.1
2018-Jan-19 00:59N 01°18' E 104°00'48024321446.3
2018-Jan-19 00:59N 46°57' E 031°59'71092.5
2018-Jan-19 00:59N 46°50' E 031°57'27534090.5
2018-Jan-19 00:58N 44°44' E 037°47'72375210424.9
2018-Jan-19 00:58N 37°47' W 122°23'68651300706.3
2018-Jan-19 00:58N 46°56' E 031°57'61917.1
2018-Jan-19 00:58N 46°50' E 031°57'6077437520.6
2018-Jan-19 00:57N 29°33' W 095°02'82663306278.4
2018-Jan-19 00:57S 38°20' E 144°45'103994159577.1
2018-Jan-19 00:57N 50°10' W 005°05'1439191927.1
2018-Jan-19 00:56N 37°56' E 023°39'50431008546.1
2018-Jan-19 00:56N 01°14' E 103°54'4489323193.3
2018-Jan-19 00:55N 44°44' E 037°47'631821296.8
2018-Jan-19 00:37S 23°00' W 044°19'0 0.1
2018-Jan-19 00:31S 23°00' W 044°19'406914647269.3
2018-Jan-19 00:31N 36°53' W 076°22'21802615887.0
2018-Jan-19 00:30N 49°18' W 123°07'62907547569.2
2018-Jan-19 00:30S 23°59' W 046°17'896016128066.8
2018-Jan-19 00:30N 01°15' E 103°50'89612688422.8
2018-Jan-19 00:30S 23°57' W 046°18'43401735821.0
2018-Jan-19 00:30N 29°33' W 095°02'82662975649.7
2018-Jan-19 00:30S 38°20' E 144°45'85831931162.4
2018-Jan-19 00:30N 37°55' E 023°42'1521497811.4
2018-Jan-19 00:29N 63°13' E 021°09'1045940119.6
2018-Jan-19 00:29N 46°57' E 031°59'71142.2
2018-Jan-19 00:29N 46°50' E 031°57'14861337123.3
2018-Jan-19 00:29N 50°09' W 005°05'1769219637.4
2018-Jan-19 00:28N 44°44' E 037°47'72375210424.9
2018-Jan-19 00:28N 37°47' W 122°23'72372894678.4
2018-Jan-19 00:28N 44°44' E 037°47'277166407.0
2018-Jan-19 00:28N 46°56' E 031°57'61533.8
2018-Jan-19 00:28N 46°50' E 031°57'64825087.7
2018-Jan-19 00:26N 37°56' E 023°39'641314866.8
2018-Jan-19 00:00N 49°17' W 123°08'21811962740.0
2018-Jan-19 00:00N 36°53' W 076°22'140121681412.4
2018-Jan-19 00:00S 38°20' E 144°45'94643407031.0
2018-Jan-19 00:00N 63°13' E 021°09'1521912654.3
2018-Jan-19 00:00N 37°55' E 023°42'50414536586.5
2018-Jan-19 00:00N 01°16' E 103°57'89676456250.8
2018-Jan-18 23:59S 23°59' W 046°17'55812511502.8
2018-Jan-18 23:59N 37°56' E 023°39'645193585.1
2018-Jan-18 23:59N 46°46' E 031°57'31790.2
2018-Jan-18 23:59N 46°50' E 031°57'14861337123.3
2018-Jan-18 23:59N 50°09' W 005°05'65791246485.0
2018-Jan-18 23:59N 01°15' E 103°50'44854036604.2
2018-Jan-18 23:59N 44°44' E 037°47'645011610613.6
2018-Jan-18 23:58S 23°57' W 046°18'58522340983.5
2018-Jan-18 23:58N 37°47' W 122°23'72372171008.8
2018-Jan-18 23:58N 44°44' E 037°47'631811372526.9
2018-Jan-18 23:58S 23°00' W 044°19'613622089702.8
2018-Jan-18 23:58N 46°56' E 031°57'61533.7
2018-Jan-18 23:58N 46°50' E 031°57'7277.3
2018-Jan-18 23:56N 46°57' E 031°59'6075159635.6
2018-Jan-18 23:54N 29°33' W 095°02'9469160036.8
2018-Jan-18 23:50N 01°17' E 103°55'1044331381.4
2018-Jan-18 23:31N 36°53' W 076°22'1043518782721.6
2018-Jan-18 23:30N 01°11' E 103°41'1730563.1
2018-Jan-18 23:30N 01°16' E 103°58'56116733275.3
2018-Jan-18 23:30N 63°13' E 021°09'64711664022.4
2018-Jan-18 23:30S 23°57' W 046°18'62871508964.5
2018-Jan-18 23:30N 49°17' W 123°08'629022643405.5
2018-Jan-18 23:30S 23°59' W 046°17'12322207.1
2018-Jan-18 23:30S 23°00' W 044°19'49502545955.0
2018-Jan-18 23:29N 50°09' W 005°04'1484763423.7
2018-Jan-18 23:29N 46°57' E 031°59'655785412.7
2018-Jan-18 23:29N 37°56' E 023°39'645193580.7
2018-Jan-18 23:29N 46°46' E 031°57'32515.4
2018-Jan-18 23:29N 46°50' E 031°57'27532954.2
2018-Jan-18 23:29N 44°44' E 037°47'72372894680.5
2018-Jan-18 23:28N 37°47' W 122°23'72372605210.6
2018-Jan-18 23:28N 44°44' E 037°47'277199691.0
2018-Jan-18 23:28N 46°56' E 031°57'61533.7
2018-Jan-18 23:28N 46°50' E 031°57'8465483737.8
2018-Jan-18 23:27S 38°20' E 144°45'826685753.6
2018-Jan-18 23:21N 29°33' W 095°02'946433667.6
2018-Jan-18 23:04N 01°16' E 103°60'6224114321.4
2018-Jan-18 23:01N 41°11' E 001°17'1510187503.4
2018-Jan-18 23:00N 63°13' E 021°09'64722912565.5
2018-Jan-18 23:00S 23°59' W 046°17'21658.2
2018-Jan-18 23:00S 23°57' W 046°18'62873233497.9
2018-Jan-18 23:00N 49°17' W 123°08'17602111840.4
2018-Jan-18 23:00N 29°33' W 095°02'10351863319.5
2018-Jan-18 23:00N 36°53' W 076°22'32022881893.1
2018-Jan-18 23:00N 50°09' W 005°05'1484148445.4
2018-Jan-18 22:59N 46°57' E 031°59'6551178110.5
2018-Jan-18 22:59N 37°56' E 023°39'50324528351.0
2018-Jan-18 22:59N 01°12' E 103°39'219237.1
2018-Jan-18 22:59N 01°16' E 103°60'480117282684.7
2018-Jan-18 22:59N 46°46' E 031°57'32506.3
2018-Jan-18 22:59N 46°50' E 031°57'27541192.7
2018-Jan-18 22:59N 44°44' E 037°47'0 0.9
2018-Jan-18 22:58N 44°44' E 037°47'277142634.6
2018-Jan-18 22:58N 46°56' E 031°57'61643.3
2018-Jan-18 22:58N 46°50' E 031°57'84653809389.0
2018-Jan-18 22:58S 38°20' E 144°44'98001306649.2
2018-Jan-18 22:57S 23°00' W 044°19'5453456530.3
2018-Jan-18 22:57N 37°55' E 023°42'6922346092.8
2018-Jan-18 22:55N 37°47' W 122°23'21975307.2
2018-Jan-18 22:31N 36°53' W 076°22'40667318273.0
2018-Jan-18 22:30S 23°57' W 046°18'89505369934.1
2018-Jan-18 22:30N 01°14' E 103°39'2517979.9
2018-Jan-18 22:30N 01°18' E 104°04'561310103640.3
2018-Jan-18 22:30N 63°13' E 021°09'56122525398.5
2018-Jan-18 22:30N 01°16' E 103°60'77639315717.8
2018-Jan-18 22:30N 49°17' W 123°08'62902264342.3
2018-Jan-18 22:30S 23°59' W 046°17'50581517527.9
2018-Jan-18 22:30N 50°09' W 005°05'1443577053.7
2018-Jan-18 22:30N 37°55' E 023°42'3717.4
2018-Jan-18 22:29N 37°56' E 023°39'645178693.2
2018-Jan-18 22:29N 46°46' E 031°57'33133.2
2018-Jan-18 22:29N 46°50' E 031°57'27535308.1
2018-Jan-18 22:29N 44°44' E 037°47'72372004008.0
2018-Jan-18 22:28N 37°47' W 122°23'72371860862.0
2018-Jan-18 22:28N 44°44' E 037°47'277998442.0
2018-Jan-18 22:28N 46°56' E 031°57'61643.3
2018-Jan-18 22:28N 46°50' E 031°57'6077446449.2
2018-Jan-18 22:27N 29°33' W 095°02'82661859781.0
2018-Jan-18 22:27S 38°20' E 144°45'84671128972.1
2018-Jan-18 22:26N 46°57' E 031°59'137112785.5
2018-Jan-18 22:20N 41°05' E 001°17'15164677.0
2018-Jan-18 22:00N 63°13' E 021°09'647211650271.9
2018-Jan-18 22:00S 23°59' W 046°17'22077.5
2018-Jan-18 22:00S 23°57' W 046°18'40661463654.6
2018-Jan-18 22:00N 36°53' W 076°22'21811570189.0
2018-Jan-18 22:00N 49°17' W 123°08'17602111830.7
2018-Jan-18 22:00N 29°33' W 095°02'6075520716.5
2018-Jan-18 21:59N 46°57' E 031°59'6551178115.0
2018-Jan-18 21:59N 37°56' E 023°39'50493029377.8
2018-Jan-18 21:59N 01°17' E 104°04'48041441100.4
2018-Jan-18 21:59N 46°50' E 031°57'1486297138.1
2018-Jan-18 21:59N 50°10' W 005°05'1769636947.7
2018-Jan-18 21:59N 44°44' E 037°47'72373721732.1
2018-Jan-18 21:58N 37°47' W 122°23'72371736807.1
2018-Jan-18 21:58N 44°44' E 037°47'277199691.0
2018-Jan-18 21:58N 46°56' E 031°57'61643.3
2018-Jan-18 21:58N 46°50' E 031°57'8465454858.0
2018-Jan-18 21:57S 38°20' E 144°45'85833089859.8
2018-Jan-18 21:57N 37°55' E 023°42'64511111.7
2018-Jan-18 21:53N 46°46' E 031°57'136640629.9
2018-Jan-18 21:51N 41°04' E 001°21'996046566.9
2018-Jan-18 21:38S 27°52' E 153°23'10715123244.9
2018-Jan-18 21:33S 23°00' W 044°19'1232942.5
2018-Jan-18 21:31S 23°56' W 046°19'406514635101.0
2018-Jan-18 21:30N 36°53' W 076°22'36532630041.8
2018-Jan-18 21:30N 41°01' E 001°45'620222326712.8
2018-Jan-18 21:30N 01°18' E 104°04'77583491264.9
2018-Jan-18 21:30N 49°17' W 123°08'63267591550.5
2018-Jan-18 21:30S 23°00' W 044°19'43791433168.2
2018-Jan-18 21:30N 29°33' W 095°02'4342601187.1
2018-Jan-18 21:30S 23°59' W 046°17'62681410353.4
2018-Jan-18 21:29N 46°57' E 031°59'6551178114.6
2018-Jan-18 21:29N 37°56' E 023°39'870131323952.6
2018-Jan-18 21:29S 27°52' E 153°23'84691905558.1
2018-Jan-18 21:29N 46°50' E 031°57'1486297137.7
2018-Jan-18 21:29N 50°10' W 005°05'1769374676.0
2018-Jan-18 21:28N 44°44' E 037°47'72375210428.1
2018-Jan-18 21:28N 37°47' W 122°23'72373256513.2
2018-Jan-18 21:28N 44°44' E 037°47'277166413.0
2018-Jan-18 21:28N 46°56' E 031°57'48018641492.3
2018-Jan-18 21:28N 01°16' E 103°56'47991328910.0
2018-Jan-18 21:28N 46°50' E 031°57'8465454858.2
2018-Jan-18 21:27S 38°20' E 144°45'846452714.5
2018-Jan-18 21:17N 46°46' E 031°57'487817632.8
2018-Jan-18 21:01N 36°53' W 076°22'4067975985.2
2018-Jan-18 21:00S 23°58' W 046°18'628822637761.9
2018-Jan-18 21:00N 49°17' W 123°08'48828788276.1
2018-Jan-18 21:00N 63°13' E 021°09'56103365858.0
2018-Jan-18 21:00N 01°19' E 104°00'94638516437.1
2018-Jan-18 21:00N 29°33' W 095°02'5946792783.4
2018-Jan-18 21:00N 37°55' E 023°42'3637.6
2018-Jan-18 20:59N 37°56' E 023°39'648155572.5
2018-Jan-18 20:59N 46°50' E 031°57'27529077.3
2018-Jan-18 20:58N 44°44' E 037°47'72373721731.7
2018-Jan-18 20:58N 37°47' W 122°23'72372171005.7
2018-Jan-18 20:58N 44°44' E 037°47'277249616.2
2018-Jan-18 20:58N 46°56' E 031°57'62302.7
2018-Jan-18 20:58N 46°50' E 031°57'84652344268.0
2018-Jan-18 20:58S 38°20' E 144°45'8467371734.7
2018-Jan-18 20:56N 46°57' E 031°59'84706098459.1
2018-Jan-18 20:56S 27°52' E 153°23'84683387275.7
2018-Jan-18 20:56N 46°46' E 031°57'16044856.9
2018-Jan-18 20:36N 43°33' W 005°42'657868243.7
2018-Jan-18 20:31N 01°14' E 103°41'1043237556537.1
2018-Jan-18 20:30N 36°53' W 076°22'40751047952.5
2018-Jan-18 20:30N 63°13' E 021°09'48821597867.3
2018-Jan-18 20:30N 49°17' W 123°08'62872829119.0
2018-Jan-18 20:30S 23°56' W 046°19'98502954951.0
2018-Jan-18 20:30S 38°20' E 144°45'85833089859.8
2018-Jan-18 20:30N 37°55' E 023°42'654157042.1
2018-Jan-18 20:29N 46°57' E 031°59'6551178110.5
2018-Jan-18 20:29N 37°56' E 023°39'54514906197.6
2018-Jan-18 20:29S 23°00' W 044°19'61303677935.6
2018-Jan-18 20:29N 46°46' E 031°57'27324609.0
2018-Jan-18 20:28N 44°44' E 037°47'1873749365.9
2018-Jan-18 20:28N 43°33' W 005°42'18731686068.2
2018-Jan-18 20:28N 44°44' E 037°47'27799847.8
2018-Jan-18 20:28N 46°56' E 031°57'61771.3
2018-Jan-18 20:28N 46°50' E 031°57'6077455750.2
2018-Jan-18 20:27N 29°33' W 095°02'6077347252.9
2018-Jan-18 20:26N 46°50' E 031°57'6870668436.0
2018-Jan-18 20:25N 37°47' W 122°23'6393178408.3
2018-Jan-18 20:23S 27°52' E 153°23'1043755662.6
2018-Jan-18 20:12N 50°10' W 005°05'312650013.7
2018-Jan-18 20:08N 38°58' W 076°29'1040179159.0
2018-Jan-18 20:00N 01°12' E 103°39'1043237553509.2
2018-Jan-18 20:00N 36°53' W 076°22'21811308491.1
2018-Jan-18 20:00N 49°17' W 123°08'1760487346.5
2018-Jan-18 20:00N 29°33' W 095°02'94592270140.5
2018-Jan-18 20:00N 01°18' E 104°04'331811946289.5
2018-Jan-18 20:00S 38°20' E 144°45'85832808963.4
2018-Jan-18 20:00N 37°55' E 023°42'3765.2
2018-Jan-18 19:59N 37°56' E 023°39'47062823308.2
2018-Jan-18 19:59N 38°58' W 076°29'47912874712.4
2018-Jan-18 19:59N 46°46' E 031°57'32510.3
2018-Jan-18 19:59N 46°50' E 031°57'1486356564.7
2018-Jan-18 19:59N 50°10' W 005°05'1769289521.7
2018-Jan-18 19:58N 44°44' E 037°47'64502322138.9
2018-Jan-18 19:58S 23°56' W 046°19'645011610700.4
2018-Jan-18 19:58N 44°44' E 037°47'277124808.1
2018-Jan-18 19:58N 46°56' E 031°57'61769.7
2018-Jan-18 19:58N 46°50' E 031°57'6132356052.2
2018-Jan-18 19:57S 23°00' W 044°19'4598591206.6
2018-Jan-18 19:56N 43°33' W 005°42'103815338682.2
2018-Jan-18 19:56S 27°52' E 153°23'6393460292.9
2018-Jan-18 19:55N 37°47' W 122°23'536471514.6
2018-Jan-18 19:51N 28°04' W 016°31'30759036.0
2018-Jan-18 19:31N 36°53' W 076°22'1045318816157.0
2018-Jan-18 19:30N 01°17' E 104°07'716512896268.9
2018-Jan-18 19:30N 28°24' W 016°12'51539275296.7
2018-Jan-18 19:30N 49°17' W 123°08'1760287977.5
2018-Jan-18 19:30N 29°33' W 095°02'94868537611.3
2018-Jan-18 19:30N 01°13' E 103°38'5027754015.7
2018-Jan-18 19:30N 37°55' E 023°42'654157043.3
2018-Jan-18 19:29N 46°57' E 031°59'6551178114.6
2018-Jan-18 19:29N 37°56' E 023°39'55816696755.2
2018-Jan-18 19:29S 23°56' W 046°19'124111220.3
2018-Jan-18 19:29S 23°00' W 044°19'61323679336.6
2018-Jan-18 19:29N 46°50' E 031°57'84651523726.2
2018-Jan-18 19:29S 38°20' E 144°45'1039918718048.0
2018-Jan-18 19:29N 50°10' W 005°05'1769707721.5
2018-Jan-18 19:29N 44°44' E 037°47'72372171011.7
2018-Jan-18 19:28N 37°47' W 122°23'68651647559.1
2018-Jan-18 19:28N 46°56' E 031°57'277998478.1
2018-Jan-18 19:28N 44°44' E 037°47'27582446.0
2018-Jan-18 19:28N 46°50' E 031°57'4789174159.1
2018-Jan-18 19:26N 38°58' W 076°29'320688102.5
2018-Jan-18 19:24N 43°34' W 005°40'10379762560.3
2018-Jan-18 19:23S 27°52' E 153°23'1427098790.7
2018-Jan-18 19:15N 36°55' W 076°10'10429110424.6
2018-Jan-18 19:09N 01°15' E 103°50'1044074718.7
2018-Jan-18 19:01N 36°53' W 076°22'30842775615.7
2018-Jan-18 19:00N 28°24' W 016°09'1046941087.6
2018-Jan-18 19:00N 43°35' W 005°35'4873923390.4
2018-Jan-18 19:00N 49°17' W 123°08'17602111840.4
2018-Jan-18 19:00N 29°33' W 095°02'5946823275.6
2018-Jan-18 19:00N 37°55' E 023°42'50373022260.0
2018-Jan-18 18:59N 01°15' E 103°52'47981727129.0
2018-Jan-18 18:59N 46°57' E 031°59'6551178110.5
2018-Jan-18 18:59N 37°56' E 023°39'870110441325.4
2018-Jan-18 18:59S 27°52' E 153°23'84692177782.1
2018-Jan-18 18:59N 46°50' E 031°57'84651792620.6
2018-Jan-18 18:59S 38°20' E 144°45'81182435308.0
2018-Jan-18 18:59N 44°44' E 037°47'72372605212.4
2018-Jan-18 18:58N 37°47' W 122°23'72372368375.0
2018-Jan-18 18:58N 44°44' E 037°47'631811372513.0
2018-Jan-18 18:58S 23°00' W 044°19'61365522421.1
2018-Jan-18 18:58N 46°56' E 031°57'61917.0
2018-Jan-18 18:58N 46°50' E 031°57'62621326065.3
2018-Jan-18 18:58S 23°56' W 046°19'4179185738.6
2018-Jan-18 18:56N 38°58' W 076°29'312611185.9
2018-Jan-18 18:39N 50°10' W 005°05'14089352.4
2018-Jan-18 18:30N 28°21' W 016°15'51539275140.6
2018-Jan-18 18:30N 49°17' W 123°08'21812616982.3
2018-Jan-18 18:30N 36°53' W 076°22'320211527570.4
2018-Jan-18 18:30N 50°10' W 005°05'39438349.6
2018-Jan-18 18:30N 43°36' W 005°46'1382497531.9
2018-Jan-18 18:30N 37°55' E 023°42'3766.2
2018-Jan-18 18:29N 37°56' E 023°39'870110441323.9
2018-Jan-18 18:29S 27°52' E 153°23'84692345301.6
2018-Jan-18 18:29N 46°50' E 031°57'1055115066.9
2018-Jan-18 18:28N 63°12' E 020°47'12601512391.2
2018-Jan-18 18:28N 44°44' E 037°47'723713026062.2